<?xml version="1.0" encoding="UTF-8" standalone="no" ?>
<gpx xmlns="http://www.topografix.com/GPX/1/1" xmlns:xsi="http://www.w3.org/2001/XMLSchema-instance" xsi:schemaLocation="http://www.topografix.com/GPX/1/1 http://www.topografix.com/GPX/1/1/gpx.xsd" version="1.1" creator="VisuGPX - https://www.visugpx.com">
  <metadata>
    <name>J3 De la ferme des Cavaliers à la Palud sur Verdon</name>
    <desc><![CDATA[De la ferme des cavaliers, par la route rive gauche, nous passerons sur le Pont de l'Artuby, Trigance, Soleils puis à partir du pont du même nom nous passerons sur la rive droite du Verdon.
Le point Sublime déserté, puis la route de crêtes avant d'arriver à la Palud sur Verdon.
Pourquoi ce deuxième jour à la Palud, nous devions faire une étape à Moustier Ste Marie le J1, faute d'avoir trouvé un hébergement nous sommes revenus à la palud. 
Merci au Gite l'Arc en ciel qui à bien voulu ouvrir rien que pour nous.
Quel contraste avec l'été, toutes les boutiques sont fermées à la Palud, merci au gite qui nous à préparé notre pique nique.  ]]></desc>
  </metadata>
  <trk>
    <name><![CDATA[2025-11-14 Les Cavaliers Pont Sur Artuby Trigance ...]]></name>
    <trkseg>
      <trkpt lat="43.72979" lon="6.35715">
        <ele>862.44</ele>
        <time>2025-11-14T07:34:45Z</time>
      </trkpt>
      <trkpt lat="43.72977" lon="6.35714">
        <ele>862.44</ele>
        <time>2025-11-14T07:35:09Z</time>
      </trkpt>
      <trkpt lat="43.72976" lon="6.35712">
        <ele>862.44</ele>
        <time>2025-11-14T07:35:26Z</time>
      </trkpt>
      <trkpt lat="43.72978" lon="6.35713">
        <ele>862.44</ele>
        <time>2025-11-14T07:35:48Z</time>
      </trkpt>
      <trkpt lat="43.72976" lon="6.35715">
        <ele>862.44</ele>
        <time>2025-11-14T07:36:17Z</time>
      </trkpt>
      <trkpt lat="43.72977" lon="6.35715">
        <ele>863.88</ele>
        <time>2025-11-14T07:36:23Z</time>
      </trkpt>
      <trkpt lat="43.72977" lon="6.35715">
        <ele>857.15</ele>
        <time>2025-11-14T07:36:28Z</time>
      </trkpt>
      <trkpt lat="43.72977" lon="6.35715">
        <ele>866.29</ele>
        <time>2025-11-14T07:36:29Z</time>
      </trkpt>
      <trkpt lat="43.72976" lon="6.35715">
        <ele>855.23</ele>
        <time>2025-11-14T07:36:33Z</time>
      </trkpt>
      <trkpt lat="43.72975" lon="6.35715">
        <ele>868.69</ele>
        <time>2025-11-14T07:36:34Z</time>
      </trkpt>
      <trkpt lat="43.72976" lon="6.35715">
        <ele>864.36</ele>
        <time>2025-11-14T07:36:35Z</time>
      </trkpt>
      <trkpt lat="43.72976" lon="6.35716">
        <ele>853.31</ele>
        <time>2025-11-14T07:36:50Z</time>
      </trkpt>
      <trkpt lat="43.72976" lon="6.35716">
        <ele>853.31</ele>
        <time>2025-11-14T07:36:51Z</time>
      </trkpt>
      <trkpt lat="43.72976" lon="6.35716">
        <ele>852.83</ele>
        <time>2025-11-14T07:37:18Z</time>
      </trkpt>
      <trkpt lat="43.72975" lon="6.35716">
        <ele>853.79</ele>
        <time>2025-11-14T07:37:28Z</time>
      </trkpt>
      <trkpt lat="43.72976" lon="6.35715">
        <ele>853.79</ele>
        <time>2025-11-14T07:37:50Z</time>
      </trkpt>
      <trkpt lat="43.72976" lon="6.35715">
        <ele>854.27</ele>
        <time>2025-11-14T07:38:16Z</time>
      </trkpt>
      <trkpt lat="43.72976" lon="6.35715">
        <ele>854.27</ele>
        <time>2025-11-14T07:38:39Z</time>
      </trkpt>
      <trkpt lat="43.72976" lon="6.35716">
        <ele>854.27</ele>
        <time>2025-11-14T07:39:09Z</time>
      </trkpt>
      <trkpt lat="43.72977" lon="6.35714">
        <ele>853.31</ele>
        <time>2025-11-14T07:39:36Z</time>
      </trkpt>
      <trkpt lat="43.72976" lon="6.35716">
        <ele>853.31</ele>
        <time>2025-11-14T07:40:02Z</time>
      </trkpt>
      <trkpt lat="43.72976" lon="6.35716">
        <ele>853.31</ele>
        <time>2025-11-14T07:40:25Z</time>
      </trkpt>
      <trkpt lat="43.72977" lon="6.35716">
        <ele>853.79</ele>
        <time>2025-11-14T07:40:35Z</time>
      </trkpt>
      <trkpt lat="43.72976" lon="6.35715">
        <ele>853.31</ele>
        <time>2025-11-14T07:40:56Z</time>
      </trkpt>
      <trkpt lat="43.72976" lon="6.35714">
        <ele>853.31</ele>
        <time>2025-11-14T07:41:23Z</time>
      </trkpt>
      <trkpt lat="43.72976" lon="6.35716">
        <ele>853.31</ele>
        <time>2025-11-14T07:41:43Z</time>
      </trkpt>
      <trkpt lat="43.72976" lon="6.35717">
        <ele>853.31</ele>
        <time>2025-11-14T07:42:10Z</time>
      </trkpt>
      <trkpt lat="43.72974" lon="6.35715">
        <ele>853.31</ele>
        <time>2025-11-14T07:42:33Z</time>
      </trkpt>
      <trkpt lat="43.72976" lon="6.35714">
        <ele>853.31</ele>
        <time>2025-11-14T07:42:56Z</time>
      </trkpt>
      <trkpt lat="43.72977" lon="6.35714">
        <ele>853.31</ele>
        <time>2025-11-14T07:43:11Z</time>
      </trkpt>
      <trkpt lat="43.72976" lon="6.35716">
        <ele>853.31</ele>
        <time>2025-11-14T07:43:31Z</time>
      </trkpt>
      <trkpt lat="43.72976" lon="6.35717">
        <ele>853.31</ele>
        <time>2025-11-14T07:43:52Z</time>
      </trkpt>
      <trkpt lat="43.72976" lon="6.35715">
        <ele>853.31</ele>
        <time>2025-11-14T07:44:01Z</time>
      </trkpt>
      <trkpt lat="43.72987" lon="6.35704">
        <ele>853.31</ele>
        <time>2025-11-14T07:44:12Z</time>
      </trkpt>
      <trkpt lat="43.72995" lon="6.3571">
        <ele>854.75</ele>
        <time>2025-11-14T07:44:17Z</time>
      </trkpt>
      <trkpt lat="43.73005" lon="6.35714">
        <ele>855.23</ele>
        <time>2025-11-14T07:44:23Z</time>
      </trkpt>
      <trkpt lat="43.7302" lon="6.35727">
        <ele>856.67</ele>
        <time>2025-11-14T07:44:34Z</time>
      </trkpt>
      <trkpt lat="43.73028" lon="6.35757">
        <ele>858.11</ele>
        <time>2025-11-14T07:44:47Z</time>
      </trkpt>
      <trkpt lat="43.73029" lon="6.35769">
        <ele>858.11</ele>
        <time>2025-11-14T07:44:52Z</time>
      </trkpt>
      <trkpt lat="43.73029" lon="6.35774">
        <ele>858.11</ele>
        <time>2025-11-14T07:44:54Z</time>
      </trkpt>
      <trkpt lat="43.73027" lon="6.35805">
        <ele>858.59</ele>
        <time>2025-11-14T07:45:05Z</time>
      </trkpt>
      <trkpt lat="43.73024" lon="6.35838">
        <ele>859.56</ele>
        <time>2025-11-14T07:45:17Z</time>
      </trkpt>
      <trkpt lat="43.73022" lon="6.35873">
        <ele>860.52</ele>
        <time>2025-11-14T07:45:29Z</time>
      </trkpt>
      <trkpt lat="43.73018" lon="6.35918">
        <ele>861.96</ele>
        <time>2025-11-14T07:45:44Z</time>
      </trkpt>
      <trkpt lat="43.73016" lon="6.35955">
        <ele>863.4</ele>
        <time>2025-11-14T07:45:56Z</time>
      </trkpt>
      <trkpt lat="43.73014" lon="6.35998">
        <ele>865.32</ele>
        <time>2025-11-14T07:46:10Z</time>
      </trkpt>
      <trkpt lat="43.73011" lon="6.36034">
        <ele>866.29</ele>
        <time>2025-11-14T07:46:21Z</time>
      </trkpt>
      <trkpt lat="43.72996" lon="6.36084">
        <ele>869.17</ele>
        <time>2025-11-14T07:46:37Z</time>
      </trkpt>
      <trkpt lat="43.7298" lon="6.36129">
        <ele>870.61</ele>
        <time>2025-11-14T07:46:51Z</time>
      </trkpt>
      <trkpt lat="43.72956" lon="6.36164">
        <ele>872.53</ele>
        <time>2025-11-14T07:47:05Z</time>
      </trkpt>
      <trkpt lat="43.72935" lon="6.36191">
        <ele>874.46</ele>
        <time>2025-11-14T07:47:17Z</time>
      </trkpt>
      <trkpt lat="43.72934" lon="6.36193">
        <ele>874.94</ele>
        <time>2025-11-14T07:47:25Z</time>
      </trkpt>
      <trkpt lat="43.72935" lon="6.36191">
        <ele>874.94</ele>
        <time>2025-11-14T07:47:49Z</time>
      </trkpt>
      <trkpt lat="43.72934" lon="6.36195">
        <ele>874.94</ele>
        <time>2025-11-14T07:48:13Z</time>
      </trkpt>
      <trkpt lat="43.72934" lon="6.36197">
        <ele>874.94</ele>
        <time>2025-11-14T07:48:43Z</time>
      </trkpt>
      <trkpt lat="43.72933" lon="6.36197">
        <ele>874.94</ele>
        <time>2025-11-14T07:49:02Z</time>
      </trkpt>
      <trkpt lat="43.72932" lon="6.36192">
        <ele>874.94</ele>
        <time>2025-11-14T07:49:18Z</time>
      </trkpt>
      <trkpt lat="43.72928" lon="6.36199">
        <ele>874.94</ele>
        <time>2025-11-14T07:49:28Z</time>
      </trkpt>
      <trkpt lat="43.729" lon="6.36237">
        <ele>877.82</ele>
        <time>2025-11-14T07:49:40Z</time>
      </trkpt>
      <trkpt lat="43.72882" lon="6.36262">
        <ele>879.74</ele>
        <time>2025-11-14T07:49:48Z</time>
      </trkpt>
      <trkpt lat="43.72843" lon="6.36315">
        <ele>882.15</ele>
        <time>2025-11-14T07:50:04Z</time>
      </trkpt>
      <trkpt lat="43.72814" lon="6.36354">
        <ele>885.03</ele>
        <time>2025-11-14T07:50:16Z</time>
      </trkpt>
      <trkpt lat="43.72783" lon="6.36398">
        <ele>887.43</ele>
        <time>2025-11-14T07:50:29Z</time>
      </trkpt>
      <trkpt lat="43.72753" lon="6.36445">
        <ele>889.36</ele>
        <time>2025-11-14T07:50:42Z</time>
      </trkpt>
      <trkpt lat="43.72751" lon="6.36489">
        <ele>891.76</ele>
        <time>2025-11-14T07:50:52Z</time>
      </trkpt>
      <trkpt lat="43.7277" lon="6.36505">
        <ele>892.72</ele>
        <time>2025-11-14T07:50:59Z</time>
      </trkpt>
      <trkpt lat="43.72795" lon="6.36493">
        <ele>894.16</ele>
        <time>2025-11-14T07:51:07Z</time>
      </trkpt>
      <trkpt lat="43.72839" lon="6.3646">
        <ele>896.57</ele>
        <time>2025-11-14T07:51:22Z</time>
      </trkpt>
      <trkpt lat="43.72883" lon="6.36457">
        <ele>899.45</ele>
        <time>2025-11-14T07:51:35Z</time>
      </trkpt>
      <trkpt lat="43.72931" lon="6.36455">
        <ele>902.33</ele>
        <time>2025-11-14T07:51:49Z</time>
      </trkpt>
      <trkpt lat="43.72987" lon="6.36446">
        <ele>905.7</ele>
        <time>2025-11-14T07:52:06Z</time>
      </trkpt>
      <trkpt lat="43.73038" lon="6.3644">
        <ele>908.1</ele>
        <time>2025-11-14T07:52:21Z</time>
      </trkpt>
      <trkpt lat="43.73075" lon="6.36432">
        <ele>912.91</ele>
        <time>2025-11-14T07:52:32Z</time>
      </trkpt>
      <trkpt lat="43.73123" lon="6.36417">
        <ele>912.91</ele>
        <time>2025-11-14T07:52:47Z</time>
      </trkpt>
      <trkpt lat="43.73172" lon="6.36401">
        <ele>916.27</ele>
        <time>2025-11-14T07:53:02Z</time>
      </trkpt>
      <trkpt lat="43.73206" lon="6.3639">
        <ele>917.72</ele>
        <time>2025-11-14T07:53:14Z</time>
      </trkpt>
      <trkpt lat="43.73251" lon="6.36377">
        <ele>920.12</ele>
        <time>2025-11-14T07:53:27Z</time>
      </trkpt>
      <trkpt lat="43.73297" lon="6.36367">
        <ele>922.52</ele>
        <time>2025-11-14T07:53:41Z</time>
      </trkpt>
      <trkpt lat="43.73344" lon="6.36361">
        <ele>924.93</ele>
        <time>2025-11-14T07:53:55Z</time>
      </trkpt>
      <trkpt lat="43.73384" lon="6.36357">
        <ele>927.81</ele>
        <time>2025-11-14T07:54:07Z</time>
      </trkpt>
      <trkpt lat="43.73427" lon="6.36356">
        <ele>930.21</ele>
        <time>2025-11-14T07:54:20Z</time>
      </trkpt>
      <trkpt lat="43.73451" lon="6.3635">
        <ele>932.62</ele>
        <time>2025-11-14T07:54:30Z</time>
      </trkpt>
      <trkpt lat="43.73453" lon="6.3635">
        <ele>932.62</ele>
        <time>2025-11-14T07:54:31Z</time>
      </trkpt>
      <trkpt lat="43.73477" lon="6.36352">
        <ele>933.1</ele>
        <time>2025-11-14T07:54:43Z</time>
      </trkpt>
      <trkpt lat="43.73486" lon="6.36357">
        <ele>933.58</ele>
        <time>2025-11-14T07:54:53Z</time>
      </trkpt>
      <trkpt lat="43.73487" lon="6.3636">
        <ele>933.58</ele>
        <time>2025-11-14T07:55:02Z</time>
      </trkpt>
      <trkpt lat="43.73488" lon="6.36362">
        <ele>933.58</ele>
        <time>2025-11-14T07:55:11Z</time>
      </trkpt>
      <trkpt lat="43.73488" lon="6.36361">
        <ele>933.58</ele>
        <time>2025-11-14T07:55:28Z</time>
      </trkpt>
      <trkpt lat="43.73489" lon="6.36361">
        <ele>933.58</ele>
        <time>2025-11-14T07:55:46Z</time>
      </trkpt>
      <trkpt lat="43.73488" lon="6.36359">
        <ele>933.58</ele>
        <time>2025-11-14T07:56:07Z</time>
      </trkpt>
      <trkpt lat="43.73487" lon="6.36359">
        <ele>933.58</ele>
        <time>2025-11-14T07:56:30Z</time>
      </trkpt>
      <trkpt lat="43.73489" lon="6.36363">
        <ele>933.58</ele>
        <time>2025-11-14T07:56:44Z</time>
      </trkpt>
      <trkpt lat="43.7349" lon="6.36365">
        <ele>933.58</ele>
        <time>2025-11-14T07:56:45Z</time>
      </trkpt>
      <trkpt lat="43.73492" lon="6.36368">
        <ele>933.58</ele>
        <time>2025-11-14T07:56:46Z</time>
      </trkpt>
      <trkpt lat="43.73497" lon="6.3638">
        <ele>932.14</ele>
        <time>2025-11-14T07:56:49Z</time>
      </trkpt>
      <trkpt lat="43.73519" lon="6.36429">
        <ele>928.29</ele>
        <time>2025-11-14T07:56:58Z</time>
      </trkpt>
      <trkpt lat="43.73539" lon="6.3648">
        <ele>925.41</ele>
        <time>2025-11-14T07:57:08Z</time>
      </trkpt>
      <trkpt lat="43.73537" lon="6.36504">
        <ele>923.48</ele>
        <time>2025-11-14T07:57:13Z</time>
      </trkpt>
      <trkpt lat="43.73533" lon="6.36523">
        <ele>922.52</ele>
        <time>2025-11-14T07:57:14Z</time>
      </trkpt>
      <trkpt lat="43.73521" lon="6.36579">
        <ele>919.64</ele>
        <time>2025-11-14T07:57:21Z</time>
      </trkpt>
      <trkpt lat="43.73511" lon="6.36624">
        <ele>915.79</ele>
        <time>2025-11-14T07:57:27Z</time>
      </trkpt>
      <trkpt lat="43.73508" lon="6.36637">
        <ele>915.31</ele>
        <time>2025-11-14T07:57:29Z</time>
      </trkpt>
      <trkpt lat="43.73553" lon="6.36717">
        <ele>913.87</ele>
        <time>2025-11-14T07:57:33Z</time>
      </trkpt>
      <trkpt lat="43.73551" lon="6.36726">
        <ele>912.91</ele>
        <time>2025-11-14T07:57:34Z</time>
      </trkpt>
      <trkpt lat="43.73549" lon="6.36732">
        <ele>913.39</ele>
        <time>2025-11-14T07:57:35Z</time>
      </trkpt>
      <trkpt lat="43.73546" lon="6.36741">
        <ele>913.39</ele>
        <time>2025-11-14T07:57:36Z</time>
      </trkpt>
      <trkpt lat="43.73542" lon="6.36748">
        <ele>913.39</ele>
        <time>2025-11-14T07:57:37Z</time>
      </trkpt>
      <trkpt lat="43.73538" lon="6.36755">
        <ele>912.43</ele>
        <time>2025-11-14T07:57:38Z</time>
      </trkpt>
      <trkpt lat="43.73498" lon="6.36825">
        <ele>909.06</ele>
        <time>2025-11-14T07:57:47Z</time>
      </trkpt>
      <trkpt lat="43.73475" lon="6.36875">
        <ele>905.7</ele>
        <time>2025-11-14T07:57:52Z</time>
      </trkpt>
      <trkpt lat="43.7345" lon="6.36938">
        <ele>902.33</ele>
        <time>2025-11-14T07:57:58Z</time>
      </trkpt>
      <trkpt lat="43.73425" lon="6.36995">
        <ele>898.49</ele>
        <time>2025-11-14T07:58:03Z</time>
      </trkpt>
      <trkpt lat="43.73419" lon="6.37005">
        <ele>898.49</ele>
        <time>2025-11-14T07:58:04Z</time>
      </trkpt>
      <trkpt lat="43.73407" lon="6.37027">
        <ele>897.05</ele>
        <time>2025-11-14T07:58:06Z</time>
      </trkpt>
      <trkpt lat="43.73394" lon="6.37048">
        <ele>895.61</ele>
        <time>2025-11-14T07:58:08Z</time>
      </trkpt>
      <trkpt lat="43.73368" lon="6.3709">
        <ele>893.2</ele>
        <time>2025-11-14T07:58:12Z</time>
      </trkpt>
      <trkpt lat="43.73338" lon="6.37128">
        <ele>890.32</ele>
        <time>2025-11-14T07:58:16Z</time>
      </trkpt>
      <trkpt lat="43.73308" lon="6.37168">
        <ele>886.47</ele>
        <time>2025-11-14T07:58:20Z</time>
      </trkpt>
      <trkpt lat="43.7328" lon="6.37214">
        <ele>883.59</ele>
        <time>2025-11-14T07:58:24Z</time>
      </trkpt>
      <trkpt lat="43.73245" lon="6.37284">
        <ele>879.74</ele>
        <time>2025-11-14T07:58:30Z</time>
      </trkpt>
      <trkpt lat="43.73239" lon="6.37291">
        <ele>879.74</ele>
        <time>2025-11-14T07:58:31Z</time>
      </trkpt>
      <trkpt lat="43.73228" lon="6.37299">
        <ele>879.26</ele>
        <time>2025-11-14T07:58:33Z</time>
      </trkpt>
      <trkpt lat="43.73225" lon="6.37305">
        <ele>879.26</ele>
        <time>2025-11-14T07:58:34Z</time>
      </trkpt>
      <trkpt lat="43.73224" lon="6.37312">
        <ele>879.26</ele>
        <time>2025-11-14T07:58:35Z</time>
      </trkpt>
      <trkpt lat="43.73225" lon="6.37321">
        <ele>879.74</ele>
        <time>2025-11-14T07:58:36Z</time>
      </trkpt>
      <trkpt lat="43.73228" lon="6.37325">
        <ele>879.26</ele>
        <time>2025-11-14T07:58:37Z</time>
      </trkpt>
      <trkpt lat="43.73232" lon="6.37328">
        <ele>878.78</ele>
        <time>2025-11-14T07:58:38Z</time>
      </trkpt>
      <trkpt lat="43.73237" lon="6.37329">
        <ele>878.78</ele>
        <time>2025-11-14T07:58:39Z</time>
      </trkpt>
      <trkpt lat="43.73243" lon="6.37327">
        <ele>877.82</ele>
        <time>2025-11-14T07:58:40Z</time>
      </trkpt>
      <trkpt lat="43.73247" lon="6.37323">
        <ele>877.82</ele>
        <time>2025-11-14T07:58:41Z</time>
      </trkpt>
      <trkpt lat="43.73251" lon="6.37317">
        <ele>877.82</ele>
        <time>2025-11-14T07:58:42Z</time>
      </trkpt>
      <trkpt lat="43.73253" lon="6.37311">
        <ele>877.34</ele>
        <time>2025-11-14T07:58:43Z</time>
      </trkpt>
      <trkpt lat="43.73256" lon="6.37304">
        <ele>877.82</ele>
        <time>2025-11-14T07:58:44Z</time>
      </trkpt>
      <trkpt lat="43.73261" lon="6.37291">
        <ele>877.34</ele>
        <time>2025-11-14T07:58:46Z</time>
      </trkpt>
      <trkpt lat="43.73264" lon="6.37285">
        <ele>876.86</ele>
        <time>2025-11-14T07:58:47Z</time>
      </trkpt>
      <trkpt lat="43.73286" lon="6.37254">
        <ele>874.94</ele>
        <time>2025-11-14T07:58:52Z</time>
      </trkpt>
      <trkpt lat="43.73323" lon="6.37218">
        <ele>871.57</ele>
        <time>2025-11-14T07:58:58Z</time>
      </trkpt>
      <trkpt lat="43.7333" lon="6.37213">
        <ele>871.09</ele>
        <time>2025-11-14T07:58:59Z</time>
      </trkpt>
      <trkpt lat="43.73372" lon="6.37187">
        <ele>867.73</ele>
        <time>2025-11-14T07:59:04Z</time>
      </trkpt>
      <trkpt lat="43.73416" lon="6.3716">
        <ele>864.84</ele>
        <time>2025-11-14T07:59:09Z</time>
      </trkpt>
      <trkpt lat="43.73455" lon="6.3714">
        <ele>862.44</ele>
        <time>2025-11-14T07:59:13Z</time>
      </trkpt>
      <trkpt lat="43.73507" lon="6.37122">
        <ele>858.59</ele>
        <time>2025-11-14T07:59:18Z</time>
      </trkpt>
      <trkpt lat="43.73585" lon="6.37105">
        <ele>856.19</ele>
        <time>2025-11-14T07:59:26Z</time>
      </trkpt>
      <trkpt lat="43.73598" lon="6.37099">
        <ele>857.63</ele>
        <time>2025-11-14T07:59:28Z</time>
      </trkpt>
      <trkpt lat="43.73628" lon="6.37084">
        <ele>861</ele>
        <time>2025-11-14T07:59:34Z</time>
      </trkpt>
      <trkpt lat="43.73667" lon="6.37065">
        <ele>861.96</ele>
        <time>2025-11-14T07:59:43Z</time>
      </trkpt>
      <trkpt lat="43.73672" lon="6.37064">
        <ele>861.96</ele>
        <time>2025-11-14T07:59:44Z</time>
      </trkpt>
      <trkpt lat="43.73736" lon="6.37051">
        <ele>864.84</ele>
        <time>2025-11-14T07:59:58Z</time>
      </trkpt>
      <trkpt lat="43.73805" lon="6.37059">
        <ele>866.29</ele>
        <time>2025-11-14T08:00:12Z</time>
      </trkpt>
      <trkpt lat="43.7387" lon="6.37102">
        <ele>869.17</ele>
        <time>2025-11-14T08:00:27Z</time>
      </trkpt>
      <trkpt lat="43.73883" lon="6.3711">
        <ele>869.65</ele>
        <time>2025-11-14T08:00:30Z</time>
      </trkpt>
      <trkpt lat="43.73918" lon="6.37129">
        <ele>871.57</ele>
        <time>2025-11-14T08:00:41Z</time>
      </trkpt>
      <trkpt lat="43.7392" lon="6.37131">
        <ele>872.05</ele>
        <time>2025-11-14T08:00:51Z</time>
      </trkpt>
      <trkpt lat="43.73921" lon="6.37134">
        <ele>872.05</ele>
        <time>2025-11-14T08:00:57Z</time>
      </trkpt>
      <trkpt lat="43.73926" lon="6.37153">
        <ele>872.05</ele>
        <time>2025-11-14T08:01:08Z</time>
      </trkpt>
      <trkpt lat="43.73926" lon="6.37153">
        <ele>872.05</ele>
        <time>2025-11-14T08:01:17Z</time>
      </trkpt>
      <trkpt lat="43.73926" lon="6.37151">
        <ele>872.05</ele>
        <time>2025-11-14T08:01:27Z</time>
      </trkpt>
      <trkpt lat="43.73926" lon="6.37152">
        <ele>872.05</ele>
        <time>2025-11-14T08:01:53Z</time>
      </trkpt>
      <trkpt lat="43.73929" lon="6.37174">
        <ele>872.05</ele>
        <time>2025-11-14T08:02:01Z</time>
      </trkpt>
      <trkpt lat="43.73929" lon="6.37195">
        <ele>872.05</ele>
        <time>2025-11-14T08:02:04Z</time>
      </trkpt>
      <trkpt lat="43.73928" lon="6.37203">
        <ele>872.05</ele>
        <time>2025-11-14T08:02:05Z</time>
      </trkpt>
      <trkpt lat="43.73927" lon="6.37211">
        <ele>872.05</ele>
        <time>2025-11-14T08:02:06Z</time>
      </trkpt>
      <trkpt lat="43.73926" lon="6.37216">
        <ele>872.05</ele>
        <time>2025-11-14T08:02:07Z</time>
      </trkpt>
      <trkpt lat="43.73924" lon="6.37223">
        <ele>872.05</ele>
        <time>2025-11-14T08:02:08Z</time>
      </trkpt>
      <trkpt lat="43.73916" lon="6.37247">
        <ele>872.53</ele>
        <time>2025-11-14T08:02:12Z</time>
      </trkpt>
      <trkpt lat="43.73913" lon="6.37251">
        <ele>873.5</ele>
        <time>2025-11-14T08:02:13Z</time>
      </trkpt>
      <trkpt lat="43.73904" lon="6.37268">
        <ele>873.98</ele>
        <time>2025-11-14T08:02:17Z</time>
      </trkpt>
      <trkpt lat="43.73904" lon="6.37275">
        <ele>873.98</ele>
        <time>2025-11-14T08:02:18Z</time>
      </trkpt>
      <trkpt lat="43.73905" lon="6.37282">
        <ele>874.46</ele>
        <time>2025-11-14T08:02:19Z</time>
      </trkpt>
      <trkpt lat="43.73908" lon="6.37286">
        <ele>874.46</ele>
        <time>2025-11-14T08:02:20Z</time>
      </trkpt>
      <trkpt lat="43.73913" lon="6.37289">
        <ele>874.46</ele>
        <time>2025-11-14T08:02:21Z</time>
      </trkpt>
      <trkpt lat="43.73918" lon="6.3729">
        <ele>874.94</ele>
        <time>2025-11-14T08:02:22Z</time>
      </trkpt>
      <trkpt lat="43.73923" lon="6.37291">
        <ele>874.94</ele>
        <time>2025-11-14T08:02:23Z</time>
      </trkpt>
      <trkpt lat="43.73968" lon="6.37305">
        <ele>874.94</ele>
        <time>2025-11-14T08:02:33Z</time>
      </trkpt>
      <trkpt lat="43.73973" lon="6.37301">
        <ele>874.94</ele>
        <time>2025-11-14T08:02:36Z</time>
      </trkpt>
      <trkpt lat="43.73974" lon="6.37301">
        <ele>874.94</ele>
        <time>2025-11-14T08:02:37Z</time>
      </trkpt>
      <trkpt lat="43.73976" lon="6.37303">
        <ele>875.42</ele>
        <time>2025-11-14T08:02:38Z</time>
      </trkpt>
      <trkpt lat="43.73977" lon="6.37305">
        <ele>875.42</ele>
        <time>2025-11-14T08:02:39Z</time>
      </trkpt>
      <trkpt lat="43.73978" lon="6.37306">
        <ele>875.42</ele>
        <time>2025-11-14T08:02:40Z</time>
      </trkpt>
      <trkpt lat="43.7398" lon="6.37308">
        <ele>875.42</ele>
        <time>2025-11-14T08:02:41Z</time>
      </trkpt>
      <trkpt lat="43.74003" lon="6.37325">
        <ele>875.42</ele>
        <time>2025-11-14T08:02:50Z</time>
      </trkpt>
      <trkpt lat="43.74011" lon="6.37326">
        <ele>874.46</ele>
        <time>2025-11-14T08:02:52Z</time>
      </trkpt>
      <trkpt lat="43.74015" lon="6.37328">
        <ele>873.5</ele>
        <time>2025-11-14T08:02:53Z</time>
      </trkpt>
      <trkpt lat="43.74019" lon="6.37331">
        <ele>872.53</ele>
        <time>2025-11-14T08:02:54Z</time>
      </trkpt>
      <trkpt lat="43.74022" lon="6.37334">
        <ele>872.05</ele>
        <time>2025-11-14T08:02:55Z</time>
      </trkpt>
      <trkpt lat="43.74024" lon="6.37337">
        <ele>872.05</ele>
        <time>2025-11-14T08:02:56Z</time>
      </trkpt>
      <trkpt lat="43.74033" lon="6.37347">
        <ele>871.57</ele>
        <time>2025-11-14T08:03:05Z</time>
      </trkpt>
      <trkpt lat="43.74033" lon="6.37348">
        <ele>871.57</ele>
        <time>2025-11-14T08:03:27Z</time>
      </trkpt>
      <trkpt lat="43.74031" lon="6.37347">
        <ele>871.57</ele>
        <time>2025-11-14T08:03:48Z</time>
      </trkpt>
      <trkpt lat="43.74031" lon="6.37347">
        <ele>871.57</ele>
        <time>2025-11-14T08:04:05Z</time>
      </trkpt>
      <trkpt lat="43.7403" lon="6.37347">
        <ele>871.57</ele>
        <time>2025-11-14T08:04:15Z</time>
      </trkpt>
      <trkpt lat="43.74028" lon="6.37347">
        <ele>871.57</ele>
        <time>2025-11-14T08:04:16Z</time>
      </trkpt>
      <trkpt lat="43.74026" lon="6.37348">
        <ele>871.57</ele>
        <time>2025-11-14T08:04:17Z</time>
      </trkpt>
      <trkpt lat="43.74024" lon="6.3735">
        <ele>871.57</ele>
        <time>2025-11-14T08:04:18Z</time>
      </trkpt>
      <trkpt lat="43.7402" lon="6.37352">
        <ele>870.61</ele>
        <time>2025-11-14T08:04:19Z</time>
      </trkpt>
      <trkpt lat="43.74002" lon="6.37363">
        <ele>869.17</ele>
        <time>2025-11-14T08:04:23Z</time>
      </trkpt>
      <trkpt lat="43.73998" lon="6.37367">
        <ele>869.17</ele>
        <time>2025-11-14T08:04:24Z</time>
      </trkpt>
      <trkpt lat="43.73976" lon="6.37389">
        <ele>865.8</ele>
        <time>2025-11-14T08:04:28Z</time>
      </trkpt>
      <trkpt lat="43.73957" lon="6.37411">
        <ele>862.92</ele>
        <time>2025-11-14T08:04:31Z</time>
      </trkpt>
      <trkpt lat="43.73929" lon="6.37444">
        <ele>858.59</ele>
        <time>2025-11-14T08:04:35Z</time>
      </trkpt>
      <trkpt lat="43.73906" lon="6.37472">
        <ele>855.23</ele>
        <time>2025-11-14T08:04:38Z</time>
      </trkpt>
      <trkpt lat="43.7388" lon="6.37501">
        <ele>851.38</ele>
        <time>2025-11-14T08:04:41Z</time>
      </trkpt>
      <trkpt lat="43.73853" lon="6.37524">
        <ele>848.02</ele>
        <time>2025-11-14T08:04:44Z</time>
      </trkpt>
      <trkpt lat="43.73814" lon="6.37552">
        <ele>844.66</ele>
        <time>2025-11-14T08:04:48Z</time>
      </trkpt>
      <trkpt lat="43.73786" lon="6.37574">
        <ele>841.77</ele>
        <time>2025-11-14T08:04:51Z</time>
      </trkpt>
      <trkpt lat="43.73779" lon="6.37584">
        <ele>840.81</ele>
        <time>2025-11-14T08:04:52Z</time>
      </trkpt>
      <trkpt lat="43.73773" lon="6.37597">
        <ele>839.85</ele>
        <time>2025-11-14T08:04:53Z</time>
      </trkpt>
      <trkpt lat="43.73769" lon="6.37611">
        <ele>838.41</ele>
        <time>2025-11-14T08:04:54Z</time>
      </trkpt>
      <trkpt lat="43.73765" lon="6.37625">
        <ele>837.45</ele>
        <time>2025-11-14T08:04:55Z</time>
      </trkpt>
      <trkpt lat="43.73759" lon="6.37637">
        <ele>836.96</ele>
        <time>2025-11-14T08:04:56Z</time>
      </trkpt>
      <trkpt lat="43.73752" lon="6.37649">
        <ele>836.48</ele>
        <time>2025-11-14T08:04:57Z</time>
      </trkpt>
      <trkpt lat="43.73744" lon="6.37659">
        <ele>835.52</ele>
        <time>2025-11-14T08:04:58Z</time>
      </trkpt>
      <trkpt lat="43.73733" lon="6.37669">
        <ele>834.56</ele>
        <time>2025-11-14T08:04:59Z</time>
      </trkpt>
      <trkpt lat="43.73725" lon="6.37674">
        <ele>833.12</ele>
        <time>2025-11-14T08:05:00Z</time>
      </trkpt>
      <trkpt lat="43.73714" lon="6.3768">
        <ele>832.16</ele>
        <time>2025-11-14T08:05:01Z</time>
      </trkpt>
      <trkpt lat="43.73703" lon="6.37685">
        <ele>830.72</ele>
        <time>2025-11-14T08:05:02Z</time>
      </trkpt>
      <trkpt lat="43.73671" lon="6.37695">
        <ele>827.83</ele>
        <time>2025-11-14T08:05:05Z</time>
      </trkpt>
      <trkpt lat="43.73659" lon="6.37695">
        <ele>827.35</ele>
        <time>2025-11-14T08:05:06Z</time>
      </trkpt>
      <trkpt lat="43.73623" lon="6.3769">
        <ele>823.51</ele>
        <time>2025-11-14T08:05:09Z</time>
      </trkpt>
      <trkpt lat="43.73587" lon="6.37688">
        <ele>819.66</ele>
        <time>2025-11-14T08:05:12Z</time>
      </trkpt>
      <trkpt lat="43.7355" lon="6.37689">
        <ele>816.3</ele>
        <time>2025-11-14T08:05:15Z</time>
      </trkpt>
      <trkpt lat="43.73514" lon="6.37695">
        <ele>813.41</ele>
        <time>2025-11-14T08:05:18Z</time>
      </trkpt>
      <trkpt lat="43.73481" lon="6.37697">
        <ele>811.01</ele>
        <time>2025-11-14T08:05:21Z</time>
      </trkpt>
      <trkpt lat="43.7347" lon="6.37695">
        <ele>809.57</ele>
        <time>2025-11-14T08:05:22Z</time>
      </trkpt>
      <trkpt lat="43.73434" lon="6.37685">
        <ele>806.68</ele>
        <time>2025-11-14T08:05:25Z</time>
      </trkpt>
      <trkpt lat="43.7339" lon="6.37671">
        <ele>802.36</ele>
        <time>2025-11-14T08:05:29Z</time>
      </trkpt>
      <trkpt lat="43.7338" lon="6.37664">
        <ele>801.4</ele>
        <time>2025-11-14T08:05:30Z</time>
      </trkpt>
      <trkpt lat="43.7337" lon="6.37655">
        <ele>800.44</ele>
        <time>2025-11-14T08:05:31Z</time>
      </trkpt>
      <trkpt lat="43.73361" lon="6.37644">
        <ele>799.47</ele>
        <time>2025-11-14T08:05:32Z</time>
      </trkpt>
      <trkpt lat="43.73354" lon="6.37633">
        <ele>798.51</ele>
        <time>2025-11-14T08:05:33Z</time>
      </trkpt>
      <trkpt lat="43.73345" lon="6.37621">
        <ele>798.03</ele>
        <time>2025-11-14T08:05:34Z</time>
      </trkpt>
      <trkpt lat="43.73335" lon="6.37615">
        <ele>797.55</ele>
        <time>2025-11-14T08:05:35Z</time>
      </trkpt>
      <trkpt lat="43.73328" lon="6.37614">
        <ele>796.11</ele>
        <time>2025-11-14T08:05:36Z</time>
      </trkpt>
      <trkpt lat="43.73317" lon="6.37617">
        <ele>795.15</ele>
        <time>2025-11-14T08:05:37Z</time>
      </trkpt>
      <trkpt lat="43.73309" lon="6.37623">
        <ele>794.67</ele>
        <time>2025-11-14T08:05:38Z</time>
      </trkpt>
      <trkpt lat="43.73301" lon="6.37632">
        <ele>793.71</ele>
        <time>2025-11-14T08:05:39Z</time>
      </trkpt>
      <trkpt lat="43.73296" lon="6.37643">
        <ele>793.22</ele>
        <time>2025-11-14T08:05:40Z</time>
      </trkpt>
      <trkpt lat="43.73292" lon="6.37655">
        <ele>793.22</ele>
        <time>2025-11-14T08:05:41Z</time>
      </trkpt>
      <trkpt lat="43.73288" lon="6.37668">
        <ele>792.26</ele>
        <time>2025-11-14T08:05:42Z</time>
      </trkpt>
      <trkpt lat="43.73283" lon="6.3768">
        <ele>791.78</ele>
        <time>2025-11-14T08:05:43Z</time>
      </trkpt>
      <trkpt lat="43.73277" lon="6.37691">
        <ele>790.82</ele>
        <time>2025-11-14T08:05:44Z</time>
      </trkpt>
      <trkpt lat="43.73272" lon="6.37698">
        <ele>790.82</ele>
        <time>2025-11-14T08:05:45Z</time>
      </trkpt>
      <trkpt lat="43.73267" lon="6.37709">
        <ele>790.34</ele>
        <time>2025-11-14T08:05:46Z</time>
      </trkpt>
      <trkpt lat="43.73265" lon="6.3772">
        <ele>789.86</ele>
        <time>2025-11-14T08:05:47Z</time>
      </trkpt>
      <trkpt lat="43.73266" lon="6.37733">
        <ele>788.9</ele>
        <time>2025-11-14T08:05:48Z</time>
      </trkpt>
      <trkpt lat="43.73268" lon="6.37744">
        <ele>788.42</ele>
        <time>2025-11-14T08:05:49Z</time>
      </trkpt>
      <trkpt lat="43.73271" lon="6.37755">
        <ele>788.9</ele>
        <time>2025-11-14T08:05:50Z</time>
      </trkpt>
      <trkpt lat="43.73275" lon="6.37766">
        <ele>787.94</ele>
        <time>2025-11-14T08:05:51Z</time>
      </trkpt>
      <trkpt lat="43.73296" lon="6.37846">
        <ele>784.57</ele>
        <time>2025-11-14T08:05:58Z</time>
      </trkpt>
      <trkpt lat="43.7331" lon="6.37896">
        <ele>782.65</ele>
        <time>2025-11-14T08:06:02Z</time>
      </trkpt>
      <trkpt lat="43.73314" lon="6.37919">
        <ele>781.69</ele>
        <time>2025-11-14T08:06:04Z</time>
      </trkpt>
      <trkpt lat="43.73315" lon="6.37931">
        <ele>780.73</ele>
        <time>2025-11-14T08:06:05Z</time>
      </trkpt>
      <trkpt lat="43.73318" lon="6.38014">
        <ele>777.36</ele>
        <time>2025-11-14T08:06:11Z</time>
      </trkpt>
      <trkpt lat="43.7332" lon="6.38093">
        <ele>774</ele>
        <time>2025-11-14T08:06:17Z</time>
      </trkpt>
      <trkpt lat="43.73314" lon="6.38161">
        <ele>770.63</ele>
        <time>2025-11-14T08:06:22Z</time>
      </trkpt>
      <trkpt lat="43.73304" lon="6.38234">
        <ele>767.75</ele>
        <time>2025-11-14T08:06:27Z</time>
      </trkpt>
      <trkpt lat="43.73295" lon="6.38305">
        <ele>763.9</ele>
        <time>2025-11-14T08:06:32Z</time>
      </trkpt>
      <trkpt lat="43.73292" lon="6.38349">
        <ele>762.94</ele>
        <time>2025-11-14T08:06:35Z</time>
      </trkpt>
      <trkpt lat="43.73294" lon="6.38364">
        <ele>761.5</ele>
        <time>2025-11-14T08:06:36Z</time>
      </trkpt>
      <trkpt lat="43.733" lon="6.38423">
        <ele>758.62</ele>
        <time>2025-11-14T08:06:40Z</time>
      </trkpt>
      <trkpt lat="43.73303" lon="6.38482">
        <ele>755.25</ele>
        <time>2025-11-14T08:06:44Z</time>
      </trkpt>
      <trkpt lat="43.73298" lon="6.38554">
        <ele>752.85</ele>
        <time>2025-11-14T08:06:49Z</time>
      </trkpt>
      <trkpt lat="43.73297" lon="6.38569">
        <ele>751.89</ele>
        <time>2025-11-14T08:06:50Z</time>
      </trkpt>
      <trkpt lat="43.73297" lon="6.38584">
        <ele>750.93</ele>
        <time>2025-11-14T08:06:51Z</time>
      </trkpt>
      <trkpt lat="43.73298" lon="6.38597">
        <ele>750.93</ele>
        <time>2025-11-14T08:06:52Z</time>
      </trkpt>
      <trkpt lat="43.73298" lon="6.38673">
        <ele>747.56</ele>
        <time>2025-11-14T08:06:57Z</time>
      </trkpt>
      <trkpt lat="43.73298" lon="6.38683">
        <ele>747.56</ele>
        <time>2025-11-14T08:06:58Z</time>
      </trkpt>
      <trkpt lat="43.73296" lon="6.38709">
        <ele>746.12</ele>
        <time>2025-11-14T08:07:00Z</time>
      </trkpt>
      <trkpt lat="43.73293" lon="6.38721">
        <ele>745.16</ele>
        <time>2025-11-14T08:07:01Z</time>
      </trkpt>
      <trkpt lat="43.73288" lon="6.38731">
        <ele>745.16</ele>
        <time>2025-11-14T08:07:02Z</time>
      </trkpt>
      <trkpt lat="43.73282" lon="6.38737">
        <ele>744.68</ele>
        <time>2025-11-14T08:07:03Z</time>
      </trkpt>
      <trkpt lat="43.73276" lon="6.3874">
        <ele>744.2</ele>
        <time>2025-11-14T08:07:04Z</time>
      </trkpt>
      <trkpt lat="43.73269" lon="6.38741">
        <ele>744.2</ele>
        <time>2025-11-14T08:07:05Z</time>
      </trkpt>
      <trkpt lat="43.73259" lon="6.38739">
        <ele>743.24</ele>
        <time>2025-11-14T08:07:06Z</time>
      </trkpt>
      <trkpt lat="43.73253" lon="6.38738">
        <ele>742.76</ele>
        <time>2025-11-14T08:07:07Z</time>
      </trkpt>
      <trkpt lat="43.73208" lon="6.38729">
        <ele>739.39</ele>
        <time>2025-11-14T08:07:13Z</time>
      </trkpt>
      <trkpt lat="43.73203" lon="6.38729">
        <ele>739.39</ele>
        <time>2025-11-14T08:07:14Z</time>
      </trkpt>
      <trkpt lat="43.73196" lon="6.38731">
        <ele>738.43</ele>
        <time>2025-11-14T08:07:15Z</time>
      </trkpt>
      <trkpt lat="43.73192" lon="6.38732">
        <ele>737.95</ele>
        <time>2025-11-14T08:07:16Z</time>
      </trkpt>
      <trkpt lat="43.73187" lon="6.38735">
        <ele>737.95</ele>
        <time>2025-11-14T08:07:17Z</time>
      </trkpt>
      <trkpt lat="43.73182" lon="6.38738">
        <ele>736.99</ele>
        <time>2025-11-14T08:07:18Z</time>
      </trkpt>
      <trkpt lat="43.73178" lon="6.3874">
        <ele>736.51</ele>
        <time>2025-11-14T08:07:19Z</time>
      </trkpt>
      <trkpt lat="43.73174" lon="6.38742">
        <ele>736.51</ele>
        <time>2025-11-14T08:07:20Z</time>
      </trkpt>
      <trkpt lat="43.73155" lon="6.38743">
        <ele>734.58</ele>
        <time>2025-11-14T08:07:28Z</time>
      </trkpt>
      <trkpt lat="43.73154" lon="6.38741">
        <ele>734.1</ele>
        <time>2025-11-14T08:07:38Z</time>
      </trkpt>
      <trkpt lat="43.73155" lon="6.38741">
        <ele>734.1</ele>
        <time>2025-11-14T08:07:54Z</time>
      </trkpt>
      <trkpt lat="43.73144" lon="6.38731">
        <ele>733.14</ele>
        <time>2025-11-14T08:08:02Z</time>
      </trkpt>
      <trkpt lat="43.73133" lon="6.3872">
        <ele>732.18</ele>
        <time>2025-11-14T08:08:12Z</time>
      </trkpt>
      <trkpt lat="43.73132" lon="6.38719">
        <ele>732.18</ele>
        <time>2025-11-14T08:08:24Z</time>
      </trkpt>
      <trkpt lat="43.73131" lon="6.38718">
        <ele>732.18</ele>
        <time>2025-11-14T08:08:41Z</time>
      </trkpt>
      <trkpt lat="43.73131" lon="6.38717">
        <ele>732.18</ele>
        <time>2025-11-14T08:08:42Z</time>
      </trkpt>
      <trkpt lat="43.7313" lon="6.38715">
        <ele>732.18</ele>
        <time>2025-11-14T08:08:43Z</time>
      </trkpt>
      <trkpt lat="43.73113" lon="6.38702">
        <ele>731.7</ele>
        <time>2025-11-14T08:08:52Z</time>
      </trkpt>
      <trkpt lat="43.73105" lon="6.38696">
        <ele>731.7</ele>
        <time>2025-11-14T08:08:57Z</time>
      </trkpt>
      <trkpt lat="43.73104" lon="6.38694">
        <ele>731.7</ele>
        <time>2025-11-14T08:08:58Z</time>
      </trkpt>
      <trkpt lat="43.73103" lon="6.38692">
        <ele>731.7</ele>
        <time>2025-11-14T08:08:59Z</time>
      </trkpt>
      <trkpt lat="43.73103" lon="6.38692">
        <ele>731.7</ele>
        <time>2025-11-14T08:09:09Z</time>
      </trkpt>
      <trkpt lat="43.73103" lon="6.38692">
        <ele>731.7</ele>
        <time>2025-11-14T08:09:27Z</time>
      </trkpt>
      <trkpt lat="43.73096" lon="6.38689">
        <ele>731.7</ele>
        <time>2025-11-14T08:09:37Z</time>
      </trkpt>
      <trkpt lat="43.73095" lon="6.38688">
        <ele>731.7</ele>
        <time>2025-11-14T08:09:48Z</time>
      </trkpt>
      <trkpt lat="43.73094" lon="6.38686">
        <ele>731.7</ele>
        <time>2025-11-14T08:09:52Z</time>
      </trkpt>
      <trkpt lat="43.73093" lon="6.38685">
        <ele>731.7</ele>
        <time>2025-11-14T08:09:53Z</time>
      </trkpt>
      <trkpt lat="43.73092" lon="6.38683">
        <ele>731.7</ele>
        <time>2025-11-14T08:09:54Z</time>
      </trkpt>
      <trkpt lat="43.73092" lon="6.38679">
        <ele>731.7</ele>
        <time>2025-11-14T08:09:56Z</time>
      </trkpt>
      <trkpt lat="43.73092" lon="6.38676">
        <ele>731.7</ele>
        <time>2025-11-14T08:09:57Z</time>
      </trkpt>
      <trkpt lat="43.73094" lon="6.38668">
        <ele>731.7</ele>
        <time>2025-11-14T08:10:00Z</time>
      </trkpt>
      <trkpt lat="43.73095" lon="6.38667">
        <ele>731.7</ele>
        <time>2025-11-14T08:10:01Z</time>
      </trkpt>
      <trkpt lat="43.73096" lon="6.38665">
        <ele>731.7</ele>
        <time>2025-11-14T08:10:02Z</time>
      </trkpt>
      <trkpt lat="43.73096" lon="6.38663">
        <ele>731.7</ele>
        <time>2025-11-14T08:10:03Z</time>
      </trkpt>
      <trkpt lat="43.73096" lon="6.3866">
        <ele>731.7</ele>
        <time>2025-11-14T08:10:04Z</time>
      </trkpt>
      <trkpt lat="43.73093" lon="6.38648">
        <ele>731.7</ele>
        <time>2025-11-14T08:10:14Z</time>
      </trkpt>
      <trkpt lat="43.73092" lon="6.38646">
        <ele>731.7</ele>
        <time>2025-11-14T08:10:26Z</time>
      </trkpt>
      <trkpt lat="43.7309" lon="6.38645">
        <ele>731.7</ele>
        <time>2025-11-14T08:10:31Z</time>
      </trkpt>
      <trkpt lat="43.73089" lon="6.38644">
        <ele>731.7</ele>
        <time>2025-11-14T08:10:32Z</time>
      </trkpt>
      <trkpt lat="43.73089" lon="6.38643">
        <ele>731.7</ele>
        <time>2025-11-14T08:10:33Z</time>
      </trkpt>
      <trkpt lat="43.73087" lon="6.38643">
        <ele>731.7</ele>
        <time>2025-11-14T08:10:34Z</time>
      </trkpt>
      <trkpt lat="43.73085" lon="6.38646">
        <ele>731.7</ele>
        <time>2025-11-14T08:10:36Z</time>
      </trkpt>
      <trkpt lat="43.73083" lon="6.38648">
        <ele>731.7</ele>
        <time>2025-11-14T08:10:37Z</time>
      </trkpt>
      <trkpt lat="43.73081" lon="6.38649">
        <ele>731.7</ele>
        <time>2025-11-14T08:10:45Z</time>
      </trkpt>
      <trkpt lat="43.73078" lon="6.3865">
        <ele>731.7</ele>
        <time>2025-11-14T08:10:47Z</time>
      </trkpt>
      <trkpt lat="43.73055" lon="6.38659">
        <ele>733.14</ele>
        <time>2025-11-14T08:10:56Z</time>
      </trkpt>
      <trkpt lat="43.73037" lon="6.38685">
        <ele>733.14</ele>
        <time>2025-11-14T08:11:06Z</time>
      </trkpt>
      <trkpt lat="43.73031" lon="6.38693">
        <ele>733.62</ele>
        <time>2025-11-14T08:11:15Z</time>
      </trkpt>
      <trkpt lat="43.73032" lon="6.38693">
        <ele>733.62</ele>
        <time>2025-11-14T08:11:40Z</time>
      </trkpt>
      <trkpt lat="43.73031" lon="6.38693">
        <ele>733.62</ele>
        <time>2025-11-14T08:12:07Z</time>
      </trkpt>
      <trkpt lat="43.73032" lon="6.38693">
        <ele>733.62</ele>
        <time>2025-11-14T08:12:30Z</time>
      </trkpt>
      <trkpt lat="43.73031" lon="6.38695">
        <ele>733.62</ele>
        <time>2025-11-14T08:12:39Z</time>
      </trkpt>
      <trkpt lat="43.73034" lon="6.38696">
        <ele>733.62</ele>
        <time>2025-11-14T08:12:49Z</time>
      </trkpt>
      <trkpt lat="43.73036" lon="6.38695">
        <ele>733.62</ele>
        <time>2025-11-14T08:12:50Z</time>
      </trkpt>
      <trkpt lat="43.73037" lon="6.38694">
        <ele>733.62</ele>
        <time>2025-11-14T08:12:51Z</time>
      </trkpt>
      <trkpt lat="43.73053" lon="6.38668">
        <ele>733.62</ele>
        <time>2025-11-14T08:12:59Z</time>
      </trkpt>
      <trkpt lat="43.73075" lon="6.38655">
        <ele>732.18</ele>
        <time>2025-11-14T08:13:06Z</time>
      </trkpt>
      <trkpt lat="43.73083" lon="6.3865">
        <ele>732.18</ele>
        <time>2025-11-14T08:13:13Z</time>
      </trkpt>
      <trkpt lat="43.73083" lon="6.38646">
        <ele>732.66</ele>
        <time>2025-11-14T08:13:21Z</time>
      </trkpt>
      <trkpt lat="43.73082" lon="6.38646">
        <ele>732.66</ele>
        <time>2025-11-14T08:13:50Z</time>
      </trkpt>
      <trkpt lat="43.73083" lon="6.38646">
        <ele>732.66</ele>
        <time>2025-11-14T08:14:04Z</time>
      </trkpt>
      <trkpt lat="43.73086" lon="6.38645">
        <ele>732.66</ele>
        <time>2025-11-14T08:14:25Z</time>
      </trkpt>
      <trkpt lat="43.73086" lon="6.38648">
        <ele>732.66</ele>
        <time>2025-11-14T08:14:36Z</time>
      </trkpt>
      <trkpt lat="43.73083" lon="6.3865">
        <ele>732.66</ele>
        <time>2025-11-14T08:14:45Z</time>
      </trkpt>
      <trkpt lat="43.73082" lon="6.38649">
        <ele>732.66</ele>
        <time>2025-11-14T08:14:48Z</time>
      </trkpt>
      <trkpt lat="43.7308" lon="6.38649">
        <ele>732.66</ele>
        <time>2025-11-14T08:14:49Z</time>
      </trkpt>
      <trkpt lat="43.73078" lon="6.3865">
        <ele>732.66</ele>
        <time>2025-11-14T08:14:51Z</time>
      </trkpt>
      <trkpt lat="43.73074" lon="6.3865">
        <ele>732.66</ele>
        <time>2025-11-14T08:14:52Z</time>
      </trkpt>
      <trkpt lat="43.73047" lon="6.38671">
        <ele>733.62</ele>
        <time>2025-11-14T08:15:01Z</time>
      </trkpt>
      <trkpt lat="43.73029" lon="6.38698">
        <ele>734.1</ele>
        <time>2025-11-14T08:15:12Z</time>
      </trkpt>
      <trkpt lat="43.73027" lon="6.38701">
        <ele>734.1</ele>
        <time>2025-11-14T08:15:21Z</time>
      </trkpt>
      <trkpt lat="43.73028" lon="6.387">
        <ele>734.58</ele>
        <time>2025-11-14T08:15:33Z</time>
      </trkpt>
      <trkpt lat="43.73029" lon="6.38701">
        <ele>734.58</ele>
        <time>2025-11-14T08:15:52Z</time>
      </trkpt>
      <trkpt lat="43.73029" lon="6.38702">
        <ele>734.58</ele>
        <time>2025-11-14T08:16:16Z</time>
      </trkpt>
      <trkpt lat="43.73028" lon="6.387">
        <ele>734.58</ele>
        <time>2025-11-14T08:16:43Z</time>
      </trkpt>
      <trkpt lat="43.73027" lon="6.38701">
        <ele>734.58</ele>
        <time>2025-11-14T08:17:06Z</time>
      </trkpt>
      <trkpt lat="43.73029" lon="6.38701">
        <ele>734.58</ele>
        <time>2025-11-14T08:17:31Z</time>
      </trkpt>
      <trkpt lat="43.73026" lon="6.38702">
        <ele>734.58</ele>
        <time>2025-11-14T08:17:44Z</time>
      </trkpt>
      <trkpt lat="43.73026" lon="6.38701">
        <ele>734.58</ele>
        <time>2025-11-14T08:18:06Z</time>
      </trkpt>
      <trkpt lat="43.73025" lon="6.387">
        <ele>734.58</ele>
        <time>2025-11-14T08:18:27Z</time>
      </trkpt>
      <trkpt lat="43.73027" lon="6.387">
        <ele>734.58</ele>
        <time>2025-11-14T08:18:58Z</time>
      </trkpt>
      <trkpt lat="43.73025" lon="6.387">
        <ele>734.58</ele>
        <time>2025-11-14T08:19:17Z</time>
      </trkpt>
      <trkpt lat="43.73026" lon="6.38701">
        <ele>734.58</ele>
        <time>2025-11-14T08:19:36Z</time>
      </trkpt>
      <trkpt lat="43.73027" lon="6.38703">
        <ele>734.58</ele>
        <time>2025-11-14T08:20:00Z</time>
      </trkpt>
      <trkpt lat="43.73028" lon="6.38702">
        <ele>734.58</ele>
        <time>2025-11-14T08:20:25Z</time>
      </trkpt>
      <trkpt lat="43.73027" lon="6.38701">
        <ele>734.58</ele>
        <time>2025-11-14T08:20:46Z</time>
      </trkpt>
      <trkpt lat="43.73025" lon="6.38702">
        <ele>734.58</ele>
        <time>2025-11-14T08:21:07Z</time>
      </trkpt>
      <trkpt lat="43.73026" lon="6.38702">
        <ele>734.58</ele>
        <time>2025-11-14T08:21:33Z</time>
      </trkpt>
      <trkpt lat="43.73027" lon="6.38703">
        <ele>734.58</ele>
        <time>2025-11-14T08:21:54Z</time>
      </trkpt>
      <trkpt lat="43.73026" lon="6.38702">
        <ele>734.58</ele>
        <time>2025-11-14T08:22:15Z</time>
      </trkpt>
      <trkpt lat="43.73026" lon="6.38702">
        <ele>734.58</ele>
        <time>2025-11-14T08:22:33Z</time>
      </trkpt>
      <trkpt lat="43.73026" lon="6.38702">
        <ele>734.58</ele>
        <time>2025-11-14T08:22:56Z</time>
      </trkpt>
      <trkpt lat="43.73026" lon="6.38703">
        <ele>734.58</ele>
        <time>2025-11-14T08:23:16Z</time>
      </trkpt>
      <trkpt lat="43.73027" lon="6.38704">
        <ele>734.58</ele>
        <time>2025-11-14T08:23:37Z</time>
      </trkpt>
      <trkpt lat="43.73028" lon="6.38703">
        <ele>734.58</ele>
        <time>2025-11-14T08:23:53Z</time>
      </trkpt>
      <trkpt lat="43.73027" lon="6.38703">
        <ele>734.58</ele>
        <time>2025-11-14T08:24:18Z</time>
      </trkpt>
      <trkpt lat="43.73026" lon="6.38703">
        <ele>734.58</ele>
        <time>2025-11-14T08:24:28Z</time>
      </trkpt>
      <trkpt lat="43.73022" lon="6.3871">
        <ele>734.58</ele>
        <time>2025-11-14T08:24:42Z</time>
      </trkpt>
      <trkpt lat="43.72999" lon="6.38744">
        <ele>734.58</ele>
        <time>2025-11-14T08:24:51Z</time>
      </trkpt>
      <trkpt lat="43.72973" lon="6.38787">
        <ele>734.58</ele>
        <time>2025-11-14T08:25:00Z</time>
      </trkpt>
      <trkpt lat="43.72971" lon="6.38792">
        <ele>734.58</ele>
        <time>2025-11-14T08:25:01Z</time>
      </trkpt>
      <trkpt lat="43.72967" lon="6.38803">
        <ele>734.58</ele>
        <time>2025-11-14T08:25:03Z</time>
      </trkpt>
      <trkpt lat="43.72966" lon="6.38809">
        <ele>734.58</ele>
        <time>2025-11-14T08:25:04Z</time>
      </trkpt>
      <trkpt lat="43.72966" lon="6.38815">
        <ele>735.07</ele>
        <time>2025-11-14T08:25:05Z</time>
      </trkpt>
      <trkpt lat="43.72965" lon="6.38821">
        <ele>735.07</ele>
        <time>2025-11-14T08:25:06Z</time>
      </trkpt>
      <trkpt lat="43.72965" lon="6.38827">
        <ele>735.07</ele>
        <time>2025-11-14T08:25:07Z</time>
      </trkpt>
      <trkpt lat="43.72966" lon="6.38832">
        <ele>735.55</ele>
        <time>2025-11-14T08:25:08Z</time>
      </trkpt>
      <trkpt lat="43.72967" lon="6.38837">
        <ele>735.55</ele>
        <time>2025-11-14T08:25:09Z</time>
      </trkpt>
      <trkpt lat="43.72987" lon="6.38882">
        <ele>738.43</ele>
        <time>2025-11-14T08:25:19Z</time>
      </trkpt>
      <trkpt lat="43.73016" lon="6.38918">
        <ele>741.79</ele>
        <time>2025-11-14T08:25:29Z</time>
      </trkpt>
      <trkpt lat="43.73048" lon="6.38942">
        <ele>745.16</ele>
        <time>2025-11-14T08:25:39Z</time>
      </trkpt>
      <trkpt lat="43.73078" lon="6.38963">
        <ele>748.04</ele>
        <time>2025-11-14T08:25:49Z</time>
      </trkpt>
      <trkpt lat="43.73115" lon="6.3898">
        <ele>751.41</ele>
        <time>2025-11-14T08:26:04Z</time>
      </trkpt>
      <trkpt lat="43.73142" lon="6.38983">
        <ele>753.81</ele>
        <time>2025-11-14T08:26:16Z</time>
      </trkpt>
      <trkpt lat="43.73167" lon="6.38988">
        <ele>755.25</ele>
        <time>2025-11-14T08:26:28Z</time>
      </trkpt>
      <trkpt lat="43.732" lon="6.39003">
        <ele>758.14</ele>
        <time>2025-11-14T08:26:43Z</time>
      </trkpt>
      <trkpt lat="43.73214" lon="6.39038">
        <ele>760.06</ele>
        <time>2025-11-14T08:26:56Z</time>
      </trkpt>
      <trkpt lat="43.73225" lon="6.39078">
        <ele>762.94</ele>
        <time>2025-11-14T08:27:10Z</time>
      </trkpt>
      <trkpt lat="43.73242" lon="6.39102">
        <ele>764.39</ele>
        <time>2025-11-14T08:27:21Z</time>
      </trkpt>
      <trkpt lat="43.73267" lon="6.39126">
        <ele>766.31</ele>
        <time>2025-11-14T08:27:34Z</time>
      </trkpt>
      <trkpt lat="43.73292" lon="6.3915">
        <ele>768.23</ele>
        <time>2025-11-14T08:27:47Z</time>
      </trkpt>
      <trkpt lat="43.73316" lon="6.39173">
        <ele>769.67</ele>
        <time>2025-11-14T08:28:00Z</time>
      </trkpt>
      <trkpt lat="43.7334" lon="6.39195">
        <ele>772.08</ele>
        <time>2025-11-14T08:28:13Z</time>
      </trkpt>
      <trkpt lat="43.7337" lon="6.39218">
        <ele>775.44</ele>
        <time>2025-11-14T08:28:28Z</time>
      </trkpt>
      <trkpt lat="43.734" lon="6.39252">
        <ele>777.84</ele>
        <time>2025-11-14T08:28:46Z</time>
      </trkpt>
      <trkpt lat="43.73424" lon="6.39284">
        <ele>780.25</ele>
        <time>2025-11-14T08:29:01Z</time>
      </trkpt>
      <trkpt lat="43.73433" lon="6.39321">
        <ele>782.65</ele>
        <time>2025-11-14T08:29:14Z</time>
      </trkpt>
      <trkpt lat="43.73444" lon="6.39359">
        <ele>785.05</ele>
        <time>2025-11-14T08:29:27Z</time>
      </trkpt>
      <trkpt lat="43.73466" lon="6.39375">
        <ele>787.46</ele>
        <time>2025-11-14T08:29:38Z</time>
      </trkpt>
      <trkpt lat="43.73488" lon="6.3936">
        <ele>788.9</ele>
        <time>2025-11-14T08:29:49Z</time>
      </trkpt>
      <trkpt lat="43.73508" lon="6.39325">
        <ele>791.78</ele>
        <time>2025-11-14T08:30:03Z</time>
      </trkpt>
      <trkpt lat="43.73529" lon="6.39285">
        <ele>794.67</ele>
        <time>2025-11-14T08:30:18Z</time>
      </trkpt>
      <trkpt lat="43.73549" lon="6.39248">
        <ele>797.07</ele>
        <time>2025-11-14T08:30:33Z</time>
      </trkpt>
      <trkpt lat="43.73571" lon="6.39207">
        <ele>798.99</ele>
        <time>2025-11-14T08:30:47Z</time>
      </trkpt>
      <trkpt lat="43.73594" lon="6.39165">
        <ele>799.47</ele>
        <time>2025-11-14T08:31:00Z</time>
      </trkpt>
      <trkpt lat="43.73613" lon="6.39132">
        <ele>799.95</ele>
        <time>2025-11-14T08:31:10Z</time>
      </trkpt>
      <trkpt lat="43.73646" lon="6.39075">
        <ele>800.92</ele>
        <time>2025-11-14T08:31:26Z</time>
      </trkpt>
      <trkpt lat="43.73677" lon="6.39021">
        <ele>800.92</ele>
        <time>2025-11-14T08:31:40Z</time>
      </trkpt>
      <trkpt lat="43.73712" lon="6.38958">
        <ele>800.44</ele>
        <time>2025-11-14T08:31:56Z</time>
      </trkpt>
      <trkpt lat="43.73743" lon="6.38903">
        <ele>800.92</ele>
        <time>2025-11-14T08:32:11Z</time>
      </trkpt>
      <trkpt lat="43.73777" lon="6.38843">
        <ele>798.51</ele>
        <time>2025-11-14T08:32:24Z</time>
      </trkpt>
      <trkpt lat="43.73782" lon="6.38839">
        <ele>798.51</ele>
        <time>2025-11-14T08:32:25Z</time>
      </trkpt>
      <trkpt lat="43.73786" lon="6.38835">
        <ele>798.03</ele>
        <time>2025-11-14T08:32:26Z</time>
      </trkpt>
      <trkpt lat="43.73791" lon="6.38832">
        <ele>798.03</ele>
        <time>2025-11-14T08:32:27Z</time>
      </trkpt>
      <trkpt lat="43.73796" lon="6.38828">
        <ele>798.03</ele>
        <time>2025-11-14T08:32:28Z</time>
      </trkpt>
      <trkpt lat="43.7386" lon="6.388">
        <ele>796.11</ele>
        <time>2025-11-14T08:32:40Z</time>
      </trkpt>
      <trkpt lat="43.73864" lon="6.38797">
        <ele>796.11</ele>
        <time>2025-11-14T08:32:41Z</time>
      </trkpt>
      <trkpt lat="43.73866" lon="6.38794">
        <ele>796.11</ele>
        <time>2025-11-14T08:32:42Z</time>
      </trkpt>
      <trkpt lat="43.73868" lon="6.38791">
        <ele>797.55</ele>
        <time>2025-11-14T08:32:43Z</time>
      </trkpt>
      <trkpt lat="43.7387" lon="6.38787">
        <ele>797.55</ele>
        <time>2025-11-14T08:32:44Z</time>
      </trkpt>
      <trkpt lat="43.73872" lon="6.38783">
        <ele>797.55</ele>
        <time>2025-11-14T08:32:45Z</time>
      </trkpt>
      <trkpt lat="43.73885" lon="6.3873">
        <ele>799.47</ele>
        <time>2025-11-14T08:32:56Z</time>
      </trkpt>
      <trkpt lat="43.73884" lon="6.38669">
        <ele>799.95</ele>
        <time>2025-11-14T08:33:08Z</time>
      </trkpt>
      <trkpt lat="43.73881" lon="6.3865">
        <ele>799.95</ele>
        <time>2025-11-14T08:33:12Z</time>
      </trkpt>
      <trkpt lat="43.7387" lon="6.38617">
        <ele>798.51</ele>
        <time>2025-11-14T08:33:18Z</time>
      </trkpt>
      <trkpt lat="43.73842" lon="6.38555">
        <ele>794.67</ele>
        <time>2025-11-14T08:33:26Z</time>
      </trkpt>
      <trkpt lat="43.73839" lon="6.3855">
        <ele>794.19</ele>
        <time>2025-11-14T08:33:27Z</time>
      </trkpt>
      <trkpt lat="43.73815" lon="6.38506">
        <ele>792.26</ele>
        <time>2025-11-14T08:33:32Z</time>
      </trkpt>
      <trkpt lat="43.73787" lon="6.38458">
        <ele>788.9</ele>
        <time>2025-11-14T08:33:37Z</time>
      </trkpt>
      <trkpt lat="43.7377" lon="6.38428">
        <ele>787.46</ele>
        <time>2025-11-14T08:33:40Z</time>
      </trkpt>
      <trkpt lat="43.73748" lon="6.38382">
        <ele>785.53</ele>
        <time>2025-11-14T08:33:44Z</time>
      </trkpt>
      <trkpt lat="43.73747" lon="6.38373">
        <ele>785.05</ele>
        <time>2025-11-14T08:33:45Z</time>
      </trkpt>
      <trkpt lat="43.73746" lon="6.3836">
        <ele>784.57</ele>
        <time>2025-11-14T08:33:46Z</time>
      </trkpt>
      <trkpt lat="43.73746" lon="6.38347">
        <ele>784.09</ele>
        <time>2025-11-14T08:33:47Z</time>
      </trkpt>
      <trkpt lat="43.73747" lon="6.38334">
        <ele>784.09</ele>
        <time>2025-11-14T08:33:48Z</time>
      </trkpt>
      <trkpt lat="43.7375" lon="6.38323">
        <ele>784.09</ele>
        <time>2025-11-14T08:33:49Z</time>
      </trkpt>
      <trkpt lat="43.73754" lon="6.38311">
        <ele>783.61</ele>
        <time>2025-11-14T08:33:50Z</time>
      </trkpt>
      <trkpt lat="43.73758" lon="6.38302">
        <ele>783.61</ele>
        <time>2025-11-14T08:33:51Z</time>
      </trkpt>
      <trkpt lat="43.73764" lon="6.38293">
        <ele>783.61</ele>
        <time>2025-11-14T08:33:52Z</time>
      </trkpt>
      <trkpt lat="43.73803" lon="6.38238">
        <ele>780.73</ele>
        <time>2025-11-14T08:33:59Z</time>
      </trkpt>
      <trkpt lat="43.73838" lon="6.38199">
        <ele>777.36</ele>
        <time>2025-11-14T08:34:04Z</time>
      </trkpt>
      <trkpt lat="43.73883" lon="6.38146">
        <ele>775.92</ele>
        <time>2025-11-14T08:34:11Z</time>
      </trkpt>
      <trkpt lat="43.73889" lon="6.38141">
        <ele>775.92</ele>
        <time>2025-11-14T08:34:12Z</time>
      </trkpt>
      <trkpt lat="43.73893" lon="6.38139">
        <ele>777.36</ele>
        <time>2025-11-14T08:34:13Z</time>
      </trkpt>
      <trkpt lat="43.73898" lon="6.38137">
        <ele>777.36</ele>
        <time>2025-11-14T08:34:14Z</time>
      </trkpt>
      <trkpt lat="43.73915" lon="6.38129">
        <ele>780.25</ele>
        <time>2025-11-14T08:34:20Z</time>
      </trkpt>
      <trkpt lat="43.7392" lon="6.38128">
        <ele>780.73</ele>
        <time>2025-11-14T08:34:28Z</time>
      </trkpt>
      <trkpt lat="43.73921" lon="6.38129">
        <ele>780.73</ele>
        <time>2025-11-14T08:35:00Z</time>
      </trkpt>
      <trkpt lat="43.73921" lon="6.3813">
        <ele>780.73</ele>
        <time>2025-11-14T08:35:20Z</time>
      </trkpt>
      <trkpt lat="43.73922" lon="6.38129">
        <ele>780.73</ele>
        <time>2025-11-14T08:35:36Z</time>
      </trkpt>
      <trkpt lat="43.73922" lon="6.38129">
        <ele>780.73</ele>
        <time>2025-11-14T08:35:48Z</time>
      </trkpt>
      <trkpt lat="43.73923" lon="6.38128">
        <ele>780.73</ele>
        <time>2025-11-14T08:36:01Z</time>
      </trkpt>
      <trkpt lat="43.73925" lon="6.38129">
        <ele>780.73</ele>
        <time>2025-11-14T08:36:14Z</time>
      </trkpt>
      <trkpt lat="43.7393" lon="6.38131">
        <ele>780.73</ele>
        <time>2025-11-14T08:36:18Z</time>
      </trkpt>
      <trkpt lat="43.73931" lon="6.38133">
        <ele>780.73</ele>
        <time>2025-11-14T08:36:19Z</time>
      </trkpt>
      <trkpt lat="43.73933" lon="6.38135">
        <ele>780.73</ele>
        <time>2025-11-14T08:36:20Z</time>
      </trkpt>
      <trkpt lat="43.73935" lon="6.38135">
        <ele>781.21</ele>
        <time>2025-11-14T08:36:21Z</time>
      </trkpt>
      <trkpt lat="43.73937" lon="6.38136">
        <ele>781.21</ele>
        <time>2025-11-14T08:36:22Z</time>
      </trkpt>
      <trkpt lat="43.73945" lon="6.38143">
        <ele>782.17</ele>
        <time>2025-11-14T08:36:26Z</time>
      </trkpt>
      <trkpt lat="43.73945" lon="6.38145">
        <ele>782.17</ele>
        <time>2025-11-14T08:36:27Z</time>
      </trkpt>
      <trkpt lat="43.73946" lon="6.38148">
        <ele>782.17</ele>
        <time>2025-11-14T08:36:28Z</time>
      </trkpt>
      <trkpt lat="43.73947" lon="6.3815">
        <ele>782.65</ele>
        <time>2025-11-14T08:36:29Z</time>
      </trkpt>
      <trkpt lat="43.73948" lon="6.38152">
        <ele>782.65</ele>
        <time>2025-11-14T08:36:30Z</time>
      </trkpt>
      <trkpt lat="43.73949" lon="6.38153">
        <ele>782.65</ele>
        <time>2025-11-14T08:36:31Z</time>
      </trkpt>
      <trkpt lat="43.73951" lon="6.38156">
        <ele>782.65</ele>
        <time>2025-11-14T08:36:38Z</time>
      </trkpt>
      <trkpt lat="43.73952" lon="6.38158">
        <ele>783.13</ele>
        <time>2025-11-14T08:36:50Z</time>
      </trkpt>
      <trkpt lat="43.73952" lon="6.38159">
        <ele>783.13</ele>
        <time>2025-11-14T08:37:15Z</time>
      </trkpt>
      <trkpt lat="43.73954" lon="6.38158">
        <ele>783.13</ele>
        <time>2025-11-14T08:37:34Z</time>
      </trkpt>
      <trkpt lat="43.73955" lon="6.38157">
        <ele>783.13</ele>
        <time>2025-11-14T08:37:47Z</time>
      </trkpt>
      <trkpt lat="43.73956" lon="6.38156">
        <ele>783.13</ele>
        <time>2025-11-14T08:37:48Z</time>
      </trkpt>
      <trkpt lat="43.73957" lon="6.38154">
        <ele>783.13</ele>
        <time>2025-11-14T08:37:50Z</time>
      </trkpt>
      <trkpt lat="43.73958" lon="6.38155">
        <ele>783.13</ele>
        <time>2025-11-14T08:37:51Z</time>
      </trkpt>
      <trkpt lat="43.73959" lon="6.38155">
        <ele>783.13</ele>
        <time>2025-11-14T08:37:52Z</time>
      </trkpt>
      <trkpt lat="43.73961" lon="6.38156">
        <ele>783.13</ele>
        <time>2025-11-14T08:37:53Z</time>
      </trkpt>
      <trkpt lat="43.73962" lon="6.38158">
        <ele>783.61</ele>
        <time>2025-11-14T08:37:54Z</time>
      </trkpt>
      <trkpt lat="43.73964" lon="6.38159">
        <ele>783.61</ele>
        <time>2025-11-14T08:37:55Z</time>
      </trkpt>
      <trkpt lat="43.73966" lon="6.38161">
        <ele>783.61</ele>
        <time>2025-11-14T08:37:56Z</time>
      </trkpt>
      <trkpt lat="43.73983" lon="6.38175">
        <ele>786.02</ele>
        <time>2025-11-14T08:38:07Z</time>
      </trkpt>
      <trkpt lat="43.73994" lon="6.38183">
        <ele>786.98</ele>
        <time>2025-11-14T08:38:14Z</time>
      </trkpt>
      <trkpt lat="43.73995" lon="6.38184">
        <ele>786.98</ele>
        <time>2025-11-14T08:38:15Z</time>
      </trkpt>
      <trkpt lat="43.74021" lon="6.38199">
        <ele>788.9</ele>
        <time>2025-11-14T08:38:28Z</time>
      </trkpt>
      <trkpt lat="43.74027" lon="6.38201">
        <ele>789.86</ele>
        <time>2025-11-14T08:38:31Z</time>
      </trkpt>
      <trkpt lat="43.74028" lon="6.38201">
        <ele>789.86</ele>
        <time>2025-11-14T08:38:39Z</time>
      </trkpt>
      <trkpt lat="43.74031" lon="6.38199">
        <ele>789.86</ele>
        <time>2025-11-14T08:38:55Z</time>
      </trkpt>
      <trkpt lat="43.7405" lon="6.382">
        <ele>790.34</ele>
        <time>2025-11-14T08:39:03Z</time>
      </trkpt>
      <trkpt lat="43.74081" lon="6.3821">
        <ele>793.71</ele>
        <time>2025-11-14T08:39:14Z</time>
      </trkpt>
      <trkpt lat="43.74113" lon="6.38222">
        <ele>797.07</ele>
        <time>2025-11-14T08:39:26Z</time>
      </trkpt>
      <trkpt lat="43.74138" lon="6.3821">
        <ele>798.51</ele>
        <time>2025-11-14T08:39:36Z</time>
      </trkpt>
      <trkpt lat="43.74172" lon="6.38193">
        <ele>801.4</ele>
        <time>2025-11-14T08:39:49Z</time>
      </trkpt>
      <trkpt lat="43.74205" lon="6.38206">
        <ele>804.76</ele>
        <time>2025-11-14T08:40:01Z</time>
      </trkpt>
      <trkpt lat="43.74234" lon="6.38221">
        <ele>807.16</ele>
        <time>2025-11-14T08:40:13Z</time>
      </trkpt>
      <trkpt lat="43.74246" lon="6.38257">
        <ele>809.57</ele>
        <time>2025-11-14T08:40:24Z</time>
      </trkpt>
      <trkpt lat="43.74231" lon="6.38297">
        <ele>811.97</ele>
        <time>2025-11-14T08:40:35Z</time>
      </trkpt>
      <trkpt lat="43.74211" lon="6.38347">
        <ele>815.34</ele>
        <time>2025-11-14T08:40:49Z</time>
      </trkpt>
      <trkpt lat="43.74197" lon="6.38402">
        <ele>817.26</ele>
        <time>2025-11-14T08:41:03Z</time>
      </trkpt>
      <trkpt lat="43.74189" lon="6.38459">
        <ele>820.14</ele>
        <time>2025-11-14T08:41:17Z</time>
      </trkpt>
      <trkpt lat="43.74185" lon="6.38521">
        <ele>822.55</ele>
        <time>2025-11-14T08:41:32Z</time>
      </trkpt>
      <trkpt lat="43.74189" lon="6.38583">
        <ele>824.95</ele>
        <time>2025-11-14T08:41:47Z</time>
      </trkpt>
      <trkpt lat="43.74208" lon="6.38636">
        <ele>827.83</ele>
        <time>2025-11-14T08:42:01Z</time>
      </trkpt>
      <trkpt lat="43.74219" lon="6.38694">
        <ele>830.72</ele>
        <time>2025-11-14T08:42:16Z</time>
      </trkpt>
      <trkpt lat="43.74212" lon="6.38738">
        <ele>833.6</ele>
        <time>2025-11-14T08:42:28Z</time>
      </trkpt>
      <trkpt lat="43.74201" lon="6.38799">
        <ele>836.96</ele>
        <time>2025-11-14T08:42:45Z</time>
      </trkpt>
      <trkpt lat="43.74199" lon="6.38845">
        <ele>839.37</ele>
        <time>2025-11-14T08:42:58Z</time>
      </trkpt>
      <trkpt lat="43.742" lon="6.38901">
        <ele>842.25</ele>
        <time>2025-11-14T08:43:13Z</time>
      </trkpt>
      <trkpt lat="43.7421" lon="6.38953">
        <ele>845.14</ele>
        <time>2025-11-14T08:43:28Z</time>
      </trkpt>
      <trkpt lat="43.74226" lon="6.39006">
        <ele>848.02</ele>
        <time>2025-11-14T08:43:44Z</time>
      </trkpt>
      <trkpt lat="43.74246" lon="6.39056">
        <ele>850.9</ele>
        <time>2025-11-14T08:44:00Z</time>
      </trkpt>
      <trkpt lat="43.74264" lon="6.39099">
        <ele>853.79</ele>
        <time>2025-11-14T08:44:14Z</time>
      </trkpt>
      <trkpt lat="43.74288" lon="6.39132">
        <ele>856.67</ele>
        <time>2025-11-14T08:44:27Z</time>
      </trkpt>
      <trkpt lat="43.74318" lon="6.39154">
        <ele>859.08</ele>
        <time>2025-11-14T08:44:40Z</time>
      </trkpt>
      <trkpt lat="43.74349" lon="6.39177">
        <ele>861.96</ele>
        <time>2025-11-14T08:44:54Z</time>
      </trkpt>
      <trkpt lat="43.74378" lon="6.39186">
        <ele>864.84</ele>
        <time>2025-11-14T08:45:06Z</time>
      </trkpt>
      <trkpt lat="43.74405" lon="6.39163">
        <ele>867.25</ele>
        <time>2025-11-14T08:45:19Z</time>
      </trkpt>
      <trkpt lat="43.74428" lon="6.39135">
        <ele>870.13</ele>
        <time>2025-11-14T08:45:31Z</time>
      </trkpt>
      <trkpt lat="43.7445" lon="6.39112">
        <ele>871.57</ele>
        <time>2025-11-14T08:45:42Z</time>
      </trkpt>
      <trkpt lat="43.7448" lon="6.39093">
        <ele>874.46</ele>
        <time>2025-11-14T08:45:55Z</time>
      </trkpt>
      <trkpt lat="43.74508" lon="6.39077">
        <ele>876.38</ele>
        <time>2025-11-14T08:46:07Z</time>
      </trkpt>
      <trkpt lat="43.74535" lon="6.39085">
        <ele>878.78</ele>
        <time>2025-11-14T08:46:19Z</time>
      </trkpt>
      <trkpt lat="43.74551" lon="6.3911">
        <ele>879.74</ele>
        <time>2025-11-14T08:46:28Z</time>
      </trkpt>
      <trkpt lat="43.74568" lon="6.39156">
        <ele>883.11</ele>
        <time>2025-11-14T08:46:43Z</time>
      </trkpt>
      <trkpt lat="43.74586" lon="6.39208">
        <ele>885.99</ele>
        <time>2025-11-14T08:46:59Z</time>
      </trkpt>
      <trkpt lat="43.74608" lon="6.39241">
        <ele>888.4</ele>
        <time>2025-11-14T08:47:12Z</time>
      </trkpt>
      <trkpt lat="43.74642" lon="6.39251">
        <ele>890.8</ele>
        <time>2025-11-14T08:47:26Z</time>
      </trkpt>
      <trkpt lat="43.74665" lon="6.39266">
        <ele>893.68</ele>
        <time>2025-11-14T08:47:37Z</time>
      </trkpt>
      <trkpt lat="43.74686" lon="6.39293">
        <ele>896.57</ele>
        <time>2025-11-14T08:47:50Z</time>
      </trkpt>
      <trkpt lat="43.74706" lon="6.39325">
        <ele>899.45</ele>
        <time>2025-11-14T08:48:04Z</time>
      </trkpt>
      <trkpt lat="43.74727" lon="6.39367">
        <ele>901.85</ele>
        <time>2025-11-14T08:48:21Z</time>
      </trkpt>
      <trkpt lat="43.74744" lon="6.39404">
        <ele>905.22</ele>
        <time>2025-11-14T08:48:35Z</time>
      </trkpt>
      <trkpt lat="43.74763" lon="6.39442">
        <ele>908.1</ele>
        <time>2025-11-14T08:48:50Z</time>
      </trkpt>
      <trkpt lat="43.74778" lon="6.39469">
        <ele>910.99</ele>
        <time>2025-11-14T08:49:01Z</time>
      </trkpt>
      <trkpt lat="43.74794" lon="6.39493">
        <ele>913.39</ele>
        <time>2025-11-14T08:49:11Z</time>
      </trkpt>
      <trkpt lat="43.7481" lon="6.39524">
        <ele>913.39</ele>
        <time>2025-11-14T08:49:23Z</time>
      </trkpt>
      <trkpt lat="43.74828" lon="6.39559">
        <ele>916.27</ele>
        <time>2025-11-14T08:49:37Z</time>
      </trkpt>
      <trkpt lat="43.74852" lon="6.39594">
        <ele>918.68</ele>
        <time>2025-11-14T08:49:52Z</time>
      </trkpt>
      <trkpt lat="43.74871" lon="6.39637">
        <ele>921.56</ele>
        <time>2025-11-14T08:50:08Z</time>
      </trkpt>
      <trkpt lat="43.74884" lon="6.39669">
        <ele>921.08</ele>
        <time>2025-11-14T08:50:20Z</time>
      </trkpt>
      <trkpt lat="43.74885" lon="6.39672">
        <ele>924.45</ele>
        <time>2025-11-14T08:50:21Z</time>
      </trkpt>
      <trkpt lat="43.74886" lon="6.39675">
        <ele>924.45</ele>
        <time>2025-11-14T08:50:22Z</time>
      </trkpt>
      <trkpt lat="43.74894" lon="6.39705">
        <ele>926.37</ele>
        <time>2025-11-14T08:50:32Z</time>
      </trkpt>
      <trkpt lat="43.74907" lon="6.39743">
        <ele>928.77</ele>
        <time>2025-11-14T08:50:46Z</time>
      </trkpt>
      <trkpt lat="43.74937" lon="6.39775">
        <ele>931.65</ele>
        <time>2025-11-14T08:51:03Z</time>
      </trkpt>
      <trkpt lat="43.74964" lon="6.39801">
        <ele>934.06</ele>
        <time>2025-11-14T08:51:18Z</time>
      </trkpt>
      <trkpt lat="43.74979" lon="6.39827">
        <ele>935.98</ele>
        <time>2025-11-14T08:51:29Z</time>
      </trkpt>
      <trkpt lat="43.75003" lon="6.39865">
        <ele>938.86</ele>
        <time>2025-11-14T08:51:45Z</time>
      </trkpt>
      <trkpt lat="43.75032" lon="6.39899">
        <ele>942.23</ele>
        <time>2025-11-14T08:52:02Z</time>
      </trkpt>
      <trkpt lat="43.75062" lon="6.39933">
        <ele>945.59</ele>
        <time>2025-11-14T08:52:19Z</time>
      </trkpt>
      <trkpt lat="43.7509" lon="6.39964">
        <ele>947.52</ele>
        <time>2025-11-14T08:52:35Z</time>
      </trkpt>
      <trkpt lat="43.75107" lon="6.39996">
        <ele>950.4</ele>
        <time>2025-11-14T08:52:48Z</time>
      </trkpt>
      <trkpt lat="43.75123" lon="6.40034">
        <ele>952.8</ele>
        <time>2025-11-14T08:53:02Z</time>
      </trkpt>
      <trkpt lat="43.75143" lon="6.40057">
        <ele>954.73</ele>
        <time>2025-11-14T08:53:14Z</time>
      </trkpt>
      <trkpt lat="43.75164" lon="6.40075">
        <ele>956.17</ele>
        <time>2025-11-14T08:53:25Z</time>
      </trkpt>
      <trkpt lat="43.75195" lon="6.4009">
        <ele>959.05</ele>
        <time>2025-11-14T08:53:39Z</time>
      </trkpt>
      <trkpt lat="43.7522" lon="6.4011">
        <ele>961.46</ele>
        <time>2025-11-14T08:53:52Z</time>
      </trkpt>
      <trkpt lat="43.75234" lon="6.40138">
        <ele>964.34</ele>
        <time>2025-11-14T08:54:03Z</time>
      </trkpt>
      <trkpt lat="43.75253" lon="6.40177">
        <ele>966.26</ele>
        <time>2025-11-14T08:54:18Z</time>
      </trkpt>
      <trkpt lat="43.75276" lon="6.40217">
        <ele>969.15</ele>
        <time>2025-11-14T08:54:34Z</time>
      </trkpt>
      <trkpt lat="43.75296" lon="6.40252">
        <ele>971.07</ele>
        <time>2025-11-14T08:54:48Z</time>
      </trkpt>
      <trkpt lat="43.75311" lon="6.4029">
        <ele>972.51</ele>
        <time>2025-11-14T08:55:02Z</time>
      </trkpt>
      <trkpt lat="43.75309" lon="6.40343">
        <ele>972.99</ele>
        <time>2025-11-14T08:55:16Z</time>
      </trkpt>
      <trkpt lat="43.75304" lon="6.40408">
        <ele>972.99</ele>
        <time>2025-11-14T08:55:31Z</time>
      </trkpt>
      <trkpt lat="43.75288" lon="6.40458">
        <ele>973.95</ele>
        <time>2025-11-14T08:55:44Z</time>
      </trkpt>
      <trkpt lat="43.75267" lon="6.40518">
        <ele>975.39</ele>
        <time>2025-11-14T08:56:00Z</time>
      </trkpt>
      <trkpt lat="43.75253" lon="6.4057">
        <ele>976.36</ele>
        <time>2025-11-14T08:56:13Z</time>
      </trkpt>
      <trkpt lat="43.75255" lon="6.40604">
        <ele>977.32</ele>
        <time>2025-11-14T08:56:23Z</time>
      </trkpt>
      <trkpt lat="43.75258" lon="6.4064">
        <ele>977.8</ele>
        <time>2025-11-14T08:56:32Z</time>
      </trkpt>
      <trkpt lat="43.7526" lon="6.4069">
        <ele>977.32</ele>
        <time>2025-11-14T08:56:44Z</time>
      </trkpt>
      <trkpt lat="43.75262" lon="6.40737">
        <ele>977.8</ele>
        <time>2025-11-14T08:56:57Z</time>
      </trkpt>
      <trkpt lat="43.7526" lon="6.40755">
        <ele>978.28</ele>
        <time>2025-11-14T08:57:05Z</time>
      </trkpt>
      <trkpt lat="43.7526" lon="6.40758">
        <ele>978.28</ele>
        <time>2025-11-14T08:57:06Z</time>
      </trkpt>
      <trkpt lat="43.7526" lon="6.40759">
        <ele>978.28</ele>
        <time>2025-11-14T08:57:14Z</time>
      </trkpt>
      <trkpt lat="43.75261" lon="6.40759">
        <ele>978.28</ele>
        <time>2025-11-14T08:57:26Z</time>
      </trkpt>
      <trkpt lat="43.7526" lon="6.40758">
        <ele>978.28</ele>
        <time>2025-11-14T08:57:42Z</time>
      </trkpt>
      <trkpt lat="43.7526" lon="6.40759">
        <ele>978.28</ele>
        <time>2025-11-14T08:57:59Z</time>
      </trkpt>
      <trkpt lat="43.7526" lon="6.4076">
        <ele>978.28</ele>
        <time>2025-11-14T08:58:18Z</time>
      </trkpt>
      <trkpt lat="43.75259" lon="6.40759">
        <ele>978.28</ele>
        <time>2025-11-14T08:58:39Z</time>
      </trkpt>
      <trkpt lat="43.75261" lon="6.40759">
        <ele>978.28</ele>
        <time>2025-11-14T08:59:01Z</time>
      </trkpt>
      <trkpt lat="43.75261" lon="6.40757">
        <ele>978.28</ele>
        <time>2025-11-14T08:59:23Z</time>
      </trkpt>
      <trkpt lat="43.7526" lon="6.40758">
        <ele>978.28</ele>
        <time>2025-11-14T08:59:42Z</time>
      </trkpt>
      <trkpt lat="43.75261" lon="6.40758">
        <ele>978.28</ele>
        <time>2025-11-14T09:00:00Z</time>
      </trkpt>
      <trkpt lat="43.75261" lon="6.40757">
        <ele>978.28</ele>
        <time>2025-11-14T09:00:20Z</time>
      </trkpt>
      <trkpt lat="43.75259" lon="6.40759">
        <ele>978.28</ele>
        <time>2025-11-14T09:00:39Z</time>
      </trkpt>
      <trkpt lat="43.75261" lon="6.40759">
        <ele>978.28</ele>
        <time>2025-11-14T09:01:05Z</time>
      </trkpt>
      <trkpt lat="43.7526" lon="6.40762">
        <ele>978.76</ele>
        <time>2025-11-14T09:01:24Z</time>
      </trkpt>
      <trkpt lat="43.7526" lon="6.4076">
        <ele>978.76</ele>
        <time>2025-11-14T09:01:46Z</time>
      </trkpt>
      <trkpt lat="43.7526" lon="6.40761">
        <ele>978.76</ele>
        <time>2025-11-14T09:02:02Z</time>
      </trkpt>
      <trkpt lat="43.75258" lon="6.4076">
        <ele>978.76</ele>
        <time>2025-11-14T09:02:19Z</time>
      </trkpt>
      <trkpt lat="43.7526" lon="6.40759">
        <ele>978.28</ele>
        <time>2025-11-14T09:02:42Z</time>
      </trkpt>
      <trkpt lat="43.75258" lon="6.40759">
        <ele>978.28</ele>
        <time>2025-11-14T09:03:07Z</time>
      </trkpt>
      <trkpt lat="43.75256" lon="6.40759">
        <ele>978.28</ele>
        <time>2025-11-14T09:03:29Z</time>
      </trkpt>
      <trkpt lat="43.75259" lon="6.40758">
        <ele>978.28</ele>
        <time>2025-11-14T09:03:47Z</time>
      </trkpt>
      <trkpt lat="43.75258" lon="6.40758">
        <ele>978.28</ele>
        <time>2025-11-14T09:04:12Z</time>
      </trkpt>
      <trkpt lat="43.7526" lon="6.40756">
        <ele>978.28</ele>
        <time>2025-11-14T09:04:38Z</time>
      </trkpt>
      <trkpt lat="43.75258" lon="6.40759">
        <ele>978.76</ele>
        <time>2025-11-14T09:05:00Z</time>
      </trkpt>
      <trkpt lat="43.75259" lon="6.40758">
        <ele>978.76</ele>
        <time>2025-11-14T09:05:25Z</time>
      </trkpt>
      <trkpt lat="43.75258" lon="6.40757">
        <ele>978.76</ele>
        <time>2025-11-14T09:05:48Z</time>
      </trkpt>
      <trkpt lat="43.75259" lon="6.40759">
        <ele>979.24</ele>
        <time>2025-11-14T09:06:22Z</time>
      </trkpt>
      <trkpt lat="43.75258" lon="6.40758">
        <ele>979.24</ele>
        <time>2025-11-14T09:06:47Z</time>
      </trkpt>
      <trkpt lat="43.75258" lon="6.40759">
        <ele>977.8</ele>
        <time>2025-11-14T09:07:00Z</time>
      </trkpt>
      <trkpt lat="43.7526" lon="6.40759">
        <ele>977.8</ele>
        <time>2025-11-14T09:07:05Z</time>
      </trkpt>
      <trkpt lat="43.75262" lon="6.40764">
        <ele>978.76</ele>
        <time>2025-11-14T09:07:15Z</time>
      </trkpt>
      <trkpt lat="43.75263" lon="6.40768">
        <ele>978.76</ele>
        <time>2025-11-14T09:07:26Z</time>
      </trkpt>
      <trkpt lat="43.75263" lon="6.40771">
        <ele>978.76</ele>
        <time>2025-11-14T09:07:27Z</time>
      </trkpt>
      <trkpt lat="43.75264" lon="6.40772">
        <ele>978.76</ele>
        <time>2025-11-14T09:07:28Z</time>
      </trkpt>
      <trkpt lat="43.75264" lon="6.40775">
        <ele>978.76</ele>
        <time>2025-11-14T09:07:29Z</time>
      </trkpt>
      <trkpt lat="43.75265" lon="6.40779">
        <ele>978.76</ele>
        <time>2025-11-14T09:07:30Z</time>
      </trkpt>
      <trkpt lat="43.75265" lon="6.40783">
        <ele>978.76</ele>
        <time>2025-11-14T09:07:31Z</time>
      </trkpt>
      <trkpt lat="43.75263" lon="6.40834">
        <ele>979.24</ele>
        <time>2025-11-14T09:07:44Z</time>
      </trkpt>
      <trkpt lat="43.75254" lon="6.40875">
        <ele>980.68</ele>
        <time>2025-11-14T09:07:56Z</time>
      </trkpt>
      <trkpt lat="43.75245" lon="6.40917">
        <ele>983.09</ele>
        <time>2025-11-14T09:08:09Z</time>
      </trkpt>
      <trkpt lat="43.75236" lon="6.40954">
        <ele>985.01</ele>
        <time>2025-11-14T09:08:23Z</time>
      </trkpt>
      <trkpt lat="43.75225" lon="6.40993">
        <ele>986.93</ele>
        <time>2025-11-14T09:08:34Z</time>
      </trkpt>
      <trkpt lat="43.75216" lon="6.41043">
        <ele>989.33</ele>
        <time>2025-11-14T09:08:49Z</time>
      </trkpt>
      <trkpt lat="43.75213" lon="6.4109">
        <ele>992.22</ele>
        <time>2025-11-14T09:09:04Z</time>
      </trkpt>
      <trkpt lat="43.75214" lon="6.41145">
        <ele>995.1</ele>
        <time>2025-11-14T09:09:21Z</time>
      </trkpt>
      <trkpt lat="43.75216" lon="6.4119">
        <ele>997.51</ele>
        <time>2025-11-14T09:09:35Z</time>
      </trkpt>
      <trkpt lat="43.75216" lon="6.41227">
        <ele>998.47</ele>
        <time>2025-11-14T09:09:46Z</time>
      </trkpt>
      <trkpt lat="43.75217" lon="6.41272">
        <ele>998.95</ele>
        <time>2025-11-14T09:09:59Z</time>
      </trkpt>
      <trkpt lat="43.75218" lon="6.41307">
        <ele>998.95</ele>
        <time>2025-11-14T09:10:09Z</time>
      </trkpt>
      <trkpt lat="43.75213" lon="6.41348">
        <ele>998.95</ele>
        <time>2025-11-14T09:10:21Z</time>
      </trkpt>
      <trkpt lat="43.75193" lon="6.41377">
        <ele>1000.39</ele>
        <time>2025-11-14T09:10:33Z</time>
      </trkpt>
      <trkpt lat="43.75159" lon="6.41406">
        <ele>1001.35</ele>
        <time>2025-11-14T09:10:49Z</time>
      </trkpt>
      <trkpt lat="43.75137" lon="6.41438">
        <ele>1002.79</ele>
        <time>2025-11-14T09:11:02Z</time>
      </trkpt>
      <trkpt lat="43.75121" lon="6.41492">
        <ele>1004.72</ele>
        <time>2025-11-14T09:11:19Z</time>
      </trkpt>
      <trkpt lat="43.75127" lon="6.41541">
        <ele>1005.2</ele>
        <time>2025-11-14T09:11:33Z</time>
      </trkpt>
      <trkpt lat="43.75135" lon="6.41558">
        <ele>1005.2</ele>
        <time>2025-11-14T09:11:42Z</time>
      </trkpt>
      <trkpt lat="43.7514" lon="6.41565">
        <ele>1005.2</ele>
        <time>2025-11-14T09:11:53Z</time>
      </trkpt>
      <trkpt lat="43.75159" lon="6.41603">
        <ele>1004.23</ele>
        <time>2025-11-14T09:12:02Z</time>
      </trkpt>
      <trkpt lat="43.75181" lon="6.41659">
        <ele>1003.27</ele>
        <time>2025-11-14T09:12:14Z</time>
      </trkpt>
      <trkpt lat="43.75186" lon="6.41725">
        <ele>1002.79</ele>
        <time>2025-11-14T09:12:27Z</time>
      </trkpt>
      <trkpt lat="43.75183" lon="6.41773">
        <ele>1002.79</ele>
        <time>2025-11-14T09:12:37Z</time>
      </trkpt>
      <trkpt lat="43.75168" lon="6.41813">
        <ele>1002.31</ele>
        <time>2025-11-14T09:12:46Z</time>
      </trkpt>
      <trkpt lat="43.7513" lon="6.41873">
        <ele>1001.35</ele>
        <time>2025-11-14T09:12:59Z</time>
      </trkpt>
      <trkpt lat="43.75079" lon="6.41917">
        <ele>1000.87</ele>
        <time>2025-11-14T09:13:14Z</time>
      </trkpt>
      <trkpt lat="43.75033" lon="6.41928">
        <ele>1000.39</ele>
        <time>2025-11-14T09:13:26Z</time>
      </trkpt>
      <trkpt lat="43.74973" lon="6.41931">
        <ele>999.91</ele>
        <time>2025-11-14T09:13:42Z</time>
      </trkpt>
      <trkpt lat="43.7492" lon="6.4192">
        <ele>998.95</ele>
        <time>2025-11-14T09:13:56Z</time>
      </trkpt>
      <trkpt lat="43.74866" lon="6.4189">
        <ele>997.99</ele>
        <time>2025-11-14T09:14:11Z</time>
      </trkpt>
      <trkpt lat="43.74818" lon="6.41884">
        <ele>997.99</ele>
        <time>2025-11-14T09:14:24Z</time>
      </trkpt>
      <trkpt lat="43.74754" lon="6.41903">
        <ele>997.02</ele>
        <time>2025-11-14T09:14:41Z</time>
      </trkpt>
      <trkpt lat="43.74711" lon="6.41939">
        <ele>997.02</ele>
        <time>2025-11-14T09:14:54Z</time>
      </trkpt>
      <trkpt lat="43.74655" lon="6.41995">
        <ele>995.58</ele>
        <time>2025-11-14T09:15:11Z</time>
      </trkpt>
      <trkpt lat="43.74627" lon="6.4202">
        <ele>995.1</ele>
        <time>2025-11-14T09:15:18Z</time>
      </trkpt>
      <trkpt lat="43.74623" lon="6.42024">
        <ele>995.1</ele>
        <time>2025-11-14T09:15:19Z</time>
      </trkpt>
      <trkpt lat="43.7462" lon="6.42027">
        <ele>995.1</ele>
        <time>2025-11-14T09:15:20Z</time>
      </trkpt>
      <trkpt lat="43.74616" lon="6.42031">
        <ele>995.1</ele>
        <time>2025-11-14T09:15:21Z</time>
      </trkpt>
      <trkpt lat="43.74612" lon="6.42034">
        <ele>994.62</ele>
        <time>2025-11-14T09:15:22Z</time>
      </trkpt>
      <trkpt lat="43.74563" lon="6.42076">
        <ele>993.66</ele>
        <time>2025-11-14T09:15:34Z</time>
      </trkpt>
      <trkpt lat="43.74517" lon="6.42119">
        <ele>992.22</ele>
        <time>2025-11-14T09:15:45Z</time>
      </trkpt>
      <trkpt lat="43.74482" lon="6.42185">
        <ele>992.22</ele>
        <time>2025-11-14T09:15:58Z</time>
      </trkpt>
      <trkpt lat="43.74478" lon="6.42194">
        <ele>992.22</ele>
        <time>2025-11-14T09:16:00Z</time>
      </trkpt>
      <trkpt lat="43.74475" lon="6.42198">
        <ele>992.22</ele>
        <time>2025-11-14T09:16:01Z</time>
      </trkpt>
      <trkpt lat="43.74426" lon="6.42249">
        <ele>991.26</ele>
        <time>2025-11-14T09:16:15Z</time>
      </trkpt>
      <trkpt lat="43.74366" lon="6.4227">
        <ele>990.3</ele>
        <time>2025-11-14T09:16:29Z</time>
      </trkpt>
      <trkpt lat="43.74303" lon="6.42276">
        <ele>987.89</ele>
        <time>2025-11-14T09:16:41Z</time>
      </trkpt>
      <trkpt lat="43.74297" lon="6.42278">
        <ele>987.89</ele>
        <time>2025-11-14T09:16:42Z</time>
      </trkpt>
      <trkpt lat="43.74259" lon="6.42313">
        <ele>987.89</ele>
        <time>2025-11-14T09:16:51Z</time>
      </trkpt>
      <trkpt lat="43.74221" lon="6.42379">
        <ele>986.45</ele>
        <time>2025-11-14T09:17:04Z</time>
      </trkpt>
      <trkpt lat="43.74181" lon="6.42456">
        <ele>985.49</ele>
        <time>2025-11-14T09:17:18Z</time>
      </trkpt>
      <trkpt lat="43.74126" lon="6.42537">
        <ele>984.05</ele>
        <time>2025-11-14T09:17:35Z</time>
      </trkpt>
      <trkpt lat="43.74062" lon="6.42613">
        <ele>983.09</ele>
        <time>2025-11-14T09:17:52Z</time>
      </trkpt>
      <trkpt lat="43.74031" lon="6.42649">
        <ele>981.64</ele>
        <time>2025-11-14T09:18:00Z</time>
      </trkpt>
      <trkpt lat="43.74027" lon="6.42656">
        <ele>981.64</ele>
        <time>2025-11-14T09:18:01Z</time>
      </trkpt>
      <trkpt lat="43.74025" lon="6.42663">
        <ele>981.16</ele>
        <time>2025-11-14T09:18:02Z</time>
      </trkpt>
      <trkpt lat="43.74004" lon="6.4272">
        <ele>980.68</ele>
        <time>2025-11-14T09:18:12Z</time>
      </trkpt>
      <trkpt lat="43.73999" lon="6.42736">
        <ele>980.68</ele>
        <time>2025-11-14T09:18:15Z</time>
      </trkpt>
      <trkpt lat="43.73997" lon="6.4274">
        <ele>980.68</ele>
        <time>2025-11-14T09:18:16Z</time>
      </trkpt>
      <trkpt lat="43.73994" lon="6.42746">
        <ele>980.68</ele>
        <time>2025-11-14T09:18:17Z</time>
      </trkpt>
      <trkpt lat="43.73954" lon="6.42805">
        <ele>979.72</ele>
        <time>2025-11-14T09:18:30Z</time>
      </trkpt>
      <trkpt lat="43.73928" lon="6.42842">
        <ele>978.76</ele>
        <time>2025-11-14T09:18:37Z</time>
      </trkpt>
      <trkpt lat="43.73913" lon="6.42875">
        <ele>978.28</ele>
        <time>2025-11-14T09:18:43Z</time>
      </trkpt>
      <trkpt lat="43.73901" lon="6.42936">
        <ele>978.76</ele>
        <time>2025-11-14T09:18:54Z</time>
      </trkpt>
      <trkpt lat="43.73888" lon="6.4301">
        <ele>977.32</ele>
        <time>2025-11-14T09:19:07Z</time>
      </trkpt>
      <trkpt lat="43.73859" lon="6.4306">
        <ele>976.84</ele>
        <time>2025-11-14T09:19:18Z</time>
      </trkpt>
      <trkpt lat="43.73807" lon="6.43109">
        <ele>975.88</ele>
        <time>2025-11-14T09:19:31Z</time>
      </trkpt>
      <trkpt lat="43.73732" lon="6.43165">
        <ele>973.47</ele>
        <time>2025-11-14T09:19:47Z</time>
      </trkpt>
      <trkpt lat="43.73701" lon="6.43197">
        <ele>972.99</ele>
        <time>2025-11-14T09:19:54Z</time>
      </trkpt>
      <trkpt lat="43.73675" lon="6.43233">
        <ele>972.99</ele>
        <time>2025-11-14T09:20:02Z</time>
      </trkpt>
      <trkpt lat="43.73653" lon="6.43289">
        <ele>972.99</ele>
        <time>2025-11-14T09:20:14Z</time>
      </trkpt>
      <trkpt lat="43.73642" lon="6.43335">
        <ele>973.95</ele>
        <time>2025-11-14T09:20:26Z</time>
      </trkpt>
      <trkpt lat="43.73643" lon="6.43345">
        <ele>973.95</ele>
        <time>2025-11-14T09:20:29Z</time>
      </trkpt>
      <trkpt lat="43.73645" lon="6.43349">
        <ele>973.95</ele>
        <time>2025-11-14T09:20:30Z</time>
      </trkpt>
      <trkpt lat="43.73646" lon="6.43351">
        <ele>973.95</ele>
        <time>2025-11-14T09:20:31Z</time>
      </trkpt>
      <trkpt lat="43.73648" lon="6.43354">
        <ele>973.95</ele>
        <time>2025-11-14T09:20:32Z</time>
      </trkpt>
      <trkpt lat="43.73651" lon="6.43356">
        <ele>973.95</ele>
        <time>2025-11-14T09:20:33Z</time>
      </trkpt>
      <trkpt lat="43.73653" lon="6.43358">
        <ele>972.99</ele>
        <time>2025-11-14T09:20:34Z</time>
      </trkpt>
      <trkpt lat="43.73654" lon="6.43359">
        <ele>972.99</ele>
        <time>2025-11-14T09:20:43Z</time>
      </trkpt>
      <trkpt lat="43.73654" lon="6.43361">
        <ele>972.99</ele>
        <time>2025-11-14T09:20:58Z</time>
      </trkpt>
      <trkpt lat="43.73662" lon="6.43367">
        <ele>972.51</ele>
        <time>2025-11-14T09:21:08Z</time>
      </trkpt>
      <trkpt lat="43.73689" lon="6.43393">
        <ele>969.63</ele>
        <time>2025-11-14T09:21:16Z</time>
      </trkpt>
      <trkpt lat="43.73693" lon="6.43397">
        <ele>969.63</ele>
        <time>2025-11-14T09:21:17Z</time>
      </trkpt>
      <trkpt lat="43.73721" lon="6.43424">
        <ele>966.74</ele>
        <time>2025-11-14T09:21:23Z</time>
      </trkpt>
      <trkpt lat="43.7374" lon="6.43442">
        <ele>964.82</ele>
        <time>2025-11-14T09:21:27Z</time>
      </trkpt>
      <trkpt lat="43.73771" lon="6.43471">
        <ele>961.46</ele>
        <time>2025-11-14T09:21:35Z</time>
      </trkpt>
      <trkpt lat="43.73781" lon="6.43483">
        <ele>959.53</ele>
        <time>2025-11-14T09:21:43Z</time>
      </trkpt>
      <trkpt lat="43.7378" lon="6.43483">
        <ele>959.53</ele>
        <time>2025-11-14T09:21:57Z</time>
      </trkpt>
      <trkpt lat="43.73779" lon="6.43483">
        <ele>959.53</ele>
        <time>2025-11-14T09:22:22Z</time>
      </trkpt>
      <trkpt lat="43.73783" lon="6.43485">
        <ele>959.53</ele>
        <time>2025-11-14T09:22:32Z</time>
      </trkpt>
      <trkpt lat="43.73804" lon="6.43503">
        <ele>958.09</ele>
        <time>2025-11-14T09:22:39Z</time>
      </trkpt>
      <trkpt lat="43.73844" lon="6.43541">
        <ele>953.28</ele>
        <time>2025-11-14T09:22:46Z</time>
      </trkpt>
      <trkpt lat="43.73881" lon="6.43575">
        <ele>949.44</ele>
        <time>2025-11-14T09:22:51Z</time>
      </trkpt>
      <trkpt lat="43.73913" lon="6.43601">
        <ele>946.07</ele>
        <time>2025-11-14T09:22:55Z</time>
      </trkpt>
      <trkpt lat="43.73948" lon="6.4362">
        <ele>942.23</ele>
        <time>2025-11-14T09:22:59Z</time>
      </trkpt>
      <trkpt lat="43.73979" lon="6.43633">
        <ele>939.35</ele>
        <time>2025-11-14T09:23:02Z</time>
      </trkpt>
      <trkpt lat="43.74017" lon="6.43648">
        <ele>934.54</ele>
        <time>2025-11-14T09:23:06Z</time>
      </trkpt>
      <trkpt lat="43.74058" lon="6.43664">
        <ele>931.17</ele>
        <time>2025-11-14T09:23:10Z</time>
      </trkpt>
      <trkpt lat="43.7409" lon="6.43672">
        <ele>927.81</ele>
        <time>2025-11-14T09:23:13Z</time>
      </trkpt>
      <trkpt lat="43.74122" lon="6.4368">
        <ele>924.45</ele>
        <time>2025-11-14T09:23:16Z</time>
      </trkpt>
      <trkpt lat="43.74154" lon="6.43685">
        <ele>921.08</ele>
        <time>2025-11-14T09:23:19Z</time>
      </trkpt>
      <trkpt lat="43.74163" lon="6.43684">
        <ele>919.64</ele>
        <time>2025-11-14T09:23:20Z</time>
      </trkpt>
      <trkpt lat="43.74175" lon="6.43682">
        <ele>918.2</ele>
        <time>2025-11-14T09:23:21Z</time>
      </trkpt>
      <trkpt lat="43.74205" lon="6.43672">
        <ele>915.31</ele>
        <time>2025-11-14T09:23:24Z</time>
      </trkpt>
      <trkpt lat="43.74245" lon="6.43659">
        <ele>911.47</ele>
        <time>2025-11-14T09:23:28Z</time>
      </trkpt>
      <trkpt lat="43.74275" lon="6.43655">
        <ele>908.58</ele>
        <time>2025-11-14T09:23:31Z</time>
      </trkpt>
      <trkpt lat="43.74317" lon="6.43659">
        <ele>904.74</ele>
        <time>2025-11-14T09:23:35Z</time>
      </trkpt>
      <trkpt lat="43.74356" lon="6.43665">
        <ele>900.41</ele>
        <time>2025-11-14T09:23:39Z</time>
      </trkpt>
      <trkpt lat="43.74389" lon="6.43671">
        <ele>897.53</ele>
        <time>2025-11-14T09:23:42Z</time>
      </trkpt>
      <trkpt lat="43.7442" lon="6.43668">
        <ele>894.16</ele>
        <time>2025-11-14T09:23:45Z</time>
      </trkpt>
      <trkpt lat="43.74459" lon="6.43658">
        <ele>890.8</ele>
        <time>2025-11-14T09:23:49Z</time>
      </trkpt>
      <trkpt lat="43.74477" lon="6.43652">
        <ele>889.36</ele>
        <time>2025-11-14T09:23:51Z</time>
      </trkpt>
      <trkpt lat="43.74486" lon="6.43647">
        <ele>888.88</ele>
        <time>2025-11-14T09:23:52Z</time>
      </trkpt>
      <trkpt lat="43.74493" lon="6.43641">
        <ele>887.91</ele>
        <time>2025-11-14T09:23:53Z</time>
      </trkpt>
      <trkpt lat="43.74528" lon="6.4361">
        <ele>884.55</ele>
        <time>2025-11-14T09:23:58Z</time>
      </trkpt>
      <trkpt lat="43.74535" lon="6.43606">
        <ele>884.07</ele>
        <time>2025-11-14T09:23:59Z</time>
      </trkpt>
      <trkpt lat="43.74555" lon="6.43591">
        <ele>882.15</ele>
        <time>2025-11-14T09:24:02Z</time>
      </trkpt>
      <trkpt lat="43.74562" lon="6.43583">
        <ele>881.19</ele>
        <time>2025-11-14T09:24:03Z</time>
      </trkpt>
      <trkpt lat="43.74568" lon="6.43574">
        <ele>880.22</ele>
        <time>2025-11-14T09:24:04Z</time>
      </trkpt>
      <trkpt lat="43.74572" lon="6.43563">
        <ele>879.26</ele>
        <time>2025-11-14T09:24:05Z</time>
      </trkpt>
      <trkpt lat="43.74575" lon="6.43552">
        <ele>877.82</ele>
        <time>2025-11-14T09:24:06Z</time>
      </trkpt>
      <trkpt lat="43.74577" lon="6.43539">
        <ele>877.34</ele>
        <time>2025-11-14T09:24:07Z</time>
      </trkpt>
      <trkpt lat="43.74578" lon="6.43527">
        <ele>876.38</ele>
        <time>2025-11-14T09:24:08Z</time>
      </trkpt>
      <trkpt lat="43.74581" lon="6.43502">
        <ele>875.42</ele>
        <time>2025-11-14T09:24:10Z</time>
      </trkpt>
      <trkpt lat="43.74584" lon="6.4349">
        <ele>874.46</ele>
        <time>2025-11-14T09:24:11Z</time>
      </trkpt>
      <trkpt lat="43.74589" lon="6.43481">
        <ele>873.5</ele>
        <time>2025-11-14T09:24:12Z</time>
      </trkpt>
      <trkpt lat="43.74595" lon="6.43473">
        <ele>873.01</ele>
        <time>2025-11-14T09:24:13Z</time>
      </trkpt>
      <trkpt lat="43.74602" lon="6.43467">
        <ele>872.53</ele>
        <time>2025-11-14T09:24:14Z</time>
      </trkpt>
      <trkpt lat="43.74609" lon="6.43463">
        <ele>872.05</ele>
        <time>2025-11-14T09:24:15Z</time>
      </trkpt>
      <trkpt lat="43.74616" lon="6.43462">
        <ele>871.57</ele>
        <time>2025-11-14T09:24:16Z</time>
      </trkpt>
      <trkpt lat="43.74623" lon="6.43461">
        <ele>871.57</ele>
        <time>2025-11-14T09:24:17Z</time>
      </trkpt>
      <trkpt lat="43.7463" lon="6.43462">
        <ele>871.09</ele>
        <time>2025-11-14T09:24:18Z</time>
      </trkpt>
      <trkpt lat="43.74637" lon="6.43463">
        <ele>871.09</ele>
        <time>2025-11-14T09:24:19Z</time>
      </trkpt>
      <trkpt lat="43.74654" lon="6.43467">
        <ele>869.65</ele>
        <time>2025-11-14T09:24:22Z</time>
      </trkpt>
      <trkpt lat="43.74659" lon="6.4347">
        <ele>869.17</ele>
        <time>2025-11-14T09:24:23Z</time>
      </trkpt>
      <trkpt lat="43.74662" lon="6.43472">
        <ele>869.17</ele>
        <time>2025-11-14T09:24:24Z</time>
      </trkpt>
      <trkpt lat="43.74665" lon="6.43476">
        <ele>868.21</ele>
        <time>2025-11-14T09:24:25Z</time>
      </trkpt>
      <trkpt lat="43.74667" lon="6.4348">
        <ele>868.21</ele>
        <time>2025-11-14T09:24:26Z</time>
      </trkpt>
      <trkpt lat="43.74669" lon="6.43486">
        <ele>867.25</ele>
        <time>2025-11-14T09:24:27Z</time>
      </trkpt>
      <trkpt lat="43.74669" lon="6.4349">
        <ele>867.73</ele>
        <time>2025-11-14T09:24:28Z</time>
      </trkpt>
      <trkpt lat="43.7467" lon="6.43495">
        <ele>867.73</ele>
        <time>2025-11-14T09:24:29Z</time>
      </trkpt>
      <trkpt lat="43.7467" lon="6.43502">
        <ele>866.77</ele>
        <time>2025-11-14T09:24:30Z</time>
      </trkpt>
      <trkpt lat="43.74669" lon="6.43511">
        <ele>866.29</ele>
        <time>2025-11-14T09:24:31Z</time>
      </trkpt>
      <trkpt lat="43.74668" lon="6.43517">
        <ele>865.8</ele>
        <time>2025-11-14T09:24:32Z</time>
      </trkpt>
      <trkpt lat="43.74666" lon="6.43525">
        <ele>865.32</ele>
        <time>2025-11-14T09:24:33Z</time>
      </trkpt>
      <trkpt lat="43.74657" lon="6.4356">
        <ele>863.4</ele>
        <time>2025-11-14T09:24:37Z</time>
      </trkpt>
      <trkpt lat="43.74656" lon="6.4357">
        <ele>861.96</ele>
        <time>2025-11-14T09:24:38Z</time>
      </trkpt>
      <trkpt lat="43.74657" lon="6.43579">
        <ele>861.96</ele>
        <time>2025-11-14T09:24:39Z</time>
      </trkpt>
      <trkpt lat="43.7466" lon="6.43587">
        <ele>861.48</ele>
        <time>2025-11-14T09:24:40Z</time>
      </trkpt>
      <trkpt lat="43.74664" lon="6.43593">
        <ele>860.52</ele>
        <time>2025-11-14T09:24:41Z</time>
      </trkpt>
      <trkpt lat="43.74671" lon="6.43596">
        <ele>860.04</ele>
        <time>2025-11-14T09:24:42Z</time>
      </trkpt>
      <trkpt lat="43.74678" lon="6.43595">
        <ele>859.56</ele>
        <time>2025-11-14T09:24:43Z</time>
      </trkpt>
      <trkpt lat="43.74685" lon="6.43592">
        <ele>858.59</ele>
        <time>2025-11-14T09:24:44Z</time>
      </trkpt>
      <trkpt lat="43.74691" lon="6.43586">
        <ele>858.11</ele>
        <time>2025-11-14T09:24:45Z</time>
      </trkpt>
      <trkpt lat="43.74696" lon="6.43578">
        <ele>857.15</ele>
        <time>2025-11-14T09:24:46Z</time>
      </trkpt>
      <trkpt lat="43.74702" lon="6.43571">
        <ele>857.15</ele>
        <time>2025-11-14T09:24:47Z</time>
      </trkpt>
      <trkpt lat="43.74744" lon="6.43521">
        <ele>853.79</ele>
        <time>2025-11-14T09:24:54Z</time>
      </trkpt>
      <trkpt lat="43.7478" lon="6.43471">
        <ele>850.9</ele>
        <time>2025-11-14T09:25:00Z</time>
      </trkpt>
      <trkpt lat="43.74813" lon="6.43432">
        <ele>848.02</ele>
        <time>2025-11-14T09:25:05Z</time>
      </trkpt>
      <trkpt lat="43.74834" lon="6.43411">
        <ele>845.62</ele>
        <time>2025-11-14T09:25:08Z</time>
      </trkpt>
      <trkpt lat="43.74842" lon="6.43408">
        <ele>845.14</ele>
        <time>2025-11-14T09:25:09Z</time>
      </trkpt>
      <trkpt lat="43.7485" lon="6.43408">
        <ele>844.18</ele>
        <time>2025-11-14T09:25:10Z</time>
      </trkpt>
      <trkpt lat="43.74858" lon="6.43411">
        <ele>843.21</ele>
        <time>2025-11-14T09:25:11Z</time>
      </trkpt>
      <trkpt lat="43.74866" lon="6.4342">
        <ele>841.77</ele>
        <time>2025-11-14T09:25:12Z</time>
      </trkpt>
      <trkpt lat="43.74869" lon="6.43427">
        <ele>841.29</ele>
        <time>2025-11-14T09:25:13Z</time>
      </trkpt>
      <trkpt lat="43.74871" lon="6.43439">
        <ele>840.33</ele>
        <time>2025-11-14T09:25:14Z</time>
      </trkpt>
      <trkpt lat="43.74871" lon="6.4345">
        <ele>839.85</ele>
        <time>2025-11-14T09:25:15Z</time>
      </trkpt>
      <trkpt lat="43.74869" lon="6.43463">
        <ele>838.89</ele>
        <time>2025-11-14T09:25:16Z</time>
      </trkpt>
      <trkpt lat="43.74865" lon="6.43474">
        <ele>837.93</ele>
        <time>2025-11-14T09:25:17Z</time>
      </trkpt>
      <trkpt lat="43.7486" lon="6.43487">
        <ele>836.96</ele>
        <time>2025-11-14T09:25:18Z</time>
      </trkpt>
      <trkpt lat="43.74856" lon="6.435">
        <ele>836.48</ele>
        <time>2025-11-14T09:25:19Z</time>
      </trkpt>
      <trkpt lat="43.74853" lon="6.43513">
        <ele>835.04</ele>
        <time>2025-11-14T09:25:20Z</time>
      </trkpt>
      <trkpt lat="43.74848" lon="6.43569">
        <ele>832.16</ele>
        <time>2025-11-14T09:25:24Z</time>
      </trkpt>
      <trkpt lat="43.7485" lon="6.43609">
        <ele>829.76</ele>
        <time>2025-11-14T09:25:27Z</time>
      </trkpt>
      <trkpt lat="43.74853" lon="6.43621">
        <ele>829.27</ele>
        <time>2025-11-14T09:25:28Z</time>
      </trkpt>
      <trkpt lat="43.74863" lon="6.4367">
        <ele>825.91</ele>
        <time>2025-11-14T09:25:32Z</time>
      </trkpt>
      <trkpt lat="43.74863" lon="6.43682">
        <ele>824.95</ele>
        <time>2025-11-14T09:25:33Z</time>
      </trkpt>
      <trkpt lat="43.74862" lon="6.43693">
        <ele>824.47</ele>
        <time>2025-11-14T09:25:34Z</time>
      </trkpt>
      <trkpt lat="43.74861" lon="6.43703">
        <ele>823.51</ele>
        <time>2025-11-14T09:25:35Z</time>
      </trkpt>
      <trkpt lat="43.74859" lon="6.43711">
        <ele>823.51</ele>
        <time>2025-11-14T09:25:36Z</time>
      </trkpt>
      <trkpt lat="43.74858" lon="6.43738">
        <ele>822.06</ele>
        <time>2025-11-14T09:25:42Z</time>
      </trkpt>
      <trkpt lat="43.74859" lon="6.43741">
        <ele>822.06</ele>
        <time>2025-11-14T09:25:50Z</time>
      </trkpt>
      <trkpt lat="43.74859" lon="6.4374">
        <ele>821.58</ele>
        <time>2025-11-14T09:25:59Z</time>
      </trkpt>
      <trkpt lat="43.74859" lon="6.43738">
        <ele>821.58</ele>
        <time>2025-11-14T09:26:20Z</time>
      </trkpt>
      <trkpt lat="43.74859" lon="6.43739">
        <ele>821.58</ele>
        <time>2025-11-14T09:26:45Z</time>
      </trkpt>
      <trkpt lat="43.74859" lon="6.4374">
        <ele>821.1</ele>
        <time>2025-11-14T09:27:07Z</time>
      </trkpt>
      <trkpt lat="43.74858" lon="6.43741">
        <ele>821.1</ele>
        <time>2025-11-14T09:27:27Z</time>
      </trkpt>
      <trkpt lat="43.74858" lon="6.4374">
        <ele>821.1</ele>
        <time>2025-11-14T09:27:50Z</time>
      </trkpt>
      <trkpt lat="43.74859" lon="6.43741">
        <ele>821.1</ele>
        <time>2025-11-14T09:28:10Z</time>
      </trkpt>
      <trkpt lat="43.7486" lon="6.43741">
        <ele>821.1</ele>
        <time>2025-11-14T09:28:16Z</time>
      </trkpt>
      <trkpt lat="43.74861" lon="6.43742">
        <ele>821.1</ele>
        <time>2025-11-14T09:28:17Z</time>
      </trkpt>
      <trkpt lat="43.74874" lon="6.43745">
        <ele>820.14</ele>
        <time>2025-11-14T09:28:22Z</time>
      </trkpt>
      <trkpt lat="43.74877" lon="6.43743">
        <ele>820.14</ele>
        <time>2025-11-14T09:28:23Z</time>
      </trkpt>
      <trkpt lat="43.7488" lon="6.43741">
        <ele>820.14</ele>
        <time>2025-11-14T09:28:24Z</time>
      </trkpt>
      <trkpt lat="43.74883" lon="6.43737">
        <ele>819.66</ele>
        <time>2025-11-14T09:28:25Z</time>
      </trkpt>
      <trkpt lat="43.74885" lon="6.43732">
        <ele>819.66</ele>
        <time>2025-11-14T09:28:26Z</time>
      </trkpt>
      <trkpt lat="43.74886" lon="6.43727">
        <ele>819.18</ele>
        <time>2025-11-14T09:28:27Z</time>
      </trkpt>
      <trkpt lat="43.74887" lon="6.43722">
        <ele>819.18</ele>
        <time>2025-11-14T09:28:28Z</time>
      </trkpt>
      <trkpt lat="43.74888" lon="6.43716">
        <ele>819.18</ele>
        <time>2025-11-14T09:28:29Z</time>
      </trkpt>
      <trkpt lat="43.74904" lon="6.43672">
        <ele>817.26</ele>
        <time>2025-11-14T09:28:36Z</time>
      </trkpt>
      <trkpt lat="43.74907" lon="6.43665">
        <ele>816.78</ele>
        <time>2025-11-14T09:28:37Z</time>
      </trkpt>
      <trkpt lat="43.74911" lon="6.4366">
        <ele>816.3</ele>
        <time>2025-11-14T09:28:38Z</time>
      </trkpt>
      <trkpt lat="43.74916" lon="6.43654">
        <ele>816.78</ele>
        <time>2025-11-14T09:28:39Z</time>
      </trkpt>
      <trkpt lat="43.74921" lon="6.43648">
        <ele>816.3</ele>
        <time>2025-11-14T09:28:40Z</time>
      </trkpt>
      <trkpt lat="43.7496" lon="6.43607">
        <ele>812.93</ele>
        <time>2025-11-14T09:28:47Z</time>
      </trkpt>
      <trkpt lat="43.74994" lon="6.43576">
        <ele>810.05</ele>
        <time>2025-11-14T09:28:52Z</time>
      </trkpt>
      <trkpt lat="43.75009" lon="6.43566">
        <ele>808.61</ele>
        <time>2025-11-14T09:28:54Z</time>
      </trkpt>
      <trkpt lat="43.75018" lon="6.43562">
        <ele>807.64</ele>
        <time>2025-11-14T09:28:55Z</time>
      </trkpt>
      <trkpt lat="43.75056" lon="6.43548">
        <ele>804.28</ele>
        <time>2025-11-14T09:29:00Z</time>
      </trkpt>
      <trkpt lat="43.7507" lon="6.43547">
        <ele>802.84</ele>
        <time>2025-11-14T09:29:02Z</time>
      </trkpt>
      <trkpt lat="43.75076" lon="6.43552">
        <ele>801.88</ele>
        <time>2025-11-14T09:29:03Z</time>
      </trkpt>
      <trkpt lat="43.7508" lon="6.43561">
        <ele>800.92</ele>
        <time>2025-11-14T09:29:04Z</time>
      </trkpt>
      <trkpt lat="43.75081" lon="6.4357">
        <ele>799.95</ele>
        <time>2025-11-14T09:29:05Z</time>
      </trkpt>
      <trkpt lat="43.75082" lon="6.43583">
        <ele>798.99</ele>
        <time>2025-11-14T09:29:06Z</time>
      </trkpt>
      <trkpt lat="43.75081" lon="6.43594">
        <ele>798.51</ele>
        <time>2025-11-14T09:29:07Z</time>
      </trkpt>
      <trkpt lat="43.75079" lon="6.43606">
        <ele>797.55</ele>
        <time>2025-11-14T09:29:08Z</time>
      </trkpt>
      <trkpt lat="43.75077" lon="6.43616">
        <ele>797.07</ele>
        <time>2025-11-14T09:29:09Z</time>
      </trkpt>
      <trkpt lat="43.75071" lon="6.43645">
        <ele>794.67</ele>
        <time>2025-11-14T09:29:12Z</time>
      </trkpt>
      <trkpt lat="43.75072" lon="6.43656">
        <ele>794.19</ele>
        <time>2025-11-14T09:29:13Z</time>
      </trkpt>
      <trkpt lat="43.75075" lon="6.43664">
        <ele>793.22</ele>
        <time>2025-11-14T09:29:14Z</time>
      </trkpt>
      <trkpt lat="43.75081" lon="6.4367">
        <ele>791.78</ele>
        <time>2025-11-14T09:29:15Z</time>
      </trkpt>
      <trkpt lat="43.75087" lon="6.43675">
        <ele>790.82</ele>
        <time>2025-11-14T09:29:16Z</time>
      </trkpt>
      <trkpt lat="43.75094" lon="6.43681">
        <ele>789.86</ele>
        <time>2025-11-14T09:29:17Z</time>
      </trkpt>
      <trkpt lat="43.75101" lon="6.43688">
        <ele>788.9</ele>
        <time>2025-11-14T09:29:18Z</time>
      </trkpt>
      <trkpt lat="43.75107" lon="6.43695">
        <ele>787.94</ele>
        <time>2025-11-14T09:29:19Z</time>
      </trkpt>
      <trkpt lat="43.75134" lon="6.43724">
        <ele>784.09</ele>
        <time>2025-11-14T09:29:23Z</time>
      </trkpt>
      <trkpt lat="43.75155" lon="6.43745">
        <ele>781.21</ele>
        <time>2025-11-14T09:29:26Z</time>
      </trkpt>
      <trkpt lat="43.75184" lon="6.43772">
        <ele>777.84</ele>
        <time>2025-11-14T09:29:30Z</time>
      </trkpt>
      <trkpt lat="43.75212" lon="6.43794">
        <ele>774</ele>
        <time>2025-11-14T09:29:34Z</time>
      </trkpt>
      <trkpt lat="43.7522" lon="6.438">
        <ele>774</ele>
        <time>2025-11-14T09:29:35Z</time>
      </trkpt>
      <trkpt lat="43.75245" lon="6.43816">
        <ele>772.08</ele>
        <time>2025-11-14T09:29:38Z</time>
      </trkpt>
      <trkpt lat="43.7527" lon="6.43836">
        <ele>768.71</ele>
        <time>2025-11-14T09:29:41Z</time>
      </trkpt>
      <trkpt lat="43.75301" lon="6.43868">
        <ele>766.31</ele>
        <time>2025-11-14T09:29:45Z</time>
      </trkpt>
      <trkpt lat="43.75319" lon="6.43895">
        <ele>764.39</ele>
        <time>2025-11-14T09:29:48Z</time>
      </trkpt>
      <trkpt lat="43.75324" lon="6.43906">
        <ele>764.39</ele>
        <time>2025-11-14T09:29:49Z</time>
      </trkpt>
      <trkpt lat="43.75327" lon="6.43917">
        <ele>764.39</ele>
        <time>2025-11-14T09:29:50Z</time>
      </trkpt>
      <trkpt lat="43.75329" lon="6.43928">
        <ele>764.39</ele>
        <time>2025-11-14T09:29:51Z</time>
      </trkpt>
      <trkpt lat="43.75331" lon="6.43939">
        <ele>764.39</ele>
        <time>2025-11-14T09:29:52Z</time>
      </trkpt>
      <trkpt lat="43.75335" lon="6.43963">
        <ele>763.42</ele>
        <time>2025-11-14T09:29:54Z</time>
      </trkpt>
      <trkpt lat="43.75341" lon="6.43988">
        <ele>761.98</ele>
        <time>2025-11-14T09:29:56Z</time>
      </trkpt>
      <trkpt lat="43.75345" lon="6.43998">
        <ele>761.5</ele>
        <time>2025-11-14T09:29:57Z</time>
      </trkpt>
      <trkpt lat="43.75352" lon="6.44007">
        <ele>761.02</ele>
        <time>2025-11-14T09:29:58Z</time>
      </trkpt>
      <trkpt lat="43.75359" lon="6.44014">
        <ele>761.02</ele>
        <time>2025-11-14T09:29:59Z</time>
      </trkpt>
      <trkpt lat="43.75366" lon="6.44018">
        <ele>761.02</ele>
        <time>2025-11-14T09:30:00Z</time>
      </trkpt>
      <trkpt lat="43.75373" lon="6.4402">
        <ele>761.02</ele>
        <time>2025-11-14T09:30:01Z</time>
      </trkpt>
      <trkpt lat="43.7538" lon="6.44021">
        <ele>761.02</ele>
        <time>2025-11-14T09:30:02Z</time>
      </trkpt>
      <trkpt lat="43.75385" lon="6.44021">
        <ele>762.46</ele>
        <time>2025-11-14T09:30:03Z</time>
      </trkpt>
      <trkpt lat="43.75394" lon="6.44021">
        <ele>763.42</ele>
        <time>2025-11-14T09:30:05Z</time>
      </trkpt>
      <trkpt lat="43.7541" lon="6.44023">
        <ele>765.83</ele>
        <time>2025-11-14T09:30:10Z</time>
      </trkpt>
      <trkpt lat="43.75434" lon="6.44019">
        <ele>766.79</ele>
        <time>2025-11-14T09:30:17Z</time>
      </trkpt>
      <trkpt lat="43.75438" lon="6.44017">
        <ele>766.79</ele>
        <time>2025-11-14T09:30:18Z</time>
      </trkpt>
      <trkpt lat="43.75441" lon="6.44015">
        <ele>766.79</ele>
        <time>2025-11-14T09:30:19Z</time>
      </trkpt>
      <trkpt lat="43.75445" lon="6.44012">
        <ele>766.79</ele>
        <time>2025-11-14T09:30:20Z</time>
      </trkpt>
      <trkpt lat="43.75448" lon="6.44009">
        <ele>767.27</ele>
        <time>2025-11-14T09:30:21Z</time>
      </trkpt>
      <trkpt lat="43.75451" lon="6.44005">
        <ele>767.27</ele>
        <time>2025-11-14T09:30:22Z</time>
      </trkpt>
      <trkpt lat="43.75484" lon="6.43967">
        <ele>770.15</ele>
        <time>2025-11-14T09:30:35Z</time>
      </trkpt>
      <trkpt lat="43.75507" lon="6.43939">
        <ele>773.04</ele>
        <time>2025-11-14T09:30:46Z</time>
      </trkpt>
      <trkpt lat="43.7553" lon="6.43913">
        <ele>774.96</ele>
        <time>2025-11-14T09:30:55Z</time>
      </trkpt>
      <trkpt lat="43.75563" lon="6.43873">
        <ele>775.92</ele>
        <time>2025-11-14T09:31:08Z</time>
      </trkpt>
      <trkpt lat="43.7557" lon="6.43825">
        <ele>775.92</ele>
        <time>2025-11-14T09:31:18Z</time>
      </trkpt>
      <trkpt lat="43.75575" lon="6.43757">
        <ele>777.84</ele>
        <time>2025-11-14T09:31:33Z</time>
      </trkpt>
      <trkpt lat="43.75589" lon="6.4373">
        <ele>781.21</ele>
        <time>2025-11-14T09:31:42Z</time>
      </trkpt>
      <trkpt lat="43.75605" lon="6.43715">
        <ele>784.09</ele>
        <time>2025-11-14T09:31:51Z</time>
      </trkpt>
      <trkpt lat="43.75619" lon="6.43737">
        <ele>786.98</ele>
        <time>2025-11-14T09:32:00Z</time>
      </trkpt>
      <trkpt lat="43.75621" lon="6.43768">
        <ele>790.34</ele>
        <time>2025-11-14T09:32:09Z</time>
      </trkpt>
      <trkpt lat="43.75629" lon="6.43806">
        <ele>793.71</ele>
        <time>2025-11-14T09:32:20Z</time>
      </trkpt>
      <trkpt lat="43.75647" lon="6.43841">
        <ele>797.07</ele>
        <time>2025-11-14T09:32:32Z</time>
      </trkpt>
      <trkpt lat="43.75669" lon="6.43882">
        <ele>799.95</ele>
        <time>2025-11-14T09:32:46Z</time>
      </trkpt>
      <trkpt lat="43.75687" lon="6.43928">
        <ele>802.84</ele>
        <time>2025-11-14T09:33:01Z</time>
      </trkpt>
      <trkpt lat="43.757" lon="6.43968">
        <ele>805.72</ele>
        <time>2025-11-14T09:33:14Z</time>
      </trkpt>
      <trkpt lat="43.75713" lon="6.44013">
        <ele>808.13</ele>
        <time>2025-11-14T09:33:28Z</time>
      </trkpt>
      <trkpt lat="43.75721" lon="6.44042">
        <ele>808.61</ele>
        <time>2025-11-14T09:33:38Z</time>
      </trkpt>
      <trkpt lat="43.75734" lon="6.44059">
        <ele>807.16</ele>
        <time>2025-11-14T09:33:48Z</time>
      </trkpt>
      <trkpt lat="43.75735" lon="6.44058">
        <ele>807.16</ele>
        <time>2025-11-14T09:33:58Z</time>
      </trkpt>
      <trkpt lat="43.75733" lon="6.44061">
        <ele>807.16</ele>
        <time>2025-11-14T09:34:01Z</time>
      </trkpt>
      <trkpt lat="43.75732" lon="6.44063">
        <ele>807.16</ele>
        <time>2025-11-14T09:34:02Z</time>
      </trkpt>
      <trkpt lat="43.75729" lon="6.44068">
        <ele>807.16</ele>
        <time>2025-11-14T09:34:05Z</time>
      </trkpt>
      <trkpt lat="43.75729" lon="6.44071">
        <ele>806.68</ele>
        <time>2025-11-14T09:34:06Z</time>
      </trkpt>
      <trkpt lat="43.75729" lon="6.44073">
        <ele>806.68</ele>
        <time>2025-11-14T09:34:07Z</time>
      </trkpt>
      <trkpt lat="43.75729" lon="6.44075">
        <ele>806.68</ele>
        <time>2025-11-14T09:34:08Z</time>
      </trkpt>
      <trkpt lat="43.75729" lon="6.44078">
        <ele>806.2</ele>
        <time>2025-11-14T09:34:09Z</time>
      </trkpt>
      <trkpt lat="43.7573" lon="6.44081">
        <ele>805.72</ele>
        <time>2025-11-14T09:34:10Z</time>
      </trkpt>
      <trkpt lat="43.7573" lon="6.44085">
        <ele>805.72</ele>
        <time>2025-11-14T09:34:11Z</time>
      </trkpt>
      <trkpt lat="43.75741" lon="6.44112">
        <ele>802.36</ele>
        <time>2025-11-14T09:34:18Z</time>
      </trkpt>
      <trkpt lat="43.75769" lon="6.4412">
        <ele>799.95</ele>
        <time>2025-11-14T09:34:28Z</time>
      </trkpt>
      <trkpt lat="43.75782" lon="6.44118">
        <ele>798.03</ele>
        <time>2025-11-14T09:34:34Z</time>
      </trkpt>
      <trkpt lat="43.75783" lon="6.44119">
        <ele>798.03</ele>
        <time>2025-11-14T09:34:35Z</time>
      </trkpt>
      <trkpt lat="43.75784" lon="6.44121">
        <ele>797.55</ele>
        <time>2025-11-14T09:34:36Z</time>
      </trkpt>
      <trkpt lat="43.75784" lon="6.44122">
        <ele>797.55</ele>
        <time>2025-11-14T09:34:44Z</time>
      </trkpt>
      <trkpt lat="43.75784" lon="6.44123">
        <ele>797.55</ele>
        <time>2025-11-14T09:35:14Z</time>
      </trkpt>
      <trkpt lat="43.75785" lon="6.44122">
        <ele>797.55</ele>
        <time>2025-11-14T09:35:34Z</time>
      </trkpt>
      <trkpt lat="43.75786" lon="6.44119">
        <ele>797.55</ele>
        <time>2025-11-14T09:35:49Z</time>
      </trkpt>
      <trkpt lat="43.75788" lon="6.44117">
        <ele>797.55</ele>
        <time>2025-11-14T09:35:56Z</time>
      </trkpt>
      <trkpt lat="43.7579" lon="6.44116">
        <ele>797.55</ele>
        <time>2025-11-14T09:35:57Z</time>
      </trkpt>
      <trkpt lat="43.75793" lon="6.44115">
        <ele>797.55</ele>
        <time>2025-11-14T09:35:58Z</time>
      </trkpt>
      <trkpt lat="43.75804" lon="6.44114">
        <ele>796.11</ele>
        <time>2025-11-14T09:36:01Z</time>
      </trkpt>
      <trkpt lat="43.75829" lon="6.44109">
        <ele>792.74</ele>
        <time>2025-11-14T09:36:07Z</time>
      </trkpt>
      <trkpt lat="43.75842" lon="6.44105">
        <ele>791.3</ele>
        <time>2025-11-14T09:36:15Z</time>
      </trkpt>
      <trkpt lat="43.75847" lon="6.44104">
        <ele>790.82</ele>
        <time>2025-11-14T09:36:31Z</time>
      </trkpt>
      <trkpt lat="43.75851" lon="6.44103">
        <ele>790.34</ele>
        <time>2025-11-14T09:36:33Z</time>
      </trkpt>
      <trkpt lat="43.75852" lon="6.44104">
        <ele>789.86</ele>
        <time>2025-11-14T09:36:41Z</time>
      </trkpt>
      <trkpt lat="43.75851" lon="6.44105">
        <ele>789.86</ele>
        <time>2025-11-14T09:36:57Z</time>
      </trkpt>
      <trkpt lat="43.75851" lon="6.44103">
        <ele>789.86</ele>
        <time>2025-11-14T09:37:19Z</time>
      </trkpt>
      <trkpt lat="43.75853" lon="6.44103">
        <ele>789.86</ele>
        <time>2025-11-14T09:37:37Z</time>
      </trkpt>
      <trkpt lat="43.7588" lon="6.44095">
        <ele>786.98</ele>
        <time>2025-11-14T09:37:46Z</time>
      </trkpt>
      <trkpt lat="43.75902" lon="6.44094">
        <ele>784.57</ele>
        <time>2025-11-14T09:37:50Z</time>
      </trkpt>
      <trkpt lat="43.75907" lon="6.44092">
        <ele>784.09</ele>
        <time>2025-11-14T09:37:51Z</time>
      </trkpt>
      <trkpt lat="43.75913" lon="6.4409">
        <ele>784.09</ele>
        <time>2025-11-14T09:37:52Z</time>
      </trkpt>
      <trkpt lat="43.75918" lon="6.44087">
        <ele>783.13</ele>
        <time>2025-11-14T09:37:53Z</time>
      </trkpt>
      <trkpt lat="43.75922" lon="6.44084">
        <ele>782.65</ele>
        <time>2025-11-14T09:37:54Z</time>
      </trkpt>
      <trkpt lat="43.75926" lon="6.44081">
        <ele>782.65</ele>
        <time>2025-11-14T09:37:55Z</time>
      </trkpt>
      <trkpt lat="43.75939" lon="6.44073">
        <ele>781.21</ele>
        <time>2025-11-14T09:37:58Z</time>
      </trkpt>
      <trkpt lat="43.75943" lon="6.44072">
        <ele>780.73</ele>
        <time>2025-11-14T09:37:59Z</time>
      </trkpt>
      <trkpt lat="43.75946" lon="6.44072">
        <ele>781.21</ele>
        <time>2025-11-14T09:38:00Z</time>
      </trkpt>
      <trkpt lat="43.75948" lon="6.44073">
        <ele>780.73</ele>
        <time>2025-11-14T09:38:01Z</time>
      </trkpt>
      <trkpt lat="43.75951" lon="6.44074">
        <ele>780.25</ele>
        <time>2025-11-14T09:38:02Z</time>
      </trkpt>
      <trkpt lat="43.75952" lon="6.44074">
        <ele>780.25</ele>
        <time>2025-11-14T09:38:03Z</time>
      </trkpt>
      <trkpt lat="43.75954" lon="6.44074">
        <ele>780.25</ele>
        <time>2025-11-14T09:38:10Z</time>
      </trkpt>
      <trkpt lat="43.75952" lon="6.44075">
        <ele>780.25</ele>
        <time>2025-11-14T09:38:39Z</time>
      </trkpt>
      <trkpt lat="43.75953" lon="6.44074">
        <ele>780.25</ele>
        <time>2025-11-14T09:38:56Z</time>
      </trkpt>
      <trkpt lat="43.75953" lon="6.44073">
        <ele>780.25</ele>
        <time>2025-11-14T09:39:18Z</time>
      </trkpt>
      <trkpt lat="43.75952" lon="6.44073">
        <ele>780.25</ele>
        <time>2025-11-14T09:39:37Z</time>
      </trkpt>
      <trkpt lat="43.75952" lon="6.44072">
        <ele>780.73</ele>
        <time>2025-11-14T09:39:56Z</time>
      </trkpt>
      <trkpt lat="43.75951" lon="6.44073">
        <ele>780.73</ele>
        <time>2025-11-14T09:40:14Z</time>
      </trkpt>
      <trkpt lat="43.75953" lon="6.44073">
        <ele>780.73</ele>
        <time>2025-11-14T09:40:30Z</time>
      </trkpt>
      <trkpt lat="43.75955" lon="6.44071">
        <ele>780.73</ele>
        <time>2025-11-14T09:40:40Z</time>
      </trkpt>
      <trkpt lat="43.75962" lon="6.44073">
        <ele>780.25</ele>
        <time>2025-11-14T09:40:45Z</time>
      </trkpt>
      <trkpt lat="43.75965" lon="6.44073">
        <ele>780.25</ele>
        <time>2025-11-14T09:40:46Z</time>
      </trkpt>
      <trkpt lat="43.75967" lon="6.44072">
        <ele>780.25</ele>
        <time>2025-11-14T09:40:47Z</time>
      </trkpt>
      <trkpt lat="43.7597" lon="6.44073">
        <ele>780.25</ele>
        <time>2025-11-14T09:40:48Z</time>
      </trkpt>
      <trkpt lat="43.75972" lon="6.44074">
        <ele>780.25</ele>
        <time>2025-11-14T09:40:49Z</time>
      </trkpt>
      <trkpt lat="43.75974" lon="6.44075">
        <ele>780.25</ele>
        <time>2025-11-14T09:40:50Z</time>
      </trkpt>
      <trkpt lat="43.75976" lon="6.44076">
        <ele>780.25</ele>
        <time>2025-11-14T09:40:51Z</time>
      </trkpt>
      <trkpt lat="43.7598" lon="6.44078">
        <ele>780.25</ele>
        <time>2025-11-14T09:40:53Z</time>
      </trkpt>
      <trkpt lat="43.75982" lon="6.44078">
        <ele>780.25</ele>
        <time>2025-11-14T09:40:54Z</time>
      </trkpt>
      <trkpt lat="43.75983" lon="6.44078">
        <ele>780.25</ele>
        <time>2025-11-14T09:40:55Z</time>
      </trkpt>
      <trkpt lat="43.75985" lon="6.44081">
        <ele>780.25</ele>
        <time>2025-11-14T09:41:05Z</time>
      </trkpt>
      <trkpt lat="43.75986" lon="6.44081">
        <ele>780.25</ele>
        <time>2025-11-14T09:41:06Z</time>
      </trkpt>
      <trkpt lat="43.76008" lon="6.44088">
        <ele>779.29</ele>
        <time>2025-11-14T09:41:19Z</time>
      </trkpt>
      <trkpt lat="43.76022" lon="6.44115">
        <ele>776.4</ele>
        <time>2025-11-14T09:41:27Z</time>
      </trkpt>
      <trkpt lat="43.76033" lon="6.44156">
        <ele>773.04</ele>
        <time>2025-11-14T09:41:36Z</time>
      </trkpt>
      <trkpt lat="43.76032" lon="6.44164">
        <ele>772.56</ele>
        <time>2025-11-14T09:41:38Z</time>
      </trkpt>
      <trkpt lat="43.7603" lon="6.44166">
        <ele>772.08</ele>
        <time>2025-11-14T09:41:39Z</time>
      </trkpt>
      <trkpt lat="43.76028" lon="6.44168">
        <ele>772.08</ele>
        <time>2025-11-14T09:41:40Z</time>
      </trkpt>
      <trkpt lat="43.76025" lon="6.44169">
        <ele>772.08</ele>
        <time>2025-11-14T09:41:41Z</time>
      </trkpt>
      <trkpt lat="43.76022" lon="6.44169">
        <ele>771.11</ele>
        <time>2025-11-14T09:41:42Z</time>
      </trkpt>
      <trkpt lat="43.76018" lon="6.44169">
        <ele>771.11</ele>
        <time>2025-11-14T09:41:43Z</time>
      </trkpt>
      <trkpt lat="43.76014" lon="6.44168">
        <ele>770.63</ele>
        <time>2025-11-14T09:41:44Z</time>
      </trkpt>
      <trkpt lat="43.75997" lon="6.44167">
        <ele>769.19</ele>
        <time>2025-11-14T09:41:48Z</time>
      </trkpt>
      <trkpt lat="43.75992" lon="6.44168">
        <ele>768.71</ele>
        <time>2025-11-14T09:41:49Z</time>
      </trkpt>
      <trkpt lat="43.75988" lon="6.44171">
        <ele>768.23</ele>
        <time>2025-11-14T09:41:50Z</time>
      </trkpt>
      <trkpt lat="43.75983" lon="6.44174">
        <ele>767.75</ele>
        <time>2025-11-14T09:41:51Z</time>
      </trkpt>
      <trkpt lat="43.7598" lon="6.44178">
        <ele>767.75</ele>
        <time>2025-11-14T09:41:52Z</time>
      </trkpt>
      <trkpt lat="43.75959" lon="6.442">
        <ele>765.83</ele>
        <time>2025-11-14T09:41:58Z</time>
      </trkpt>
      <trkpt lat="43.75954" lon="6.44203">
        <ele>765.83</ele>
        <time>2025-11-14T09:41:59Z</time>
      </trkpt>
      <trkpt lat="43.7595" lon="6.44204">
        <ele>765.83</ele>
        <time>2025-11-14T09:42:00Z</time>
      </trkpt>
      <trkpt lat="43.75926" lon="6.44212">
        <ele>763.9</ele>
        <time>2025-11-14T09:42:05Z</time>
      </trkpt>
      <trkpt lat="43.7592" lon="6.44217">
        <ele>762.94</ele>
        <time>2025-11-14T09:42:06Z</time>
      </trkpt>
      <trkpt lat="43.75915" lon="6.44223">
        <ele>762.94</ele>
        <time>2025-11-14T09:42:07Z</time>
      </trkpt>
      <trkpt lat="43.75911" lon="6.4423">
        <ele>761.98</ele>
        <time>2025-11-14T09:42:08Z</time>
      </trkpt>
      <trkpt lat="43.75908" lon="6.44238">
        <ele>761.5</ele>
        <time>2025-11-14T09:42:09Z</time>
      </trkpt>
      <trkpt lat="43.75905" lon="6.44246">
        <ele>761.5</ele>
        <time>2025-11-14T09:42:10Z</time>
      </trkpt>
      <trkpt lat="43.75904" lon="6.44254">
        <ele>760.54</ele>
        <time>2025-11-14T09:42:11Z</time>
      </trkpt>
      <trkpt lat="43.75903" lon="6.44261">
        <ele>760.54</ele>
        <time>2025-11-14T09:42:12Z</time>
      </trkpt>
      <trkpt lat="43.75902" lon="6.44269">
        <ele>760.06</ele>
        <time>2025-11-14T09:42:13Z</time>
      </trkpt>
      <trkpt lat="43.75896" lon="6.44332">
        <ele>756.69</ele>
        <time>2025-11-14T09:42:21Z</time>
      </trkpt>
      <trkpt lat="43.75891" lon="6.44361">
        <ele>755.73</ele>
        <time>2025-11-14T09:42:25Z</time>
      </trkpt>
      <trkpt lat="43.75877" lon="6.44406">
        <ele>752.37</ele>
        <time>2025-11-14T09:42:31Z</time>
      </trkpt>
      <trkpt lat="43.75864" lon="6.44449">
        <ele>750.45</ele>
        <time>2025-11-14T09:42:36Z</time>
      </trkpt>
      <trkpt lat="43.75852" lon="6.44482">
        <ele>749</ele>
        <time>2025-11-14T09:42:40Z</time>
      </trkpt>
      <trkpt lat="43.75849" lon="6.44488">
        <ele>748.52</ele>
        <time>2025-11-14T09:42:41Z</time>
      </trkpt>
      <trkpt lat="43.75844" lon="6.44499">
        <ele>748.52</ele>
        <time>2025-11-14T09:42:43Z</time>
      </trkpt>
      <trkpt lat="43.75842" lon="6.44504">
        <ele>748.52</ele>
        <time>2025-11-14T09:42:44Z</time>
      </trkpt>
      <trkpt lat="43.75843" lon="6.4451">
        <ele>747.56</ele>
        <time>2025-11-14T09:42:45Z</time>
      </trkpt>
      <trkpt lat="43.75846" lon="6.44515">
        <ele>747.08</ele>
        <time>2025-11-14T09:42:46Z</time>
      </trkpt>
      <trkpt lat="43.75849" lon="6.44517">
        <ele>747.08</ele>
        <time>2025-11-14T09:42:47Z</time>
      </trkpt>
      <trkpt lat="43.75854" lon="6.44517">
        <ele>746.6</ele>
        <time>2025-11-14T09:42:48Z</time>
      </trkpt>
      <trkpt lat="43.75858" lon="6.44514">
        <ele>746.6</ele>
        <time>2025-11-14T09:42:49Z</time>
      </trkpt>
      <trkpt lat="43.75861" lon="6.4451">
        <ele>746.6</ele>
        <time>2025-11-14T09:42:50Z</time>
      </trkpt>
      <trkpt lat="43.75865" lon="6.44507">
        <ele>746.12</ele>
        <time>2025-11-14T09:42:51Z</time>
      </trkpt>
      <trkpt lat="43.75869" lon="6.44504">
        <ele>746.12</ele>
        <time>2025-11-14T09:42:52Z</time>
      </trkpt>
      <trkpt lat="43.75872" lon="6.44501">
        <ele>746.12</ele>
        <time>2025-11-14T09:42:53Z</time>
      </trkpt>
      <trkpt lat="43.75913" lon="6.4447">
        <ele>743.72</ele>
        <time>2025-11-14T09:43:02Z</time>
      </trkpt>
      <trkpt lat="43.75934" lon="6.4446">
        <ele>743.24</ele>
        <time>2025-11-14T09:43:06Z</time>
      </trkpt>
      <trkpt lat="43.75938" lon="6.44457">
        <ele>742.76</ele>
        <time>2025-11-14T09:43:07Z</time>
      </trkpt>
      <trkpt lat="43.75942" lon="6.44452">
        <ele>742.76</ele>
        <time>2025-11-14T09:43:08Z</time>
      </trkpt>
      <trkpt lat="43.75946" lon="6.44447">
        <ele>742.76</ele>
        <time>2025-11-14T09:43:09Z</time>
      </trkpt>
      <trkpt lat="43.75949" lon="6.44441">
        <ele>741.79</ele>
        <time>2025-11-14T09:43:10Z</time>
      </trkpt>
      <trkpt lat="43.75952" lon="6.44435">
        <ele>741.79</ele>
        <time>2025-11-14T09:43:11Z</time>
      </trkpt>
      <trkpt lat="43.75954" lon="6.4443">
        <ele>741.79</ele>
        <time>2025-11-14T09:43:12Z</time>
      </trkpt>
      <trkpt lat="43.75955" lon="6.44423">
        <ele>741.79</ele>
        <time>2025-11-14T09:43:13Z</time>
      </trkpt>
      <trkpt lat="43.75957" lon="6.44417">
        <ele>741.79</ele>
        <time>2025-11-14T09:43:14Z</time>
      </trkpt>
      <trkpt lat="43.75957" lon="6.44411">
        <ele>741.31</ele>
        <time>2025-11-14T09:43:15Z</time>
      </trkpt>
      <trkpt lat="43.75959" lon="6.44399">
        <ele>741.31</ele>
        <time>2025-11-14T09:43:17Z</time>
      </trkpt>
      <trkpt lat="43.75962" lon="6.44395">
        <ele>740.83</ele>
        <time>2025-11-14T09:43:18Z</time>
      </trkpt>
      <trkpt lat="43.75965" lon="6.44394">
        <ele>740.83</ele>
        <time>2025-11-14T09:43:19Z</time>
      </trkpt>
      <trkpt lat="43.75968" lon="6.44396">
        <ele>740.35</ele>
        <time>2025-11-14T09:43:20Z</time>
      </trkpt>
      <trkpt lat="43.75969" lon="6.44401">
        <ele>739.87</ele>
        <time>2025-11-14T09:43:21Z</time>
      </trkpt>
      <trkpt lat="43.75969" lon="6.44406">
        <ele>739.87</ele>
        <time>2025-11-14T09:43:22Z</time>
      </trkpt>
      <trkpt lat="43.75968" lon="6.44412">
        <ele>739.39</ele>
        <time>2025-11-14T09:43:23Z</time>
      </trkpt>
      <trkpt lat="43.75967" lon="6.44418">
        <ele>739.39</ele>
        <time>2025-11-14T09:43:24Z</time>
      </trkpt>
      <trkpt lat="43.75965" lon="6.44425">
        <ele>738.91</ele>
        <time>2025-11-14T09:43:25Z</time>
      </trkpt>
      <trkpt lat="43.75964" lon="6.44431">
        <ele>738.91</ele>
        <time>2025-11-14T09:43:26Z</time>
      </trkpt>
      <trkpt lat="43.75963" lon="6.44437">
        <ele>738.43</ele>
        <time>2025-11-14T09:43:27Z</time>
      </trkpt>
      <trkpt lat="43.75962" lon="6.44443">
        <ele>738.43</ele>
        <time>2025-11-14T09:43:28Z</time>
      </trkpt>
      <trkpt lat="43.75959" lon="6.445">
        <ele>735.07</ele>
        <time>2025-11-14T09:43:35Z</time>
      </trkpt>
      <trkpt lat="43.75956" lon="6.44554">
        <ele>731.7</ele>
        <time>2025-11-14T09:43:41Z</time>
      </trkpt>
      <trkpt lat="43.75952" lon="6.44605">
        <ele>728.82</ele>
        <time>2025-11-14T09:43:46Z</time>
      </trkpt>
      <trkpt lat="43.75953" lon="6.44636">
        <ele>726.89</ele>
        <time>2025-11-14T09:43:49Z</time>
      </trkpt>
      <trkpt lat="43.75956" lon="6.44649">
        <ele>725.93</ele>
        <time>2025-11-14T09:43:50Z</time>
      </trkpt>
      <trkpt lat="43.75958" lon="6.44656">
        <ele>725.45</ele>
        <time>2025-11-14T09:43:51Z</time>
      </trkpt>
      <trkpt lat="43.7596" lon="6.44664">
        <ele>724.49</ele>
        <time>2025-11-14T09:43:52Z</time>
      </trkpt>
      <trkpt lat="43.75964" lon="6.44672">
        <ele>723.53</ele>
        <time>2025-11-14T09:43:53Z</time>
      </trkpt>
      <trkpt lat="43.75968" lon="6.44681">
        <ele>723.05</ele>
        <time>2025-11-14T09:43:54Z</time>
      </trkpt>
      <trkpt lat="43.75973" lon="6.44688">
        <ele>722.57</ele>
        <time>2025-11-14T09:43:55Z</time>
      </trkpt>
      <trkpt lat="43.75978" lon="6.44695">
        <ele>722.09</ele>
        <time>2025-11-14T09:43:56Z</time>
      </trkpt>
      <trkpt lat="43.76004" lon="6.44742">
        <ele>720.16</ele>
        <time>2025-11-14T09:44:04Z</time>
      </trkpt>
      <trkpt lat="43.76012" lon="6.44755">
        <ele>719.68</ele>
        <time>2025-11-14T09:44:12Z</time>
      </trkpt>
      <trkpt lat="43.76011" lon="6.44752">
        <ele>719.68</ele>
        <time>2025-11-14T09:44:36Z</time>
      </trkpt>
      <trkpt lat="43.76011" lon="6.44753">
        <ele>719.68</ele>
        <time>2025-11-14T09:45:01Z</time>
      </trkpt>
      <trkpt lat="43.76011" lon="6.44753">
        <ele>719.68</ele>
        <time>2025-11-14T09:45:22Z</time>
      </trkpt>
      <trkpt lat="43.76018" lon="6.44765">
        <ele>719.68</ele>
        <time>2025-11-14T09:45:31Z</time>
      </trkpt>
      <trkpt lat="43.76048" lon="6.44796">
        <ele>719.2</ele>
        <time>2025-11-14T09:45:42Z</time>
      </trkpt>
      <trkpt lat="43.76052" lon="6.448">
        <ele>718.72</ele>
        <time>2025-11-14T09:45:43Z</time>
      </trkpt>
      <trkpt lat="43.76056" lon="6.44804">
        <ele>718.72</ele>
        <time>2025-11-14T09:45:44Z</time>
      </trkpt>
      <trkpt lat="43.7606" lon="6.44807">
        <ele>718.72</ele>
        <time>2025-11-14T09:45:45Z</time>
      </trkpt>
      <trkpt lat="43.76065" lon="6.44809">
        <ele>718.24</ele>
        <time>2025-11-14T09:45:46Z</time>
      </trkpt>
      <trkpt lat="43.76072" lon="6.44811">
        <ele>717.76</ele>
        <time>2025-11-14T09:45:47Z</time>
      </trkpt>
      <trkpt lat="43.76139" lon="6.44809">
        <ele>715.36</ele>
        <time>2025-11-14T09:45:58Z</time>
      </trkpt>
      <trkpt lat="43.7616" lon="6.44804">
        <ele>713.92</ele>
        <time>2025-11-14T09:46:01Z</time>
      </trkpt>
      <trkpt lat="43.76222" lon="6.44814">
        <ele>712.47</ele>
        <time>2025-11-14T09:46:10Z</time>
      </trkpt>
      <trkpt lat="43.76285" lon="6.44838">
        <ele>709.11</ele>
        <time>2025-11-14T09:46:20Z</time>
      </trkpt>
      <trkpt lat="43.76312" lon="6.44851">
        <ele>708.15</ele>
        <time>2025-11-14T09:46:28Z</time>
      </trkpt>
      <trkpt lat="43.76313" lon="6.44854">
        <ele>708.15</ele>
        <time>2025-11-14T09:46:29Z</time>
      </trkpt>
      <trkpt lat="43.76314" lon="6.44856">
        <ele>708.15</ele>
        <time>2025-11-14T09:46:30Z</time>
      </trkpt>
      <trkpt lat="43.7632" lon="6.44886">
        <ele>710.07</ele>
        <time>2025-11-14T09:46:38Z</time>
      </trkpt>
      <trkpt lat="43.76324" lon="6.44901">
        <ele>710.07</ele>
        <time>2025-11-14T09:46:41Z</time>
      </trkpt>
      <trkpt lat="43.76326" lon="6.44913">
        <ele>708.15</ele>
        <time>2025-11-14T09:46:43Z</time>
      </trkpt>
      <trkpt lat="43.76336" lon="6.44975">
        <ele>708.15</ele>
        <time>2025-11-14T09:46:54Z</time>
      </trkpt>
      <trkpt lat="43.76329" lon="6.45016">
        <ele>710.55</ele>
        <time>2025-11-14T09:47:04Z</time>
      </trkpt>
      <trkpt lat="43.763" lon="6.45064">
        <ele>712.95</ele>
        <time>2025-11-14T09:47:18Z</time>
      </trkpt>
      <trkpt lat="43.76284" lon="6.45111">
        <ele>714.4</ele>
        <time>2025-11-14T09:47:31Z</time>
      </trkpt>
      <trkpt lat="43.76286" lon="6.45121">
        <ele>714.88</ele>
        <time>2025-11-14T09:47:35Z</time>
      </trkpt>
      <trkpt lat="43.76287" lon="6.45122">
        <ele>714.88</ele>
        <time>2025-11-14T09:47:36Z</time>
      </trkpt>
      <trkpt lat="43.7629" lon="6.45125">
        <ele>714.88</ele>
        <time>2025-11-14T09:47:39Z</time>
      </trkpt>
      <trkpt lat="43.76291" lon="6.45125">
        <ele>715.36</ele>
        <time>2025-11-14T09:47:40Z</time>
      </trkpt>
      <trkpt lat="43.76292" lon="6.45126">
        <ele>715.36</ele>
        <time>2025-11-14T09:47:41Z</time>
      </trkpt>
      <trkpt lat="43.76294" lon="6.45125">
        <ele>715.36</ele>
        <time>2025-11-14T09:47:42Z</time>
      </trkpt>
      <trkpt lat="43.76295" lon="6.45123">
        <ele>715.36</ele>
        <time>2025-11-14T09:47:43Z</time>
      </trkpt>
      <trkpt lat="43.76295" lon="6.45122">
        <ele>715.36</ele>
        <time>2025-11-14T09:47:44Z</time>
      </trkpt>
      <trkpt lat="43.76296" lon="6.45121">
        <ele>715.36</ele>
        <time>2025-11-14T09:47:45Z</time>
      </trkpt>
      <trkpt lat="43.76297" lon="6.4512">
        <ele>715.36</ele>
        <time>2025-11-14T09:47:46Z</time>
      </trkpt>
      <trkpt lat="43.76299" lon="6.45119">
        <ele>715.36</ele>
        <time>2025-11-14T09:47:47Z</time>
      </trkpt>
      <trkpt lat="43.763" lon="6.45118">
        <ele>715.36</ele>
        <time>2025-11-14T09:47:48Z</time>
      </trkpt>
      <trkpt lat="43.76317" lon="6.45097">
        <ele>715.84</ele>
        <time>2025-11-14T09:47:57Z</time>
      </trkpt>
      <trkpt lat="43.7634" lon="6.45067">
        <ele>715.84</ele>
        <time>2025-11-14T09:48:08Z</time>
      </trkpt>
      <trkpt lat="43.76373" lon="6.45034">
        <ele>715.84</ele>
        <time>2025-11-14T09:48:19Z</time>
      </trkpt>
      <trkpt lat="43.76408" lon="6.45014">
        <ele>715.84</ele>
        <time>2025-11-14T09:48:30Z</time>
      </trkpt>
      <trkpt lat="43.7647" lon="6.44982">
        <ele>715.84</ele>
        <time>2025-11-14T09:48:46Z</time>
      </trkpt>
      <trkpt lat="43.76478" lon="6.44977">
        <ele>714.4</ele>
        <time>2025-11-14T09:48:48Z</time>
      </trkpt>
      <trkpt lat="43.76532" lon="6.4494">
        <ele>713.92</ele>
        <time>2025-11-14T09:49:02Z</time>
      </trkpt>
      <trkpt lat="43.76587" lon="6.44902">
        <ele>713.92</ele>
        <time>2025-11-14T09:49:17Z</time>
      </trkpt>
      <trkpt lat="43.76649" lon="6.44861">
        <ele>712.95</ele>
        <time>2025-11-14T09:49:33Z</time>
      </trkpt>
      <trkpt lat="43.76717" lon="6.44814">
        <ele>712.95</ele>
        <time>2025-11-14T09:49:51Z</time>
      </trkpt>
      <trkpt lat="43.76777" lon="6.44785">
        <ele>712.47</ele>
        <time>2025-11-14T09:50:06Z</time>
      </trkpt>
      <trkpt lat="43.7685" lon="6.44783">
        <ele>709.59</ele>
        <time>2025-11-14T09:50:20Z</time>
      </trkpt>
      <trkpt lat="43.76867" lon="6.44784">
        <ele>709.11</ele>
        <time>2025-11-14T09:50:23Z</time>
      </trkpt>
      <trkpt lat="43.76873" lon="6.44785">
        <ele>708.63</ele>
        <time>2025-11-14T09:50:24Z</time>
      </trkpt>
      <trkpt lat="43.76949" lon="6.44816">
        <ele>705.75</ele>
        <time>2025-11-14T09:50:38Z</time>
      </trkpt>
      <trkpt lat="43.7701" lon="6.44863">
        <ele>703.34</ele>
        <time>2025-11-14T09:50:49Z</time>
      </trkpt>
      <trkpt lat="43.77038" lon="6.44882">
        <ele>702.86</ele>
        <time>2025-11-14T09:50:54Z</time>
      </trkpt>
      <trkpt lat="43.77044" lon="6.44885">
        <ele>702.38</ele>
        <time>2025-11-14T09:50:55Z</time>
      </trkpt>
      <trkpt lat="43.7705" lon="6.44886">
        <ele>702.38</ele>
        <time>2025-11-14T09:50:56Z</time>
      </trkpt>
      <trkpt lat="43.77075" lon="6.44891">
        <ele>701.9</ele>
        <time>2025-11-14T09:51:00Z</time>
      </trkpt>
      <trkpt lat="43.77148" lon="6.4489">
        <ele>698.53</ele>
        <time>2025-11-14T09:51:11Z</time>
      </trkpt>
      <trkpt lat="43.77188" lon="6.44895">
        <ele>697.57</ele>
        <time>2025-11-14T09:51:17Z</time>
      </trkpt>
      <trkpt lat="43.77194" lon="6.44898">
        <ele>697.09</ele>
        <time>2025-11-14T09:51:18Z</time>
      </trkpt>
      <trkpt lat="43.77199" lon="6.44903">
        <ele>697.09</ele>
        <time>2025-11-14T09:51:19Z</time>
      </trkpt>
      <trkpt lat="43.77204" lon="6.44909">
        <ele>696.13</ele>
        <time>2025-11-14T09:51:20Z</time>
      </trkpt>
      <trkpt lat="43.77208" lon="6.44917">
        <ele>696.13</ele>
        <time>2025-11-14T09:51:21Z</time>
      </trkpt>
      <trkpt lat="43.7721" lon="6.44926">
        <ele>696.13</ele>
        <time>2025-11-14T09:51:22Z</time>
      </trkpt>
      <trkpt lat="43.77211" lon="6.44936">
        <ele>695.65</ele>
        <time>2025-11-14T09:51:23Z</time>
      </trkpt>
      <trkpt lat="43.77213" lon="6.44944">
        <ele>695.65</ele>
        <time>2025-11-14T09:51:24Z</time>
      </trkpt>
      <trkpt lat="43.77217" lon="6.44952">
        <ele>695.65</ele>
        <time>2025-11-14T09:51:25Z</time>
      </trkpt>
      <trkpt lat="43.77223" lon="6.44957">
        <ele>695.17</ele>
        <time>2025-11-14T09:51:26Z</time>
      </trkpt>
      <trkpt lat="43.7723" lon="6.44957">
        <ele>695.17</ele>
        <time>2025-11-14T09:51:27Z</time>
      </trkpt>
      <trkpt lat="43.77235" lon="6.44954">
        <ele>695.17</ele>
        <time>2025-11-14T09:51:28Z</time>
      </trkpt>
      <trkpt lat="43.77241" lon="6.44948">
        <ele>694.69</ele>
        <time>2025-11-14T09:51:29Z</time>
      </trkpt>
      <trkpt lat="43.77245" lon="6.44941">
        <ele>694.69</ele>
        <time>2025-11-14T09:51:30Z</time>
      </trkpt>
      <trkpt lat="43.77248" lon="6.44934">
        <ele>694.21</ele>
        <time>2025-11-14T09:51:31Z</time>
      </trkpt>
      <trkpt lat="43.77251" lon="6.44927">
        <ele>694.21</ele>
        <time>2025-11-14T09:51:32Z</time>
      </trkpt>
      <trkpt lat="43.77254" lon="6.44918">
        <ele>693.73</ele>
        <time>2025-11-14T09:51:33Z</time>
      </trkpt>
      <trkpt lat="43.77255" lon="6.44909">
        <ele>693.73</ele>
        <time>2025-11-14T09:51:34Z</time>
      </trkpt>
      <trkpt lat="43.77257" lon="6.449">
        <ele>693.25</ele>
        <time>2025-11-14T09:51:35Z</time>
      </trkpt>
      <trkpt lat="43.77258" lon="6.44891">
        <ele>693.25</ele>
        <time>2025-11-14T09:51:36Z</time>
      </trkpt>
      <trkpt lat="43.77261" lon="6.44883">
        <ele>692.77</ele>
        <time>2025-11-14T09:51:37Z</time>
      </trkpt>
      <trkpt lat="43.77264" lon="6.44874">
        <ele>692.77</ele>
        <time>2025-11-14T09:51:38Z</time>
      </trkpt>
      <trkpt lat="43.77268" lon="6.44866">
        <ele>691.81</ele>
        <time>2025-11-14T09:51:39Z</time>
      </trkpt>
      <trkpt lat="43.77273" lon="6.44859">
        <ele>691.81</ele>
        <time>2025-11-14T09:51:40Z</time>
      </trkpt>
      <trkpt lat="43.77278" lon="6.44852">
        <ele>691.81</ele>
        <time>2025-11-14T09:51:41Z</time>
      </trkpt>
      <trkpt lat="43.77284" lon="6.44845">
        <ele>690.84</ele>
        <time>2025-11-14T09:51:42Z</time>
      </trkpt>
      <trkpt lat="43.77296" lon="6.44835">
        <ele>690.84</ele>
        <time>2025-11-14T09:51:44Z</time>
      </trkpt>
      <trkpt lat="43.77302" lon="6.44831">
        <ele>690.36</ele>
        <time>2025-11-14T09:51:45Z</time>
      </trkpt>
      <trkpt lat="43.77329" lon="6.44813">
        <ele>688.92</ele>
        <time>2025-11-14T09:51:49Z</time>
      </trkpt>
      <trkpt lat="43.77335" lon="6.44807">
        <ele>688.44</ele>
        <time>2025-11-14T09:51:50Z</time>
      </trkpt>
      <trkpt lat="43.77339" lon="6.44799">
        <ele>688.44</ele>
        <time>2025-11-14T09:51:51Z</time>
      </trkpt>
      <trkpt lat="43.77343" lon="6.44791">
        <ele>688.44</ele>
        <time>2025-11-14T09:51:52Z</time>
      </trkpt>
      <trkpt lat="43.77346" lon="6.44781">
        <ele>687.96</ele>
        <time>2025-11-14T09:51:53Z</time>
      </trkpt>
      <trkpt lat="43.77349" lon="6.44771">
        <ele>687.48</ele>
        <time>2025-11-14T09:51:54Z</time>
      </trkpt>
      <trkpt lat="43.77352" lon="6.44763">
        <ele>687.48</ele>
        <time>2025-11-14T09:51:55Z</time>
      </trkpt>
      <trkpt lat="43.77356" lon="6.44754">
        <ele>686.52</ele>
        <time>2025-11-14T09:51:56Z</time>
      </trkpt>
      <trkpt lat="43.77361" lon="6.44747">
        <ele>686.52</ele>
        <time>2025-11-14T09:51:57Z</time>
      </trkpt>
      <trkpt lat="43.77368" lon="6.44742">
        <ele>686.04</ele>
        <time>2025-11-14T09:51:58Z</time>
      </trkpt>
      <trkpt lat="43.77376" lon="6.44739">
        <ele>686.04</ele>
        <time>2025-11-14T09:51:59Z</time>
      </trkpt>
      <trkpt lat="43.77382" lon="6.44739">
        <ele>686.52</ele>
        <time>2025-11-14T09:52:00Z</time>
      </trkpt>
      <trkpt lat="43.77387" lon="6.4474">
        <ele>686.52</ele>
        <time>2025-11-14T09:52:01Z</time>
      </trkpt>
      <trkpt lat="43.77393" lon="6.44741">
        <ele>686.52</ele>
        <time>2025-11-14T09:52:02Z</time>
      </trkpt>
      <trkpt lat="43.77398" lon="6.44743">
        <ele>686.52</ele>
        <time>2025-11-14T09:52:03Z</time>
      </trkpt>
      <trkpt lat="43.77449" lon="6.44765">
        <ele>688.44</ele>
        <time>2025-11-14T09:52:15Z</time>
      </trkpt>
      <trkpt lat="43.77513" lon="6.44798">
        <ele>688.92</ele>
        <time>2025-11-14T09:52:30Z</time>
      </trkpt>
      <trkpt lat="43.7753" lon="6.44805">
        <ele>689.4</ele>
        <time>2025-11-14T09:52:34Z</time>
      </trkpt>
      <trkpt lat="43.77542" lon="6.44812">
        <ele>689.88</ele>
        <time>2025-11-14T09:52:37Z</time>
      </trkpt>
      <trkpt lat="43.77545" lon="6.44814">
        <ele>689.88</ele>
        <time>2025-11-14T09:52:38Z</time>
      </trkpt>
      <trkpt lat="43.7758" lon="6.44846">
        <ele>690.84</ele>
        <time>2025-11-14T09:52:47Z</time>
      </trkpt>
      <trkpt lat="43.77631" lon="6.44867">
        <ele>691.33</ele>
        <time>2025-11-14T09:52:58Z</time>
      </trkpt>
      <trkpt lat="43.77636" lon="6.44867">
        <ele>691.33</ele>
        <time>2025-11-14T09:52:59Z</time>
      </trkpt>
      <trkpt lat="43.77641" lon="6.44866">
        <ele>691.33</ele>
        <time>2025-11-14T09:53:00Z</time>
      </trkpt>
      <trkpt lat="43.77645" lon="6.44864">
        <ele>691.33</ele>
        <time>2025-11-14T09:53:01Z</time>
      </trkpt>
      <trkpt lat="43.7765" lon="6.4486">
        <ele>691.33</ele>
        <time>2025-11-14T09:53:02Z</time>
      </trkpt>
      <trkpt lat="43.77653" lon="6.44856">
        <ele>691.33</ele>
        <time>2025-11-14T09:53:03Z</time>
      </trkpt>
      <trkpt lat="43.77655" lon="6.4485">
        <ele>691.33</ele>
        <time>2025-11-14T09:53:04Z</time>
      </trkpt>
      <trkpt lat="43.77656" lon="6.44844">
        <ele>691.33</ele>
        <time>2025-11-14T09:53:05Z</time>
      </trkpt>
      <trkpt lat="43.77656" lon="6.44839">
        <ele>692.29</ele>
        <time>2025-11-14T09:53:06Z</time>
      </trkpt>
      <trkpt lat="43.77655" lon="6.44834">
        <ele>692.29</ele>
        <time>2025-11-14T09:53:07Z</time>
      </trkpt>
      <trkpt lat="43.77653" lon="6.44829">
        <ele>692.29</ele>
        <time>2025-11-14T09:53:08Z</time>
      </trkpt>
      <trkpt lat="43.77651" lon="6.44823">
        <ele>692.29</ele>
        <time>2025-11-14T09:53:09Z</time>
      </trkpt>
      <trkpt lat="43.77634" lon="6.44754">
        <ele>694.21</ele>
        <time>2025-11-14T09:53:22Z</time>
      </trkpt>
      <trkpt lat="43.77627" lon="6.44686">
        <ele>697.57</ele>
        <time>2025-11-14T09:53:35Z</time>
      </trkpt>
      <trkpt lat="43.77639" lon="6.44632">
        <ele>699.02</ele>
        <time>2025-11-14T09:53:46Z</time>
      </trkpt>
      <trkpt lat="43.77667" lon="6.44598">
        <ele>700.94</ele>
        <time>2025-11-14T09:53:57Z</time>
      </trkpt>
      <trkpt lat="43.77706" lon="6.44557">
        <ele>702.86</ele>
        <time>2025-11-14T09:54:12Z</time>
      </trkpt>
      <trkpt lat="43.77732" lon="6.4453">
        <ele>704.3</ele>
        <time>2025-11-14T09:54:23Z</time>
      </trkpt>
      <trkpt lat="43.77771" lon="6.445">
        <ele>706.23</ele>
        <time>2025-11-14T09:54:37Z</time>
      </trkpt>
      <trkpt lat="43.77812" lon="6.44478">
        <ele>708.63</ele>
        <time>2025-11-14T09:54:51Z</time>
      </trkpt>
      <trkpt lat="43.77852" lon="6.44468">
        <ele>710.07</ele>
        <time>2025-11-14T09:55:04Z</time>
      </trkpt>
      <trkpt lat="43.77895" lon="6.44451">
        <ele>711.51</ele>
        <time>2025-11-14T09:55:18Z</time>
      </trkpt>
      <trkpt lat="43.77925" lon="6.44462">
        <ele>713.44</ele>
        <time>2025-11-14T09:55:28Z</time>
      </trkpt>
      <trkpt lat="43.77931" lon="6.44507">
        <ele>714.88</ele>
        <time>2025-11-14T09:55:38Z</time>
      </trkpt>
      <trkpt lat="43.77951" lon="6.44531">
        <ele>716.8</ele>
        <time>2025-11-14T09:55:47Z</time>
      </trkpt>
      <trkpt lat="43.77988" lon="6.44519">
        <ele>718.72</ele>
        <time>2025-11-14T09:55:59Z</time>
      </trkpt>
      <trkpt lat="43.78025" lon="6.4447">
        <ele>721.13</ele>
        <time>2025-11-14T09:56:14Z</time>
      </trkpt>
      <trkpt lat="43.7806" lon="6.44445">
        <ele>723.05</ele>
        <time>2025-11-14T09:56:26Z</time>
      </trkpt>
      <trkpt lat="43.78089" lon="6.4446">
        <ele>725.45</ele>
        <time>2025-11-14T09:56:35Z</time>
      </trkpt>
      <trkpt lat="43.78141" lon="6.445">
        <ele>727.86</ele>
        <time>2025-11-14T09:56:51Z</time>
      </trkpt>
      <trkpt lat="43.78192" lon="6.44529">
        <ele>727.86</ele>
        <time>2025-11-14T09:57:06Z</time>
      </trkpt>
      <trkpt lat="43.78238" lon="6.44548">
        <ele>727.86</ele>
        <time>2025-11-14T09:57:18Z</time>
      </trkpt>
      <trkpt lat="43.7828" lon="6.44556">
        <ele>726.89</ele>
        <time>2025-11-14T09:57:28Z</time>
      </trkpt>
      <trkpt lat="43.78341" lon="6.44566">
        <ele>725.45</ele>
        <time>2025-11-14T09:57:41Z</time>
      </trkpt>
      <trkpt lat="43.7841" lon="6.44586">
        <ele>724.01</ele>
        <time>2025-11-14T09:57:56Z</time>
      </trkpt>
      <trkpt lat="43.7847" lon="6.44589">
        <ele>723.05</ele>
        <time>2025-11-14T09:58:09Z</time>
      </trkpt>
      <trkpt lat="43.78474" lon="6.44589">
        <ele>723.05</ele>
        <time>2025-11-14T09:58:10Z</time>
      </trkpt>
      <trkpt lat="43.78478" lon="6.44589">
        <ele>723.05</ele>
        <time>2025-11-14T09:58:11Z</time>
      </trkpt>
      <trkpt lat="43.78504" lon="6.44587">
        <ele>723.05</ele>
        <time>2025-11-14T09:58:17Z</time>
      </trkpt>
      <trkpt lat="43.78508" lon="6.44586">
        <ele>723.05</ele>
        <time>2025-11-14T09:58:18Z</time>
      </trkpt>
      <trkpt lat="43.78516" lon="6.44583">
        <ele>724.49</ele>
        <time>2025-11-14T09:58:20Z</time>
      </trkpt>
      <trkpt lat="43.78524" lon="6.44579">
        <ele>724.49</ele>
        <time>2025-11-14T09:58:22Z</time>
      </trkpt>
      <trkpt lat="43.78527" lon="6.44576">
        <ele>724.49</ele>
        <time>2025-11-14T09:58:23Z</time>
      </trkpt>
      <trkpt lat="43.78531" lon="6.44573">
        <ele>724.49</ele>
        <time>2025-11-14T09:58:24Z</time>
      </trkpt>
      <trkpt lat="43.78534" lon="6.44568">
        <ele>724.49</ele>
        <time>2025-11-14T09:58:25Z</time>
      </trkpt>
      <trkpt lat="43.78537" lon="6.44564">
        <ele>724.49</ele>
        <time>2025-11-14T09:58:26Z</time>
      </trkpt>
      <trkpt lat="43.78551" lon="6.44541">
        <ele>724.49</ele>
        <time>2025-11-14T09:58:31Z</time>
      </trkpt>
      <trkpt lat="43.78553" lon="6.44536">
        <ele>724.49</ele>
        <time>2025-11-14T09:58:32Z</time>
      </trkpt>
      <trkpt lat="43.78554" lon="6.44531">
        <ele>724.49</ele>
        <time>2025-11-14T09:58:33Z</time>
      </trkpt>
      <trkpt lat="43.78555" lon="6.44525">
        <ele>724.97</ele>
        <time>2025-11-14T09:58:34Z</time>
      </trkpt>
      <trkpt lat="43.78556" lon="6.4452">
        <ele>724.97</ele>
        <time>2025-11-14T09:58:35Z</time>
      </trkpt>
      <trkpt lat="43.78564" lon="6.44458">
        <ele>724.97</ele>
        <time>2025-11-14T09:58:47Z</time>
      </trkpt>
      <trkpt lat="43.78568" lon="6.44401">
        <ele>724.97</ele>
        <time>2025-11-14T09:58:57Z</time>
      </trkpt>
      <trkpt lat="43.7857" lon="6.44395">
        <ele>724.97</ele>
        <time>2025-11-14T09:58:58Z</time>
      </trkpt>
      <trkpt lat="43.78571" lon="6.44389">
        <ele>724.97</ele>
        <time>2025-11-14T09:58:59Z</time>
      </trkpt>
      <trkpt lat="43.78573" lon="6.44384">
        <ele>724.97</ele>
        <time>2025-11-14T09:59:00Z</time>
      </trkpt>
      <trkpt lat="43.78576" lon="6.44379">
        <ele>724.97</ele>
        <time>2025-11-14T09:59:01Z</time>
      </trkpt>
      <trkpt lat="43.78579" lon="6.44374">
        <ele>724.97</ele>
        <time>2025-11-14T09:59:02Z</time>
      </trkpt>
      <trkpt lat="43.78582" lon="6.4437">
        <ele>724.97</ele>
        <time>2025-11-14T09:59:03Z</time>
      </trkpt>
      <trkpt lat="43.78585" lon="6.44367">
        <ele>724.97</ele>
        <time>2025-11-14T09:59:04Z</time>
      </trkpt>
      <trkpt lat="43.78589" lon="6.44364">
        <ele>724.97</ele>
        <time>2025-11-14T09:59:05Z</time>
      </trkpt>
      <trkpt lat="43.78594" lon="6.44361">
        <ele>724.97</ele>
        <time>2025-11-14T09:59:06Z</time>
      </trkpt>
      <trkpt lat="43.78598" lon="6.44358">
        <ele>724.97</ele>
        <time>2025-11-14T09:59:07Z</time>
      </trkpt>
      <trkpt lat="43.78602" lon="6.44357">
        <ele>724.97</ele>
        <time>2025-11-14T09:59:08Z</time>
      </trkpt>
      <trkpt lat="43.78606" lon="6.44356">
        <ele>724.01</ele>
        <time>2025-11-14T09:59:09Z</time>
      </trkpt>
      <trkpt lat="43.78611" lon="6.44355">
        <ele>724.01</ele>
        <time>2025-11-14T09:59:10Z</time>
      </trkpt>
      <trkpt lat="43.7863" lon="6.44353">
        <ele>723.53</ele>
        <time>2025-11-14T09:59:14Z</time>
      </trkpt>
      <trkpt lat="43.78694" lon="6.44348">
        <ele>720.16</ele>
        <time>2025-11-14T09:59:25Z</time>
      </trkpt>
      <trkpt lat="43.78771" lon="6.44337">
        <ele>716.32</ele>
        <time>2025-11-14T09:59:36Z</time>
      </trkpt>
      <trkpt lat="43.78836" lon="6.44336">
        <ele>714.4</ele>
        <time>2025-11-14T09:59:45Z</time>
      </trkpt>
      <trkpt lat="43.78843" lon="6.44338">
        <ele>713.44</ele>
        <time>2025-11-14T09:59:46Z</time>
      </trkpt>
      <trkpt lat="43.7885" lon="6.44341">
        <ele>712.95</ele>
        <time>2025-11-14T09:59:47Z</time>
      </trkpt>
      <trkpt lat="43.78856" lon="6.44346">
        <ele>712.95</ele>
        <time>2025-11-14T09:59:48Z</time>
      </trkpt>
      <trkpt lat="43.78862" lon="6.44353">
        <ele>712.95</ele>
        <time>2025-11-14T09:59:49Z</time>
      </trkpt>
      <trkpt lat="43.78867" lon="6.44359">
        <ele>712.47</ele>
        <time>2025-11-14T09:59:50Z</time>
      </trkpt>
      <trkpt lat="43.78873" lon="6.44367">
        <ele>712.47</ele>
        <time>2025-11-14T09:59:51Z</time>
      </trkpt>
      <trkpt lat="43.78894" lon="6.44393">
        <ele>711.03</ele>
        <time>2025-11-14T09:59:55Z</time>
      </trkpt>
      <trkpt lat="43.78901" lon="6.44399">
        <ele>710.55</ele>
        <time>2025-11-14T09:59:56Z</time>
      </trkpt>
      <trkpt lat="43.78907" lon="6.44403">
        <ele>710.55</ele>
        <time>2025-11-14T09:59:57Z</time>
      </trkpt>
      <trkpt lat="43.78914" lon="6.44406">
        <ele>710.07</ele>
        <time>2025-11-14T09:59:58Z</time>
      </trkpt>
      <trkpt lat="43.78921" lon="6.44407">
        <ele>710.07</ele>
        <time>2025-11-14T09:59:59Z</time>
      </trkpt>
      <trkpt lat="43.78929" lon="6.44408">
        <ele>709.11</ele>
        <time>2025-11-14T10:00:00Z</time>
      </trkpt>
      <trkpt lat="43.78943" lon="6.44409">
        <ele>708.15</ele>
        <time>2025-11-14T10:00:02Z</time>
      </trkpt>
      <trkpt lat="43.78999" lon="6.4441">
        <ele>705.75</ele>
        <time>2025-11-14T10:00:09Z</time>
      </trkpt>
      <trkpt lat="43.79008" lon="6.44406">
        <ele>705.26</ele>
        <time>2025-11-14T10:00:10Z</time>
      </trkpt>
      <trkpt lat="43.79015" lon="6.44401">
        <ele>705.26</ele>
        <time>2025-11-14T10:00:11Z</time>
      </trkpt>
      <trkpt lat="43.79022" lon="6.44394">
        <ele>704.3</ele>
        <time>2025-11-14T10:00:12Z</time>
      </trkpt>
      <trkpt lat="43.79028" lon="6.44387">
        <ele>704.3</ele>
        <time>2025-11-14T10:00:13Z</time>
      </trkpt>
      <trkpt lat="43.79033" lon="6.4438">
        <ele>703.82</ele>
        <time>2025-11-14T10:00:14Z</time>
      </trkpt>
      <trkpt lat="43.79039" lon="6.44372">
        <ele>703.34</ele>
        <time>2025-11-14T10:00:15Z</time>
      </trkpt>
      <trkpt lat="43.79073" lon="6.44323">
        <ele>700.94</ele>
        <time>2025-11-14T10:00:21Z</time>
      </trkpt>
      <trkpt lat="43.79101" lon="6.44286">
        <ele>699.5</ele>
        <time>2025-11-14T10:00:26Z</time>
      </trkpt>
      <trkpt lat="43.79109" lon="6.44279">
        <ele>699.02</ele>
        <time>2025-11-14T10:00:27Z</time>
      </trkpt>
      <trkpt lat="43.79116" lon="6.44275">
        <ele>698.53</ele>
        <time>2025-11-14T10:00:28Z</time>
      </trkpt>
      <trkpt lat="43.79123" lon="6.44274">
        <ele>698.53</ele>
        <time>2025-11-14T10:00:29Z</time>
      </trkpt>
      <trkpt lat="43.79131" lon="6.44273">
        <ele>697.57</ele>
        <time>2025-11-14T10:00:30Z</time>
      </trkpt>
      <trkpt lat="43.79139" lon="6.44273">
        <ele>697.57</ele>
        <time>2025-11-14T10:00:31Z</time>
      </trkpt>
      <trkpt lat="43.79147" lon="6.44274">
        <ele>697.09</ele>
        <time>2025-11-14T10:00:32Z</time>
      </trkpt>
      <trkpt lat="43.79155" lon="6.44275">
        <ele>696.61</ele>
        <time>2025-11-14T10:00:33Z</time>
      </trkpt>
      <trkpt lat="43.79226" lon="6.44283">
        <ele>693.73</ele>
        <time>2025-11-14T10:00:42Z</time>
      </trkpt>
      <trkpt lat="43.79272" lon="6.44286">
        <ele>691.33</ele>
        <time>2025-11-14T10:00:48Z</time>
      </trkpt>
      <trkpt lat="43.7928" lon="6.44284">
        <ele>690.84</ele>
        <time>2025-11-14T10:00:49Z</time>
      </trkpt>
      <trkpt lat="43.79287" lon="6.4428">
        <ele>690.84</ele>
        <time>2025-11-14T10:00:50Z</time>
      </trkpt>
      <trkpt lat="43.79295" lon="6.44274">
        <ele>690.84</ele>
        <time>2025-11-14T10:00:51Z</time>
      </trkpt>
      <trkpt lat="43.793" lon="6.4427">
        <ele>690.84</ele>
        <time>2025-11-14T10:00:52Z</time>
      </trkpt>
      <trkpt lat="43.79314" lon="6.44259">
        <ele>689.88</ele>
        <time>2025-11-14T10:00:54Z</time>
      </trkpt>
      <trkpt lat="43.79319" lon="6.44256">
        <ele>689.88</ele>
        <time>2025-11-14T10:00:55Z</time>
      </trkpt>
      <trkpt lat="43.79326" lon="6.44253">
        <ele>688.92</ele>
        <time>2025-11-14T10:00:56Z</time>
      </trkpt>
      <trkpt lat="43.79333" lon="6.4425">
        <ele>688.92</ele>
        <time>2025-11-14T10:00:57Z</time>
      </trkpt>
      <trkpt lat="43.7934" lon="6.44248">
        <ele>688.44</ele>
        <time>2025-11-14T10:00:58Z</time>
      </trkpt>
      <trkpt lat="43.79348" lon="6.44247">
        <ele>688.44</ele>
        <time>2025-11-14T10:00:59Z</time>
      </trkpt>
      <trkpt lat="43.79355" lon="6.44247">
        <ele>688.44</ele>
        <time>2025-11-14T10:01:00Z</time>
      </trkpt>
      <trkpt lat="43.79392" lon="6.44253">
        <ele>686.52</ele>
        <time>2025-11-14T10:01:05Z</time>
      </trkpt>
      <trkpt lat="43.794" lon="6.44257">
        <ele>686.52</ele>
        <time>2025-11-14T10:01:06Z</time>
      </trkpt>
      <trkpt lat="43.79406" lon="6.44261">
        <ele>686.04</ele>
        <time>2025-11-14T10:01:07Z</time>
      </trkpt>
      <trkpt lat="43.79413" lon="6.44265">
        <ele>686.04</ele>
        <time>2025-11-14T10:01:08Z</time>
      </trkpt>
      <trkpt lat="43.79419" lon="6.4427">
        <ele>686.04</ele>
        <time>2025-11-14T10:01:09Z</time>
      </trkpt>
      <trkpt lat="43.79453" lon="6.44294">
        <ele>684.12</ele>
        <time>2025-11-14T10:01:15Z</time>
      </trkpt>
      <trkpt lat="43.79492" lon="6.44306">
        <ele>681.71</ele>
        <time>2025-11-14T10:01:24Z</time>
      </trkpt>
      <trkpt lat="43.79502" lon="6.4431">
        <ele>681.23</ele>
        <time>2025-11-14T10:01:33Z</time>
      </trkpt>
      <trkpt lat="43.79502" lon="6.44309">
        <ele>681.23</ele>
        <time>2025-11-14T10:01:44Z</time>
      </trkpt>
      <trkpt lat="43.79501" lon="6.44312">
        <ele>681.23</ele>
        <time>2025-11-14T10:02:04Z</time>
      </trkpt>
      <trkpt lat="43.79502" lon="6.44312">
        <ele>681.23</ele>
        <time>2025-11-14T10:02:25Z</time>
      </trkpt>
      <trkpt lat="43.79502" lon="6.44309">
        <ele>681.23</ele>
        <time>2025-11-14T10:02:50Z</time>
      </trkpt>
      <trkpt lat="43.79499" lon="6.44309">
        <ele>681.23</ele>
        <time>2025-11-14T10:03:19Z</time>
      </trkpt>
      <trkpt lat="43.79499" lon="6.4431">
        <ele>681.71</ele>
        <time>2025-11-14T10:03:51Z</time>
      </trkpt>
      <trkpt lat="43.79502" lon="6.44309">
        <ele>681.71</ele>
        <time>2025-11-14T10:04:06Z</time>
      </trkpt>
      <trkpt lat="43.79505" lon="6.44308">
        <ele>681.71</ele>
        <time>2025-11-14T10:04:14Z</time>
      </trkpt>
      <trkpt lat="43.79506" lon="6.44308">
        <ele>681.71</ele>
        <time>2025-11-14T10:04:15Z</time>
      </trkpt>
      <trkpt lat="43.7953" lon="6.44314">
        <ele>681.23</ele>
        <time>2025-11-14T10:04:24Z</time>
      </trkpt>
      <trkpt lat="43.79551" lon="6.44319">
        <ele>680.27</ele>
        <time>2025-11-14T10:04:35Z</time>
      </trkpt>
      <trkpt lat="43.79567" lon="6.44326">
        <ele>676.91</ele>
        <time>2025-11-14T10:04:40Z</time>
      </trkpt>
      <trkpt lat="43.79573" lon="6.44331">
        <ele>677.87</ele>
        <time>2025-11-14T10:04:41Z</time>
      </trkpt>
      <trkpt lat="43.79577" lon="6.44336">
        <ele>679.31</ele>
        <time>2025-11-14T10:04:42Z</time>
      </trkpt>
      <trkpt lat="43.79579" lon="6.44341">
        <ele>678.35</ele>
        <time>2025-11-14T10:04:43Z</time>
      </trkpt>
      <trkpt lat="43.79582" lon="6.44347">
        <ele>678.35</ele>
        <time>2025-11-14T10:04:44Z</time>
      </trkpt>
      <trkpt lat="43.79583" lon="6.44355">
        <ele>678.35</ele>
        <time>2025-11-14T10:04:45Z</time>
      </trkpt>
      <trkpt lat="43.79583" lon="6.44361">
        <ele>677.87</ele>
        <time>2025-11-14T10:04:46Z</time>
      </trkpt>
      <trkpt lat="43.79584" lon="6.44368">
        <ele>676.91</ele>
        <time>2025-11-14T10:04:47Z</time>
      </trkpt>
      <trkpt lat="43.79583" lon="6.44376">
        <ele>676.91</ele>
        <time>2025-11-14T10:04:48Z</time>
      </trkpt>
      <trkpt lat="43.79583" lon="6.44384">
        <ele>676.91</ele>
        <time>2025-11-14T10:04:49Z</time>
      </trkpt>
      <trkpt lat="43.79583" lon="6.44414">
        <ele>677.39</ele>
        <time>2025-11-14T10:04:53Z</time>
      </trkpt>
      <trkpt lat="43.79585" lon="6.44421">
        <ele>677.87</ele>
        <time>2025-11-14T10:04:54Z</time>
      </trkpt>
      <trkpt lat="43.79586" lon="6.44427">
        <ele>677.87</ele>
        <time>2025-11-14T10:04:55Z</time>
      </trkpt>
      <trkpt lat="43.7959" lon="6.44442">
        <ele>676.42</ele>
        <time>2025-11-14T10:04:57Z</time>
      </trkpt>
      <trkpt lat="43.79601" lon="6.44474">
        <ele>676.42</ele>
        <time>2025-11-14T10:05:06Z</time>
      </trkpt>
      <trkpt lat="43.796" lon="6.44475">
        <ele>676.42</ele>
        <time>2025-11-14T10:05:15Z</time>
      </trkpt>
      <trkpt lat="43.796" lon="6.44475">
        <ele>676.42</ele>
        <time>2025-11-14T10:05:31Z</time>
      </trkpt>
      <trkpt lat="43.796" lon="6.44473">
        <ele>676.42</ele>
        <time>2025-11-14T10:05:52Z</time>
      </trkpt>
      <trkpt lat="43.79599" lon="6.44473">
        <ele>676.42</ele>
        <time>2025-11-14T10:06:11Z</time>
      </trkpt>
      <trkpt lat="43.79599" lon="6.44467">
        <ele>676.42</ele>
        <time>2025-11-14T10:06:33Z</time>
      </trkpt>
      <trkpt lat="43.79598" lon="6.44468">
        <ele>676.42</ele>
        <time>2025-11-14T10:06:46Z</time>
      </trkpt>
      <trkpt lat="43.79597" lon="6.4446">
        <ele>676.42</ele>
        <time>2025-11-14T10:07:00Z</time>
      </trkpt>
      <trkpt lat="43.79598" lon="6.44463">
        <ele>676.42</ele>
        <time>2025-11-14T10:07:15Z</time>
      </trkpt>
      <trkpt lat="43.79599" lon="6.44467">
        <ele>676.42</ele>
        <time>2025-11-14T10:07:33Z</time>
      </trkpt>
      <trkpt lat="43.796" lon="6.44469">
        <ele>676.42</ele>
        <time>2025-11-14T10:07:39Z</time>
      </trkpt>
      <trkpt lat="43.79603" lon="6.44471">
        <ele>676.42</ele>
        <time>2025-11-14T10:07:49Z</time>
      </trkpt>
      <trkpt lat="43.79604" lon="6.44471">
        <ele>676.42</ele>
        <time>2025-11-14T10:07:50Z</time>
      </trkpt>
      <trkpt lat="43.79606" lon="6.44471">
        <ele>676.42</ele>
        <time>2025-11-14T10:07:51Z</time>
      </trkpt>
      <trkpt lat="43.79608" lon="6.44472">
        <ele>676.42</ele>
        <time>2025-11-14T10:07:52Z</time>
      </trkpt>
      <trkpt lat="43.79622" lon="6.44473">
        <ele>676.42</ele>
        <time>2025-11-14T10:07:56Z</time>
      </trkpt>
      <trkpt lat="43.79627" lon="6.44473">
        <ele>676.42</ele>
        <time>2025-11-14T10:07:57Z</time>
      </trkpt>
      <trkpt lat="43.79632" lon="6.44471">
        <ele>676.42</ele>
        <time>2025-11-14T10:07:58Z</time>
      </trkpt>
      <trkpt lat="43.79636" lon="6.44468">
        <ele>676.42</ele>
        <time>2025-11-14T10:07:59Z</time>
      </trkpt>
      <trkpt lat="43.79639" lon="6.44467">
        <ele>676.42</ele>
        <time>2025-11-14T10:08:00Z</time>
      </trkpt>
      <trkpt lat="43.7965" lon="6.44459">
        <ele>676.42</ele>
        <time>2025-11-14T10:08:03Z</time>
      </trkpt>
      <trkpt lat="43.7967" lon="6.44438">
        <ele>676.42</ele>
        <time>2025-11-14T10:08:08Z</time>
      </trkpt>
      <trkpt lat="43.79721" lon="6.44376">
        <ele>673.54</ele>
        <time>2025-11-14T10:08:21Z</time>
      </trkpt>
      <trkpt lat="43.79733" lon="6.44367">
        <ele>673.54</ele>
        <time>2025-11-14T10:08:23Z</time>
      </trkpt>
      <trkpt lat="43.79776" lon="6.44333">
        <ele>671.62</ele>
        <time>2025-11-14T10:08:31Z</time>
      </trkpt>
      <trkpt lat="43.79797" lon="6.44299">
        <ele>670.18</ele>
        <time>2025-11-14T10:08:36Z</time>
      </trkpt>
      <trkpt lat="43.798" lon="6.44292">
        <ele>670.18</ele>
        <time>2025-11-14T10:08:37Z</time>
      </trkpt>
      <trkpt lat="43.79801" lon="6.44284">
        <ele>670.18</ele>
        <time>2025-11-14T10:08:38Z</time>
      </trkpt>
      <trkpt lat="43.79802" lon="6.44275">
        <ele>670.18</ele>
        <time>2025-11-14T10:08:39Z</time>
      </trkpt>
      <trkpt lat="43.79801" lon="6.44268">
        <ele>669.7</ele>
        <time>2025-11-14T10:08:40Z</time>
      </trkpt>
      <trkpt lat="43.798" lon="6.4426">
        <ele>669.7</ele>
        <time>2025-11-14T10:08:41Z</time>
      </trkpt>
      <trkpt lat="43.79799" lon="6.44253">
        <ele>669.7</ele>
        <time>2025-11-14T10:08:42Z</time>
      </trkpt>
      <trkpt lat="43.79797" lon="6.44246">
        <ele>669.7</ele>
        <time>2025-11-14T10:08:43Z</time>
      </trkpt>
      <trkpt lat="43.79795" lon="6.44239">
        <ele>669.22</ele>
        <time>2025-11-14T10:08:44Z</time>
      </trkpt>
      <trkpt lat="43.79793" lon="6.44231">
        <ele>669.22</ele>
        <time>2025-11-14T10:08:45Z</time>
      </trkpt>
      <trkpt lat="43.79792" lon="6.44226">
        <ele>669.22</ele>
        <time>2025-11-14T10:08:46Z</time>
      </trkpt>
      <trkpt lat="43.79791" lon="6.44218">
        <ele>668.25</ele>
        <time>2025-11-14T10:08:47Z</time>
      </trkpt>
      <trkpt lat="43.79791" lon="6.4421">
        <ele>668.25</ele>
        <time>2025-11-14T10:08:48Z</time>
      </trkpt>
      <trkpt lat="43.79792" lon="6.44202">
        <ele>668.25</ele>
        <time>2025-11-14T10:08:49Z</time>
      </trkpt>
      <trkpt lat="43.79794" lon="6.44195">
        <ele>667.77</ele>
        <time>2025-11-14T10:08:50Z</time>
      </trkpt>
      <trkpt lat="43.79796" lon="6.44188">
        <ele>667.77</ele>
        <time>2025-11-14T10:08:51Z</time>
      </trkpt>
      <trkpt lat="43.79799" lon="6.44181">
        <ele>667.29</ele>
        <time>2025-11-14T10:08:52Z</time>
      </trkpt>
      <trkpt lat="43.79804" lon="6.44173">
        <ele>667.29</ele>
        <time>2025-11-14T10:08:53Z</time>
      </trkpt>
      <trkpt lat="43.79808" lon="6.44168">
        <ele>666.81</ele>
        <time>2025-11-14T10:08:54Z</time>
      </trkpt>
      <trkpt lat="43.79813" lon="6.44164">
        <ele>666.81</ele>
        <time>2025-11-14T10:08:55Z</time>
      </trkpt>
      <trkpt lat="43.79819" lon="6.44162">
        <ele>666.81</ele>
        <time>2025-11-14T10:08:56Z</time>
      </trkpt>
      <trkpt lat="43.79824" lon="6.4416">
        <ele>666.81</ele>
        <time>2025-11-14T10:08:57Z</time>
      </trkpt>
      <trkpt lat="43.7983" lon="6.44158">
        <ele>666.33</ele>
        <time>2025-11-14T10:08:58Z</time>
      </trkpt>
      <trkpt lat="43.79891" lon="6.44139">
        <ele>665.37</ele>
        <time>2025-11-14T10:09:09Z</time>
      </trkpt>
      <trkpt lat="43.79918" lon="6.44135">
        <ele>664.41</ele>
        <time>2025-11-14T10:09:14Z</time>
      </trkpt>
      <trkpt lat="43.79923" lon="6.44133">
        <ele>664.41</ele>
        <time>2025-11-14T10:09:15Z</time>
      </trkpt>
      <trkpt lat="43.79928" lon="6.44129">
        <ele>663.93</ele>
        <time>2025-11-14T10:09:16Z</time>
      </trkpt>
      <trkpt lat="43.79933" lon="6.44125">
        <ele>663.93</ele>
        <time>2025-11-14T10:09:17Z</time>
      </trkpt>
      <trkpt lat="43.79937" lon="6.44122">
        <ele>663.93</ele>
        <time>2025-11-14T10:09:18Z</time>
      </trkpt>
      <trkpt lat="43.79942" lon="6.44118">
        <ele>663.93</ele>
        <time>2025-11-14T10:09:19Z</time>
      </trkpt>
      <trkpt lat="43.79948" lon="6.44116">
        <ele>663.93</ele>
        <time>2025-11-14T10:09:20Z</time>
      </trkpt>
      <trkpt lat="43.79952" lon="6.44115">
        <ele>663.45</ele>
        <time>2025-11-14T10:09:21Z</time>
      </trkpt>
      <trkpt lat="43.79958" lon="6.44115">
        <ele>663.45</ele>
        <time>2025-11-14T10:09:22Z</time>
      </trkpt>
      <trkpt lat="43.79962" lon="6.44115">
        <ele>663.45</ele>
        <time>2025-11-14T10:09:23Z</time>
      </trkpt>
      <trkpt lat="43.79987" lon="6.44116">
        <ele>662.97</ele>
        <time>2025-11-14T10:09:28Z</time>
      </trkpt>
      <trkpt lat="43.7999" lon="6.44116">
        <ele>662.49</ele>
        <time>2025-11-14T10:09:29Z</time>
      </trkpt>
      <trkpt lat="43.79995" lon="6.44114">
        <ele>662.49</ele>
        <time>2025-11-14T10:09:30Z</time>
      </trkpt>
      <trkpt lat="43.79999" lon="6.44111">
        <ele>662.49</ele>
        <time>2025-11-14T10:09:31Z</time>
      </trkpt>
      <trkpt lat="43.80004" lon="6.44107">
        <ele>662.49</ele>
        <time>2025-11-14T10:09:32Z</time>
      </trkpt>
      <trkpt lat="43.80007" lon="6.44102">
        <ele>662.49</ele>
        <time>2025-11-14T10:09:33Z</time>
      </trkpt>
      <trkpt lat="43.80011" lon="6.44097">
        <ele>662.49</ele>
        <time>2025-11-14T10:09:34Z</time>
      </trkpt>
      <trkpt lat="43.80013" lon="6.44091">
        <ele>662.49</ele>
        <time>2025-11-14T10:09:35Z</time>
      </trkpt>
      <trkpt lat="43.80016" lon="6.44084">
        <ele>662.49</ele>
        <time>2025-11-14T10:09:36Z</time>
      </trkpt>
      <trkpt lat="43.80018" lon="6.44075">
        <ele>662.01</ele>
        <time>2025-11-14T10:09:37Z</time>
      </trkpt>
      <trkpt lat="43.80027" lon="6.44033">
        <ele>661.04</ele>
        <time>2025-11-14T10:09:43Z</time>
      </trkpt>
      <trkpt lat="43.8003" lon="6.44026">
        <ele>661.04</ele>
        <time>2025-11-14T10:09:44Z</time>
      </trkpt>
      <trkpt lat="43.80033" lon="6.44018">
        <ele>661.04</ele>
        <time>2025-11-14T10:09:45Z</time>
      </trkpt>
      <trkpt lat="43.80037" lon="6.4401">
        <ele>660.08</ele>
        <time>2025-11-14T10:09:46Z</time>
      </trkpt>
      <trkpt lat="43.80043" lon="6.44003">
        <ele>660.08</ele>
        <time>2025-11-14T10:09:47Z</time>
      </trkpt>
      <trkpt lat="43.80046" lon="6.43999">
        <ele>659.6</ele>
        <time>2025-11-14T10:09:48Z</time>
      </trkpt>
      <trkpt lat="43.80052" lon="6.43993">
        <ele>659.12</ele>
        <time>2025-11-14T10:09:49Z</time>
      </trkpt>
      <trkpt lat="43.80058" lon="6.43989">
        <ele>659.12</ele>
        <time>2025-11-14T10:09:50Z</time>
      </trkpt>
      <trkpt lat="43.80065" lon="6.43985">
        <ele>658.64</ele>
        <time>2025-11-14T10:09:51Z</time>
      </trkpt>
      <trkpt lat="43.80071" lon="6.43983">
        <ele>658.64</ele>
        <time>2025-11-14T10:09:52Z</time>
      </trkpt>
      <trkpt lat="43.80077" lon="6.43981">
        <ele>658.64</ele>
        <time>2025-11-14T10:09:53Z</time>
      </trkpt>
      <trkpt lat="43.80084" lon="6.4398">
        <ele>658.64</ele>
        <time>2025-11-14T10:09:54Z</time>
      </trkpt>
      <trkpt lat="43.8009" lon="6.4398">
        <ele>658.64</ele>
        <time>2025-11-14T10:09:55Z</time>
      </trkpt>
      <trkpt lat="43.80097" lon="6.4398">
        <ele>658.16</ele>
        <time>2025-11-14T10:09:56Z</time>
      </trkpt>
      <trkpt lat="43.80145" lon="6.43981">
        <ele>657.2</ele>
        <time>2025-11-14T10:10:04Z</time>
      </trkpt>
      <trkpt lat="43.80151" lon="6.43982">
        <ele>657.2</ele>
        <time>2025-11-14T10:10:05Z</time>
      </trkpt>
      <trkpt lat="43.80196" lon="6.43972">
        <ele>657.68</ele>
        <time>2025-11-14T10:10:14Z</time>
      </trkpt>
      <trkpt lat="43.80201" lon="6.43969">
        <ele>657.68</ele>
        <time>2025-11-14T10:10:15Z</time>
      </trkpt>
      <trkpt lat="43.80246" lon="6.43928">
        <ele>657.68</ele>
        <time>2025-11-14T10:10:26Z</time>
      </trkpt>
      <trkpt lat="43.8026" lon="6.43918">
        <ele>657.68</ele>
        <time>2025-11-14T10:10:29Z</time>
      </trkpt>
      <trkpt lat="43.80264" lon="6.43916">
        <ele>657.68</ele>
        <time>2025-11-14T10:10:30Z</time>
      </trkpt>
      <trkpt lat="43.8027" lon="6.43914">
        <ele>657.68</ele>
        <time>2025-11-14T10:10:31Z</time>
      </trkpt>
      <trkpt lat="43.80281" lon="6.43913">
        <ele>657.68</ele>
        <time>2025-11-14T10:10:33Z</time>
      </trkpt>
      <trkpt lat="43.80284" lon="6.43913">
        <ele>656.72</ele>
        <time>2025-11-14T10:10:34Z</time>
      </trkpt>
      <trkpt lat="43.8029" lon="6.43913">
        <ele>656.72</ele>
        <time>2025-11-14T10:10:35Z</time>
      </trkpt>
      <trkpt lat="43.803" lon="6.43916">
        <ele>656.72</ele>
        <time>2025-11-14T10:10:37Z</time>
      </trkpt>
      <trkpt lat="43.80306" lon="6.43919">
        <ele>656.72</ele>
        <time>2025-11-14T10:10:38Z</time>
      </trkpt>
      <trkpt lat="43.80311" lon="6.43922">
        <ele>656.72</ele>
        <time>2025-11-14T10:10:39Z</time>
      </trkpt>
      <trkpt lat="43.80315" lon="6.43926">
        <ele>656.72</ele>
        <time>2025-11-14T10:10:40Z</time>
      </trkpt>
      <trkpt lat="43.8032" lon="6.43931">
        <ele>655.76</ele>
        <time>2025-11-14T10:10:41Z</time>
      </trkpt>
      <trkpt lat="43.80325" lon="6.43937">
        <ele>655.76</ele>
        <time>2025-11-14T10:10:42Z</time>
      </trkpt>
      <trkpt lat="43.80356" lon="6.43977">
        <ele>654.8</ele>
        <time>2025-11-14T10:10:49Z</time>
      </trkpt>
      <trkpt lat="43.80362" lon="6.43992">
        <ele>653.83</ele>
        <time>2025-11-14T10:10:51Z</time>
      </trkpt>
      <trkpt lat="43.80365" lon="6.44002">
        <ele>653.83</ele>
        <time>2025-11-14T10:10:52Z</time>
      </trkpt>
      <trkpt lat="43.80365" lon="6.44008">
        <ele>653.35</ele>
        <time>2025-11-14T10:10:53Z</time>
      </trkpt>
      <trkpt lat="43.80366" lon="6.44016">
        <ele>653.35</ele>
        <time>2025-11-14T10:10:54Z</time>
      </trkpt>
      <trkpt lat="43.80365" lon="6.44025">
        <ele>653.35</ele>
        <time>2025-11-14T10:10:55Z</time>
      </trkpt>
      <trkpt lat="43.80366" lon="6.44099">
        <ele>653.35</ele>
        <time>2025-11-14T10:11:05Z</time>
      </trkpt>
      <trkpt lat="43.80367" lon="6.44106">
        <ele>653.35</ele>
        <time>2025-11-14T10:11:06Z</time>
      </trkpt>
      <trkpt lat="43.80382" lon="6.44153">
        <ele>652.87</ele>
        <time>2025-11-14T10:11:14Z</time>
      </trkpt>
      <trkpt lat="43.80384" lon="6.44153">
        <ele>652.39</ele>
        <time>2025-11-14T10:11:21Z</time>
      </trkpt>
      <trkpt lat="43.80383" lon="6.44153">
        <ele>652.39</ele>
        <time>2025-11-14T10:11:45Z</time>
      </trkpt>
      <trkpt lat="43.80384" lon="6.44154">
        <ele>652.39</ele>
        <time>2025-11-14T10:12:01Z</time>
      </trkpt>
      <trkpt lat="43.80384" lon="6.44155">
        <ele>652.39</ele>
        <time>2025-11-14T10:12:02Z</time>
      </trkpt>
      <trkpt lat="43.80384" lon="6.44164">
        <ele>652.39</ele>
        <time>2025-11-14T10:12:06Z</time>
      </trkpt>
      <trkpt lat="43.80383" lon="6.44168">
        <ele>652.39</ele>
        <time>2025-11-14T10:12:08Z</time>
      </trkpt>
      <trkpt lat="43.80383" lon="6.44174">
        <ele>652.39</ele>
        <time>2025-11-14T10:12:09Z</time>
      </trkpt>
      <trkpt lat="43.8039" lon="6.44209">
        <ele>652.39</ele>
        <time>2025-11-14T10:12:16Z</time>
      </trkpt>
      <trkpt lat="43.80393" lon="6.44214">
        <ele>652.39</ele>
        <time>2025-11-14T10:12:17Z</time>
      </trkpt>
      <trkpt lat="43.80396" lon="6.44218">
        <ele>652.39</ele>
        <time>2025-11-14T10:12:18Z</time>
      </trkpt>
      <trkpt lat="43.80399" lon="6.44221">
        <ele>652.39</ele>
        <time>2025-11-14T10:12:19Z</time>
      </trkpt>
      <trkpt lat="43.80403" lon="6.44223">
        <ele>652.39</ele>
        <time>2025-11-14T10:12:20Z</time>
      </trkpt>
      <trkpt lat="43.80407" lon="6.44225">
        <ele>652.39</ele>
        <time>2025-11-14T10:12:21Z</time>
      </trkpt>
      <trkpt lat="43.80411" lon="6.44226">
        <ele>652.39</ele>
        <time>2025-11-14T10:12:22Z</time>
      </trkpt>
      <trkpt lat="43.80414" lon="6.44227">
        <ele>652.39</ele>
        <time>2025-11-14T10:12:23Z</time>
      </trkpt>
      <trkpt lat="43.80418" lon="6.44228">
        <ele>652.39</ele>
        <time>2025-11-14T10:12:24Z</time>
      </trkpt>
      <trkpt lat="43.80422" lon="6.44227">
        <ele>652.39</ele>
        <time>2025-11-14T10:12:25Z</time>
      </trkpt>
      <trkpt lat="43.80426" lon="6.44227">
        <ele>652.87</ele>
        <time>2025-11-14T10:12:26Z</time>
      </trkpt>
      <trkpt lat="43.80461" lon="6.44217">
        <ele>654.31</ele>
        <time>2025-11-14T10:12:35Z</time>
      </trkpt>
      <trkpt lat="43.80487" lon="6.44208">
        <ele>654.31</ele>
        <time>2025-11-14T10:12:41Z</time>
      </trkpt>
      <trkpt lat="43.80491" lon="6.44206">
        <ele>654.31</ele>
        <time>2025-11-14T10:12:42Z</time>
      </trkpt>
      <trkpt lat="43.80533" lon="6.44172">
        <ele>655.28</ele>
        <time>2025-11-14T10:12:55Z</time>
      </trkpt>
      <trkpt lat="43.80543" lon="6.44166">
        <ele>655.28</ele>
        <time>2025-11-14T10:13:03Z</time>
      </trkpt>
      <trkpt lat="43.80543" lon="6.44166">
        <ele>656.72</ele>
        <time>2025-11-14T10:13:08Z</time>
      </trkpt>
      <trkpt lat="43.80542" lon="6.44166">
        <ele>655.28</ele>
        <time>2025-11-14T10:13:10Z</time>
      </trkpt>
      <trkpt lat="43.8054" lon="6.44167">
        <ele>655.28</ele>
        <time>2025-11-14T10:13:42Z</time>
      </trkpt>
      <trkpt lat="43.80542" lon="6.44164">
        <ele>655.28</ele>
        <time>2025-11-14T10:13:47Z</time>
      </trkpt>
      <trkpt lat="43.80543" lon="6.44162">
        <ele>655.28</ele>
        <time>2025-11-14T10:13:48Z</time>
      </trkpt>
      <trkpt lat="43.80545" lon="6.4416">
        <ele>655.28</ele>
        <time>2025-11-14T10:13:49Z</time>
      </trkpt>
      <trkpt lat="43.80558" lon="6.44128">
        <ele>655.28</ele>
        <time>2025-11-14T10:13:57Z</time>
      </trkpt>
      <trkpt lat="43.80562" lon="6.44101">
        <ele>653.35</ele>
        <time>2025-11-14T10:14:04Z</time>
      </trkpt>
      <trkpt lat="43.8057" lon="6.4404">
        <ele>655.76</ele>
        <time>2025-11-14T10:14:17Z</time>
      </trkpt>
      <trkpt lat="43.80574" lon="6.44009">
        <ele>655.76</ele>
        <time>2025-11-14T10:14:29Z</time>
      </trkpt>
      <trkpt lat="43.80573" lon="6.44008">
        <ele>654.31</ele>
        <time>2025-11-14T10:14:32Z</time>
      </trkpt>
      <trkpt lat="43.80573" lon="6.44007">
        <ele>658.64</ele>
        <time>2025-11-14T10:14:33Z</time>
      </trkpt>
      <trkpt lat="43.80572" lon="6.44006">
        <ele>655.76</ele>
        <time>2025-11-14T10:14:34Z</time>
      </trkpt>
      <trkpt lat="43.80571" lon="6.44003">
        <ele>655.28</ele>
        <time>2025-11-14T10:14:56Z</time>
      </trkpt>
      <trkpt lat="43.80573" lon="6.44002">
        <ele>655.28</ele>
        <time>2025-11-14T10:15:17Z</time>
      </trkpt>
      <trkpt lat="43.80574" lon="6.44005">
        <ele>655.28</ele>
        <time>2025-11-14T10:15:41Z</time>
      </trkpt>
      <trkpt lat="43.80572" lon="6.44005">
        <ele>655.28</ele>
        <time>2025-11-14T10:15:57Z</time>
      </trkpt>
      <trkpt lat="43.8057" lon="6.44004">
        <ele>655.28</ele>
        <time>2025-11-14T10:15:58Z</time>
      </trkpt>
      <trkpt lat="43.80568" lon="6.44002">
        <ele>655.28</ele>
        <time>2025-11-14T10:16:00Z</time>
      </trkpt>
      <trkpt lat="43.80566" lon="6.44001">
        <ele>655.28</ele>
        <time>2025-11-14T10:16:01Z</time>
      </trkpt>
      <trkpt lat="43.80561" lon="6.44">
        <ele>655.28</ele>
        <time>2025-11-14T10:16:03Z</time>
      </trkpt>
      <trkpt lat="43.80556" lon="6.44001">
        <ele>655.28</ele>
        <time>2025-11-14T10:16:04Z</time>
      </trkpt>
      <trkpt lat="43.80526" lon="6.44026">
        <ele>654.31</ele>
        <time>2025-11-14T10:16:14Z</time>
      </trkpt>
      <trkpt lat="43.80502" lon="6.4407">
        <ele>653.83</ele>
        <time>2025-11-14T10:16:25Z</time>
      </trkpt>
      <trkpt lat="43.80471" lon="6.44095">
        <ele>653.83</ele>
        <time>2025-11-14T10:16:34Z</time>
      </trkpt>
      <trkpt lat="43.80458" lon="6.44098">
        <ele>653.83</ele>
        <time>2025-11-14T10:16:37Z</time>
      </trkpt>
      <trkpt lat="43.80455" lon="6.44098">
        <ele>653.83</ele>
        <time>2025-11-14T10:16:38Z</time>
      </trkpt>
      <trkpt lat="43.80451" lon="6.44097">
        <ele>653.83</ele>
        <time>2025-11-14T10:16:39Z</time>
      </trkpt>
      <trkpt lat="43.80447" lon="6.44095">
        <ele>653.83</ele>
        <time>2025-11-14T10:16:40Z</time>
      </trkpt>
      <trkpt lat="43.80443" lon="6.44092">
        <ele>653.83</ele>
        <time>2025-11-14T10:16:41Z</time>
      </trkpt>
      <trkpt lat="43.8044" lon="6.44089">
        <ele>653.83</ele>
        <time>2025-11-14T10:16:42Z</time>
      </trkpt>
      <trkpt lat="43.80437" lon="6.44084">
        <ele>653.83</ele>
        <time>2025-11-14T10:16:43Z</time>
      </trkpt>
      <trkpt lat="43.80435" lon="6.4408">
        <ele>653.83</ele>
        <time>2025-11-14T10:16:44Z</time>
      </trkpt>
      <trkpt lat="43.80433" lon="6.44074">
        <ele>653.83</ele>
        <time>2025-11-14T10:16:45Z</time>
      </trkpt>
      <trkpt lat="43.80433" lon="6.44026">
        <ele>653.83</ele>
        <time>2025-11-14T10:16:54Z</time>
      </trkpt>
      <trkpt lat="43.80437" lon="6.43966">
        <ele>654.8</ele>
        <time>2025-11-14T10:17:05Z</time>
      </trkpt>
      <trkpt lat="43.80436" lon="6.43943">
        <ele>654.8</ele>
        <time>2025-11-14T10:17:09Z</time>
      </trkpt>
      <trkpt lat="43.80433" lon="6.43919">
        <ele>654.8</ele>
        <time>2025-11-14T10:17:13Z</time>
      </trkpt>
      <trkpt lat="43.80428" lon="6.43868">
        <ele>654.8</ele>
        <time>2025-11-14T10:17:22Z</time>
      </trkpt>
      <trkpt lat="43.80427" lon="6.43864">
        <ele>654.8</ele>
        <time>2025-11-14T10:17:23Z</time>
      </trkpt>
      <trkpt lat="43.80424" lon="6.43854">
        <ele>654.8</ele>
        <time>2025-11-14T10:17:25Z</time>
      </trkpt>
      <trkpt lat="43.8042" lon="6.4385">
        <ele>654.8</ele>
        <time>2025-11-14T10:17:26Z</time>
      </trkpt>
      <trkpt lat="43.80416" lon="6.43847">
        <ele>654.8</ele>
        <time>2025-11-14T10:17:27Z</time>
      </trkpt>
      <trkpt lat="43.80412" lon="6.43844">
        <ele>654.8</ele>
        <time>2025-11-14T10:17:28Z</time>
      </trkpt>
      <trkpt lat="43.80408" lon="6.4384">
        <ele>654.8</ele>
        <time>2025-11-14T10:17:29Z</time>
      </trkpt>
      <trkpt lat="43.80405" lon="6.43837">
        <ele>654.8</ele>
        <time>2025-11-14T10:17:30Z</time>
      </trkpt>
      <trkpt lat="43.80347" lon="6.43796">
        <ele>654.8</ele>
        <time>2025-11-14T10:17:46Z</time>
      </trkpt>
      <trkpt lat="43.80328" lon="6.43786">
        <ele>654.8</ele>
        <time>2025-11-14T10:17:51Z</time>
      </trkpt>
      <trkpt lat="43.80277" lon="6.43774">
        <ele>654.8</ele>
        <time>2025-11-14T10:18:04Z</time>
      </trkpt>
      <trkpt lat="43.80261" lon="6.43772">
        <ele>654.8</ele>
        <time>2025-11-14T10:18:08Z</time>
      </trkpt>
      <trkpt lat="43.80256" lon="6.43773">
        <ele>654.8</ele>
        <time>2025-11-14T10:18:09Z</time>
      </trkpt>
      <trkpt lat="43.80204" lon="6.43785">
        <ele>654.8</ele>
        <time>2025-11-14T10:18:22Z</time>
      </trkpt>
      <trkpt lat="43.80149" lon="6.43787">
        <ele>654.8</ele>
        <time>2025-11-14T10:18:35Z</time>
      </trkpt>
      <trkpt lat="43.80096" lon="6.43802">
        <ele>654.8</ele>
        <time>2025-11-14T10:18:48Z</time>
      </trkpt>
      <trkpt lat="43.80041" lon="6.43833">
        <ele>654.8</ele>
        <time>2025-11-14T10:19:02Z</time>
      </trkpt>
      <trkpt lat="43.80034" lon="6.43837">
        <ele>654.8</ele>
        <time>2025-11-14T10:19:04Z</time>
      </trkpt>
      <trkpt lat="43.80018" lon="6.43842">
        <ele>654.8</ele>
        <time>2025-11-14T10:19:08Z</time>
      </trkpt>
      <trkpt lat="43.80014" lon="6.43841">
        <ele>654.8</ele>
        <time>2025-11-14T10:19:09Z</time>
      </trkpt>
      <trkpt lat="43.80009" lon="6.4384">
        <ele>654.8</ele>
        <time>2025-11-14T10:19:10Z</time>
      </trkpt>
      <trkpt lat="43.8" lon="6.43837">
        <ele>654.8</ele>
        <time>2025-11-14T10:19:12Z</time>
      </trkpt>
      <trkpt lat="43.79997" lon="6.43834">
        <ele>654.8</ele>
        <time>2025-11-14T10:19:13Z</time>
      </trkpt>
      <trkpt lat="43.79993" lon="6.43831">
        <ele>654.8</ele>
        <time>2025-11-14T10:19:14Z</time>
      </trkpt>
      <trkpt lat="43.7999" lon="6.43828">
        <ele>654.8</ele>
        <time>2025-11-14T10:19:15Z</time>
      </trkpt>
      <trkpt lat="43.79987" lon="6.43824">
        <ele>654.8</ele>
        <time>2025-11-14T10:19:16Z</time>
      </trkpt>
      <trkpt lat="43.79952" lon="6.43788">
        <ele>654.8</ele>
        <time>2025-11-14T10:19:26Z</time>
      </trkpt>
      <trkpt lat="43.79949" lon="6.43787">
        <ele>654.8</ele>
        <time>2025-11-14T10:19:27Z</time>
      </trkpt>
      <trkpt lat="43.79944" lon="6.43786">
        <ele>654.8</ele>
        <time>2025-11-14T10:19:28Z</time>
      </trkpt>
      <trkpt lat="43.79897" lon="6.43796">
        <ele>654.8</ele>
        <time>2025-11-14T10:19:40Z</time>
      </trkpt>
      <trkpt lat="43.79826" lon="6.43819">
        <ele>654.31</ele>
        <time>2025-11-14T10:19:57Z</time>
      </trkpt>
      <trkpt lat="43.7975" lon="6.43835">
        <ele>653.83</ele>
        <time>2025-11-14T10:20:15Z</time>
      </trkpt>
      <trkpt lat="43.7969" lon="6.43844">
        <ele>653.83</ele>
        <time>2025-11-14T10:20:29Z</time>
      </trkpt>
      <trkpt lat="43.79686" lon="6.43843">
        <ele>653.35</ele>
        <time>2025-11-14T10:20:30Z</time>
      </trkpt>
      <trkpt lat="43.79681" lon="6.43842">
        <ele>653.35</ele>
        <time>2025-11-14T10:20:31Z</time>
      </trkpt>
      <trkpt lat="43.79677" lon="6.43839">
        <ele>653.35</ele>
        <time>2025-11-14T10:20:32Z</time>
      </trkpt>
      <trkpt lat="43.79673" lon="6.43837">
        <ele>653.35</ele>
        <time>2025-11-14T10:20:33Z</time>
      </trkpt>
      <trkpt lat="43.79669" lon="6.43834">
        <ele>653.35</ele>
        <time>2025-11-14T10:20:34Z</time>
      </trkpt>
      <trkpt lat="43.79662" lon="6.43828">
        <ele>653.35</ele>
        <time>2025-11-14T10:20:36Z</time>
      </trkpt>
      <trkpt lat="43.79658" lon="6.43825">
        <ele>652.87</ele>
        <time>2025-11-14T10:20:37Z</time>
      </trkpt>
      <trkpt lat="43.79627" lon="6.43796">
        <ele>651.91</ele>
        <time>2025-11-14T10:20:45Z</time>
      </trkpt>
      <trkpt lat="43.79624" lon="6.43791">
        <ele>651.91</ele>
        <time>2025-11-14T10:20:46Z</time>
      </trkpt>
      <trkpt lat="43.79621" lon="6.43786">
        <ele>651.91</ele>
        <time>2025-11-14T10:20:47Z</time>
      </trkpt>
      <trkpt lat="43.79618" lon="6.43781">
        <ele>651.91</ele>
        <time>2025-11-14T10:20:48Z</time>
      </trkpt>
      <trkpt lat="43.79615" lon="6.43774">
        <ele>651.91</ele>
        <time>2025-11-14T10:20:49Z</time>
      </trkpt>
      <trkpt lat="43.79614" lon="6.4377">
        <ele>651.91</ele>
        <time>2025-11-14T10:20:50Z</time>
      </trkpt>
      <trkpt lat="43.79585" lon="6.43671">
        <ele>650.95</ele>
        <time>2025-11-14T10:21:06Z</time>
      </trkpt>
      <trkpt lat="43.79579" lon="6.43653">
        <ele>650.47</ele>
        <time>2025-11-14T10:21:09Z</time>
      </trkpt>
      <trkpt lat="43.79567" lon="6.43634">
        <ele>650.47</ele>
        <time>2025-11-14T10:21:13Z</time>
      </trkpt>
      <trkpt lat="43.79564" lon="6.43629">
        <ele>650.47</ele>
        <time>2025-11-14T10:21:14Z</time>
      </trkpt>
      <trkpt lat="43.79506" lon="6.43575">
        <ele>649.03</ele>
        <time>2025-11-14T10:21:28Z</time>
      </trkpt>
      <trkpt lat="43.79447" lon="6.43513">
        <ele>647.1</ele>
        <time>2025-11-14T10:21:42Z</time>
      </trkpt>
      <trkpt lat="43.79401" lon="6.43431">
        <ele>646.14</ele>
        <time>2025-11-14T10:21:56Z</time>
      </trkpt>
      <trkpt lat="43.79387" lon="6.43378">
        <ele>645.66</ele>
        <time>2025-11-14T10:22:04Z</time>
      </trkpt>
      <trkpt lat="43.79384" lon="6.4337">
        <ele>645.18</ele>
        <time>2025-11-14T10:22:06Z</time>
      </trkpt>
      <trkpt lat="43.79378" lon="6.43363">
        <ele>645.66</ele>
        <time>2025-11-14T10:22:07Z</time>
      </trkpt>
      <trkpt lat="43.79374" lon="6.43359">
        <ele>645.18</ele>
        <time>2025-11-14T10:22:08Z</time>
      </trkpt>
      <trkpt lat="43.79369" lon="6.43357">
        <ele>645.18</ele>
        <time>2025-11-14T10:22:09Z</time>
      </trkpt>
      <trkpt lat="43.79365" lon="6.43356">
        <ele>645.18</ele>
        <time>2025-11-14T10:22:10Z</time>
      </trkpt>
      <trkpt lat="43.79359" lon="6.43356">
        <ele>645.18</ele>
        <time>2025-11-14T10:22:11Z</time>
      </trkpt>
      <trkpt lat="43.79354" lon="6.43357">
        <ele>645.18</ele>
        <time>2025-11-14T10:22:12Z</time>
      </trkpt>
      <trkpt lat="43.79349" lon="6.43358">
        <ele>644.7</ele>
        <time>2025-11-14T10:22:13Z</time>
      </trkpt>
      <trkpt lat="43.79314" lon="6.43362">
        <ele>644.22</ele>
        <time>2025-11-14T10:22:20Z</time>
      </trkpt>
      <trkpt lat="43.79309" lon="6.4336">
        <ele>644.22</ele>
        <time>2025-11-14T10:22:21Z</time>
      </trkpt>
      <trkpt lat="43.79305" lon="6.43357">
        <ele>644.22</ele>
        <time>2025-11-14T10:22:22Z</time>
      </trkpt>
      <trkpt lat="43.793" lon="6.43352">
        <ele>644.22</ele>
        <time>2025-11-14T10:22:23Z</time>
      </trkpt>
      <trkpt lat="43.79295" lon="6.43347">
        <ele>644.22</ele>
        <time>2025-11-14T10:22:24Z</time>
      </trkpt>
      <trkpt lat="43.79265" lon="6.43323">
        <ele>643.26</ele>
        <time>2025-11-14T10:22:31Z</time>
      </trkpt>
      <trkpt lat="43.79261" lon="6.43319">
        <ele>643.26</ele>
        <time>2025-11-14T10:22:32Z</time>
      </trkpt>
      <trkpt lat="43.79257" lon="6.43313">
        <ele>642.78</ele>
        <time>2025-11-14T10:22:33Z</time>
      </trkpt>
      <trkpt lat="43.79254" lon="6.43305">
        <ele>642.78</ele>
        <time>2025-11-14T10:22:34Z</time>
      </trkpt>
      <trkpt lat="43.79253" lon="6.433">
        <ele>642.78</ele>
        <time>2025-11-14T10:22:35Z</time>
      </trkpt>
      <trkpt lat="43.79252" lon="6.43292">
        <ele>642.78</ele>
        <time>2025-11-14T10:22:36Z</time>
      </trkpt>
      <trkpt lat="43.7925" lon="6.43285">
        <ele>642.78</ele>
        <time>2025-11-14T10:22:37Z</time>
      </trkpt>
      <trkpt lat="43.79248" lon="6.43278">
        <ele>642.3</ele>
        <time>2025-11-14T10:22:38Z</time>
      </trkpt>
      <trkpt lat="43.79244" lon="6.43272">
        <ele>642.3</ele>
        <time>2025-11-14T10:22:39Z</time>
      </trkpt>
      <trkpt lat="43.7924" lon="6.43268">
        <ele>642.3</ele>
        <time>2025-11-14T10:22:40Z</time>
      </trkpt>
      <trkpt lat="43.79235" lon="6.43264">
        <ele>642.3</ele>
        <time>2025-11-14T10:22:41Z</time>
      </trkpt>
      <trkpt lat="43.7923" lon="6.4326">
        <ele>642.3</ele>
        <time>2025-11-14T10:22:42Z</time>
      </trkpt>
      <trkpt lat="43.79224" lon="6.43255">
        <ele>641.34</ele>
        <time>2025-11-14T10:22:43Z</time>
      </trkpt>
      <trkpt lat="43.79222" lon="6.43251">
        <ele>641.82</ele>
        <time>2025-11-14T10:22:44Z</time>
      </trkpt>
      <trkpt lat="43.79219" lon="6.43245">
        <ele>641.34</ele>
        <time>2025-11-14T10:22:45Z</time>
      </trkpt>
      <trkpt lat="43.79217" lon="6.43237">
        <ele>641.34</ele>
        <time>2025-11-14T10:22:46Z</time>
      </trkpt>
      <trkpt lat="43.79216" lon="6.43231">
        <ele>640.86</ele>
        <time>2025-11-14T10:22:47Z</time>
      </trkpt>
      <trkpt lat="43.79216" lon="6.43226">
        <ele>640.86</ele>
        <time>2025-11-14T10:22:48Z</time>
      </trkpt>
      <trkpt lat="43.79215" lon="6.43218">
        <ele>640.86</ele>
        <time>2025-11-14T10:22:50Z</time>
      </trkpt>
      <trkpt lat="43.79213" lon="6.43216">
        <ele>640.86</ele>
        <time>2025-11-14T10:22:51Z</time>
      </trkpt>
      <trkpt lat="43.7921" lon="6.43214">
        <ele>640.86</ele>
        <time>2025-11-14T10:22:53Z</time>
      </trkpt>
      <trkpt lat="43.79206" lon="6.43214">
        <ele>640.86</ele>
        <time>2025-11-14T10:22:54Z</time>
      </trkpt>
      <trkpt lat="43.79203" lon="6.43214">
        <ele>640.86</ele>
        <time>2025-11-14T10:22:55Z</time>
      </trkpt>
      <trkpt lat="43.79201" lon="6.43214">
        <ele>640.38</ele>
        <time>2025-11-14T10:22:56Z</time>
      </trkpt>
      <trkpt lat="43.79198" lon="6.43214">
        <ele>640.38</ele>
        <time>2025-11-14T10:22:57Z</time>
      </trkpt>
      <trkpt lat="43.79196" lon="6.43214">
        <ele>640.38</ele>
        <time>2025-11-14T10:22:58Z</time>
      </trkpt>
      <trkpt lat="43.79194" lon="6.43214">
        <ele>640.38</ele>
        <time>2025-11-14T10:22:59Z</time>
      </trkpt>
      <trkpt lat="43.79186" lon="6.43212">
        <ele>640.38</ele>
        <time>2025-11-14T10:23:08Z</time>
      </trkpt>
      <trkpt lat="43.79186" lon="6.43212">
        <ele>640.38</ele>
        <time>2025-11-14T10:23:28Z</time>
      </trkpt>
      <trkpt lat="43.79186" lon="6.43211">
        <ele>640.38</ele>
        <time>2025-11-14T10:23:51Z</time>
      </trkpt>
      <trkpt lat="43.79188" lon="6.43214">
        <ele>640.38</ele>
        <time>2025-11-14T10:24:01Z</time>
      </trkpt>
      <trkpt lat="43.79189" lon="6.43214">
        <ele>640.38</ele>
        <time>2025-11-14T10:24:03Z</time>
      </trkpt>
      <trkpt lat="43.7919" lon="6.43214">
        <ele>640.38</ele>
        <time>2025-11-14T10:24:04Z</time>
      </trkpt>
      <trkpt lat="43.79192" lon="6.43214">
        <ele>639.89</ele>
        <time>2025-11-14T10:24:05Z</time>
      </trkpt>
      <trkpt lat="43.7921" lon="6.43214">
        <ele>639.89</ele>
        <time>2025-11-14T10:24:16Z</time>
      </trkpt>
      <trkpt lat="43.79213" lon="6.43213">
        <ele>641.34</ele>
        <time>2025-11-14T10:24:27Z</time>
      </trkpt>
      <trkpt lat="43.79214" lon="6.43212">
        <ele>641.34</ele>
        <time>2025-11-14T10:24:29Z</time>
      </trkpt>
      <trkpt lat="43.79215" lon="6.4321">
        <ele>641.34</ele>
        <time>2025-11-14T10:24:30Z</time>
      </trkpt>
      <trkpt lat="43.79216" lon="6.43209">
        <ele>641.34</ele>
        <time>2025-11-14T10:24:31Z</time>
      </trkpt>
      <trkpt lat="43.79231" lon="6.4318">
        <ele>641.34</ele>
        <time>2025-11-14T10:24:39Z</time>
      </trkpt>
      <trkpt lat="43.79246" lon="6.43159">
        <ele>641.34</ele>
        <time>2025-11-14T10:24:44Z</time>
      </trkpt>
      <trkpt lat="43.7926" lon="6.43136">
        <ele>641.34</ele>
        <time>2025-11-14T10:24:49Z</time>
      </trkpt>
      <trkpt lat="43.79262" lon="6.43129">
        <ele>641.34</ele>
        <time>2025-11-14T10:24:50Z</time>
      </trkpt>
      <trkpt lat="43.79263" lon="6.43125">
        <ele>641.34</ele>
        <time>2025-11-14T10:24:51Z</time>
      </trkpt>
      <trkpt lat="43.79263" lon="6.43119">
        <ele>641.34</ele>
        <time>2025-11-14T10:24:52Z</time>
      </trkpt>
      <trkpt lat="43.79263" lon="6.43114">
        <ele>641.34</ele>
        <time>2025-11-14T10:24:53Z</time>
      </trkpt>
      <trkpt lat="43.79263" lon="6.43108">
        <ele>641.34</ele>
        <time>2025-11-14T10:24:54Z</time>
      </trkpt>
      <trkpt lat="43.79262" lon="6.43103">
        <ele>641.34</ele>
        <time>2025-11-14T10:24:55Z</time>
      </trkpt>
      <trkpt lat="43.79261" lon="6.43097">
        <ele>641.34</ele>
        <time>2025-11-14T10:24:56Z</time>
      </trkpt>
      <trkpt lat="43.79259" lon="6.43091">
        <ele>641.34</ele>
        <time>2025-11-14T10:24:57Z</time>
      </trkpt>
      <trkpt lat="43.79257" lon="6.43085">
        <ele>641.34</ele>
        <time>2025-11-14T10:24:58Z</time>
      </trkpt>
      <trkpt lat="43.79238" lon="6.43033">
        <ele>640.38</ele>
        <time>2025-11-14T10:25:08Z</time>
      </trkpt>
      <trkpt lat="43.79223" lon="6.42989">
        <ele>640.38</ele>
        <time>2025-11-14T10:25:19Z</time>
      </trkpt>
      <trkpt lat="43.79214" lon="6.42969">
        <ele>640.38</ele>
        <time>2025-11-14T10:25:26Z</time>
      </trkpt>
      <trkpt lat="43.79214" lon="6.42968">
        <ele>640.38</ele>
        <time>2025-11-14T10:25:34Z</time>
      </trkpt>
      <trkpt lat="43.79214" lon="6.42967">
        <ele>640.38</ele>
        <time>2025-11-14T10:25:48Z</time>
      </trkpt>
      <trkpt lat="43.79214" lon="6.42964">
        <ele>640.38</ele>
        <time>2025-11-14T10:26:06Z</time>
      </trkpt>
      <trkpt lat="43.79212" lon="6.42961">
        <ele>640.38</ele>
        <time>2025-11-14T10:26:09Z</time>
      </trkpt>
      <trkpt lat="43.79211" lon="6.4296">
        <ele>640.38</ele>
        <time>2025-11-14T10:26:10Z</time>
      </trkpt>
      <trkpt lat="43.7921" lon="6.42958">
        <ele>640.38</ele>
        <time>2025-11-14T10:26:11Z</time>
      </trkpt>
      <trkpt lat="43.79195" lon="6.4293">
        <ele>639.89</ele>
        <time>2025-11-14T10:26:19Z</time>
      </trkpt>
      <trkpt lat="43.79181" lon="6.42911">
        <ele>639.89</ele>
        <time>2025-11-14T10:26:24Z</time>
      </trkpt>
      <trkpt lat="43.79178" lon="6.42906">
        <ele>639.89</ele>
        <time>2025-11-14T10:26:25Z</time>
      </trkpt>
      <trkpt lat="43.79172" lon="6.42898">
        <ele>639.89</ele>
        <time>2025-11-14T10:26:27Z</time>
      </trkpt>
      <trkpt lat="43.7916" lon="6.42864">
        <ele>639.89</ele>
        <time>2025-11-14T10:26:33Z</time>
      </trkpt>
      <trkpt lat="43.7916" lon="6.42857">
        <ele>639.89</ele>
        <time>2025-11-14T10:26:34Z</time>
      </trkpt>
      <trkpt lat="43.7916" lon="6.4285">
        <ele>639.89</ele>
        <time>2025-11-14T10:26:35Z</time>
      </trkpt>
      <trkpt lat="43.79162" lon="6.42843">
        <ele>639.89</ele>
        <time>2025-11-14T10:26:36Z</time>
      </trkpt>
      <trkpt lat="43.79164" lon="6.42837">
        <ele>639.89</ele>
        <time>2025-11-14T10:26:37Z</time>
      </trkpt>
      <trkpt lat="43.79169" lon="6.42818">
        <ele>639.89</ele>
        <time>2025-11-14T10:26:40Z</time>
      </trkpt>
      <trkpt lat="43.7917" lon="6.42813">
        <ele>639.89</ele>
        <time>2025-11-14T10:26:41Z</time>
      </trkpt>
      <trkpt lat="43.79169" lon="6.42806">
        <ele>639.89</ele>
        <time>2025-11-14T10:26:42Z</time>
      </trkpt>
      <trkpt lat="43.79168" lon="6.428">
        <ele>639.89</ele>
        <time>2025-11-14T10:26:43Z</time>
      </trkpt>
      <trkpt lat="43.79152" lon="6.4273">
        <ele>639.89</ele>
        <time>2025-11-14T10:26:54Z</time>
      </trkpt>
      <trkpt lat="43.79144" lon="6.42703">
        <ele>639.89</ele>
        <time>2025-11-14T10:26:58Z</time>
      </trkpt>
      <trkpt lat="43.79142" lon="6.42691">
        <ele>639.89</ele>
        <time>2025-11-14T10:27:00Z</time>
      </trkpt>
      <trkpt lat="43.79141" lon="6.4265">
        <ele>639.89</ele>
        <time>2025-11-14T10:27:06Z</time>
      </trkpt>
      <trkpt lat="43.79138" lon="6.42638">
        <ele>639.89</ele>
        <time>2025-11-14T10:27:08Z</time>
      </trkpt>
      <trkpt lat="43.79127" lon="6.42597">
        <ele>641.34</ele>
        <time>2025-11-14T10:27:15Z</time>
      </trkpt>
      <trkpt lat="43.79125" lon="6.42589">
        <ele>641.34</ele>
        <time>2025-11-14T10:27:16Z</time>
      </trkpt>
      <trkpt lat="43.79125" lon="6.42584">
        <ele>641.34</ele>
        <time>2025-11-14T10:27:17Z</time>
      </trkpt>
      <trkpt lat="43.79111" lon="6.42523">
        <ele>641.82</ele>
        <time>2025-11-14T10:27:27Z</time>
      </trkpt>
      <trkpt lat="43.79096" lon="6.42461">
        <ele>643.26</ele>
        <time>2025-11-14T10:27:37Z</time>
      </trkpt>
      <trkpt lat="43.79095" lon="6.42441">
        <ele>643.74</ele>
        <time>2025-11-14T10:27:40Z</time>
      </trkpt>
      <trkpt lat="43.79095" lon="6.42428">
        <ele>644.22</ele>
        <time>2025-11-14T10:27:42Z</time>
      </trkpt>
      <trkpt lat="43.79097" lon="6.4241">
        <ele>644.22</ele>
        <time>2025-11-14T10:27:45Z</time>
      </trkpt>
      <trkpt lat="43.79098" lon="6.42405">
        <ele>644.22</ele>
        <time>2025-11-14T10:27:46Z</time>
      </trkpt>
      <trkpt lat="43.79106" lon="6.42382">
        <ele>644.7</ele>
        <time>2025-11-14T10:27:50Z</time>
      </trkpt>
      <trkpt lat="43.79109" lon="6.42377">
        <ele>644.7</ele>
        <time>2025-11-14T10:27:51Z</time>
      </trkpt>
      <trkpt lat="43.79145" lon="6.42314">
        <ele>646.14</ele>
        <time>2025-11-14T10:28:03Z</time>
      </trkpt>
      <trkpt lat="43.79185" lon="6.42263">
        <ele>649.51</ele>
        <time>2025-11-14T10:28:15Z</time>
      </trkpt>
      <trkpt lat="43.79207" lon="6.42214">
        <ele>651.91</ele>
        <time>2025-11-14T10:28:26Z</time>
      </trkpt>
      <trkpt lat="43.79234" lon="6.42194">
        <ele>654.31</ele>
        <time>2025-11-14T10:28:35Z</time>
      </trkpt>
      <trkpt lat="43.7926" lon="6.42171">
        <ele>656.24</ele>
        <time>2025-11-14T10:28:44Z</time>
      </trkpt>
      <trkpt lat="43.79291" lon="6.42138">
        <ele>658.16</ele>
        <time>2025-11-14T10:28:55Z</time>
      </trkpt>
      <trkpt lat="43.79307" lon="6.42092">
        <ele>660.08</ele>
        <time>2025-11-14T10:29:05Z</time>
      </trkpt>
      <trkpt lat="43.79336" lon="6.42036">
        <ele>663.45</ele>
        <time>2025-11-14T10:29:18Z</time>
      </trkpt>
      <trkpt lat="43.79359" lon="6.42013">
        <ele>664.89</ele>
        <time>2025-11-14T10:29:26Z</time>
      </trkpt>
      <trkpt lat="43.79376" lon="6.41964">
        <ele>666.81</ele>
        <time>2025-11-14T10:29:37Z</time>
      </trkpt>
      <trkpt lat="43.79399" lon="6.41916">
        <ele>668.73</ele>
        <time>2025-11-14T10:29:48Z</time>
      </trkpt>
      <trkpt lat="43.79411" lon="6.41868">
        <ele>670.66</ele>
        <time>2025-11-14T10:29:58Z</time>
      </trkpt>
      <trkpt lat="43.7943" lon="6.41824">
        <ele>673.06</ele>
        <time>2025-11-14T10:30:09Z</time>
      </trkpt>
      <trkpt lat="43.79435" lon="6.41819">
        <ele>674.5</ele>
        <time>2025-11-14T10:30:17Z</time>
      </trkpt>
      <trkpt lat="43.79436" lon="6.41819">
        <ele>674.02</ele>
        <time>2025-11-14T10:30:38Z</time>
      </trkpt>
      <trkpt lat="43.79437" lon="6.41819">
        <ele>674.02</ele>
        <time>2025-11-14T10:30:57Z</time>
      </trkpt>
      <trkpt lat="43.79438" lon="6.41818">
        <ele>674.02</ele>
        <time>2025-11-14T10:31:00Z</time>
      </trkpt>
      <trkpt lat="43.79441" lon="6.41817">
        <ele>674.02</ele>
        <time>2025-11-14T10:31:02Z</time>
      </trkpt>
      <trkpt lat="43.79461" lon="6.41798">
        <ele>674.98</ele>
        <time>2025-11-14T10:31:09Z</time>
      </trkpt>
      <trkpt lat="43.79476" lon="6.41769">
        <ele>676.42</ele>
        <time>2025-11-14T10:31:18Z</time>
      </trkpt>
      <trkpt lat="43.7951" lon="6.41718">
        <ele>678.83</ele>
        <time>2025-11-14T10:31:32Z</time>
      </trkpt>
      <trkpt lat="43.79543" lon="6.41673">
        <ele>682.19</ele>
        <time>2025-11-14T10:31:45Z</time>
      </trkpt>
      <trkpt lat="43.79572" lon="6.41625">
        <ele>684.6</ele>
        <time>2025-11-14T10:31:58Z</time>
      </trkpt>
      <trkpt lat="43.79599" lon="6.41569">
        <ele>687.48</ele>
        <time>2025-11-14T10:32:12Z</time>
      </trkpt>
      <trkpt lat="43.79618" lon="6.41531">
        <ele>689.4</ele>
        <time>2025-11-14T10:32:21Z</time>
      </trkpt>
      <trkpt lat="43.79621" lon="6.41493">
        <ele>691.33</ele>
        <time>2025-11-14T10:32:29Z</time>
      </trkpt>
      <trkpt lat="43.79642" lon="6.41467">
        <ele>693.25</ele>
        <time>2025-11-14T10:32:37Z</time>
      </trkpt>
      <trkpt lat="43.79665" lon="6.41429">
        <ele>695.65</ele>
        <time>2025-11-14T10:32:47Z</time>
      </trkpt>
      <trkpt lat="43.79682" lon="6.41386">
        <ele>698.53</ele>
        <time>2025-11-14T10:32:57Z</time>
      </trkpt>
      <trkpt lat="43.79682" lon="6.41356">
        <ele>699.02</ele>
        <time>2025-11-14T10:33:03Z</time>
      </trkpt>
      <trkpt lat="43.79682" lon="6.41351">
        <ele>699.98</ele>
        <time>2025-11-14T10:33:04Z</time>
      </trkpt>
      <trkpt lat="43.79682" lon="6.41346">
        <ele>699.98</ele>
        <time>2025-11-14T10:33:05Z</time>
      </trkpt>
      <trkpt lat="43.79682" lon="6.41342">
        <ele>700.46</ele>
        <time>2025-11-14T10:33:06Z</time>
      </trkpt>
      <trkpt lat="43.79683" lon="6.41337">
        <ele>700.46</ele>
        <time>2025-11-14T10:33:07Z</time>
      </trkpt>
      <trkpt lat="43.79685" lon="6.41333">
        <ele>701.42</ele>
        <time>2025-11-14T10:33:08Z</time>
      </trkpt>
      <trkpt lat="43.79687" lon="6.41329">
        <ele>701.42</ele>
        <time>2025-11-14T10:33:09Z</time>
      </trkpt>
      <trkpt lat="43.7969" lon="6.41326">
        <ele>701.9</ele>
        <time>2025-11-14T10:33:10Z</time>
      </trkpt>
      <trkpt lat="43.79692" lon="6.41323">
        <ele>701.9</ele>
        <time>2025-11-14T10:33:11Z</time>
      </trkpt>
      <trkpt lat="43.79716" lon="6.41279">
        <ele>704.3</ele>
        <time>2025-11-14T10:33:22Z</time>
      </trkpt>
      <trkpt lat="43.79713" lon="6.41247">
        <ele>705.26</ele>
        <time>2025-11-14T10:33:29Z</time>
      </trkpt>
      <trkpt lat="43.79676" lon="6.41198">
        <ele>708.15</ele>
        <time>2025-11-14T10:33:43Z</time>
      </trkpt>
      <trkpt lat="43.79659" lon="6.41146">
        <ele>710.07</ele>
        <time>2025-11-14T10:33:54Z</time>
      </trkpt>
      <trkpt lat="43.79632" lon="6.411">
        <ele>712.47</ele>
        <time>2025-11-14T10:34:06Z</time>
      </trkpt>
      <trkpt lat="43.79626" lon="6.41045">
        <ele>714.88</ele>
        <time>2025-11-14T10:34:17Z</time>
      </trkpt>
      <trkpt lat="43.79626" lon="6.41003">
        <ele>717.76</ele>
        <time>2025-11-14T10:34:26Z</time>
      </trkpt>
      <trkpt lat="43.7962" lon="6.40972">
        <ele>718.72</ele>
        <time>2025-11-14T10:34:33Z</time>
      </trkpt>
      <trkpt lat="43.79594" lon="6.40942">
        <ele>719.68</ele>
        <time>2025-11-14T10:34:42Z</time>
      </trkpt>
      <trkpt lat="43.79597" lon="6.40897">
        <ele>721.61</ele>
        <time>2025-11-14T10:34:51Z</time>
      </trkpt>
      <trkpt lat="43.79614" lon="6.40841">
        <ele>724.97</ele>
        <time>2025-11-14T10:35:03Z</time>
      </trkpt>
      <trkpt lat="43.79612" lon="6.40805">
        <ele>726.41</ele>
        <time>2025-11-14T10:35:11Z</time>
      </trkpt>
      <trkpt lat="43.7957" lon="6.40772">
        <ele>728.34</ele>
        <time>2025-11-14T10:35:24Z</time>
      </trkpt>
      <trkpt lat="43.79521" lon="6.40753">
        <ele>730.74</ele>
        <time>2025-11-14T10:35:38Z</time>
      </trkpt>
      <trkpt lat="43.79484" lon="6.40739">
        <ele>734.58</ele>
        <time>2025-11-14T10:35:49Z</time>
      </trkpt>
      <trkpt lat="43.79445" lon="6.40739">
        <ele>736.03</ele>
        <time>2025-11-14T10:36:00Z</time>
      </trkpt>
      <trkpt lat="43.79412" lon="6.40774">
        <ele>737.95</ele>
        <time>2025-11-14T10:36:11Z</time>
      </trkpt>
      <trkpt lat="43.79388" lon="6.40775">
        <ele>740.35</ele>
        <time>2025-11-14T10:36:18Z</time>
      </trkpt>
      <trkpt lat="43.79344" lon="6.40745">
        <ele>743.72</ele>
        <time>2025-11-14T10:36:32Z</time>
      </trkpt>
      <trkpt lat="43.79337" lon="6.40741">
        <ele>744.2</ele>
        <time>2025-11-14T10:36:39Z</time>
      </trkpt>
      <trkpt lat="43.79337" lon="6.40741">
        <ele>744.2</ele>
        <time>2025-11-14T10:36:56Z</time>
      </trkpt>
      <trkpt lat="43.79338" lon="6.40742">
        <ele>743.72</ele>
        <time>2025-11-14T10:37:12Z</time>
      </trkpt>
      <trkpt lat="43.79338" lon="6.40745">
        <ele>744.2</ele>
        <time>2025-11-14T10:37:40Z</time>
      </trkpt>
      <trkpt lat="43.79338" lon="6.40742">
        <ele>744.2</ele>
        <time>2025-11-14T10:38:01Z</time>
      </trkpt>
      <trkpt lat="43.79337" lon="6.40738">
        <ele>744.2</ele>
        <time>2025-11-14T10:38:27Z</time>
      </trkpt>
      <trkpt lat="43.7934" lon="6.40741">
        <ele>744.2</ele>
        <time>2025-11-14T10:38:51Z</time>
      </trkpt>
      <trkpt lat="43.79338" lon="6.4074">
        <ele>744.2</ele>
        <time>2025-11-14T10:39:08Z</time>
      </trkpt>
      <trkpt lat="43.79336" lon="6.40738">
        <ele>744.2</ele>
        <time>2025-11-14T10:39:12Z</time>
      </trkpt>
      <trkpt lat="43.79335" lon="6.40737">
        <ele>744.2</ele>
        <time>2025-11-14T10:39:13Z</time>
      </trkpt>
      <trkpt lat="43.79334" lon="6.40735">
        <ele>744.2</ele>
        <time>2025-11-14T10:39:14Z</time>
      </trkpt>
      <trkpt lat="43.79323" lon="6.40705">
        <ele>745.16</ele>
        <time>2025-11-14T10:39:23Z</time>
      </trkpt>
      <trkpt lat="43.79331" lon="6.40674">
        <ele>747.56</ele>
        <time>2025-11-14T10:39:31Z</time>
      </trkpt>
      <trkpt lat="43.7934" lon="6.40645">
        <ele>749</ele>
        <time>2025-11-14T10:39:39Z</time>
      </trkpt>
      <trkpt lat="43.79339" lon="6.40642">
        <ele>749</ele>
        <time>2025-11-14T10:39:41Z</time>
      </trkpt>
      <trkpt lat="43.79337" lon="6.40639">
        <ele>749.49</ele>
        <time>2025-11-14T10:39:43Z</time>
      </trkpt>
      <trkpt lat="43.79338" lon="6.40637">
        <ele>749</ele>
        <time>2025-11-14T10:39:55Z</time>
      </trkpt>
      <trkpt lat="43.79339" lon="6.40633">
        <ele>749</ele>
        <time>2025-11-14T10:40:21Z</time>
      </trkpt>
      <trkpt lat="43.7934" lon="6.40636">
        <ele>749</ele>
        <time>2025-11-14T10:40:55Z</time>
      </trkpt>
      <trkpt lat="43.79336" lon="6.40636">
        <ele>749</ele>
        <time>2025-11-14T10:41:23Z</time>
      </trkpt>
      <trkpt lat="43.79339" lon="6.40637">
        <ele>748.52</ele>
        <time>2025-11-14T10:41:50Z</time>
      </trkpt>
      <trkpt lat="43.79338" lon="6.40633">
        <ele>748.52</ele>
        <time>2025-11-14T10:42:09Z</time>
      </trkpt>
      <trkpt lat="43.79339" lon="6.40631">
        <ele>748.52</ele>
        <time>2025-11-14T10:42:11Z</time>
      </trkpt>
      <trkpt lat="43.79339" lon="6.40629">
        <ele>748.52</ele>
        <time>2025-11-14T10:42:12Z</time>
      </trkpt>
      <trkpt lat="43.7934" lon="6.40627">
        <ele>748.52</ele>
        <time>2025-11-14T10:42:13Z</time>
      </trkpt>
      <trkpt lat="43.7934" lon="6.40625">
        <ele>748.52</ele>
        <time>2025-11-14T10:42:14Z</time>
      </trkpt>
      <trkpt lat="43.7934" lon="6.40622">
        <ele>748.52</ele>
        <time>2025-11-14T10:42:15Z</time>
      </trkpt>
      <trkpt lat="43.79347" lon="6.40608">
        <ele>747.08</ele>
        <time>2025-11-14T10:42:19Z</time>
      </trkpt>
      <trkpt lat="43.79365" lon="6.40568">
        <ele>745.64</ele>
        <time>2025-11-14T10:42:28Z</time>
      </trkpt>
      <trkpt lat="43.79366" lon="6.40515">
        <ele>742.76</ele>
        <time>2025-11-14T10:42:36Z</time>
      </trkpt>
      <trkpt lat="43.79366" lon="6.40495">
        <ele>741.79</ele>
        <time>2025-11-14T10:42:39Z</time>
      </trkpt>
      <trkpt lat="43.79352" lon="6.40452">
        <ele>738.91</ele>
        <time>2025-11-14T10:42:48Z</time>
      </trkpt>
      <trkpt lat="43.79344" lon="6.40443">
        <ele>737.47</ele>
        <time>2025-11-14T10:42:52Z</time>
      </trkpt>
      <trkpt lat="43.79313" lon="6.40413">
        <ele>734.58</ele>
        <time>2025-11-14T10:43:05Z</time>
      </trkpt>
      <trkpt lat="43.79307" lon="6.40401">
        <ele>733.14</ele>
        <time>2025-11-14T10:43:08Z</time>
      </trkpt>
      <trkpt lat="43.79294" lon="6.40363">
        <ele>730.26</ele>
        <time>2025-11-14T10:43:15Z</time>
      </trkpt>
      <trkpt lat="43.79295" lon="6.40355">
        <ele>730.26</ele>
        <time>2025-11-14T10:43:16Z</time>
      </trkpt>
      <trkpt lat="43.79296" lon="6.40349">
        <ele>729.3</ele>
        <time>2025-11-14T10:43:17Z</time>
      </trkpt>
      <trkpt lat="43.79298" lon="6.40343">
        <ele>728.82</ele>
        <time>2025-11-14T10:43:18Z</time>
      </trkpt>
      <trkpt lat="43.79301" lon="6.40335">
        <ele>727.86</ele>
        <time>2025-11-14T10:43:19Z</time>
      </trkpt>
      <trkpt lat="43.79303" lon="6.40327">
        <ele>727.37</ele>
        <time>2025-11-14T10:43:20Z</time>
      </trkpt>
      <trkpt lat="43.79311" lon="6.40288">
        <ele>724.49</ele>
        <time>2025-11-14T10:43:25Z</time>
      </trkpt>
      <trkpt lat="43.79316" lon="6.40244">
        <ele>720.65</ele>
        <time>2025-11-14T10:43:31Z</time>
      </trkpt>
      <trkpt lat="43.79318" lon="6.40201">
        <ele>717.76</ele>
        <time>2025-11-14T10:43:37Z</time>
      </trkpt>
      <trkpt lat="43.79318" lon="6.40151">
        <ele>713.92</ele>
        <time>2025-11-14T10:43:44Z</time>
      </trkpt>
      <trkpt lat="43.79316" lon="6.40144">
        <ele>713.92</ele>
        <time>2025-11-14T10:43:45Z</time>
      </trkpt>
      <trkpt lat="43.79313" lon="6.40139">
        <ele>712.95</ele>
        <time>2025-11-14T10:43:46Z</time>
      </trkpt>
      <trkpt lat="43.7931" lon="6.40136">
        <ele>712.95</ele>
        <time>2025-11-14T10:43:47Z</time>
      </trkpt>
      <trkpt lat="43.79307" lon="6.40132">
        <ele>712.47</ele>
        <time>2025-11-14T10:43:48Z</time>
      </trkpt>
      <trkpt lat="43.79282" lon="6.40124">
        <ele>710.07</ele>
        <time>2025-11-14T10:43:57Z</time>
      </trkpt>
      <trkpt lat="43.79284" lon="6.40125">
        <ele>709.59</ele>
        <time>2025-11-14T10:44:12Z</time>
      </trkpt>
      <trkpt lat="43.79284" lon="6.40125">
        <ele>711.03</ele>
        <time>2025-11-14T10:44:32Z</time>
      </trkpt>
      <trkpt lat="43.79286" lon="6.40124">
        <ele>709.59</ele>
        <time>2025-11-14T10:44:58Z</time>
      </trkpt>
      <trkpt lat="43.79288" lon="6.40124">
        <ele>709.59</ele>
        <time>2025-11-14T10:45:15Z</time>
      </trkpt>
      <trkpt lat="43.79287" lon="6.40124">
        <ele>709.59</ele>
        <time>2025-11-14T10:45:38Z</time>
      </trkpt>
      <trkpt lat="43.79284" lon="6.40123">
        <ele>709.59</ele>
        <time>2025-11-14T10:45:44Z</time>
      </trkpt>
      <trkpt lat="43.79269" lon="6.40121">
        <ele>708.63</ele>
        <time>2025-11-14T10:45:54Z</time>
      </trkpt>
      <trkpt lat="43.79269" lon="6.40121">
        <ele>708.63</ele>
        <time>2025-11-14T10:46:10Z</time>
      </trkpt>
      <trkpt lat="43.79268" lon="6.40121">
        <ele>708.63</ele>
        <time>2025-11-14T10:46:37Z</time>
      </trkpt>
      <trkpt lat="43.79268" lon="6.4012">
        <ele>708.63</ele>
        <time>2025-11-14T10:46:58Z</time>
      </trkpt>
      <trkpt lat="43.7927" lon="6.40118">
        <ele>708.63</ele>
        <time>2025-11-14T10:47:09Z</time>
      </trkpt>
      <trkpt lat="43.79271" lon="6.40118">
        <ele>708.63</ele>
        <time>2025-11-14T10:47:31Z</time>
      </trkpt>
      <trkpt lat="43.79272" lon="6.40117">
        <ele>708.63</ele>
        <time>2025-11-14T10:47:48Z</time>
      </trkpt>
      <trkpt lat="43.79273" lon="6.4012">
        <ele>708.63</ele>
        <time>2025-11-14T10:47:57Z</time>
      </trkpt>
      <trkpt lat="43.79274" lon="6.4012">
        <ele>708.63</ele>
        <time>2025-11-14T10:47:58Z</time>
      </trkpt>
      <trkpt lat="43.79276" lon="6.40121">
        <ele>708.63</ele>
        <time>2025-11-14T10:47:59Z</time>
      </trkpt>
      <trkpt lat="43.793" lon="6.40129">
        <ele>713.44</ele>
        <time>2025-11-14T10:48:08Z</time>
      </trkpt>
      <trkpt lat="43.79303" lon="6.40131">
        <ele>711.99</ele>
        <time>2025-11-14T10:48:09Z</time>
      </trkpt>
      <trkpt lat="43.79316" lon="6.40146">
        <ele>713.44</ele>
        <time>2025-11-14T10:48:15Z</time>
      </trkpt>
      <trkpt lat="43.79319" lon="6.40184">
        <ele>716.8</ele>
        <time>2025-11-14T10:48:25Z</time>
      </trkpt>
      <trkpt lat="43.79318" lon="6.40223">
        <ele>719.68</ele>
        <time>2025-11-14T10:48:36Z</time>
      </trkpt>
      <trkpt lat="43.79313" lon="6.40264">
        <ele>722.57</ele>
        <time>2025-11-14T10:48:47Z</time>
      </trkpt>
      <trkpt lat="43.79305" lon="6.40311">
        <ele>726.41</ele>
        <time>2025-11-14T10:49:00Z</time>
      </trkpt>
      <trkpt lat="43.79295" lon="6.4035">
        <ele>729.78</ele>
        <time>2025-11-14T10:49:11Z</time>
      </trkpt>
      <trkpt lat="43.79302" lon="6.40387">
        <ele>732.66</ele>
        <time>2025-11-14T10:49:21Z</time>
      </trkpt>
      <trkpt lat="43.79325" lon="6.40426">
        <ele>736.03</ele>
        <time>2025-11-14T10:49:34Z</time>
      </trkpt>
      <trkpt lat="43.79353" lon="6.40454">
        <ele>738.91</ele>
        <time>2025-11-14T10:49:46Z</time>
      </trkpt>
      <trkpt lat="43.79365" lon="6.40493">
        <ele>741.79</ele>
        <time>2025-11-14T10:49:57Z</time>
      </trkpt>
      <trkpt lat="43.79364" lon="6.40535">
        <ele>743.72</ele>
        <time>2025-11-14T10:50:07Z</time>
      </trkpt>
      <trkpt lat="43.79359" lon="6.40585">
        <ele>746.12</ele>
        <time>2025-11-14T10:50:19Z</time>
      </trkpt>
      <trkpt lat="43.79339" lon="6.40609">
        <ele>748.04</ele>
        <time>2025-11-14T10:50:28Z</time>
      </trkpt>
      <trkpt lat="43.79335" lon="6.40627">
        <ele>749.49</ele>
        <time>2025-11-14T10:50:36Z</time>
      </trkpt>
      <trkpt lat="43.79335" lon="6.40628">
        <ele>749.49</ele>
        <time>2025-11-14T10:50:46Z</time>
      </trkpt>
      <trkpt lat="43.79336" lon="6.40629">
        <ele>749.49</ele>
        <time>2025-11-14T10:51:01Z</time>
      </trkpt>
      <trkpt lat="43.79334" lon="6.4063">
        <ele>749.49</ele>
        <time>2025-11-14T10:51:19Z</time>
      </trkpt>
      <trkpt lat="43.79335" lon="6.4063">
        <ele>749.49</ele>
        <time>2025-11-14T10:51:41Z</time>
      </trkpt>
      <trkpt lat="43.79338" lon="6.40629">
        <ele>749.49</ele>
        <time>2025-11-14T10:51:56Z</time>
      </trkpt>
      <trkpt lat="43.79339" lon="6.40635">
        <ele>749.49</ele>
        <time>2025-11-14T10:52:01Z</time>
      </trkpt>
      <trkpt lat="43.7934" lon="6.40637">
        <ele>749.49</ele>
        <time>2025-11-14T10:52:02Z</time>
      </trkpt>
      <trkpt lat="43.79343" lon="6.40638">
        <ele>749.49</ele>
        <time>2025-11-14T10:52:03Z</time>
      </trkpt>
      <trkpt lat="43.79345" lon="6.40638">
        <ele>749.49</ele>
        <time>2025-11-14T10:52:05Z</time>
      </trkpt>
      <trkpt lat="43.7935" lon="6.40636">
        <ele>749.49</ele>
        <time>2025-11-14T10:52:06Z</time>
      </trkpt>
      <trkpt lat="43.79353" lon="6.40633">
        <ele>749.97</ele>
        <time>2025-11-14T10:52:07Z</time>
      </trkpt>
      <trkpt lat="43.79355" lon="6.4063">
        <ele>749.97</ele>
        <time>2025-11-14T10:52:08Z</time>
      </trkpt>
      <trkpt lat="43.79358" lon="6.40626">
        <ele>749.97</ele>
        <time>2025-11-14T10:52:09Z</time>
      </trkpt>
      <trkpt lat="43.7936" lon="6.40623">
        <ele>749.97</ele>
        <time>2025-11-14T10:52:10Z</time>
      </trkpt>
      <trkpt lat="43.79362" lon="6.40619">
        <ele>749.97</ele>
        <time>2025-11-14T10:52:11Z</time>
      </trkpt>
      <trkpt lat="43.79383" lon="6.40562">
        <ele>753.33</ele>
        <time>2025-11-14T10:52:24Z</time>
      </trkpt>
      <trkpt lat="43.79388" lon="6.40496">
        <ele>755.73</ele>
        <time>2025-11-14T10:52:38Z</time>
      </trkpt>
      <trkpt lat="43.79384" lon="6.4045">
        <ele>757.66</ele>
        <time>2025-11-14T10:52:48Z</time>
      </trkpt>
      <trkpt lat="43.79363" lon="6.40395">
        <ele>759.58</ele>
        <time>2025-11-14T10:53:01Z</time>
      </trkpt>
      <trkpt lat="43.79365" lon="6.40368">
        <ele>761.5</ele>
        <time>2025-11-14T10:53:09Z</time>
      </trkpt>
      <trkpt lat="43.79362" lon="6.40365">
        <ele>761.5</ele>
        <time>2025-11-14T10:53:17Z</time>
      </trkpt>
      <trkpt lat="43.79357" lon="6.40361">
        <ele>761.5</ele>
        <time>2025-11-14T10:53:27Z</time>
      </trkpt>
      <trkpt lat="43.79356" lon="6.4036">
        <ele>761.5</ele>
        <time>2025-11-14T10:53:48Z</time>
      </trkpt>
      <trkpt lat="43.79358" lon="6.40362">
        <ele>761.5</ele>
        <time>2025-11-14T10:54:08Z</time>
      </trkpt>
      <trkpt lat="43.79357" lon="6.4036">
        <ele>761.5</ele>
        <time>2025-11-14T10:54:27Z</time>
      </trkpt>
      <trkpt lat="43.7936" lon="6.40358">
        <ele>761.5</ele>
        <time>2025-11-14T10:54:34Z</time>
      </trkpt>
      <trkpt lat="43.79362" lon="6.40356">
        <ele>761.5</ele>
        <time>2025-11-14T10:54:35Z</time>
      </trkpt>
      <trkpt lat="43.79363" lon="6.40356">
        <ele>761.5</ele>
        <time>2025-11-14T10:54:36Z</time>
      </trkpt>
      <trkpt lat="43.79365" lon="6.40355">
        <ele>761.5</ele>
        <time>2025-11-14T10:54:37Z</time>
      </trkpt>
      <trkpt lat="43.79366" lon="6.40353">
        <ele>761.5</ele>
        <time>2025-11-14T10:54:38Z</time>
      </trkpt>
      <trkpt lat="43.79369" lon="6.40352">
        <ele>761.5</ele>
        <time>2025-11-14T10:54:39Z</time>
      </trkpt>
      <trkpt lat="43.79372" lon="6.40349">
        <ele>761.5</ele>
        <time>2025-11-14T10:54:40Z</time>
      </trkpt>
      <trkpt lat="43.79374" lon="6.40346">
        <ele>761.5</ele>
        <time>2025-11-14T10:54:41Z</time>
      </trkpt>
      <trkpt lat="43.79376" lon="6.40342">
        <ele>761.98</ele>
        <time>2025-11-14T10:54:42Z</time>
      </trkpt>
      <trkpt lat="43.79409" lon="6.40293">
        <ele>764.87</ele>
        <time>2025-11-14T10:54:56Z</time>
      </trkpt>
      <trkpt lat="43.79417" lon="6.40242">
        <ele>767.27</ele>
        <time>2025-11-14T10:55:07Z</time>
      </trkpt>
      <trkpt lat="43.79418" lon="6.40196">
        <ele>769.19</ele>
        <time>2025-11-14T10:55:19Z</time>
      </trkpt>
      <trkpt lat="43.79423" lon="6.40183">
        <ele>769.67</ele>
        <time>2025-11-14T10:55:24Z</time>
      </trkpt>
      <trkpt lat="43.79424" lon="6.40181">
        <ele>769.67</ele>
        <time>2025-11-14T10:55:25Z</time>
      </trkpt>
      <trkpt lat="43.79449" lon="6.40148">
        <ele>771.6</ele>
        <time>2025-11-14T10:55:37Z</time>
      </trkpt>
      <trkpt lat="43.79483" lon="6.40116">
        <ele>774.96</ele>
        <time>2025-11-14T10:55:49Z</time>
      </trkpt>
      <trkpt lat="43.79498" lon="6.40064">
        <ele>776.4</ele>
        <time>2025-11-14T10:56:01Z</time>
      </trkpt>
      <trkpt lat="43.79486" lon="6.40033">
        <ele>778.81</ele>
        <time>2025-11-14T10:56:09Z</time>
      </trkpt>
      <trkpt lat="43.79458" lon="6.39985">
        <ele>780.73</ele>
        <time>2025-11-14T10:56:22Z</time>
      </trkpt>
      <trkpt lat="43.79433" lon="6.39939">
        <ele>784.09</ele>
        <time>2025-11-14T10:56:34Z</time>
      </trkpt>
      <trkpt lat="43.79405" lon="6.39902">
        <ele>786.5</ele>
        <time>2025-11-14T10:56:46Z</time>
      </trkpt>
      <trkpt lat="43.79408" lon="6.39861">
        <ele>787.94</ele>
        <time>2025-11-14T10:56:58Z</time>
      </trkpt>
      <trkpt lat="43.79405" lon="6.39855">
        <ele>788.42</ele>
        <time>2025-11-14T10:57:02Z</time>
      </trkpt>
      <trkpt lat="43.79406" lon="6.39853">
        <ele>788.42</ele>
        <time>2025-11-14T10:57:03Z</time>
      </trkpt>
      <trkpt lat="43.79407" lon="6.39852">
        <ele>788.42</ele>
        <time>2025-11-14T10:57:04Z</time>
      </trkpt>
      <trkpt lat="43.79408" lon="6.3985">
        <ele>788.42</ele>
        <time>2025-11-14T10:57:05Z</time>
      </trkpt>
      <trkpt lat="43.79409" lon="6.39848">
        <ele>788.42</ele>
        <time>2025-11-14T10:57:06Z</time>
      </trkpt>
      <trkpt lat="43.7941" lon="6.39845">
        <ele>788.42</ele>
        <time>2025-11-14T10:57:07Z</time>
      </trkpt>
      <trkpt lat="43.7941" lon="6.39843">
        <ele>788.42</ele>
        <time>2025-11-14T10:57:08Z</time>
      </trkpt>
      <trkpt lat="43.7941" lon="6.3984">
        <ele>788.42</ele>
        <time>2025-11-14T10:57:09Z</time>
      </trkpt>
      <trkpt lat="43.79409" lon="6.39814">
        <ele>788.42</ele>
        <time>2025-11-14T10:57:20Z</time>
      </trkpt>
      <trkpt lat="43.79409" lon="6.39811">
        <ele>788.42</ele>
        <time>2025-11-14T10:57:30Z</time>
      </trkpt>
      <trkpt lat="43.79411" lon="6.39813">
        <ele>788.42</ele>
        <time>2025-11-14T10:57:42Z</time>
      </trkpt>
      <trkpt lat="43.7941" lon="6.39817">
        <ele>788.42</ele>
        <time>2025-11-14T10:57:53Z</time>
      </trkpt>
      <trkpt lat="43.7941" lon="6.39819">
        <ele>788.42</ele>
        <time>2025-11-14T10:57:54Z</time>
      </trkpt>
      <trkpt lat="43.79406" lon="6.39836">
        <ele>788.42</ele>
        <time>2025-11-14T10:58:01Z</time>
      </trkpt>
      <trkpt lat="43.79404" lon="6.39836">
        <ele>788.42</ele>
        <time>2025-11-14T10:58:02Z</time>
      </trkpt>
      <trkpt lat="43.79401" lon="6.39836">
        <ele>788.42</ele>
        <time>2025-11-14T10:58:03Z</time>
      </trkpt>
      <trkpt lat="43.79399" lon="6.39835">
        <ele>788.42</ele>
        <time>2025-11-14T10:58:04Z</time>
      </trkpt>
      <trkpt lat="43.79396" lon="6.39834">
        <ele>788.42</ele>
        <time>2025-11-14T10:58:05Z</time>
      </trkpt>
      <trkpt lat="43.79394" lon="6.39832">
        <ele>788.42</ele>
        <time>2025-11-14T10:58:06Z</time>
      </trkpt>
      <trkpt lat="43.79392" lon="6.3983">
        <ele>788.42</ele>
        <time>2025-11-14T10:58:07Z</time>
      </trkpt>
      <trkpt lat="43.79382" lon="6.39822">
        <ele>788.42</ele>
        <time>2025-11-14T10:58:16Z</time>
      </trkpt>
      <trkpt lat="43.79382" lon="6.3982">
        <ele>788.42</ele>
        <time>2025-11-14T10:58:27Z</time>
      </trkpt>
      <trkpt lat="43.79381" lon="6.39821">
        <ele>784.57</ele>
        <time>2025-11-14T10:58:40Z</time>
      </trkpt>
      <trkpt lat="43.79383" lon="6.39819">
        <ele>796.11</ele>
        <time>2025-11-14T12:00:42Z</time>
      </trkpt>
      <trkpt lat="43.79384" lon="6.39822">
        <ele>792.74</ele>
        <time>2025-11-14T12:00:54Z</time>
      </trkpt>
      <trkpt lat="43.79384" lon="6.3982">
        <ele>789.38</ele>
        <time>2025-11-14T12:01:21Z</time>
      </trkpt>
      <trkpt lat="43.79383" lon="6.39819">
        <ele>787.46</ele>
        <time>2025-11-14T12:01:30Z</time>
      </trkpt>
      <trkpt lat="43.79383" lon="6.39823">
        <ele>786.5</ele>
        <time>2025-11-14T12:01:37Z</time>
      </trkpt>
      <trkpt lat="43.79387" lon="6.39825">
        <ele>785.53</ele>
        <time>2025-11-14T12:01:46Z</time>
      </trkpt>
      <trkpt lat="43.79406" lon="6.39836">
        <ele>785.05</ele>
        <time>2025-11-14T12:01:55Z</time>
      </trkpt>
      <trkpt lat="43.7941" lon="6.39835">
        <ele>784.57</ele>
        <time>2025-11-14T12:01:57Z</time>
      </trkpt>
      <trkpt lat="43.79411" lon="6.39833">
        <ele>784.57</ele>
        <time>2025-11-14T12:01:58Z</time>
      </trkpt>
      <trkpt lat="43.79412" lon="6.39824">
        <ele>784.57</ele>
        <time>2025-11-14T12:02:01Z</time>
      </trkpt>
      <trkpt lat="43.79413" lon="6.39822">
        <ele>784.09</ele>
        <time>2025-11-14T12:02:02Z</time>
      </trkpt>
      <trkpt lat="43.79415" lon="6.39821">
        <ele>784.09</ele>
        <time>2025-11-14T12:02:03Z</time>
      </trkpt>
      <trkpt lat="43.79418" lon="6.39819">
        <ele>784.09</ele>
        <time>2025-11-14T12:02:04Z</time>
      </trkpt>
      <trkpt lat="43.7942" lon="6.39819">
        <ele>784.09</ele>
        <time>2025-11-14T12:02:05Z</time>
      </trkpt>
      <trkpt lat="43.79423" lon="6.39818">
        <ele>784.09</ele>
        <time>2025-11-14T12:02:06Z</time>
      </trkpt>
      <trkpt lat="43.79437" lon="6.39819">
        <ele>784.57</ele>
        <time>2025-11-14T12:02:11Z</time>
      </trkpt>
      <trkpt lat="43.7944" lon="6.39816">
        <ele>784.57</ele>
        <time>2025-11-14T12:02:12Z</time>
      </trkpt>
      <trkpt lat="43.79441" lon="6.39814">
        <ele>784.57</ele>
        <time>2025-11-14T12:02:13Z</time>
      </trkpt>
      <trkpt lat="43.79443" lon="6.39811">
        <ele>784.57</ele>
        <time>2025-11-14T12:02:14Z</time>
      </trkpt>
      <trkpt lat="43.79445" lon="6.39807">
        <ele>784.57</ele>
        <time>2025-11-14T12:02:15Z</time>
      </trkpt>
      <trkpt lat="43.79447" lon="6.39803">
        <ele>784.57</ele>
        <time>2025-11-14T12:02:16Z</time>
      </trkpt>
      <trkpt lat="43.79448" lon="6.398">
        <ele>784.57</ele>
        <time>2025-11-14T12:02:17Z</time>
      </trkpt>
      <trkpt lat="43.79449" lon="6.39795">
        <ele>784.57</ele>
        <time>2025-11-14T12:02:18Z</time>
      </trkpt>
      <trkpt lat="43.7945" lon="6.39791">
        <ele>784.57</ele>
        <time>2025-11-14T12:02:19Z</time>
      </trkpt>
      <trkpt lat="43.7945" lon="6.39786">
        <ele>784.09</ele>
        <time>2025-11-14T12:02:20Z</time>
      </trkpt>
      <trkpt lat="43.79451" lon="6.39782">
        <ele>784.09</ele>
        <time>2025-11-14T12:02:21Z</time>
      </trkpt>
      <trkpt lat="43.79452" lon="6.39763">
        <ele>785.05</ele>
        <time>2025-11-14T12:02:25Z</time>
      </trkpt>
      <trkpt lat="43.79455" lon="6.3971">
        <ele>783.61</ele>
        <time>2025-11-14T12:02:36Z</time>
      </trkpt>
      <trkpt lat="43.79448" lon="6.39697">
        <ele>784.09</ele>
        <time>2025-11-14T12:02:43Z</time>
      </trkpt>
      <trkpt lat="43.79449" lon="6.39697">
        <ele>779.77</ele>
        <time>2025-11-14T12:02:58Z</time>
      </trkpt>
      <trkpt lat="43.79448" lon="6.39698">
        <ele>786.98</ele>
        <time>2025-11-14T12:03:00Z</time>
      </trkpt>
      <trkpt lat="43.79448" lon="6.39698">
        <ele>786.98</ele>
        <time>2025-11-14T12:03:01Z</time>
      </trkpt>
      <trkpt lat="43.79448" lon="6.39697">
        <ele>784.57</ele>
        <time>2025-11-14T12:03:03Z</time>
      </trkpt>
      <trkpt lat="43.79443" lon="6.39693">
        <ele>784.09</ele>
        <time>2025-11-14T12:03:07Z</time>
      </trkpt>
      <trkpt lat="43.79434" lon="6.39685">
        <ele>782.65</ele>
        <time>2025-11-14T12:03:10Z</time>
      </trkpt>
      <trkpt lat="43.79428" lon="6.39679">
        <ele>782.65</ele>
        <time>2025-11-14T12:03:12Z</time>
      </trkpt>
      <trkpt lat="43.79424" lon="6.39674">
        <ele>784.09</ele>
        <time>2025-11-14T12:03:13Z</time>
      </trkpt>
      <trkpt lat="43.7942" lon="6.39669">
        <ele>784.09</ele>
        <time>2025-11-14T12:03:14Z</time>
      </trkpt>
      <trkpt lat="43.79417" lon="6.39664">
        <ele>782.17</ele>
        <time>2025-11-14T12:03:15Z</time>
      </trkpt>
      <trkpt lat="43.79414" lon="6.39657">
        <ele>782.17</ele>
        <time>2025-11-14T12:03:16Z</time>
      </trkpt>
      <trkpt lat="43.79412" lon="6.3965">
        <ele>781.21</ele>
        <time>2025-11-14T12:03:17Z</time>
      </trkpt>
      <trkpt lat="43.79411" lon="6.39642">
        <ele>781.21</ele>
        <time>2025-11-14T12:03:18Z</time>
      </trkpt>
      <trkpt lat="43.7941" lon="6.39633">
        <ele>781.69</ele>
        <time>2025-11-14T12:03:19Z</time>
      </trkpt>
      <trkpt lat="43.7941" lon="6.39626">
        <ele>781.21</ele>
        <time>2025-11-14T12:03:20Z</time>
      </trkpt>
      <trkpt lat="43.79411" lon="6.39618">
        <ele>780.73</ele>
        <time>2025-11-14T12:03:21Z</time>
      </trkpt>
      <trkpt lat="43.79412" lon="6.3961">
        <ele>780.73</ele>
        <time>2025-11-14T12:03:22Z</time>
      </trkpt>
      <trkpt lat="43.79414" lon="6.39593">
        <ele>780.25</ele>
        <time>2025-11-14T12:03:24Z</time>
      </trkpt>
      <trkpt lat="43.79415" lon="6.39584">
        <ele>780.25</ele>
        <time>2025-11-14T12:03:25Z</time>
      </trkpt>
      <trkpt lat="43.79414" lon="6.39575">
        <ele>779.77</ele>
        <time>2025-11-14T12:03:26Z</time>
      </trkpt>
      <trkpt lat="43.79414" lon="6.39566">
        <ele>779.77</ele>
        <time>2025-11-14T12:03:27Z</time>
      </trkpt>
      <trkpt lat="43.79412" lon="6.39556">
        <ele>779.77</ele>
        <time>2025-11-14T12:03:28Z</time>
      </trkpt>
      <trkpt lat="43.79411" lon="6.39546">
        <ele>778.81</ele>
        <time>2025-11-14T12:03:29Z</time>
      </trkpt>
      <trkpt lat="43.79392" lon="6.39442">
        <ele>776.4</ele>
        <time>2025-11-14T12:03:40Z</time>
      </trkpt>
      <trkpt lat="43.79381" lon="6.39385">
        <ele>774.96</ele>
        <time>2025-11-14T12:03:46Z</time>
      </trkpt>
      <trkpt lat="43.79378" lon="6.39377">
        <ele>774.96</ele>
        <time>2025-11-14T12:03:47Z</time>
      </trkpt>
      <trkpt lat="43.79374" lon="6.39367">
        <ele>774.48</ele>
        <time>2025-11-14T12:03:48Z</time>
      </trkpt>
      <trkpt lat="43.79371" lon="6.39356">
        <ele>774.48</ele>
        <time>2025-11-14T12:03:49Z</time>
      </trkpt>
      <trkpt lat="43.7937" lon="6.39349">
        <ele>774.48</ele>
        <time>2025-11-14T12:03:50Z</time>
      </trkpt>
      <trkpt lat="43.7937" lon="6.39338">
        <ele>773.52</ele>
        <time>2025-11-14T12:03:51Z</time>
      </trkpt>
      <trkpt lat="43.79371" lon="6.39328">
        <ele>773.52</ele>
        <time>2025-11-14T12:03:52Z</time>
      </trkpt>
      <trkpt lat="43.7937" lon="6.39308">
        <ele>773.52</ele>
        <time>2025-11-14T12:03:54Z</time>
      </trkpt>
      <trkpt lat="43.79368" lon="6.39299">
        <ele>773.04</ele>
        <time>2025-11-14T12:03:55Z</time>
      </trkpt>
      <trkpt lat="43.79365" lon="6.3929">
        <ele>773.04</ele>
        <time>2025-11-14T12:03:56Z</time>
      </trkpt>
      <trkpt lat="43.79362" lon="6.39281">
        <ele>772.56</ele>
        <time>2025-11-14T12:03:57Z</time>
      </trkpt>
      <trkpt lat="43.79359" lon="6.3927">
        <ele>772.08</ele>
        <time>2025-11-14T12:03:58Z</time>
      </trkpt>
      <trkpt lat="43.79356" lon="6.39259">
        <ele>772.08</ele>
        <time>2025-11-14T12:03:59Z</time>
      </trkpt>
      <trkpt lat="43.79355" lon="6.39251">
        <ele>772.08</ele>
        <time>2025-11-14T12:04:00Z</time>
      </trkpt>
      <trkpt lat="43.79354" lon="6.3924">
        <ele>771.11</ele>
        <time>2025-11-14T12:04:01Z</time>
      </trkpt>
      <trkpt lat="43.79354" lon="6.3923">
        <ele>771.6</ele>
        <time>2025-11-14T12:04:02Z</time>
      </trkpt>
      <trkpt lat="43.79354" lon="6.39219">
        <ele>771.11</ele>
        <time>2025-11-14T12:04:03Z</time>
      </trkpt>
      <trkpt lat="43.79355" lon="6.39209">
        <ele>770.63</ele>
        <time>2025-11-14T12:04:04Z</time>
      </trkpt>
      <trkpt lat="43.79373" lon="6.39074">
        <ele>767.27</ele>
        <time>2025-11-14T12:04:17Z</time>
      </trkpt>
      <trkpt lat="43.79418" lon="6.38967">
        <ele>764.39</ele>
        <time>2025-11-14T12:04:28Z</time>
      </trkpt>
      <trkpt lat="43.79455" lon="6.3891">
        <ele>761.98</ele>
        <time>2025-11-14T12:04:35Z</time>
      </trkpt>
      <trkpt lat="43.79463" lon="6.38903">
        <ele>761.98</ele>
        <time>2025-11-14T12:04:36Z</time>
      </trkpt>
      <trkpt lat="43.79472" lon="6.38897">
        <ele>761.5</ele>
        <time>2025-11-14T12:04:37Z</time>
      </trkpt>
      <trkpt lat="43.79477" lon="6.38895">
        <ele>761.5</ele>
        <time>2025-11-14T12:04:38Z</time>
      </trkpt>
      <trkpt lat="43.79486" lon="6.3889">
        <ele>760.54</ele>
        <time>2025-11-14T12:04:39Z</time>
      </trkpt>
      <trkpt lat="43.79493" lon="6.38885">
        <ele>760.54</ele>
        <time>2025-11-14T12:04:40Z</time>
      </trkpt>
      <trkpt lat="43.79499" lon="6.38878">
        <ele>760.54</ele>
        <time>2025-11-14T12:04:41Z</time>
      </trkpt>
      <trkpt lat="43.79503" lon="6.38869">
        <ele>760.06</ele>
        <time>2025-11-14T12:04:42Z</time>
      </trkpt>
      <trkpt lat="43.79505" lon="6.38859">
        <ele>760.06</ele>
        <time>2025-11-14T12:04:43Z</time>
      </trkpt>
      <trkpt lat="43.79505" lon="6.38848">
        <ele>760.06</ele>
        <time>2025-11-14T12:04:44Z</time>
      </trkpt>
      <trkpt lat="43.79505" lon="6.38836">
        <ele>760.06</ele>
        <time>2025-11-14T12:04:45Z</time>
      </trkpt>
      <trkpt lat="43.79503" lon="6.38824">
        <ele>759.58</ele>
        <time>2025-11-14T12:04:46Z</time>
      </trkpt>
      <trkpt lat="43.79502" lon="6.38817">
        <ele>759.58</ele>
        <time>2025-11-14T12:04:47Z</time>
      </trkpt>
      <trkpt lat="43.795" lon="6.38807">
        <ele>759.58</ele>
        <time>2025-11-14T12:04:48Z</time>
      </trkpt>
      <trkpt lat="43.79479" lon="6.38738">
        <ele>759.1</ele>
        <time>2025-11-14T12:04:56Z</time>
      </trkpt>
      <trkpt lat="43.79478" lon="6.38729">
        <ele>759.1</ele>
        <time>2025-11-14T12:04:57Z</time>
      </trkpt>
      <trkpt lat="43.79478" lon="6.38719">
        <ele>759.1</ele>
        <time>2025-11-14T12:04:58Z</time>
      </trkpt>
      <trkpt lat="43.79478" lon="6.38712">
        <ele>759.1</ele>
        <time>2025-11-14T12:04:59Z</time>
      </trkpt>
      <trkpt lat="43.79479" lon="6.38703">
        <ele>758.62</ele>
        <time>2025-11-14T12:05:00Z</time>
      </trkpt>
      <trkpt lat="43.79486" lon="6.3867">
        <ele>758.14</ele>
        <time>2025-11-14T12:05:04Z</time>
      </trkpt>
      <trkpt lat="43.79488" lon="6.38665">
        <ele>758.14</ele>
        <time>2025-11-14T12:05:05Z</time>
      </trkpt>
      <trkpt lat="43.79492" lon="6.38659">
        <ele>758.14</ele>
        <time>2025-11-14T12:05:06Z</time>
      </trkpt>
      <trkpt lat="43.79496" lon="6.38653">
        <ele>758.14</ele>
        <time>2025-11-14T12:05:07Z</time>
      </trkpt>
      <trkpt lat="43.79501" lon="6.38648">
        <ele>758.14</ele>
        <time>2025-11-14T12:05:08Z</time>
      </trkpt>
      <trkpt lat="43.79507" lon="6.38646">
        <ele>757.66</ele>
        <time>2025-11-14T12:05:09Z</time>
      </trkpt>
      <trkpt lat="43.79513" lon="6.38646">
        <ele>757.66</ele>
        <time>2025-11-14T12:05:10Z</time>
      </trkpt>
      <trkpt lat="43.79519" lon="6.38648">
        <ele>757.66</ele>
        <time>2025-11-14T12:05:11Z</time>
      </trkpt>
      <trkpt lat="43.79525" lon="6.38652">
        <ele>757.66</ele>
        <time>2025-11-14T12:05:12Z</time>
      </trkpt>
      <trkpt lat="43.7953" lon="6.38658">
        <ele>757.18</ele>
        <time>2025-11-14T12:05:13Z</time>
      </trkpt>
      <trkpt lat="43.79533" lon="6.38662">
        <ele>757.18</ele>
        <time>2025-11-14T12:05:14Z</time>
      </trkpt>
      <trkpt lat="43.79537" lon="6.38668">
        <ele>757.18</ele>
        <time>2025-11-14T12:05:15Z</time>
      </trkpt>
      <trkpt lat="43.79545" lon="6.38678">
        <ele>757.18</ele>
        <time>2025-11-14T12:05:17Z</time>
      </trkpt>
      <trkpt lat="43.7955" lon="6.38682">
        <ele>757.18</ele>
        <time>2025-11-14T12:05:18Z</time>
      </trkpt>
      <trkpt lat="43.79556" lon="6.38684">
        <ele>757.18</ele>
        <time>2025-11-14T12:05:19Z</time>
      </trkpt>
      <trkpt lat="43.79562" lon="6.38685">
        <ele>756.69</ele>
        <time>2025-11-14T12:05:20Z</time>
      </trkpt>
      <trkpt lat="43.79568" lon="6.38683">
        <ele>756.69</ele>
        <time>2025-11-14T12:05:21Z</time>
      </trkpt>
      <trkpt lat="43.79575" lon="6.3868">
        <ele>756.69</ele>
        <time>2025-11-14T12:05:22Z</time>
      </trkpt>
      <trkpt lat="43.79579" lon="6.38677">
        <ele>756.69</ele>
        <time>2025-11-14T12:05:23Z</time>
      </trkpt>
      <trkpt lat="43.79585" lon="6.38673">
        <ele>756.21</ele>
        <time>2025-11-14T12:05:24Z</time>
      </trkpt>
      <trkpt lat="43.79608" lon="6.38657">
        <ele>755.25</ele>
        <time>2025-11-14T12:05:28Z</time>
      </trkpt>
      <trkpt lat="43.79613" lon="6.38651">
        <ele>755.25</ele>
        <time>2025-11-14T12:05:29Z</time>
      </trkpt>
      <trkpt lat="43.79617" lon="6.38643">
        <ele>755.25</ele>
        <time>2025-11-14T12:05:30Z</time>
      </trkpt>
      <trkpt lat="43.7962" lon="6.38633">
        <ele>755.25</ele>
        <time>2025-11-14T12:05:31Z</time>
      </trkpt>
      <trkpt lat="43.79621" lon="6.38626">
        <ele>754.29</ele>
        <time>2025-11-14T12:05:32Z</time>
      </trkpt>
      <trkpt lat="43.79621" lon="6.38617">
        <ele>754.29</ele>
        <time>2025-11-14T12:05:33Z</time>
      </trkpt>
      <trkpt lat="43.79621" lon="6.38608">
        <ele>754.29</ele>
        <time>2025-11-14T12:05:34Z</time>
      </trkpt>
      <trkpt lat="43.7962" lon="6.38571">
        <ele>753.33</ele>
        <time>2025-11-14T12:05:38Z</time>
      </trkpt>
      <trkpt lat="43.79622" lon="6.38562">
        <ele>753.33</ele>
        <time>2025-11-14T12:05:39Z</time>
      </trkpt>
      <trkpt lat="43.79625" lon="6.38553">
        <ele>752.85</ele>
        <time>2025-11-14T12:05:40Z</time>
      </trkpt>
      <trkpt lat="43.79629" lon="6.38548">
        <ele>752.85</ele>
        <time>2025-11-14T12:05:41Z</time>
      </trkpt>
      <trkpt lat="43.79634" lon="6.38541">
        <ele>752.85</ele>
        <time>2025-11-14T12:05:42Z</time>
      </trkpt>
      <trkpt lat="43.79639" lon="6.38535">
        <ele>752.85</ele>
        <time>2025-11-14T12:05:43Z</time>
      </trkpt>
      <trkpt lat="43.79645" lon="6.3853">
        <ele>752.37</ele>
        <time>2025-11-14T12:05:44Z</time>
      </trkpt>
      <trkpt lat="43.79655" lon="6.38518">
        <ele>751.89</ele>
        <time>2025-11-14T12:05:46Z</time>
      </trkpt>
      <trkpt lat="43.7966" lon="6.3851">
        <ele>751.89</ele>
        <time>2025-11-14T12:05:47Z</time>
      </trkpt>
      <trkpt lat="43.79664" lon="6.38502">
        <ele>751.41</ele>
        <time>2025-11-14T12:05:48Z</time>
      </trkpt>
      <trkpt lat="43.79667" lon="6.38491">
        <ele>750.93</ele>
        <time>2025-11-14T12:05:49Z</time>
      </trkpt>
      <trkpt lat="43.79669" lon="6.38484">
        <ele>750.93</ele>
        <time>2025-11-14T12:05:50Z</time>
      </trkpt>
      <trkpt lat="43.79671" lon="6.38474">
        <ele>750.45</ele>
        <time>2025-11-14T12:05:51Z</time>
      </trkpt>
      <trkpt lat="43.79673" lon="6.38465">
        <ele>750.45</ele>
        <time>2025-11-14T12:05:52Z</time>
      </trkpt>
      <trkpt lat="43.79675" lon="6.38445">
        <ele>749.97</ele>
        <time>2025-11-14T12:05:54Z</time>
      </trkpt>
      <trkpt lat="43.79674" lon="6.38436">
        <ele>749.97</ele>
        <time>2025-11-14T12:05:55Z</time>
      </trkpt>
      <trkpt lat="43.7967" lon="6.38428">
        <ele>749.49</ele>
        <time>2025-11-14T12:05:56Z</time>
      </trkpt>
      <trkpt lat="43.79665" lon="6.38422">
        <ele>749.49</ele>
        <time>2025-11-14T12:05:57Z</time>
      </trkpt>
      <trkpt lat="43.79657" lon="6.38416">
        <ele>749.49</ele>
        <time>2025-11-14T12:05:58Z</time>
      </trkpt>
      <trkpt lat="43.79652" lon="6.38413">
        <ele>749</ele>
        <time>2025-11-14T12:05:59Z</time>
      </trkpt>
      <trkpt lat="43.79609" lon="6.38381">
        <ele>747.08</ele>
        <time>2025-11-14T12:06:06Z</time>
      </trkpt>
      <trkpt lat="43.79603" lon="6.38371">
        <ele>747.08</ele>
        <time>2025-11-14T12:06:07Z</time>
      </trkpt>
      <trkpt lat="43.79602" lon="6.38364">
        <ele>747.08</ele>
        <time>2025-11-14T12:06:08Z</time>
      </trkpt>
      <trkpt lat="43.79602" lon="6.38354">
        <ele>746.6</ele>
        <time>2025-11-14T12:06:09Z</time>
      </trkpt>
      <trkpt lat="43.79603" lon="6.38345">
        <ele>746.6</ele>
        <time>2025-11-14T12:06:10Z</time>
      </trkpt>
      <trkpt lat="43.79606" lon="6.38336">
        <ele>746.6</ele>
        <time>2025-11-14T12:06:11Z</time>
      </trkpt>
      <trkpt lat="43.7961" lon="6.38328">
        <ele>746.12</ele>
        <time>2025-11-14T12:06:12Z</time>
      </trkpt>
      <trkpt lat="43.79615" lon="6.3832">
        <ele>746.12</ele>
        <time>2025-11-14T12:06:13Z</time>
      </trkpt>
      <trkpt lat="43.79623" lon="6.38304">
        <ele>745.64</ele>
        <time>2025-11-14T12:06:15Z</time>
      </trkpt>
      <trkpt lat="43.79626" lon="6.38293">
        <ele>745.64</ele>
        <time>2025-11-14T12:06:16Z</time>
      </trkpt>
      <trkpt lat="43.79626" lon="6.38286">
        <ele>745.64</ele>
        <time>2025-11-14T12:06:17Z</time>
      </trkpt>
      <trkpt lat="43.79624" lon="6.38277">
        <ele>745.16</ele>
        <time>2025-11-14T12:06:18Z</time>
      </trkpt>
      <trkpt lat="43.79621" lon="6.3827">
        <ele>745.16</ele>
        <time>2025-11-14T12:06:19Z</time>
      </trkpt>
      <trkpt lat="43.79616" lon="6.38263">
        <ele>745.16</ele>
        <time>2025-11-14T12:06:20Z</time>
      </trkpt>
      <trkpt lat="43.79611" lon="6.38258">
        <ele>744.68</ele>
        <time>2025-11-14T12:06:21Z</time>
      </trkpt>
      <trkpt lat="43.796" lon="6.38248">
        <ele>744.2</ele>
        <time>2025-11-14T12:06:23Z</time>
      </trkpt>
      <trkpt lat="43.79594" lon="6.38245">
        <ele>744.2</ele>
        <time>2025-11-14T12:06:24Z</time>
      </trkpt>
      <trkpt lat="43.79585" lon="6.38246">
        <ele>744.2</ele>
        <time>2025-11-14T12:06:25Z</time>
      </trkpt>
      <trkpt lat="43.79578" lon="6.38251">
        <ele>743.72</ele>
        <time>2025-11-14T12:06:26Z</time>
      </trkpt>
      <trkpt lat="43.79575" lon="6.38254">
        <ele>743.72</ele>
        <time>2025-11-14T12:06:27Z</time>
      </trkpt>
      <trkpt lat="43.79569" lon="6.3826">
        <ele>742.76</ele>
        <time>2025-11-14T12:06:28Z</time>
      </trkpt>
      <trkpt lat="43.79563" lon="6.38266">
        <ele>742.28</ele>
        <time>2025-11-14T12:06:29Z</time>
      </trkpt>
      <trkpt lat="43.79557" lon="6.38273">
        <ele>742.28</ele>
        <time>2025-11-14T12:06:30Z</time>
      </trkpt>
      <trkpt lat="43.79486" lon="6.38347">
        <ele>738.91</ele>
        <time>2025-11-14T12:06:42Z</time>
      </trkpt>
      <trkpt lat="43.79453" lon="6.38381">
        <ele>737.95</ele>
        <time>2025-11-14T12:06:48Z</time>
      </trkpt>
      <trkpt lat="43.79445" lon="6.38384">
        <ele>737.95</ele>
        <time>2025-11-14T12:06:49Z</time>
      </trkpt>
      <trkpt lat="43.79436" lon="6.38386">
        <ele>737.47</ele>
        <time>2025-11-14T12:06:50Z</time>
      </trkpt>
      <trkpt lat="43.79427" lon="6.38385">
        <ele>736.51</ele>
        <time>2025-11-14T12:06:51Z</time>
      </trkpt>
      <trkpt lat="43.7942" lon="6.38385">
        <ele>736.03</ele>
        <time>2025-11-14T12:06:52Z</time>
      </trkpt>
      <trkpt lat="43.7937" lon="6.38382">
        <ele>732.66</ele>
        <time>2025-11-14T12:06:58Z</time>
      </trkpt>
      <trkpt lat="43.79313" lon="6.38379">
        <ele>729.3</ele>
        <time>2025-11-14T12:07:04Z</time>
      </trkpt>
      <trkpt lat="43.79263" lon="6.38392">
        <ele>725.45</ele>
        <time>2025-11-14T12:07:09Z</time>
      </trkpt>
      <trkpt lat="43.79234" lon="6.38404">
        <ele>724.01</ele>
        <time>2025-11-14T12:07:12Z</time>
      </trkpt>
      <trkpt lat="43.79224" lon="6.38405">
        <ele>723.05</ele>
        <time>2025-11-14T12:07:13Z</time>
      </trkpt>
      <trkpt lat="43.79214" lon="6.38401">
        <ele>722.09</ele>
        <time>2025-11-14T12:07:14Z</time>
      </trkpt>
      <trkpt lat="43.79205" lon="6.38394">
        <ele>721.61</ele>
        <time>2025-11-14T12:07:15Z</time>
      </trkpt>
      <trkpt lat="43.79196" lon="6.38383">
        <ele>721.13</ele>
        <time>2025-11-14T12:07:16Z</time>
      </trkpt>
      <trkpt lat="43.79189" lon="6.38372">
        <ele>719.68</ele>
        <time>2025-11-14T12:07:17Z</time>
      </trkpt>
      <trkpt lat="43.79183" lon="6.38357">
        <ele>719.2</ele>
        <time>2025-11-14T12:07:18Z</time>
      </trkpt>
      <trkpt lat="43.79179" lon="6.38341">
        <ele>718.72</ele>
        <time>2025-11-14T12:07:19Z</time>
      </trkpt>
      <trkpt lat="43.79177" lon="6.38326">
        <ele>717.76</ele>
        <time>2025-11-14T12:07:20Z</time>
      </trkpt>
      <trkpt lat="43.79177" lon="6.38313">
        <ele>716.8</ele>
        <time>2025-11-14T12:07:21Z</time>
      </trkpt>
      <trkpt lat="43.79178" lon="6.38298">
        <ele>716.32</ele>
        <time>2025-11-14T12:07:22Z</time>
      </trkpt>
      <trkpt lat="43.7918" lon="6.38282">
        <ele>715.36</ele>
        <time>2025-11-14T12:07:23Z</time>
      </trkpt>
      <trkpt lat="43.79182" lon="6.38267">
        <ele>714.4</ele>
        <time>2025-11-14T12:07:24Z</time>
      </trkpt>
      <trkpt lat="43.79187" lon="6.38252">
        <ele>713.92</ele>
        <time>2025-11-14T12:07:25Z</time>
      </trkpt>
      <trkpt lat="43.79193" lon="6.38239">
        <ele>713.44</ele>
        <time>2025-11-14T12:07:26Z</time>
      </trkpt>
      <trkpt lat="43.792" lon="6.38227">
        <ele>712.47</ele>
        <time>2025-11-14T12:07:27Z</time>
      </trkpt>
      <trkpt lat="43.79208" lon="6.38215">
        <ele>711.99</ele>
        <time>2025-11-14T12:07:28Z</time>
      </trkpt>
      <trkpt lat="43.79238" lon="6.38166">
        <ele>708.63</ele>
        <time>2025-11-14T12:07:32Z</time>
      </trkpt>
      <trkpt lat="43.79255" lon="6.38124">
        <ele>705.75</ele>
        <time>2025-11-14T12:07:35Z</time>
      </trkpt>
      <trkpt lat="43.79258" lon="6.38109">
        <ele>705.26</ele>
        <time>2025-11-14T12:07:36Z</time>
      </trkpt>
      <trkpt lat="43.7926" lon="6.38091">
        <ele>704.3</ele>
        <time>2025-11-14T12:07:37Z</time>
      </trkpt>
      <trkpt lat="43.7926" lon="6.38073">
        <ele>703.34</ele>
        <time>2025-11-14T12:07:38Z</time>
      </trkpt>
      <trkpt lat="43.7926" lon="6.38057">
        <ele>702.86</ele>
        <time>2025-11-14T12:07:39Z</time>
      </trkpt>
      <trkpt lat="43.79261" lon="6.38044">
        <ele>702.38</ele>
        <time>2025-11-14T12:07:40Z</time>
      </trkpt>
      <trkpt lat="43.79263" lon="6.38029">
        <ele>701.42</ele>
        <time>2025-11-14T12:07:41Z</time>
      </trkpt>
      <trkpt lat="43.79267" lon="6.38014">
        <ele>700.46</ele>
        <time>2025-11-14T12:07:42Z</time>
      </trkpt>
      <trkpt lat="43.7927" lon="6.37999">
        <ele>699.5</ele>
        <time>2025-11-14T12:07:43Z</time>
      </trkpt>
      <trkpt lat="43.79272" lon="6.37983">
        <ele>699.02</ele>
        <time>2025-11-14T12:07:44Z</time>
      </trkpt>
      <trkpt lat="43.7927" lon="6.37968">
        <ele>698.53</ele>
        <time>2025-11-14T12:07:45Z</time>
      </trkpt>
      <trkpt lat="43.79266" lon="6.37953">
        <ele>697.57</ele>
        <time>2025-11-14T12:07:46Z</time>
      </trkpt>
      <trkpt lat="43.79261" lon="6.37939">
        <ele>696.61</ele>
        <time>2025-11-14T12:07:47Z</time>
      </trkpt>
      <trkpt lat="43.79256" lon="6.37922">
        <ele>696.13</ele>
        <time>2025-11-14T12:07:48Z</time>
      </trkpt>
      <trkpt lat="43.7922" lon="6.37813">
        <ele>695.17</ele>
        <time>2025-11-14T12:07:57Z</time>
      </trkpt>
      <trkpt lat="43.79204" lon="6.37775">
        <ele>694.69</ele>
        <time>2025-11-14T12:08:01Z</time>
      </trkpt>
      <trkpt lat="43.79199" lon="6.37768">
        <ele>694.69</ele>
        <time>2025-11-14T12:08:02Z</time>
      </trkpt>
      <trkpt lat="43.79193" lon="6.37762">
        <ele>694.69</ele>
        <time>2025-11-14T12:08:03Z</time>
      </trkpt>
      <trkpt lat="43.79187" lon="6.37757">
        <ele>694.69</ele>
        <time>2025-11-14T12:08:04Z</time>
      </trkpt>
      <trkpt lat="43.79179" lon="6.37755">
        <ele>694.69</ele>
        <time>2025-11-14T12:08:05Z</time>
      </trkpt>
      <trkpt lat="43.79173" lon="6.37755">
        <ele>694.69</ele>
        <time>2025-11-14T12:08:06Z</time>
      </trkpt>
      <trkpt lat="43.79166" lon="6.37757">
        <ele>694.69</ele>
        <time>2025-11-14T12:08:07Z</time>
      </trkpt>
      <trkpt lat="43.79159" lon="6.37759">
        <ele>694.69</ele>
        <time>2025-11-14T12:08:08Z</time>
      </trkpt>
      <trkpt lat="43.79145" lon="6.37765">
        <ele>695.65</ele>
        <time>2025-11-14T12:08:11Z</time>
      </trkpt>
      <trkpt lat="43.79141" lon="6.37767">
        <ele>696.61</ele>
        <time>2025-11-14T12:08:12Z</time>
      </trkpt>
      <trkpt lat="43.79136" lon="6.37772">
        <ele>697.09</ele>
        <time>2025-11-14T12:08:13Z</time>
      </trkpt>
      <trkpt lat="43.79133" lon="6.37776">
        <ele>697.09</ele>
        <time>2025-11-14T12:08:14Z</time>
      </trkpt>
      <trkpt lat="43.79129" lon="6.37781">
        <ele>697.57</ele>
        <time>2025-11-14T12:08:15Z</time>
      </trkpt>
      <trkpt lat="43.79106" lon="6.37821">
        <ele>700.46</ele>
        <time>2025-11-14T12:08:23Z</time>
      </trkpt>
      <trkpt lat="43.79103" lon="6.37824">
        <ele>700.46</ele>
        <time>2025-11-14T12:08:24Z</time>
      </trkpt>
      <trkpt lat="43.79098" lon="6.37828">
        <ele>700.94</ele>
        <time>2025-11-14T12:08:25Z</time>
      </trkpt>
      <trkpt lat="43.79094" lon="6.37831">
        <ele>700.94</ele>
        <time>2025-11-14T12:08:26Z</time>
      </trkpt>
      <trkpt lat="43.7909" lon="6.37833">
        <ele>701.42</ele>
        <time>2025-11-14T12:08:27Z</time>
      </trkpt>
      <trkpt lat="43.79056" lon="6.37856">
        <ele>704.78</ele>
        <time>2025-11-14T12:08:36Z</time>
      </trkpt>
      <trkpt lat="43.79025" lon="6.37889">
        <ele>707.19</ele>
        <time>2025-11-14T12:08:47Z</time>
      </trkpt>
      <trkpt lat="43.78993" lon="6.37919">
        <ele>710.55</ele>
        <time>2025-11-14T12:08:57Z</time>
      </trkpt>
      <trkpt lat="43.78977" lon="6.37963">
        <ele>712.95</ele>
        <time>2025-11-14T12:09:07Z</time>
      </trkpt>
      <trkpt lat="43.78955" lon="6.37991">
        <ele>715.36</ele>
        <time>2025-11-14T12:09:16Z</time>
      </trkpt>
      <trkpt lat="43.78934" lon="6.38026">
        <ele>717.76</ele>
        <time>2025-11-14T12:09:26Z</time>
      </trkpt>
      <trkpt lat="43.78913" lon="6.38063">
        <ele>721.13</ele>
        <time>2025-11-14T12:09:37Z</time>
      </trkpt>
      <trkpt lat="43.78886" lon="6.38099">
        <ele>724.01</ele>
        <time>2025-11-14T12:09:49Z</time>
      </trkpt>
      <trkpt lat="43.78855" lon="6.38105">
        <ele>726.41</ele>
        <time>2025-11-14T12:10:01Z</time>
      </trkpt>
      <trkpt lat="43.78825" lon="6.38092">
        <ele>728.34</ele>
        <time>2025-11-14T12:10:15Z</time>
      </trkpt>
      <trkpt lat="43.78798" lon="6.38068">
        <ele>730.74</ele>
        <time>2025-11-14T12:10:28Z</time>
      </trkpt>
      <trkpt lat="43.78769" lon="6.38055">
        <ele>733.14</ele>
        <time>2025-11-14T12:10:41Z</time>
      </trkpt>
      <trkpt lat="43.78744" lon="6.38066">
        <ele>734.58</ele>
        <time>2025-11-14T12:10:52Z</time>
      </trkpt>
      <trkpt lat="43.78722" lon="6.38091">
        <ele>736.03</ele>
        <time>2025-11-14T12:11:04Z</time>
      </trkpt>
      <trkpt lat="43.78699" lon="6.38094">
        <ele>738.43</ele>
        <time>2025-11-14T12:11:14Z</time>
      </trkpt>
      <trkpt lat="43.78697" lon="6.38066">
        <ele>740.35</ele>
        <time>2025-11-14T12:11:22Z</time>
      </trkpt>
      <trkpt lat="43.78725" lon="6.38047">
        <ele>742.76</ele>
        <time>2025-11-14T12:11:32Z</time>
      </trkpt>
      <trkpt lat="43.78762" lon="6.38035">
        <ele>744.68</ele>
        <time>2025-11-14T12:11:45Z</time>
      </trkpt>
      <trkpt lat="43.78802" lon="6.38041">
        <ele>746.12</ele>
        <time>2025-11-14T12:11:59Z</time>
      </trkpt>
      <trkpt lat="43.78829" lon="6.38057">
        <ele>747.56</ele>
        <time>2025-11-14T12:12:11Z</time>
      </trkpt>
      <trkpt lat="43.78837" lon="6.38051">
        <ele>748.04</ele>
        <time>2025-11-14T12:12:15Z</time>
      </trkpt>
      <trkpt lat="43.78838" lon="6.38049">
        <ele>748.52</ele>
        <time>2025-11-14T12:12:16Z</time>
      </trkpt>
      <trkpt lat="43.78839" lon="6.38046">
        <ele>748.52</ele>
        <time>2025-11-14T12:12:17Z</time>
      </trkpt>
      <trkpt lat="43.78853" lon="6.3801">
        <ele>750.45</ele>
        <time>2025-11-14T12:12:29Z</time>
      </trkpt>
      <trkpt lat="43.78873" lon="6.37979">
        <ele>752.85</ele>
        <time>2025-11-14T12:12:41Z</time>
      </trkpt>
      <trkpt lat="43.78878" lon="6.37965">
        <ele>753.81</ele>
        <time>2025-11-14T12:12:50Z</time>
      </trkpt>
      <trkpt lat="43.78877" lon="6.37963">
        <ele>753.81</ele>
        <time>2025-11-14T12:13:07Z</time>
      </trkpt>
      <trkpt lat="43.78877" lon="6.37962">
        <ele>753.81</ele>
        <time>2025-11-14T12:13:18Z</time>
      </trkpt>
      <trkpt lat="43.78877" lon="6.3796">
        <ele>753.81</ele>
        <time>2025-11-14T12:13:19Z</time>
      </trkpt>
      <trkpt lat="43.78877" lon="6.37958">
        <ele>753.81</ele>
        <time>2025-11-14T12:13:20Z</time>
      </trkpt>
      <trkpt lat="43.78876" lon="6.37953">
        <ele>753.81</ele>
        <time>2025-11-14T12:13:21Z</time>
      </trkpt>
      <trkpt lat="43.78876" lon="6.37949">
        <ele>754.29</ele>
        <time>2025-11-14T12:13:22Z</time>
      </trkpt>
      <trkpt lat="43.78879" lon="6.37906">
        <ele>756.21</ele>
        <time>2025-11-14T12:13:33Z</time>
      </trkpt>
      <trkpt lat="43.7889" lon="6.37871">
        <ele>758.62</ele>
        <time>2025-11-14T12:13:46Z</time>
      </trkpt>
      <trkpt lat="43.78905" lon="6.37839">
        <ele>760.54</ele>
        <time>2025-11-14T12:13:59Z</time>
      </trkpt>
      <trkpt lat="43.78918" lon="6.37817">
        <ele>762.46</ele>
        <time>2025-11-14T12:14:09Z</time>
      </trkpt>
      <trkpt lat="43.78933" lon="6.37793">
        <ele>763.9</ele>
        <time>2025-11-14T12:14:20Z</time>
      </trkpt>
      <trkpt lat="43.78953" lon="6.37773">
        <ele>765.83</ele>
        <time>2025-11-14T12:14:32Z</time>
      </trkpt>
      <trkpt lat="43.78981" lon="6.37753">
        <ele>767.75</ele>
        <time>2025-11-14T12:14:46Z</time>
      </trkpt>
      <trkpt lat="43.78992" lon="6.37727">
        <ele>769.19</ele>
        <time>2025-11-14T12:14:56Z</time>
      </trkpt>
      <trkpt lat="43.78981" lon="6.37693">
        <ele>770.15</ele>
        <time>2025-11-14T12:15:07Z</time>
      </trkpt>
      <trkpt lat="43.78959" lon="6.3766">
        <ele>772.56</ele>
        <time>2025-11-14T12:15:20Z</time>
      </trkpt>
      <trkpt lat="43.78932" lon="6.37637">
        <ele>774.96</ele>
        <time>2025-11-14T12:15:33Z</time>
      </trkpt>
      <trkpt lat="43.789" lon="6.37615">
        <ele>777.36</ele>
        <time>2025-11-14T12:15:48Z</time>
      </trkpt>
      <trkpt lat="43.78872" lon="6.37593">
        <ele>780.25</ele>
        <time>2025-11-14T12:16:01Z</time>
      </trkpt>
      <trkpt lat="43.78843" lon="6.3757">
        <ele>782.65</ele>
        <time>2025-11-14T12:16:14Z</time>
      </trkpt>
      <trkpt lat="43.78815" lon="6.37552">
        <ele>785.53</ele>
        <time>2025-11-14T12:16:26Z</time>
      </trkpt>
      <trkpt lat="43.788" lon="6.37535">
        <ele>784.09</ele>
        <time>2025-11-14T12:16:34Z</time>
      </trkpt>
      <trkpt lat="43.78796" lon="6.3753">
        <ele>785.53</ele>
        <time>2025-11-14T12:16:36Z</time>
      </trkpt>
      <trkpt lat="43.78793" lon="6.37524">
        <ele>787.94</ele>
        <time>2025-11-14T12:16:38Z</time>
      </trkpt>
      <trkpt lat="43.78766" lon="6.37491">
        <ele>789.38</ele>
        <time>2025-11-14T12:16:52Z</time>
      </trkpt>
      <trkpt lat="43.78735" lon="6.37475">
        <ele>792.26</ele>
        <time>2025-11-14T12:17:05Z</time>
      </trkpt>
      <trkpt lat="43.78704" lon="6.37442">
        <ele>794.67</ele>
        <time>2025-11-14T12:17:20Z</time>
      </trkpt>
      <trkpt lat="43.78684" lon="6.37395">
        <ele>797.55</ele>
        <time>2025-11-14T12:17:35Z</time>
      </trkpt>
      <trkpt lat="43.78672" lon="6.37352">
        <ele>799.95</ele>
        <time>2025-11-14T12:17:48Z</time>
      </trkpt>
      <trkpt lat="43.78667" lon="6.37321">
        <ele>801.88</ele>
        <time>2025-11-14T12:18:00Z</time>
      </trkpt>
      <trkpt lat="43.78665" lon="6.37313">
        <ele>801.88</ele>
        <time>2025-11-14T12:18:12Z</time>
      </trkpt>
      <trkpt lat="43.7865" lon="6.37282">
        <ele>803.32</ele>
        <time>2025-11-14T12:18:22Z</time>
      </trkpt>
      <trkpt lat="43.78623" lon="6.37241">
        <ele>806.2</ele>
        <time>2025-11-14T12:18:37Z</time>
      </trkpt>
      <trkpt lat="43.78615" lon="6.3719">
        <ele>808.61</ele>
        <time>2025-11-14T12:18:51Z</time>
      </trkpt>
      <trkpt lat="43.7861" lon="6.37163">
        <ele>810.53</ele>
        <time>2025-11-14T12:19:00Z</time>
      </trkpt>
      <trkpt lat="43.78609" lon="6.37161">
        <ele>811.01</ele>
        <time>2025-11-14T12:19:09Z</time>
      </trkpt>
      <trkpt lat="43.78608" lon="6.3716">
        <ele>811.01</ele>
        <time>2025-11-14T12:19:21Z</time>
      </trkpt>
      <trkpt lat="43.78608" lon="6.37161">
        <ele>811.01</ele>
        <time>2025-11-14T12:19:31Z</time>
      </trkpt>
      <trkpt lat="43.78608" lon="6.37163">
        <ele>811.01</ele>
        <time>2025-11-14T12:19:53Z</time>
      </trkpt>
      <trkpt lat="43.78609" lon="6.3716">
        <ele>811.01</ele>
        <time>2025-11-14T12:20:18Z</time>
      </trkpt>
      <trkpt lat="43.78608" lon="6.37162">
        <ele>811.01</ele>
        <time>2025-11-14T12:20:41Z</time>
      </trkpt>
      <trkpt lat="43.78608" lon="6.37162">
        <ele>811.01</ele>
        <time>2025-11-14T12:21:02Z</time>
      </trkpt>
      <trkpt lat="43.78608" lon="6.3716">
        <ele>811.49</ele>
        <time>2025-11-14T12:21:13Z</time>
      </trkpt>
      <trkpt lat="43.78607" lon="6.37159">
        <ele>811.49</ele>
        <time>2025-11-14T12:21:14Z</time>
      </trkpt>
      <trkpt lat="43.78605" lon="6.37158">
        <ele>811.49</ele>
        <time>2025-11-14T12:21:15Z</time>
      </trkpt>
      <trkpt lat="43.78583" lon="6.37156">
        <ele>812.45</ele>
        <time>2025-11-14T12:21:23Z</time>
      </trkpt>
      <trkpt lat="43.78553" lon="6.37163">
        <ele>814.85</ele>
        <time>2025-11-14T12:21:34Z</time>
      </trkpt>
      <trkpt lat="43.78521" lon="6.37134">
        <ele>816.78</ele>
        <time>2025-11-14T12:21:48Z</time>
      </trkpt>
      <trkpt lat="43.78505" lon="6.37116">
        <ele>819.18</ele>
        <time>2025-11-14T12:21:55Z</time>
      </trkpt>
      <trkpt lat="43.78476" lon="6.37072">
        <ele>820.62</ele>
        <time>2025-11-14T12:22:10Z</time>
      </trkpt>
      <trkpt lat="43.78451" lon="6.37027">
        <ele>823.51</ele>
        <time>2025-11-14T12:22:24Z</time>
      </trkpt>
      <trkpt lat="43.7843" lon="6.36978">
        <ele>825.43</ele>
        <time>2025-11-14T12:22:38Z</time>
      </trkpt>
      <trkpt lat="43.7841" lon="6.36925">
        <ele>827.83</ele>
        <time>2025-11-14T12:22:53Z</time>
      </trkpt>
      <trkpt lat="43.78388" lon="6.36864">
        <ele>830.72</ele>
        <time>2025-11-14T12:23:10Z</time>
      </trkpt>
      <trkpt lat="43.78364" lon="6.36813">
        <ele>832.64</ele>
        <time>2025-11-14T12:23:25Z</time>
      </trkpt>
      <trkpt lat="43.78353" lon="6.36776">
        <ele>834.56</ele>
        <time>2025-11-14T12:23:35Z</time>
      </trkpt>
      <trkpt lat="43.78339" lon="6.36733">
        <ele>836.48</ele>
        <time>2025-11-14T12:23:47Z</time>
      </trkpt>
      <trkpt lat="43.78313" lon="6.36678">
        <ele>838.89</ele>
        <time>2025-11-14T12:24:03Z</time>
      </trkpt>
      <trkpt lat="43.78292" lon="6.36625">
        <ele>841.77</ele>
        <time>2025-11-14T12:24:18Z</time>
      </trkpt>
      <trkpt lat="43.78272" lon="6.36567">
        <ele>844.18</ele>
        <time>2025-11-14T12:24:34Z</time>
      </trkpt>
      <trkpt lat="43.78255" lon="6.36515">
        <ele>846.58</ele>
        <time>2025-11-14T12:24:48Z</time>
      </trkpt>
      <trkpt lat="43.78238" lon="6.36457">
        <ele>849.46</ele>
        <time>2025-11-14T12:25:04Z</time>
      </trkpt>
      <trkpt lat="43.78227" lon="6.364">
        <ele>851.87</ele>
        <time>2025-11-14T12:25:19Z</time>
      </trkpt>
      <trkpt lat="43.78223" lon="6.36345">
        <ele>854.27</ele>
        <time>2025-11-14T12:25:33Z</time>
      </trkpt>
      <trkpt lat="43.78218" lon="6.36283">
        <ele>856.67</ele>
        <time>2025-11-14T12:25:48Z</time>
      </trkpt>
      <trkpt lat="43.78209" lon="6.36222">
        <ele>859.56</ele>
        <time>2025-11-14T12:26:03Z</time>
      </trkpt>
      <trkpt lat="43.78193" lon="6.36167">
        <ele>861</ele>
        <time>2025-11-14T12:26:17Z</time>
      </trkpt>
      <trkpt lat="43.78175" lon="6.3611">
        <ele>863.88</ele>
        <time>2025-11-14T12:26:32Z</time>
      </trkpt>
      <trkpt lat="43.78155" lon="6.36047">
        <ele>866.77</ele>
        <time>2025-11-14T12:26:49Z</time>
      </trkpt>
      <trkpt lat="43.78133" lon="6.35979">
        <ele>870.13</ele>
        <time>2025-11-14T12:27:07Z</time>
      </trkpt>
      <trkpt lat="43.78119" lon="6.35931">
        <ele>872.05</ele>
        <time>2025-11-14T12:27:20Z</time>
      </trkpt>
      <trkpt lat="43.78107" lon="6.35888">
        <ele>873.5</ele>
        <time>2025-11-14T12:27:32Z</time>
      </trkpt>
      <trkpt lat="43.78095" lon="6.35838">
        <ele>874.94</ele>
        <time>2025-11-14T12:27:45Z</time>
      </trkpt>
      <trkpt lat="43.78081" lon="6.35783">
        <ele>876.86</ele>
        <time>2025-11-14T12:28:00Z</time>
      </trkpt>
      <trkpt lat="43.78071" lon="6.35737">
        <ele>878.3</ele>
        <time>2025-11-14T12:28:13Z</time>
      </trkpt>
      <trkpt lat="43.7807" lon="6.35734">
        <ele>878.78</ele>
        <time>2025-11-14T12:28:21Z</time>
      </trkpt>
      <trkpt lat="43.78069" lon="6.35733">
        <ele>879.26</ele>
        <time>2025-11-14T12:28:44Z</time>
      </trkpt>
      <trkpt lat="43.7807" lon="6.35734">
        <ele>877.82</ele>
        <time>2025-11-14T12:29:04Z</time>
      </trkpt>
      <trkpt lat="43.78065" lon="6.35718">
        <ele>877.82</ele>
        <time>2025-11-14T12:29:12Z</time>
      </trkpt>
      <trkpt lat="43.78051" lon="6.35662">
        <ele>878.78</ele>
        <time>2025-11-14T12:29:25Z</time>
      </trkpt>
      <trkpt lat="43.7805" lon="6.35655">
        <ele>878.78</ele>
        <time>2025-11-14T12:29:27Z</time>
      </trkpt>
      <trkpt lat="43.78048" lon="6.3565">
        <ele>881.19</ele>
        <time>2025-11-14T12:29:28Z</time>
      </trkpt>
      <trkpt lat="43.7803" lon="6.35589">
        <ele>882.63</ele>
        <time>2025-11-14T12:29:43Z</time>
      </trkpt>
      <trkpt lat="43.78012" lon="6.35558">
        <ele>883.59</ele>
        <time>2025-11-14T12:29:54Z</time>
      </trkpt>
      <trkpt lat="43.78005" lon="6.3554">
        <ele>883.59</ele>
        <time>2025-11-14T12:30:05Z</time>
      </trkpt>
      <trkpt lat="43.78003" lon="6.35541">
        <ele>883.59</ele>
        <time>2025-11-14T12:30:21Z</time>
      </trkpt>
      <trkpt lat="43.78004" lon="6.35541">
        <ele>884.07</ele>
        <time>2025-11-14T12:30:37Z</time>
      </trkpt>
      <trkpt lat="43.78005" lon="6.35539">
        <ele>884.07</ele>
        <time>2025-11-14T12:30:55Z</time>
      </trkpt>
      <trkpt lat="43.78005" lon="6.3554">
        <ele>884.07</ele>
        <time>2025-11-14T12:31:12Z</time>
      </trkpt>
      <trkpt lat="43.78005" lon="6.3554">
        <ele>884.07</ele>
        <time>2025-11-14T12:31:34Z</time>
      </trkpt>
      <trkpt lat="43.78005" lon="6.35541">
        <ele>884.07</ele>
        <time>2025-11-14T12:31:54Z</time>
      </trkpt>
      <trkpt lat="43.78005" lon="6.35542">
        <ele>884.07</ele>
        <time>2025-11-14T12:32:12Z</time>
      </trkpt>
      <trkpt lat="43.78005" lon="6.35538">
        <ele>884.07</ele>
        <time>2025-11-14T12:32:20Z</time>
      </trkpt>
      <trkpt lat="43.78003" lon="6.35535">
        <ele>884.07</ele>
        <time>2025-11-14T12:32:33Z</time>
      </trkpt>
      <trkpt lat="43.78001" lon="6.35532">
        <ele>884.07</ele>
        <time>2025-11-14T12:32:44Z</time>
      </trkpt>
      <trkpt lat="43.77989" lon="6.35534">
        <ele>884.07</ele>
        <time>2025-11-14T12:32:51Z</time>
      </trkpt>
      <trkpt lat="43.77987" lon="6.35536">
        <ele>884.07</ele>
        <time>2025-11-14T12:32:52Z</time>
      </trkpt>
      <trkpt lat="43.77986" lon="6.35538">
        <ele>884.07</ele>
        <time>2025-11-14T12:32:53Z</time>
      </trkpt>
      <trkpt lat="43.7798" lon="6.3558">
        <ele>882.63</ele>
        <time>2025-11-14T12:33:05Z</time>
      </trkpt>
      <trkpt lat="43.77969" lon="6.35643">
        <ele>881.67</ele>
        <time>2025-11-14T12:33:18Z</time>
      </trkpt>
      <trkpt lat="43.77958" lon="6.35714">
        <ele>880.71</ele>
        <time>2025-11-14T12:33:31Z</time>
      </trkpt>
      <trkpt lat="43.77953" lon="6.35763">
        <ele>880.71</ele>
        <time>2025-11-14T12:33:40Z</time>
      </trkpt>
      <trkpt lat="43.77953" lon="6.35851">
        <ele>880.71</ele>
        <time>2025-11-14T12:33:56Z</time>
      </trkpt>
      <trkpt lat="43.77945" lon="6.35922">
        <ele>880.71</ele>
        <time>2025-11-14T12:34:09Z</time>
      </trkpt>
      <trkpt lat="43.77941" lon="6.36011">
        <ele>880.71</ele>
        <time>2025-11-14T12:34:26Z</time>
      </trkpt>
      <trkpt lat="43.77941" lon="6.36086">
        <ele>880.71</ele>
        <time>2025-11-14T12:34:40Z</time>
      </trkpt>
      <trkpt lat="43.77944" lon="6.36179">
        <ele>878.3</ele>
        <time>2025-11-14T12:34:57Z</time>
      </trkpt>
      <trkpt lat="43.77944" lon="6.36185">
        <ele>878.3</ele>
        <time>2025-11-14T12:34:58Z</time>
      </trkpt>
      <trkpt lat="43.77944" lon="6.3628">
        <ele>875.42</ele>
        <time>2025-11-14T12:35:11Z</time>
      </trkpt>
      <trkpt lat="43.77942" lon="6.36366">
        <ele>873.98</ele>
        <time>2025-11-14T12:35:21Z</time>
      </trkpt>
      <trkpt lat="43.7794" lon="6.36375">
        <ele>873.01</ele>
        <time>2025-11-14T12:35:22Z</time>
      </trkpt>
      <trkpt lat="43.77905" lon="6.36455">
        <ele>871.57</ele>
        <time>2025-11-14T12:35:33Z</time>
      </trkpt>
      <trkpt lat="43.77882" lon="6.36502">
        <ele>869.65</ele>
        <time>2025-11-14T12:35:39Z</time>
      </trkpt>
      <trkpt lat="43.77825" lon="6.36615">
        <ele>867.25</ele>
        <time>2025-11-14T12:35:53Z</time>
      </trkpt>
      <trkpt lat="43.77794" lon="6.36676">
        <ele>867.25</ele>
        <time>2025-11-14T12:36:04Z</time>
      </trkpt>
      <trkpt lat="43.7778" lon="6.36706">
        <ele>868.69</ele>
        <time>2025-11-14T12:36:10Z</time>
      </trkpt>
      <trkpt lat="43.7777" lon="6.36771">
        <ele>870.13</ele>
        <time>2025-11-14T12:36:22Z</time>
      </trkpt>
      <trkpt lat="43.77785" lon="6.36835">
        <ele>870.61</ele>
        <time>2025-11-14T12:36:34Z</time>
      </trkpt>
      <trkpt lat="43.77818" lon="6.3693">
        <ele>870.61</ele>
        <time>2025-11-14T12:36:52Z</time>
      </trkpt>
      <trkpt lat="43.77847" lon="6.3702">
        <ele>868.69</ele>
        <time>2025-11-14T12:37:06Z</time>
      </trkpt>
      <trkpt lat="43.77849" lon="6.37027">
        <ele>868.69</ele>
        <time>2025-11-14T12:37:07Z</time>
      </trkpt>
      <trkpt lat="43.7787" lon="6.37106">
        <ele>868.69</ele>
        <time>2025-11-14T12:37:20Z</time>
      </trkpt>
      <trkpt lat="43.77877" lon="6.37151">
        <ele>872.05</ele>
        <time>2025-11-14T12:37:28Z</time>
      </trkpt>
      <trkpt lat="43.77878" lon="6.37235">
        <ele>873.98</ele>
        <time>2025-11-14T12:37:43Z</time>
      </trkpt>
      <trkpt lat="43.77875" lon="6.37323">
        <ele>874.46</ele>
        <time>2025-11-14T12:37:58Z</time>
      </trkpt>
      <trkpt lat="43.77889" lon="6.37405">
        <ele>874.94</ele>
        <time>2025-11-14T12:38:12Z</time>
      </trkpt>
      <trkpt lat="43.77901" lon="6.37439">
        <ele>874.94</ele>
        <time>2025-11-14T12:38:18Z</time>
      </trkpt>
      <trkpt lat="43.77932" lon="6.37509">
        <ele>873.01</ele>
        <time>2025-11-14T12:38:30Z</time>
      </trkpt>
      <trkpt lat="43.7797" lon="6.376">
        <ele>870.13</ele>
        <time>2025-11-14T12:38:43Z</time>
      </trkpt>
      <trkpt lat="43.78007" lon="6.37689">
        <ele>867.25</ele>
        <time>2025-11-14T12:38:54Z</time>
      </trkpt>
      <trkpt lat="43.78014" lon="6.37708">
        <ele>865.8</ele>
        <time>2025-11-14T12:38:56Z</time>
      </trkpt>
      <trkpt lat="43.78025" lon="6.37737">
        <ele>864.36</ele>
        <time>2025-11-14T12:38:59Z</time>
      </trkpt>
      <trkpt lat="43.78046" lon="6.37822">
        <ele>861</ele>
        <time>2025-11-14T12:39:07Z</time>
      </trkpt>
      <trkpt lat="43.78055" lon="6.37933">
        <ele>859.08</ele>
        <time>2025-11-14T12:39:18Z</time>
      </trkpt>
      <trkpt lat="43.78056" lon="6.37967">
        <ele>860.52</ele>
        <time>2025-11-14T12:39:23Z</time>
      </trkpt>
      <trkpt lat="43.78057" lon="6.38021">
        <ele>863.88</ele>
        <time>2025-11-14T12:39:33Z</time>
      </trkpt>
      <trkpt lat="43.78059" lon="6.38081">
        <ele>866.29</ele>
        <time>2025-11-14T12:39:46Z</time>
      </trkpt>
      <trkpt lat="43.78059" lon="6.38131">
        <ele>869.65</ele>
        <time>2025-11-14T12:39:57Z</time>
      </trkpt>
      <trkpt lat="43.78054" lon="6.38199">
        <ele>872.53</ele>
        <time>2025-11-14T12:40:13Z</time>
      </trkpt>
      <trkpt lat="43.78054" lon="6.38211">
        <ele>873.98</ele>
        <time>2025-11-14T12:40:16Z</time>
      </trkpt>
      <trkpt lat="43.78059" lon="6.38268">
        <ele>877.34</ele>
        <time>2025-11-14T12:40:31Z</time>
      </trkpt>
      <trkpt lat="43.78057" lon="6.38327">
        <ele>879.26</ele>
        <time>2025-11-14T12:40:47Z</time>
      </trkpt>
      <trkpt lat="43.78056" lon="6.38366">
        <ele>883.11</ele>
        <time>2025-11-14T12:40:58Z</time>
      </trkpt>
      <trkpt lat="43.78055" lon="6.38415">
        <ele>885.51</ele>
        <time>2025-11-14T12:41:13Z</time>
      </trkpt>
      <trkpt lat="43.78058" lon="6.38469">
        <ele>887.91</ele>
        <time>2025-11-14T12:41:29Z</time>
      </trkpt>
      <trkpt lat="43.7806" lon="6.38521">
        <ele>890.8</ele>
        <time>2025-11-14T12:41:44Z</time>
      </trkpt>
      <trkpt lat="43.7805" lon="6.38561">
        <ele>894.16</ele>
        <time>2025-11-14T12:41:56Z</time>
      </trkpt>
      <trkpt lat="43.78036" lon="6.38608">
        <ele>897.05</ele>
        <time>2025-11-14T12:42:11Z</time>
      </trkpt>
      <trkpt lat="43.78034" lon="6.38656">
        <ele>899.93</ele>
        <time>2025-11-14T12:42:25Z</time>
      </trkpt>
      <trkpt lat="43.78035" lon="6.38697">
        <ele>903.3</ele>
        <time>2025-11-14T12:42:37Z</time>
      </trkpt>
      <trkpt lat="43.78037" lon="6.38748">
        <ele>904.74</ele>
        <time>2025-11-14T12:42:52Z</time>
      </trkpt>
      <trkpt lat="43.78043" lon="6.38796">
        <ele>907.62</ele>
        <time>2025-11-14T12:43:06Z</time>
      </trkpt>
      <trkpt lat="43.78055" lon="6.38847">
        <ele>910.99</ele>
        <time>2025-11-14T12:43:21Z</time>
      </trkpt>
      <trkpt lat="43.78067" lon="6.38897">
        <ele>913.87</ele>
        <time>2025-11-14T12:43:36Z</time>
      </trkpt>
      <trkpt lat="43.78082" lon="6.38954">
        <ele>917.24</ele>
        <time>2025-11-14T12:43:53Z</time>
      </trkpt>
      <trkpt lat="43.78096" lon="6.39">
        <ele>920.6</ele>
        <time>2025-11-14T12:44:07Z</time>
      </trkpt>
      <trkpt lat="43.78105" lon="6.39045">
        <ele>923</ele>
        <time>2025-11-14T12:44:21Z</time>
      </trkpt>
      <trkpt lat="43.78101" lon="6.39058">
        <ele>924.45</ele>
        <time>2025-11-14T12:44:29Z</time>
      </trkpt>
      <trkpt lat="43.781" lon="6.39057">
        <ele>924.45</ele>
        <time>2025-11-14T12:44:38Z</time>
      </trkpt>
      <trkpt lat="43.78101" lon="6.39058">
        <ele>923.48</ele>
        <time>2025-11-14T12:45:05Z</time>
      </trkpt>
      <trkpt lat="43.781" lon="6.39059">
        <ele>923</ele>
        <time>2025-11-14T12:45:28Z</time>
      </trkpt>
      <trkpt lat="43.78099" lon="6.39058">
        <ele>923</ele>
        <time>2025-11-14T12:45:47Z</time>
      </trkpt>
      <trkpt lat="43.78098" lon="6.39058">
        <ele>924.45</ele>
        <time>2025-11-14T12:45:49Z</time>
      </trkpt>
      <trkpt lat="43.78093" lon="6.39061">
        <ele>924.45</ele>
        <time>2025-11-14T12:46:03Z</time>
      </trkpt>
      <trkpt lat="43.78093" lon="6.39061">
        <ele>925.41</ele>
        <time>2025-11-14T12:46:32Z</time>
      </trkpt>
      <trkpt lat="43.78094" lon="6.3906">
        <ele>923.96</ele>
        <time>2025-11-14T12:46:57Z</time>
      </trkpt>
      <trkpt lat="43.78094" lon="6.39061">
        <ele>923.96</ele>
        <time>2025-11-14T12:47:19Z</time>
      </trkpt>
      <trkpt lat="43.78094" lon="6.39062">
        <ele>923.48</ele>
        <time>2025-11-14T12:47:50Z</time>
      </trkpt>
      <trkpt lat="43.78093" lon="6.39062">
        <ele>923.48</ele>
        <time>2025-11-14T12:48:17Z</time>
      </trkpt>
      <trkpt lat="43.78094" lon="6.39062">
        <ele>923.48</ele>
        <time>2025-11-14T12:48:45Z</time>
      </trkpt>
      <trkpt lat="43.78093" lon="6.3906">
        <ele>924.93</ele>
        <time>2025-11-14T12:49:04Z</time>
      </trkpt>
      <trkpt lat="43.78092" lon="6.39059">
        <ele>924.93</ele>
        <time>2025-11-14T12:49:34Z</time>
      </trkpt>
      <trkpt lat="43.78093" lon="6.39061">
        <ele>924.45</ele>
        <time>2025-11-14T12:50:07Z</time>
      </trkpt>
      <trkpt lat="43.78093" lon="6.39059">
        <ele>924.93</ele>
        <time>2025-11-14T12:50:28Z</time>
      </trkpt>
      <trkpt lat="43.78091" lon="6.39058">
        <ele>924.93</ele>
        <time>2025-11-14T12:50:36Z</time>
      </trkpt>
      <trkpt lat="43.7809" lon="6.39055">
        <ele>924.93</ele>
        <time>2025-11-14T12:50:37Z</time>
      </trkpt>
      <trkpt lat="43.7809" lon="6.39054">
        <ele>924.93</ele>
        <time>2025-11-14T12:50:38Z</time>
      </trkpt>
      <trkpt lat="43.78081" lon="6.39023">
        <ele>924.93</ele>
        <time>2025-11-14T12:50:46Z</time>
      </trkpt>
      <trkpt lat="43.78058" lon="6.38974">
        <ele>926.85</ele>
        <time>2025-11-14T12:51:00Z</time>
      </trkpt>
      <trkpt lat="43.78028" lon="6.3893">
        <ele>928.29</ele>
        <time>2025-11-14T12:51:15Z</time>
      </trkpt>
      <trkpt lat="43.78006" lon="6.38892">
        <ele>930.69</ele>
        <time>2025-11-14T12:51:28Z</time>
      </trkpt>
      <trkpt lat="43.77992" lon="6.3891">
        <ele>932.14</ele>
        <time>2025-11-14T12:51:35Z</time>
      </trkpt>
      <trkpt lat="43.78003" lon="6.38937">
        <ele>934.06</ele>
        <time>2025-11-14T12:51:43Z</time>
      </trkpt>
      <trkpt lat="43.78033" lon="6.38988">
        <ele>935.5</ele>
        <time>2025-11-14T12:51:57Z</time>
      </trkpt>
      <trkpt lat="43.78047" lon="6.39025">
        <ele>937.42</ele>
        <time>2025-11-14T12:52:08Z</time>
      </trkpt>
      <trkpt lat="43.78034" lon="6.39042">
        <ele>937.9</ele>
        <time>2025-11-14T12:52:16Z</time>
      </trkpt>
      <trkpt lat="43.7803" lon="6.39044">
        <ele>938.86</ele>
        <time>2025-11-14T12:52:25Z</time>
      </trkpt>
      <trkpt lat="43.7803" lon="6.39043">
        <ele>938.86</ele>
        <time>2025-11-14T12:52:50Z</time>
      </trkpt>
      <trkpt lat="43.7803" lon="6.39044">
        <ele>938.38</ele>
        <time>2025-11-14T12:53:16Z</time>
      </trkpt>
      <trkpt lat="43.78031" lon="6.39043">
        <ele>938.38</ele>
        <time>2025-11-14T12:53:38Z</time>
      </trkpt>
      <trkpt lat="43.7803" lon="6.39041">
        <ele>938.38</ele>
        <time>2025-11-14T12:53:42Z</time>
      </trkpt>
      <trkpt lat="43.78021" lon="6.39013">
        <ele>938.38</ele>
        <time>2025-11-14T12:53:50Z</time>
      </trkpt>
      <trkpt lat="43.77991" lon="6.38957">
        <ele>941.27</ele>
        <time>2025-11-14T12:54:03Z</time>
      </trkpt>
      <trkpt lat="43.7796" lon="6.38919">
        <ele>944.63</ele>
        <time>2025-11-14T12:54:15Z</time>
      </trkpt>
      <trkpt lat="43.77949" lon="6.38901">
        <ele>945.59</ele>
        <time>2025-11-14T12:54:20Z</time>
      </trkpt>
      <trkpt lat="43.77923" lon="6.38858">
        <ele>948.96</ele>
        <time>2025-11-14T12:54:33Z</time>
      </trkpt>
      <trkpt lat="43.779" lon="6.38814">
        <ele>952.8</ele>
        <time>2025-11-14T12:54:46Z</time>
      </trkpt>
      <trkpt lat="43.77871" lon="6.38755">
        <ele>955.21</ele>
        <time>2025-11-14T12:55:03Z</time>
      </trkpt>
      <trkpt lat="43.77853" lon="6.38715">
        <ele>958.57</ele>
        <time>2025-11-14T12:55:15Z</time>
      </trkpt>
      <trkpt lat="43.77837" lon="6.38677">
        <ele>961.94</ele>
        <time>2025-11-14T12:55:27Z</time>
      </trkpt>
      <trkpt lat="43.77826" lon="6.38648">
        <ele>963.86</ele>
        <time>2025-11-14T12:55:37Z</time>
      </trkpt>
      <trkpt lat="43.7782" lon="6.38628">
        <ele>965.3</ele>
        <time>2025-11-14T12:55:44Z</time>
      </trkpt>
      <trkpt lat="43.77806" lon="6.38585">
        <ele>968.67</ele>
        <time>2025-11-14T12:55:59Z</time>
      </trkpt>
      <trkpt lat="43.77795" lon="6.38551">
        <ele>971.55</ele>
        <time>2025-11-14T12:56:11Z</time>
      </trkpt>
      <trkpt lat="43.7778" lon="6.38509">
        <ele>974.43</ele>
        <time>2025-11-14T12:56:26Z</time>
      </trkpt>
      <trkpt lat="43.77771" lon="6.38484">
        <ele>977.8</ele>
        <time>2025-11-14T12:56:35Z</time>
      </trkpt>
      <trkpt lat="43.77755" lon="6.38443">
        <ele>981.16</ele>
        <time>2025-11-14T12:56:50Z</time>
      </trkpt>
      <trkpt lat="43.7774" lon="6.38403">
        <ele>984.05</ele>
        <time>2025-11-14T12:57:04Z</time>
      </trkpt>
      <trkpt lat="43.77728" lon="6.38373">
        <ele>987.41</ele>
        <time>2025-11-14T12:57:15Z</time>
      </trkpt>
      <trkpt lat="43.77724" lon="6.38361">
        <ele>988.37</ele>
        <time>2025-11-14T12:57:19Z</time>
      </trkpt>
      <trkpt lat="43.77708" lon="6.38318">
        <ele>990.78</ele>
        <time>2025-11-14T12:57:34Z</time>
      </trkpt>
      <trkpt lat="43.77704" lon="6.38308">
        <ele>991.74</ele>
        <time>2025-11-14T12:57:38Z</time>
      </trkpt>
      <trkpt lat="43.77688" lon="6.38275">
        <ele>995.1</ele>
        <time>2025-11-14T12:57:51Z</time>
      </trkpt>
      <trkpt lat="43.77671" lon="6.3825">
        <ele>998.95</ele>
        <time>2025-11-14T12:58:02Z</time>
      </trkpt>
      <trkpt lat="43.77669" lon="6.38248">
        <ele>999.43</ele>
        <time>2025-11-14T12:58:03Z</time>
      </trkpt>
      <trkpt lat="43.77653" lon="6.3823">
        <ele>1002.79</ele>
        <time>2025-11-14T12:58:13Z</time>
      </trkpt>
      <trkpt lat="43.77634" lon="6.38208">
        <ele>1006.16</ele>
        <time>2025-11-14T12:58:24Z</time>
      </trkpt>
      <trkpt lat="43.77612" lon="6.38186">
        <ele>1008.56</ele>
        <time>2025-11-14T12:58:37Z</time>
      </trkpt>
      <trkpt lat="43.77607" lon="6.38182">
        <ele>1009.52</ele>
        <time>2025-11-14T12:58:39Z</time>
      </trkpt>
      <trkpt lat="43.77586" lon="6.3816">
        <ele>1010.96</ele>
        <time>2025-11-14T12:58:51Z</time>
      </trkpt>
      <trkpt lat="43.77567" lon="6.38123">
        <ele>1015.29</ele>
        <time>2025-11-14T12:59:06Z</time>
      </trkpt>
      <trkpt lat="43.77554" lon="6.38079">
        <ele>1021.06</ele>
        <time>2025-11-14T12:59:21Z</time>
      </trkpt>
      <trkpt lat="43.77554" lon="6.38076">
        <ele>1021.06</ele>
        <time>2025-11-14T12:59:22Z</time>
      </trkpt>
      <trkpt lat="43.77549" lon="6.38021">
        <ele>1024.9</ele>
        <time>2025-11-14T12:59:41Z</time>
      </trkpt>
      <trkpt lat="43.77549" lon="6.38018">
        <ele>1024.9</ele>
        <time>2025-11-14T12:59:42Z</time>
      </trkpt>
      <trkpt lat="43.77547" lon="6.38013">
        <ele>1022.98</ele>
        <time>2025-11-14T12:59:52Z</time>
      </trkpt>
      <trkpt lat="43.77547" lon="6.38013">
        <ele>1022.98</ele>
        <time>2025-11-14T12:59:54Z</time>
      </trkpt>
      <trkpt lat="43.77547" lon="6.38012">
        <ele>1022.98</ele>
        <time>2025-11-14T13:00:16Z</time>
      </trkpt>
      <trkpt lat="43.77548" lon="6.38012">
        <ele>1022.98</ele>
        <time>2025-11-14T13:00:37Z</time>
      </trkpt>
      <trkpt lat="43.77546" lon="6.38011">
        <ele>1024.42</ele>
        <time>2025-11-14T13:01:02Z</time>
      </trkpt>
      <trkpt lat="43.77547" lon="6.3801">
        <ele>1024.42</ele>
        <time>2025-11-14T13:01:28Z</time>
      </trkpt>
      <trkpt lat="43.77548" lon="6.38011">
        <ele>1024.42</ele>
        <time>2025-11-14T13:01:56Z</time>
      </trkpt>
      <trkpt lat="43.77548" lon="6.38011">
        <ele>1024.42</ele>
        <time>2025-11-14T13:02:27Z</time>
      </trkpt>
      <trkpt lat="43.77548" lon="6.3801">
        <ele>1022.98</ele>
        <time>2025-11-14T13:02:57Z</time>
      </trkpt>
      <trkpt lat="43.77551" lon="6.38009">
        <ele>1022.98</ele>
        <time>2025-11-14T13:03:21Z</time>
      </trkpt>
      <trkpt lat="43.7755" lon="6.38011">
        <ele>1022.98</ele>
        <time>2025-11-14T13:03:55Z</time>
      </trkpt>
      <trkpt lat="43.77548" lon="6.38011">
        <ele>1022.98</ele>
        <time>2025-11-14T13:04:22Z</time>
      </trkpt>
      <trkpt lat="43.77548" lon="6.38011">
        <ele>1024.42</ele>
        <time>2025-11-14T13:04:43Z</time>
      </trkpt>
      <trkpt lat="43.77547" lon="6.3801">
        <ele>1024.42</ele>
        <time>2025-11-14T13:05:16Z</time>
      </trkpt>
      <trkpt lat="43.77547" lon="6.38011">
        <ele>1024.42</ele>
        <time>2025-11-14T13:05:52Z</time>
      </trkpt>
      <trkpt lat="43.77547" lon="6.3801">
        <ele>1023.94</ele>
        <time>2025-11-14T13:06:18Z</time>
      </trkpt>
      <trkpt lat="43.77542" lon="6.38012">
        <ele>1024.42</ele>
        <time>2025-11-14T13:06:29Z</time>
      </trkpt>
      <trkpt lat="43.77541" lon="6.38011">
        <ele>1023.94</ele>
        <time>2025-11-14T13:06:40Z</time>
      </trkpt>
      <trkpt lat="43.77539" lon="6.38011">
        <ele>1023.94</ele>
        <time>2025-11-14T13:06:41Z</time>
      </trkpt>
      <trkpt lat="43.77536" lon="6.38011">
        <ele>1024.9</ele>
        <time>2025-11-14T13:06:42Z</time>
      </trkpt>
      <trkpt lat="43.77522" lon="6.38034">
        <ele>1026.34</ele>
        <time>2025-11-14T13:06:52Z</time>
      </trkpt>
      <trkpt lat="43.77523" lon="6.38068">
        <ele>1027.31</ele>
        <time>2025-11-14T13:07:03Z</time>
      </trkpt>
      <trkpt lat="43.77521" lon="6.38109">
        <ele>1030.67</ele>
        <time>2025-11-14T13:07:17Z</time>
      </trkpt>
      <trkpt lat="43.77518" lon="6.38148">
        <ele>1033.07</ele>
        <time>2025-11-14T13:07:30Z</time>
      </trkpt>
      <trkpt lat="43.77517" lon="6.38152">
        <ele>1033.07</ele>
        <time>2025-11-14T13:07:31Z</time>
      </trkpt>
      <trkpt lat="43.77514" lon="6.3818">
        <ele>1035</ele>
        <time>2025-11-14T13:07:42Z</time>
      </trkpt>
      <trkpt lat="43.77509" lon="6.38222">
        <ele>1038.36</ele>
        <time>2025-11-14T13:07:56Z</time>
      </trkpt>
      <trkpt lat="43.7751" lon="6.38258">
        <ele>1041.25</ele>
        <time>2025-11-14T13:08:08Z</time>
      </trkpt>
      <trkpt lat="43.77515" lon="6.38289">
        <ele>1044.13</ele>
        <time>2025-11-14T13:08:18Z</time>
      </trkpt>
      <trkpt lat="43.77525" lon="6.38319">
        <ele>1047.49</ele>
        <time>2025-11-14T13:08:29Z</time>
      </trkpt>
      <trkpt lat="43.77542" lon="6.3837">
        <ele>1049.9</ele>
        <time>2025-11-14T13:08:47Z</time>
      </trkpt>
      <trkpt lat="43.77539" lon="6.38401">
        <ele>1052.3</ele>
        <time>2025-11-14T13:08:58Z</time>
      </trkpt>
      <trkpt lat="43.77534" lon="6.38403">
        <ele>1052.3</ele>
        <time>2025-11-14T13:09:01Z</time>
      </trkpt>
      <trkpt lat="43.77533" lon="6.38402">
        <ele>1052.3</ele>
        <time>2025-11-14T13:09:02Z</time>
      </trkpt>
      <trkpt lat="43.77533" lon="6.38402">
        <ele>1051.82</ele>
        <time>2025-11-14T13:09:09Z</time>
      </trkpt>
      <trkpt lat="43.77533" lon="6.38403">
        <ele>1051.82</ele>
        <time>2025-11-14T13:09:27Z</time>
      </trkpt>
      <trkpt lat="43.77532" lon="6.38402">
        <ele>1052.78</ele>
        <time>2025-11-14T13:09:56Z</time>
      </trkpt>
      <trkpt lat="43.77532" lon="6.38403">
        <ele>1052.78</ele>
        <time>2025-11-14T13:10:20Z</time>
      </trkpt>
      <trkpt lat="43.77533" lon="6.38402">
        <ele>1052.78</ele>
        <time>2025-11-14T13:10:40Z</time>
      </trkpt>
      <trkpt lat="43.77533" lon="6.38402">
        <ele>1052.78</ele>
        <time>2025-11-14T13:11:05Z</time>
      </trkpt>
      <trkpt lat="43.77533" lon="6.38401">
        <ele>1052.78</ele>
        <time>2025-11-14T13:11:30Z</time>
      </trkpt>
      <trkpt lat="43.77533" lon="6.38402">
        <ele>1052.3</ele>
        <time>2025-11-14T13:11:53Z</time>
      </trkpt>
      <trkpt lat="43.77532" lon="6.38403">
        <ele>1052.78</ele>
        <time>2025-11-14T13:12:19Z</time>
      </trkpt>
      <trkpt lat="43.77532" lon="6.38403">
        <ele>1052.78</ele>
        <time>2025-11-14T13:12:47Z</time>
      </trkpt>
      <trkpt lat="43.77532" lon="6.38402">
        <ele>1052.78</ele>
        <time>2025-11-14T13:13:10Z</time>
      </trkpt>
      <trkpt lat="43.77533" lon="6.38403">
        <ele>1052.78</ele>
        <time>2025-11-14T13:13:32Z</time>
      </trkpt>
      <trkpt lat="43.77532" lon="6.38403">
        <ele>1052.78</ele>
        <time>2025-11-14T13:13:52Z</time>
      </trkpt>
      <trkpt lat="43.77532" lon="6.38402">
        <ele>1052.78</ele>
        <time>2025-11-14T13:14:13Z</time>
      </trkpt>
      <trkpt lat="43.77532" lon="6.38402">
        <ele>1052.78</ele>
        <time>2025-11-14T13:14:39Z</time>
      </trkpt>
      <trkpt lat="43.77533" lon="6.38402">
        <ele>1052.78</ele>
        <time>2025-11-14T13:14:59Z</time>
      </trkpt>
      <trkpt lat="43.77533" lon="6.38401">
        <ele>1052.78</ele>
        <time>2025-11-14T13:15:24Z</time>
      </trkpt>
      <trkpt lat="43.77531" lon="6.38396">
        <ele>1052.78</ele>
        <time>2025-11-14T13:15:35Z</time>
      </trkpt>
      <trkpt lat="43.77526" lon="6.38388">
        <ele>1052.78</ele>
        <time>2025-11-14T13:15:46Z</time>
      </trkpt>
      <trkpt lat="43.77514" lon="6.38361">
        <ele>1052.78</ele>
        <time>2025-11-14T13:15:58Z</time>
      </trkpt>
      <trkpt lat="43.77512" lon="6.3836">
        <ele>1052.78</ele>
        <time>2025-11-14T13:15:59Z</time>
      </trkpt>
      <trkpt lat="43.77511" lon="6.38358">
        <ele>1052.78</ele>
        <time>2025-11-14T13:16:00Z</time>
      </trkpt>
      <trkpt lat="43.77485" lon="6.38327">
        <ele>1054.22</ele>
        <time>2025-11-14T13:16:13Z</time>
      </trkpt>
      <trkpt lat="43.77458" lon="6.38285">
        <ele>1054.7</ele>
        <time>2025-11-14T13:16:28Z</time>
      </trkpt>
      <trkpt lat="43.77444" lon="6.38231">
        <ele>1055.18</ele>
        <time>2025-11-14T13:16:43Z</time>
      </trkpt>
      <trkpt lat="43.77434" lon="6.38179">
        <ele>1057.59</ele>
        <time>2025-11-14T13:16:58Z</time>
      </trkpt>
      <trkpt lat="43.77424" lon="6.38126">
        <ele>1060.47</ele>
        <time>2025-11-14T13:17:13Z</time>
      </trkpt>
      <trkpt lat="43.77416" lon="6.38088">
        <ele>1063.36</ele>
        <time>2025-11-14T13:17:25Z</time>
      </trkpt>
      <trkpt lat="43.77414" lon="6.38079">
        <ele>1064.8</ele>
        <time>2025-11-14T13:17:28Z</time>
      </trkpt>
      <trkpt lat="43.774" lon="6.38038">
        <ele>1067.2</ele>
        <time>2025-11-14T13:17:41Z</time>
      </trkpt>
      <trkpt lat="43.77386" lon="6.38009">
        <ele>1070.08</ele>
        <time>2025-11-14T13:17:52Z</time>
      </trkpt>
      <trkpt lat="43.77366" lon="6.37971">
        <ele>1072.97</ele>
        <time>2025-11-14T13:18:05Z</time>
      </trkpt>
      <trkpt lat="43.77344" lon="6.37933">
        <ele>1076.33</ele>
        <time>2025-11-14T13:18:19Z</time>
      </trkpt>
      <trkpt lat="43.77326" lon="6.37898">
        <ele>1079.7</ele>
        <time>2025-11-14T13:18:31Z</time>
      </trkpt>
      <trkpt lat="43.77306" lon="6.37863">
        <ele>1083.06</ele>
        <time>2025-11-14T13:18:44Z</time>
      </trkpt>
      <trkpt lat="43.77284" lon="6.37822">
        <ele>1086.43</ele>
        <time>2025-11-14T13:18:58Z</time>
      </trkpt>
      <trkpt lat="43.77259" lon="6.37776">
        <ele>1088.83</ele>
        <time>2025-11-14T13:19:14Z</time>
      </trkpt>
      <trkpt lat="43.77237" lon="6.37741">
        <ele>1091.71</ele>
        <time>2025-11-14T13:19:29Z</time>
      </trkpt>
      <trkpt lat="43.77215" lon="6.37712">
        <ele>1093.64</ele>
        <time>2025-11-14T13:19:42Z</time>
      </trkpt>
      <trkpt lat="43.77199" lon="6.37691">
        <ele>1097.48</ele>
        <time>2025-11-14T13:19:52Z</time>
      </trkpt>
      <trkpt lat="43.77198" lon="6.37689">
        <ele>1097.48</ele>
        <time>2025-11-14T13:19:53Z</time>
      </trkpt>
      <trkpt lat="43.77192" lon="6.3768">
        <ele>1095.08</ele>
        <time>2025-11-14T13:19:57Z</time>
      </trkpt>
      <trkpt lat="43.7719" lon="6.37678">
        <ele>1098.92</ele>
        <time>2025-11-14T13:19:58Z</time>
      </trkpt>
      <trkpt lat="43.77188" lon="6.37676">
        <ele>1097.96</ele>
        <time>2025-11-14T13:19:59Z</time>
      </trkpt>
      <trkpt lat="43.77173" lon="6.37656">
        <ele>1098.44</ele>
        <time>2025-11-14T13:20:08Z</time>
      </trkpt>
      <trkpt lat="43.77147" lon="6.37624">
        <ele>1100.85</ele>
        <time>2025-11-14T13:20:23Z</time>
      </trkpt>
      <trkpt lat="43.77125" lon="6.37591">
        <ele>1101.81</ele>
        <time>2025-11-14T13:20:37Z</time>
      </trkpt>
      <trkpt lat="43.77109" lon="6.37561">
        <ele>1105.65</ele>
        <time>2025-11-14T13:20:48Z</time>
      </trkpt>
      <trkpt lat="43.77099" lon="6.3754">
        <ele>1108.06</ele>
        <time>2025-11-14T13:20:56Z</time>
      </trkpt>
      <trkpt lat="43.7708" lon="6.37506">
        <ele>1110.46</ele>
        <time>2025-11-14T13:21:10Z</time>
      </trkpt>
      <trkpt lat="43.77065" lon="6.37478">
        <ele>1113.82</ele>
        <time>2025-11-14T13:21:21Z</time>
      </trkpt>
      <trkpt lat="43.77037" lon="6.37434">
        <ele>1115.75</ele>
        <time>2025-11-14T13:21:40Z</time>
      </trkpt>
      <trkpt lat="43.77022" lon="6.37411">
        <ele>1119.11</ele>
        <time>2025-11-14T13:21:50Z</time>
      </trkpt>
      <trkpt lat="43.77004" lon="6.37382">
        <ele>1121.52</ele>
        <time>2025-11-14T13:22:03Z</time>
      </trkpt>
      <trkpt lat="43.76986" lon="6.37353">
        <ele>1124.4</ele>
        <time>2025-11-14T13:22:15Z</time>
      </trkpt>
      <trkpt lat="43.76967" lon="6.37323">
        <ele>1127.28</ele>
        <time>2025-11-14T13:22:28Z</time>
      </trkpt>
      <trkpt lat="43.76949" lon="6.37294">
        <ele>1130.17</ele>
        <time>2025-11-14T13:22:40Z</time>
      </trkpt>
      <trkpt lat="43.76926" lon="6.37263">
        <ele>1133.53</ele>
        <time>2025-11-14T13:22:54Z</time>
      </trkpt>
      <trkpt lat="43.7691" lon="6.37244">
        <ele>1137.38</ele>
        <time>2025-11-14T13:23:04Z</time>
      </trkpt>
      <trkpt lat="43.76892" lon="6.37227">
        <ele>1139.78</ele>
        <time>2025-11-14T13:23:14Z</time>
      </trkpt>
      <trkpt lat="43.76869" lon="6.37206">
        <ele>1142.66</ele>
        <time>2025-11-14T13:23:27Z</time>
      </trkpt>
      <trkpt lat="43.76852" lon="6.37191">
        <ele>1146.03</ele>
        <time>2025-11-14T13:23:36Z</time>
      </trkpt>
      <trkpt lat="43.76834" lon="6.37174">
        <ele>1148.91</ele>
        <time>2025-11-14T13:23:46Z</time>
      </trkpt>
      <trkpt lat="43.76811" lon="6.37152">
        <ele>1151.32</ele>
        <time>2025-11-14T13:23:59Z</time>
      </trkpt>
      <trkpt lat="43.76792" lon="6.37136">
        <ele>1152.76</ele>
        <time>2025-11-14T13:24:09Z</time>
      </trkpt>
      <trkpt lat="43.76772" lon="6.37117">
        <ele>1156.12</ele>
        <time>2025-11-14T13:24:20Z</time>
      </trkpt>
      <trkpt lat="43.76749" lon="6.37094">
        <ele>1157.56</ele>
        <time>2025-11-14T13:24:33Z</time>
      </trkpt>
      <trkpt lat="43.76737" lon="6.37078">
        <ele>1159.49</ele>
        <time>2025-11-14T13:24:41Z</time>
      </trkpt>
      <trkpt lat="43.76732" lon="6.37072">
        <ele>1161.89</ele>
        <time>2025-11-14T13:24:44Z</time>
      </trkpt>
      <trkpt lat="43.76714" lon="6.37045">
        <ele>1163.33</ele>
        <time>2025-11-14T13:24:56Z</time>
      </trkpt>
      <trkpt lat="43.76695" lon="6.37014">
        <ele>1166.7</ele>
        <time>2025-11-14T13:25:09Z</time>
      </trkpt>
      <trkpt lat="43.76676" lon="6.36986">
        <ele>1170.06</ele>
        <time>2025-11-14T13:25:21Z</time>
      </trkpt>
      <trkpt lat="43.76675" lon="6.36984">
        <ele>1170.06</ele>
        <time>2025-11-14T13:25:22Z</time>
      </trkpt>
      <trkpt lat="43.76663" lon="6.36968">
        <ele>1172.47</ele>
        <time>2025-11-14T13:25:29Z</time>
      </trkpt>
      <trkpt lat="43.76645" lon="6.36945">
        <ele>1175.35</ele>
        <time>2025-11-14T13:25:40Z</time>
      </trkpt>
      <trkpt lat="43.76617" lon="6.36916">
        <ele>1178.71</ele>
        <time>2025-11-14T13:25:55Z</time>
      </trkpt>
      <trkpt lat="43.76598" lon="6.36896">
        <ele>1182.08</ele>
        <time>2025-11-14T13:26:05Z</time>
      </trkpt>
      <trkpt lat="43.76572" lon="6.36867">
        <ele>1185.44</ele>
        <time>2025-11-14T13:26:20Z</time>
      </trkpt>
      <trkpt lat="43.76548" lon="6.36839">
        <ele>1188.81</ele>
        <time>2025-11-14T13:26:34Z</time>
      </trkpt>
      <trkpt lat="43.76531" lon="6.36826">
        <ele>1192.17</ele>
        <time>2025-11-14T13:26:43Z</time>
      </trkpt>
      <trkpt lat="43.76519" lon="6.36844">
        <ele>1194.09</ele>
        <time>2025-11-14T13:26:51Z</time>
      </trkpt>
      <trkpt lat="43.76531" lon="6.36876">
        <ele>1195.54</ele>
        <time>2025-11-14T13:27:02Z</time>
      </trkpt>
      <trkpt lat="43.76539" lon="6.36912">
        <ele>1198.42</ele>
        <time>2025-11-14T13:27:14Z</time>
      </trkpt>
      <trkpt lat="43.76539" lon="6.36944">
        <ele>1201.3</ele>
        <time>2025-11-14T13:27:24Z</time>
      </trkpt>
      <trkpt lat="43.76539" lon="6.36978">
        <ele>1204.67</ele>
        <time>2025-11-14T13:27:35Z</time>
      </trkpt>
      <trkpt lat="43.76538" lon="6.37001">
        <ele>1207.07</ele>
        <time>2025-11-14T13:27:42Z</time>
      </trkpt>
      <trkpt lat="43.76538" lon="6.37033">
        <ele>1209.96</ele>
        <time>2025-11-14T13:27:52Z</time>
      </trkpt>
      <trkpt lat="43.76538" lon="6.37063">
        <ele>1213.8</ele>
        <time>2025-11-14T13:28:02Z</time>
      </trkpt>
      <trkpt lat="43.76538" lon="6.37101">
        <ele>1216.69</ele>
        <time>2025-11-14T13:28:14Z</time>
      </trkpt>
      <trkpt lat="43.76538" lon="6.3713">
        <ele>1220.05</ele>
        <time>2025-11-14T13:28:23Z</time>
      </trkpt>
      <trkpt lat="43.76538" lon="6.37168">
        <ele>1223.42</ele>
        <time>2025-11-14T13:28:35Z</time>
      </trkpt>
      <trkpt lat="43.76539" lon="6.37177">
        <ele>1224.38</ele>
        <time>2025-11-14T13:28:38Z</time>
      </trkpt>
      <trkpt lat="43.7654" lon="6.37228">
        <ele>1227.26</ele>
        <time>2025-11-14T13:28:54Z</time>
      </trkpt>
      <trkpt lat="43.76542" lon="6.37276">
        <ele>1230.14</ele>
        <time>2025-11-14T13:29:09Z</time>
      </trkpt>
      <trkpt lat="43.76548" lon="6.37321">
        <ele>1230.62</ele>
        <time>2025-11-14T13:29:23Z</time>
      </trkpt>
      <trkpt lat="43.76545" lon="6.37333">
        <ele>1233.51</ele>
        <time>2025-11-14T13:29:28Z</time>
      </trkpt>
      <trkpt lat="43.76544" lon="6.37334">
        <ele>1234.95</ele>
        <time>2025-11-14T13:29:31Z</time>
      </trkpt>
      <trkpt lat="43.76542" lon="6.37335">
        <ele>1236.87</ele>
        <time>2025-11-14T13:29:40Z</time>
      </trkpt>
      <trkpt lat="43.76537" lon="6.37337">
        <ele>1237.83</ele>
        <time>2025-11-14T13:29:50Z</time>
      </trkpt>
      <trkpt lat="43.76535" lon="6.37337">
        <ele>1234.95</ele>
        <time>2025-11-14T13:30:01Z</time>
      </trkpt>
      <trkpt lat="43.76535" lon="6.37337">
        <ele>1236.87</ele>
        <time>2025-11-14T13:30:06Z</time>
      </trkpt>
      <trkpt lat="43.76535" lon="6.37337">
        <ele>1235.43</ele>
        <time>2025-11-14T13:30:12Z</time>
      </trkpt>
      <trkpt lat="43.76535" lon="6.37338">
        <ele>1234.95</ele>
        <time>2025-11-14T13:30:21Z</time>
      </trkpt>
      <trkpt lat="43.76536" lon="6.37337">
        <ele>1234.95</ele>
        <time>2025-11-14T13:30:49Z</time>
      </trkpt>
      <trkpt lat="43.76536" lon="6.37337">
        <ele>1233.99</ele>
        <time>2025-11-14T13:31:18Z</time>
      </trkpt>
      <trkpt lat="43.76535" lon="6.37336">
        <ele>1235.91</ele>
        <time>2025-11-14T13:31:33Z</time>
      </trkpt>
      <trkpt lat="43.76536" lon="6.37337">
        <ele>1232.55</ele>
        <time>2025-11-14T13:31:38Z</time>
      </trkpt>
      <trkpt lat="43.76536" lon="6.37337">
        <ele>1235.43</ele>
        <time>2025-11-14T13:31:44Z</time>
      </trkpt>
      <trkpt lat="43.76536" lon="6.37336">
        <ele>1233.99</ele>
        <time>2025-11-14T13:32:19Z</time>
      </trkpt>
      <trkpt lat="43.76535" lon="6.37337">
        <ele>1234.95</ele>
        <time>2025-11-14T13:32:34Z</time>
      </trkpt>
      <trkpt lat="43.76535" lon="6.37337">
        <ele>1238.32</ele>
        <time>2025-11-14T13:32:41Z</time>
      </trkpt>
      <trkpt lat="43.76536" lon="6.37337">
        <ele>1236.87</ele>
        <time>2025-11-14T13:32:45Z</time>
      </trkpt>
      <trkpt lat="43.76536" lon="6.37336">
        <ele>1233.51</ele>
        <time>2025-11-14T13:33:00Z</time>
      </trkpt>
      <trkpt lat="43.76536" lon="6.37336">
        <ele>1236.87</ele>
        <time>2025-11-14T13:33:22Z</time>
      </trkpt>
      <trkpt lat="43.76536" lon="6.37336">
        <ele>1237.83</ele>
        <time>2025-11-14T13:33:24Z</time>
      </trkpt>
      <trkpt lat="43.76536" lon="6.37336">
        <ele>1241.2</ele>
        <time>2025-11-14T13:33:31Z</time>
      </trkpt>
      <trkpt lat="43.76536" lon="6.37336">
        <ele>1245.04</ele>
        <time>2025-11-14T13:33:32Z</time>
      </trkpt>
      <trkpt lat="43.76536" lon="6.37336">
        <ele>1246.01</ele>
        <time>2025-11-14T13:33:34Z</time>
      </trkpt>
      <trkpt lat="43.76536" lon="6.37337">
        <ele>1240.72</ele>
        <time>2025-11-14T13:33:36Z</time>
      </trkpt>
      <trkpt lat="43.76536" lon="6.37337">
        <ele>1239.28</ele>
        <time>2025-11-14T13:33:38Z</time>
      </trkpt>
      <trkpt lat="43.76536" lon="6.37337">
        <ele>1241.2</ele>
        <time>2025-11-14T13:33:41Z</time>
      </trkpt>
      <trkpt lat="43.76537" lon="6.37337">
        <ele>1236.87</ele>
        <time>2025-11-14T13:33:44Z</time>
      </trkpt>
      <trkpt lat="43.76537" lon="6.37337">
        <ele>1236.87</ele>
        <time>2025-11-14T13:33:45Z</time>
      </trkpt>
      <trkpt lat="43.76537" lon="6.37337">
        <ele>1234.47</ele>
        <time>2025-11-14T13:33:51Z</time>
      </trkpt>
      <trkpt lat="43.76535" lon="6.37336">
        <ele>1234.47</ele>
        <time>2025-11-14T13:34:02Z</time>
      </trkpt>
      <trkpt lat="43.7653" lon="6.37334">
        <ele>1234.95</ele>
        <time>2025-11-14T13:34:07Z</time>
      </trkpt>
      <trkpt lat="43.76524" lon="6.37326">
        <ele>1238.32</ele>
        <time>2025-11-14T13:34:20Z</time>
      </trkpt>
      <trkpt lat="43.76524" lon="6.37326">
        <ele>1240.24</ele>
        <time>2025-11-14T13:34:25Z</time>
      </trkpt>
      <trkpt lat="43.76524" lon="6.37326">
        <ele>1244.08</ele>
        <time>2025-11-14T13:34:32Z</time>
      </trkpt>
      <trkpt lat="43.76524" lon="6.37326">
        <ele>1245.53</ele>
        <time>2025-11-14T13:34:34Z</time>
      </trkpt>
      <trkpt lat="43.76524" lon="6.37324">
        <ele>1242.16</ele>
        <time>2025-11-14T13:34:36Z</time>
      </trkpt>
      <trkpt lat="43.76524" lon="6.37322">
        <ele>1248.89</ele>
        <time>2025-11-14T13:34:38Z</time>
      </trkpt>
      <trkpt lat="43.76524" lon="6.3732">
        <ele>1250.81</ele>
        <time>2025-11-14T13:34:39Z</time>
      </trkpt>
      <trkpt lat="43.76524" lon="6.37318">
        <ele>1248.41</ele>
        <time>2025-11-14T13:34:40Z</time>
      </trkpt>
      <trkpt lat="43.76524" lon="6.37313">
        <ele>1245.53</ele>
        <time>2025-11-14T13:34:44Z</time>
      </trkpt>
      <trkpt lat="43.76524" lon="6.37312">
        <ele>1245.53</ele>
        <time>2025-11-14T13:34:45Z</time>
      </trkpt>
      <trkpt lat="43.76524" lon="6.37311">
        <ele>1242.16</ele>
        <time>2025-11-14T13:34:49Z</time>
      </trkpt>
      <trkpt lat="43.76524" lon="6.37309">
        <ele>1243.6</ele>
        <time>2025-11-14T13:34:58Z</time>
      </trkpt>
      <trkpt lat="43.76525" lon="6.37303">
        <ele>1240.24</ele>
        <time>2025-11-14T13:35:01Z</time>
      </trkpt>
      <trkpt lat="43.76526" lon="6.373">
        <ele>1240.24</ele>
        <time>2025-11-14T13:35:02Z</time>
      </trkpt>
      <trkpt lat="43.76525" lon="6.3726">
        <ele>1238.32</ele>
        <time>2025-11-14T13:35:13Z</time>
      </trkpt>
      <trkpt lat="43.76522" lon="6.37243">
        <ele>1237.83</ele>
        <time>2025-11-14T13:35:18Z</time>
      </trkpt>
      <trkpt lat="43.76513" lon="6.37216">
        <ele>1236.87</ele>
        <time>2025-11-14T13:35:25Z</time>
      </trkpt>
      <trkpt lat="43.76509" lon="6.37205">
        <ele>1235.43</ele>
        <time>2025-11-14T13:35:28Z</time>
      </trkpt>
      <trkpt lat="43.76483" lon="6.37147">
        <ele>1236.39</ele>
        <time>2025-11-14T13:35:44Z</time>
      </trkpt>
      <trkpt lat="43.76453" lon="6.37099">
        <ele>1237.35</ele>
        <time>2025-11-14T13:35:59Z</time>
      </trkpt>
      <trkpt lat="43.76419" lon="6.37047">
        <ele>1238.8</ele>
        <time>2025-11-14T13:36:16Z</time>
      </trkpt>
      <trkpt lat="43.76386" lon="6.37018">
        <ele>1240.72</ele>
        <time>2025-11-14T13:36:31Z</time>
      </trkpt>
      <trkpt lat="43.76361" lon="6.37">
        <ele>1244.08</ele>
        <time>2025-11-14T13:36:44Z</time>
      </trkpt>
      <trkpt lat="43.76335" lon="6.36983">
        <ele>1247.45</ele>
        <time>2025-11-14T13:36:58Z</time>
      </trkpt>
      <trkpt lat="43.76312" lon="6.36967">
        <ele>1250.33</ele>
        <time>2025-11-14T13:37:10Z</time>
      </trkpt>
      <trkpt lat="43.76292" lon="6.36954">
        <ele>1253.7</ele>
        <time>2025-11-14T13:37:20Z</time>
      </trkpt>
      <trkpt lat="43.76263" lon="6.36936">
        <ele>1256.58</ele>
        <time>2025-11-14T13:37:34Z</time>
      </trkpt>
      <trkpt lat="43.76234" lon="6.36903">
        <ele>1258.98</ele>
        <time>2025-11-14T13:37:50Z</time>
      </trkpt>
      <trkpt lat="43.76211" lon="6.36865">
        <ele>1260.91</ele>
        <time>2025-11-14T13:38:06Z</time>
      </trkpt>
      <trkpt lat="43.76191" lon="6.36831">
        <ele>1262.35</ele>
        <time>2025-11-14T13:38:20Z</time>
      </trkpt>
      <trkpt lat="43.76173" lon="6.36803">
        <ele>1264.27</ele>
        <time>2025-11-14T13:38:32Z</time>
      </trkpt>
      <trkpt lat="43.76158" lon="6.36777">
        <ele>1264.27</ele>
        <time>2025-11-14T13:38:43Z</time>
      </trkpt>
      <trkpt lat="43.76133" lon="6.36738">
        <ele>1264.75</ele>
        <time>2025-11-14T13:38:59Z</time>
      </trkpt>
      <trkpt lat="43.76111" lon="6.36725">
        <ele>1263.31</ele>
        <time>2025-11-14T13:39:10Z</time>
      </trkpt>
      <trkpt lat="43.7609" lon="6.36736">
        <ele>1263.31</ele>
        <time>2025-11-14T13:39:19Z</time>
      </trkpt>
      <trkpt lat="43.76077" lon="6.36764">
        <ele>1264.27</ele>
        <time>2025-11-14T13:39:28Z</time>
      </trkpt>
      <trkpt lat="43.76073" lon="6.36798">
        <ele>1262.83</ele>
        <time>2025-11-14T13:39:38Z</time>
      </trkpt>
      <trkpt lat="43.76072" lon="6.36815">
        <ele>1264.27</ele>
        <time>2025-11-14T13:39:43Z</time>
      </trkpt>
      <trkpt lat="43.76067" lon="6.36878">
        <ele>1266.19</ele>
        <time>2025-11-14T13:40:00Z</time>
      </trkpt>
      <trkpt lat="43.76065" lon="6.36906">
        <ele>1268.6</ele>
        <time>2025-11-14T13:40:08Z</time>
      </trkpt>
      <trkpt lat="43.76062" lon="6.36933">
        <ele>1271.96</ele>
        <time>2025-11-14T13:40:16Z</time>
      </trkpt>
      <trkpt lat="43.76052" lon="6.36967">
        <ele>1274.36</ele>
        <time>2025-11-14T13:40:27Z</time>
      </trkpt>
      <trkpt lat="43.76035" lon="6.36984">
        <ele>1277.73</ele>
        <time>2025-11-14T13:40:35Z</time>
      </trkpt>
      <trkpt lat="43.76033" lon="6.36986">
        <ele>1277.73</ele>
        <time>2025-11-14T13:40:36Z</time>
      </trkpt>
      <trkpt lat="43.76021" lon="6.36991">
        <ele>1279.17</ele>
        <time>2025-11-14T13:40:41Z</time>
      </trkpt>
      <trkpt lat="43.76004" lon="6.36993">
        <ele>1280.61</ele>
        <time>2025-11-14T13:40:50Z</time>
      </trkpt>
      <trkpt lat="43.76003" lon="6.36995">
        <ele>1280.61</ele>
        <time>2025-11-14T13:40:57Z</time>
      </trkpt>
      <trkpt lat="43.76003" lon="6.36993">
        <ele>1280.61</ele>
        <time>2025-11-14T13:41:11Z</time>
      </trkpt>
      <trkpt lat="43.76003" lon="6.36995">
        <ele>1280.61</ele>
        <time>2025-11-14T13:41:35Z</time>
      </trkpt>
      <trkpt lat="43.76003" lon="6.36995">
        <ele>1279.17</ele>
        <time>2025-11-14T13:41:42Z</time>
      </trkpt>
      <trkpt lat="43.76004" lon="6.36996">
        <ele>1279.17</ele>
        <time>2025-11-14T13:42:06Z</time>
      </trkpt>
      <trkpt lat="43.76003" lon="6.36995">
        <ele>1279.17</ele>
        <time>2025-11-14T13:42:24Z</time>
      </trkpt>
      <trkpt lat="43.76003" lon="6.36995">
        <ele>1279.17</ele>
        <time>2025-11-14T13:42:48Z</time>
      </trkpt>
      <trkpt lat="43.76003" lon="6.36996">
        <ele>1279.17</ele>
        <time>2025-11-14T13:43:11Z</time>
      </trkpt>
      <trkpt lat="43.76004" lon="6.36994">
        <ele>1279.17</ele>
        <time>2025-11-14T13:43:23Z</time>
      </trkpt>
      <trkpt lat="43.76004" lon="6.36994">
        <ele>1279.17</ele>
        <time>2025-11-14T13:43:29Z</time>
      </trkpt>
      <trkpt lat="43.75997" lon="6.36985">
        <ele>1280.13</ele>
        <time>2025-11-14T13:43:35Z</time>
      </trkpt>
      <trkpt lat="43.75972" lon="6.36949">
        <ele>1282.54</ele>
        <time>2025-11-14T13:43:49Z</time>
      </trkpt>
      <trkpt lat="43.75965" lon="6.36937">
        <ele>1283.98</ele>
        <time>2025-11-14T13:43:53Z</time>
      </trkpt>
      <trkpt lat="43.75939" lon="6.36901">
        <ele>1286.38</ele>
        <time>2025-11-14T13:44:07Z</time>
      </trkpt>
      <trkpt lat="43.75914" lon="6.36862">
        <ele>1289.27</ele>
        <time>2025-11-14T13:44:21Z</time>
      </trkpt>
      <trkpt lat="43.75888" lon="6.36814">
        <ele>1291.19</ele>
        <time>2025-11-14T13:44:37Z</time>
      </trkpt>
      <trkpt lat="43.75884" lon="6.36808">
        <ele>1292.15</ele>
        <time>2025-11-14T13:44:39Z</time>
      </trkpt>
      <trkpt lat="43.75863" lon="6.36765">
        <ele>1295.03</ele>
        <time>2025-11-14T13:44:53Z</time>
      </trkpt>
      <trkpt lat="43.7584" lon="6.3672">
        <ele>1297.44</ele>
        <time>2025-11-14T13:45:08Z</time>
      </trkpt>
      <trkpt lat="43.75825" lon="6.36688">
        <ele>1301.28</ele>
        <time>2025-11-14T13:45:19Z</time>
      </trkpt>
      <trkpt lat="43.7581" lon="6.36657">
        <ele>1302.72</ele>
        <time>2025-11-14T13:45:31Z</time>
      </trkpt>
      <trkpt lat="43.75789" lon="6.36635">
        <ele>1306.09</ele>
        <time>2025-11-14T13:45:43Z</time>
      </trkpt>
      <trkpt lat="43.75763" lon="6.36631">
        <ele>1308.97</ele>
        <time>2025-11-14T13:45:55Z</time>
      </trkpt>
      <trkpt lat="43.75733" lon="6.36636">
        <ele>1310.9</ele>
        <time>2025-11-14T13:46:08Z</time>
      </trkpt>
      <trkpt lat="43.75708" lon="6.36625">
        <ele>1312.34</ele>
        <time>2025-11-14T13:46:19Z</time>
      </trkpt>
      <trkpt lat="43.75672" lon="6.36604">
        <ele>1312.34</ele>
        <time>2025-11-14T13:46:33Z</time>
      </trkpt>
      <trkpt lat="43.75635" lon="6.36598">
        <ele>1311.38</ele>
        <time>2025-11-14T13:46:44Z</time>
      </trkpt>
      <trkpt lat="43.75628" lon="6.36603">
        <ele>1311.38</ele>
        <time>2025-11-14T13:46:46Z</time>
      </trkpt>
      <trkpt lat="43.75624" lon="6.36608">
        <ele>1311.38</ele>
        <time>2025-11-14T13:46:47Z</time>
      </trkpt>
      <trkpt lat="43.75622" lon="6.3661">
        <ele>1311.38</ele>
        <time>2025-11-14T13:46:48Z</time>
      </trkpt>
      <trkpt lat="43.75619" lon="6.36614">
        <ele>1310.9</ele>
        <time>2025-11-14T13:46:49Z</time>
      </trkpt>
      <trkpt lat="43.75617" lon="6.36619">
        <ele>1310.9</ele>
        <time>2025-11-14T13:46:50Z</time>
      </trkpt>
      <trkpt lat="43.75615" lon="6.36623">
        <ele>1310.9</ele>
        <time>2025-11-14T13:46:51Z</time>
      </trkpt>
      <trkpt lat="43.75614" lon="6.36627">
        <ele>1310.9</ele>
        <time>2025-11-14T13:46:52Z</time>
      </trkpt>
      <trkpt lat="43.75611" lon="6.36649">
        <ele>1310.9</ele>
        <time>2025-11-14T13:47:00Z</time>
      </trkpt>
      <trkpt lat="43.75611" lon="6.36649">
        <ele>1310.9</ele>
        <time>2025-11-14T13:47:14Z</time>
      </trkpt>
      <trkpt lat="43.75612" lon="6.36648">
        <ele>1310.9</ele>
        <time>2025-11-14T13:47:33Z</time>
      </trkpt>
      <trkpt lat="43.75612" lon="6.36649">
        <ele>1310.9</ele>
        <time>2025-11-14T13:47:54Z</time>
      </trkpt>
      <trkpt lat="43.75612" lon="6.36649">
        <ele>1311.38</ele>
        <time>2025-11-14T13:48:08Z</time>
      </trkpt>
      <trkpt lat="43.75613" lon="6.3665">
        <ele>1311.38</ele>
        <time>2025-11-14T13:48:34Z</time>
      </trkpt>
      <trkpt lat="43.75612" lon="6.36648">
        <ele>1311.38</ele>
        <time>2025-11-14T13:48:57Z</time>
      </trkpt>
      <trkpt lat="43.75611" lon="6.36653">
        <ele>1311.38</ele>
        <time>2025-11-14T13:49:21Z</time>
      </trkpt>
      <trkpt lat="43.75611" lon="6.3665">
        <ele>1311.38</ele>
        <time>2025-11-14T13:49:51Z</time>
      </trkpt>
      <trkpt lat="43.75613" lon="6.36649">
        <ele>1311.38</ele>
        <time>2025-11-14T13:50:15Z</time>
      </trkpt>
      <trkpt lat="43.75612" lon="6.36651">
        <ele>1311.86</ele>
        <time>2025-11-14T13:50:43Z</time>
      </trkpt>
      <trkpt lat="43.7561" lon="6.36652">
        <ele>1311.86</ele>
        <time>2025-11-14T13:51:01Z</time>
      </trkpt>
      <trkpt lat="43.7561" lon="6.36654">
        <ele>1311.86</ele>
        <time>2025-11-14T13:51:16Z</time>
      </trkpt>
      <trkpt lat="43.7561" lon="6.36654">
        <ele>1311.86</ele>
        <time>2025-11-14T13:51:27Z</time>
      </trkpt>
      <trkpt lat="43.75611" lon="6.36657">
        <ele>1311.86</ele>
        <time>2025-11-14T13:51:44Z</time>
      </trkpt>
      <trkpt lat="43.75612" lon="6.36658">
        <ele>1311.86</ele>
        <time>2025-11-14T13:51:45Z</time>
      </trkpt>
      <trkpt lat="43.75612" lon="6.3666">
        <ele>1311.86</ele>
        <time>2025-11-14T13:51:46Z</time>
      </trkpt>
      <trkpt lat="43.75612" lon="6.36662">
        <ele>1311.86</ele>
        <time>2025-11-14T13:51:47Z</time>
      </trkpt>
      <trkpt lat="43.75612" lon="6.36664">
        <ele>1311.86</ele>
        <time>2025-11-14T13:51:48Z</time>
      </trkpt>
      <trkpt lat="43.75613" lon="6.36665">
        <ele>1311.86</ele>
        <time>2025-11-14T13:51:49Z</time>
      </trkpt>
      <trkpt lat="43.75613" lon="6.36668">
        <ele>1311.86</ele>
        <time>2025-11-14T13:51:50Z</time>
      </trkpt>
      <trkpt lat="43.75614" lon="6.3667">
        <ele>1311.86</ele>
        <time>2025-11-14T13:51:51Z</time>
      </trkpt>
      <trkpt lat="43.75617" lon="6.36711">
        <ele>1310.41</ele>
        <time>2025-11-14T13:52:01Z</time>
      </trkpt>
      <trkpt lat="43.75615" lon="6.36756">
        <ele>1307.53</ele>
        <time>2025-11-14T13:52:07Z</time>
      </trkpt>
      <trkpt lat="43.75613" lon="6.36764">
        <ele>1307.05</ele>
        <time>2025-11-14T13:52:08Z</time>
      </trkpt>
      <trkpt lat="43.75611" lon="6.36773">
        <ele>1306.09</ele>
        <time>2025-11-14T13:52:09Z</time>
      </trkpt>
      <trkpt lat="43.75608" lon="6.36782">
        <ele>1305.13</ele>
        <time>2025-11-14T13:52:10Z</time>
      </trkpt>
      <trkpt lat="43.75604" lon="6.3679">
        <ele>1304.17</ele>
        <time>2025-11-14T13:52:11Z</time>
      </trkpt>
      <trkpt lat="43.75599" lon="6.36799">
        <ele>1303.69</ele>
        <time>2025-11-14T13:52:12Z</time>
      </trkpt>
      <trkpt lat="43.75593" lon="6.36807">
        <ele>1302.72</ele>
        <time>2025-11-14T13:52:13Z</time>
      </trkpt>
      <trkpt lat="43.75587" lon="6.36813">
        <ele>1301.76</ele>
        <time>2025-11-14T13:52:14Z</time>
      </trkpt>
      <trkpt lat="43.7558" lon="6.3682">
        <ele>1300.32</ele>
        <time>2025-11-14T13:52:15Z</time>
      </trkpt>
      <trkpt lat="43.75572" lon="6.36825">
        <ele>1299.36</ele>
        <time>2025-11-14T13:52:16Z</time>
      </trkpt>
      <trkpt lat="43.75566" lon="6.36829">
        <ele>1298.4</ele>
        <time>2025-11-14T13:52:17Z</time>
      </trkpt>
      <trkpt lat="43.75559" lon="6.36832">
        <ele>1297.92</ele>
        <time>2025-11-14T13:52:18Z</time>
      </trkpt>
      <trkpt lat="43.75553" lon="6.36833">
        <ele>1297.44</ele>
        <time>2025-11-14T13:52:19Z</time>
      </trkpt>
      <trkpt lat="43.75549" lon="6.36834">
        <ele>1296.96</ele>
        <time>2025-11-14T13:52:20Z</time>
      </trkpt>
      <trkpt lat="43.75545" lon="6.36835">
        <ele>1296.48</ele>
        <time>2025-11-14T13:52:21Z</time>
      </trkpt>
      <trkpt lat="43.75529" lon="6.36833">
        <ele>1294.55</ele>
        <time>2025-11-14T13:52:29Z</time>
      </trkpt>
      <trkpt lat="43.75527" lon="6.36832">
        <ele>1294.55</ele>
        <time>2025-11-14T13:52:45Z</time>
      </trkpt>
      <trkpt lat="43.75527" lon="6.36832">
        <ele>1294.55</ele>
        <time>2025-11-14T13:53:09Z</time>
      </trkpt>
      <trkpt lat="43.75527" lon="6.36832">
        <ele>1294.55</ele>
        <time>2025-11-14T13:53:29Z</time>
      </trkpt>
      <trkpt lat="43.75527" lon="6.36833">
        <ele>1294.55</ele>
        <time>2025-11-14T13:53:52Z</time>
      </trkpt>
      <trkpt lat="43.75528" lon="6.36833">
        <ele>1294.55</ele>
        <time>2025-11-14T13:54:15Z</time>
      </trkpt>
      <trkpt lat="43.75527" lon="6.36833">
        <ele>1294.55</ele>
        <time>2025-11-14T13:54:37Z</time>
      </trkpt>
      <trkpt lat="43.75528" lon="6.36831">
        <ele>1294.55</ele>
        <time>2025-11-14T13:54:52Z</time>
      </trkpt>
      <trkpt lat="43.75527" lon="6.36829">
        <ele>1294.55</ele>
        <time>2025-11-14T13:54:56Z</time>
      </trkpt>
      <trkpt lat="43.75509" lon="6.36808">
        <ele>1292.63</ele>
        <time>2025-11-14T13:55:03Z</time>
      </trkpt>
      <trkpt lat="43.75491" lon="6.36785">
        <ele>1289.27</ele>
        <time>2025-11-14T13:55:07Z</time>
      </trkpt>
      <trkpt lat="43.75468" lon="6.36758">
        <ele>1285.42</ele>
        <time>2025-11-14T13:55:11Z</time>
      </trkpt>
      <trkpt lat="43.7545" lon="6.36732">
        <ele>1282.54</ele>
        <time>2025-11-14T13:55:14Z</time>
      </trkpt>
      <trkpt lat="43.75446" lon="6.36723">
        <ele>1281.57</ele>
        <time>2025-11-14T13:55:15Z</time>
      </trkpt>
      <trkpt lat="43.75441" lon="6.36713">
        <ele>1280.61</ele>
        <time>2025-11-14T13:55:16Z</time>
      </trkpt>
      <trkpt lat="43.7542" lon="6.36661">
        <ele>1276.77</ele>
        <time>2025-11-14T13:55:21Z</time>
      </trkpt>
      <trkpt lat="43.75402" lon="6.36628">
        <ele>1275.81</ele>
        <time>2025-11-14T13:55:26Z</time>
      </trkpt>
      <trkpt lat="43.75397" lon="6.36624">
        <ele>1274.85</ele>
        <time>2025-11-14T13:55:27Z</time>
      </trkpt>
      <trkpt lat="43.75395" lon="6.36624">
        <ele>1274.85</ele>
        <time>2025-11-14T13:55:28Z</time>
      </trkpt>
      <trkpt lat="43.7539" lon="6.36625">
        <ele>1274.85</ele>
        <time>2025-11-14T13:55:29Z</time>
      </trkpt>
      <trkpt lat="43.75387" lon="6.36627">
        <ele>1274.85</ele>
        <time>2025-11-14T13:55:30Z</time>
      </trkpt>
      <trkpt lat="43.75384" lon="6.36632">
        <ele>1274.85</ele>
        <time>2025-11-14T13:55:31Z</time>
      </trkpt>
      <trkpt lat="43.75383" lon="6.36637">
        <ele>1274.36</ele>
        <time>2025-11-14T13:55:32Z</time>
      </trkpt>
      <trkpt lat="43.75383" lon="6.36643">
        <ele>1273.4</ele>
        <time>2025-11-14T13:55:33Z</time>
      </trkpt>
      <trkpt lat="43.75385" lon="6.3665">
        <ele>1273.4</ele>
        <time>2025-11-14T13:55:34Z</time>
      </trkpt>
      <trkpt lat="43.75386" lon="6.36654">
        <ele>1272.44</ele>
        <time>2025-11-14T13:55:35Z</time>
      </trkpt>
      <trkpt lat="43.75389" lon="6.36659">
        <ele>1271.96</ele>
        <time>2025-11-14T13:55:36Z</time>
      </trkpt>
      <trkpt lat="43.75406" lon="6.367">
        <ele>1269.08</ele>
        <time>2025-11-14T13:55:42Z</time>
      </trkpt>
      <trkpt lat="43.75414" lon="6.36736">
        <ele>1265.71</ele>
        <time>2025-11-14T13:55:46Z</time>
      </trkpt>
      <trkpt lat="43.75425" lon="6.36788">
        <ele>1262.35</ele>
        <time>2025-11-14T13:55:51Z</time>
      </trkpt>
      <trkpt lat="43.75433" lon="6.36828">
        <ele>1258.98</ele>
        <time>2025-11-14T13:55:55Z</time>
      </trkpt>
      <trkpt lat="43.75463" lon="6.36898">
        <ele>1256.1</ele>
        <time>2025-11-14T13:56:03Z</time>
      </trkpt>
      <trkpt lat="43.75505" lon="6.36959">
        <ele>1252.74</ele>
        <time>2025-11-14T13:56:12Z</time>
      </trkpt>
      <trkpt lat="43.75511" lon="6.36963">
        <ele>1252.74</ele>
        <time>2025-11-14T13:56:13Z</time>
      </trkpt>
      <trkpt lat="43.75516" lon="6.36967">
        <ele>1252.74</ele>
        <time>2025-11-14T13:56:14Z</time>
      </trkpt>
      <trkpt lat="43.75548" lon="6.36979">
        <ele>1250.81</ele>
        <time>2025-11-14T13:56:20Z</time>
      </trkpt>
      <trkpt lat="43.75551" lon="6.36983">
        <ele>1250.81</ele>
        <time>2025-11-14T13:56:21Z</time>
      </trkpt>
      <trkpt lat="43.75554" lon="6.36986">
        <ele>1250.81</ele>
        <time>2025-11-14T13:56:22Z</time>
      </trkpt>
      <trkpt lat="43.75555" lon="6.3699">
        <ele>1250.81</ele>
        <time>2025-11-14T13:56:23Z</time>
      </trkpt>
      <trkpt lat="43.75556" lon="6.36994">
        <ele>1250.33</ele>
        <time>2025-11-14T13:56:24Z</time>
      </trkpt>
      <trkpt lat="43.75556" lon="6.36999">
        <ele>1249.85</ele>
        <time>2025-11-14T13:56:25Z</time>
      </trkpt>
      <trkpt lat="43.75556" lon="6.37002">
        <ele>1249.85</ele>
        <time>2025-11-14T13:56:26Z</time>
      </trkpt>
      <trkpt lat="43.75555" lon="6.3701">
        <ele>1250.33</ele>
        <time>2025-11-14T13:56:33Z</time>
      </trkpt>
      <trkpt lat="43.75553" lon="6.3701">
        <ele>1250.33</ele>
        <time>2025-11-14T13:56:43Z</time>
      </trkpt>
      <trkpt lat="43.75552" lon="6.37011">
        <ele>1249.85</ele>
        <time>2025-11-14T13:57:03Z</time>
      </trkpt>
      <trkpt lat="43.75533" lon="6.37002">
        <ele>1248.41</ele>
        <time>2025-11-14T13:57:11Z</time>
      </trkpt>
      <trkpt lat="43.75496" lon="6.36987">
        <ele>1246.49</ele>
        <time>2025-11-14T13:57:22Z</time>
      </trkpt>
      <trkpt lat="43.75484" lon="6.36987">
        <ele>1245.53</ele>
        <time>2025-11-14T13:57:31Z</time>
      </trkpt>
      <trkpt lat="43.75484" lon="6.36986">
        <ele>1245.53</ele>
        <time>2025-11-14T13:57:50Z</time>
      </trkpt>
      <trkpt lat="43.75483" lon="6.36986">
        <ele>1245.04</ele>
        <time>2025-11-14T13:58:05Z</time>
      </trkpt>
      <trkpt lat="43.75483" lon="6.36985">
        <ele>1245.04</ele>
        <time>2025-11-14T13:58:27Z</time>
      </trkpt>
      <trkpt lat="43.75482" lon="6.36984">
        <ele>1245.04</ele>
        <time>2025-11-14T13:58:53Z</time>
      </trkpt>
      <trkpt lat="43.75482" lon="6.36984">
        <ele>1245.04</ele>
        <time>2025-11-14T13:59:07Z</time>
      </trkpt>
      <trkpt lat="43.75482" lon="6.36985">
        <ele>1245.04</ele>
        <time>2025-11-14T13:59:24Z</time>
      </trkpt>
      <trkpt lat="43.75482" lon="6.36985">
        <ele>1245.04</ele>
        <time>2025-11-14T13:59:43Z</time>
      </trkpt>
      <trkpt lat="43.75481" lon="6.36984">
        <ele>1245.04</ele>
        <time>2025-11-14T13:59:45Z</time>
      </trkpt>
      <trkpt lat="43.75467" lon="6.36964">
        <ele>1244.56</ele>
        <time>2025-11-14T13:59:55Z</time>
      </trkpt>
      <trkpt lat="43.75442" lon="6.36928">
        <ele>1241.68</ele>
        <time>2025-11-14T14:00:04Z</time>
      </trkpt>
      <trkpt lat="43.75409" lon="6.36882">
        <ele>1238.32</ele>
        <time>2025-11-14T14:00:12Z</time>
      </trkpt>
      <trkpt lat="43.75404" lon="6.36875">
        <ele>1238.32</ele>
        <time>2025-11-14T14:00:13Z</time>
      </trkpt>
      <trkpt lat="43.75399" lon="6.36866">
        <ele>1237.83</ele>
        <time>2025-11-14T14:00:14Z</time>
      </trkpt>
      <trkpt lat="43.7538" lon="6.36819">
        <ele>1234.47</ele>
        <time>2025-11-14T14:00:20Z</time>
      </trkpt>
      <trkpt lat="43.75371" lon="6.36784">
        <ele>1231.11</ele>
        <time>2025-11-14T14:00:24Z</time>
      </trkpt>
      <trkpt lat="43.75366" lon="6.36767">
        <ele>1230.14</ele>
        <time>2025-11-14T14:00:26Z</time>
      </trkpt>
      <trkpt lat="43.75363" lon="6.3676">
        <ele>1229.18</ele>
        <time>2025-11-14T14:00:27Z</time>
      </trkpt>
      <trkpt lat="43.75358" lon="6.36755">
        <ele>1229.18</ele>
        <time>2025-11-14T14:00:28Z</time>
      </trkpt>
      <trkpt lat="43.75353" lon="6.36751">
        <ele>1228.22</ele>
        <time>2025-11-14T14:00:29Z</time>
      </trkpt>
      <trkpt lat="43.75347" lon="6.36749">
        <ele>1227.74</ele>
        <time>2025-11-14T14:00:30Z</time>
      </trkpt>
      <trkpt lat="43.75341" lon="6.36747">
        <ele>1226.78</ele>
        <time>2025-11-14T14:00:31Z</time>
      </trkpt>
      <trkpt lat="43.75322" lon="6.36742">
        <ele>1224.38</ele>
        <time>2025-11-14T14:00:34Z</time>
      </trkpt>
      <trkpt lat="43.75316" lon="6.36738">
        <ele>1223.42</ele>
        <time>2025-11-14T14:00:35Z</time>
      </trkpt>
      <trkpt lat="43.75311" lon="6.36733">
        <ele>1223.42</ele>
        <time>2025-11-14T14:00:36Z</time>
      </trkpt>
      <trkpt lat="43.75306" lon="6.36727">
        <ele>1222.45</ele>
        <time>2025-11-14T14:00:37Z</time>
      </trkpt>
      <trkpt lat="43.75302" lon="6.36718">
        <ele>1221.97</ele>
        <time>2025-11-14T14:00:38Z</time>
      </trkpt>
      <trkpt lat="43.75299" lon="6.36711">
        <ele>1221.49</ele>
        <time>2025-11-14T14:00:39Z</time>
      </trkpt>
      <trkpt lat="43.75296" lon="6.36701">
        <ele>1220.53</ele>
        <time>2025-11-14T14:00:40Z</time>
      </trkpt>
      <trkpt lat="43.75292" lon="6.3669">
        <ele>1219.09</ele>
        <time>2025-11-14T14:00:42Z</time>
      </trkpt>
      <trkpt lat="43.7529" lon="6.36686">
        <ele>1219.57</ele>
        <time>2025-11-14T14:00:43Z</time>
      </trkpt>
      <trkpt lat="43.75278" lon="6.36654">
        <ele>1216.69</ele>
        <time>2025-11-14T14:00:52Z</time>
      </trkpt>
      <trkpt lat="43.75276" lon="6.36649">
        <ele>1216.69</ele>
        <time>2025-11-14T14:00:53Z</time>
      </trkpt>
      <trkpt lat="43.7526" lon="6.36617">
        <ele>1213.32</ele>
        <time>2025-11-14T14:00:58Z</time>
      </trkpt>
      <trkpt lat="43.75228" lon="6.36573">
        <ele>1209.48</ele>
        <time>2025-11-14T14:01:05Z</time>
      </trkpt>
      <trkpt lat="43.75196" lon="6.36535">
        <ele>1205.63</ele>
        <time>2025-11-14T14:01:12Z</time>
      </trkpt>
      <trkpt lat="43.75146" lon="6.36464">
        <ele>1202.75</ele>
        <time>2025-11-14T14:01:24Z</time>
      </trkpt>
      <trkpt lat="43.75091" lon="6.36403">
        <ele>1199.86</ele>
        <time>2025-11-14T14:01:34Z</time>
      </trkpt>
      <trkpt lat="43.75084" lon="6.36395">
        <ele>1198.9</ele>
        <time>2025-11-14T14:01:35Z</time>
      </trkpt>
      <trkpt lat="43.75081" lon="6.36392">
        <ele>1198.9</ele>
        <time>2025-11-14T14:01:36Z</time>
      </trkpt>
      <trkpt lat="43.75075" lon="6.36386">
        <ele>1197.94</ele>
        <time>2025-11-14T14:01:37Z</time>
      </trkpt>
      <trkpt lat="43.75069" lon="6.36381">
        <ele>1197.46</ele>
        <time>2025-11-14T14:01:38Z</time>
      </trkpt>
      <trkpt lat="43.75063" lon="6.36378">
        <ele>1196.98</ele>
        <time>2025-11-14T14:01:39Z</time>
      </trkpt>
      <trkpt lat="43.75057" lon="6.36377">
        <ele>1196.5</ele>
        <time>2025-11-14T14:01:40Z</time>
      </trkpt>
      <trkpt lat="43.75052" lon="6.36378">
        <ele>1196.5</ele>
        <time>2025-11-14T14:01:41Z</time>
      </trkpt>
      <trkpt lat="43.75048" lon="6.36379">
        <ele>1196.02</ele>
        <time>2025-11-14T14:01:42Z</time>
      </trkpt>
      <trkpt lat="43.75045" lon="6.3638">
        <ele>1196.02</ele>
        <time>2025-11-14T14:01:43Z</time>
      </trkpt>
      <trkpt lat="43.75043" lon="6.36382">
        <ele>1196.02</ele>
        <time>2025-11-14T14:01:44Z</time>
      </trkpt>
      <trkpt lat="43.7504" lon="6.36383">
        <ele>1195.54</ele>
        <time>2025-11-14T14:01:45Z</time>
      </trkpt>
      <trkpt lat="43.75038" lon="6.36384">
        <ele>1195.54</ele>
        <time>2025-11-14T14:01:46Z</time>
      </trkpt>
      <trkpt lat="43.75036" lon="6.36384">
        <ele>1195.54</ele>
        <time>2025-11-14T14:01:47Z</time>
      </trkpt>
      <trkpt lat="43.75035" lon="6.36384">
        <ele>1195.54</ele>
        <time>2025-11-14T14:01:48Z</time>
      </trkpt>
      <trkpt lat="43.75036" lon="6.36381">
        <ele>1195.54</ele>
        <time>2025-11-14T14:01:56Z</time>
      </trkpt>
      <trkpt lat="43.75035" lon="6.36381">
        <ele>1195.54</ele>
        <time>2025-11-14T14:02:12Z</time>
      </trkpt>
      <trkpt lat="43.75035" lon="6.36381">
        <ele>1195.54</ele>
        <time>2025-11-14T14:02:33Z</time>
      </trkpt>
      <trkpt lat="43.75033" lon="6.36378">
        <ele>1195.06</ele>
        <time>2025-11-14T14:02:54Z</time>
      </trkpt>
      <trkpt lat="43.75032" lon="6.36376">
        <ele>1195.06</ele>
        <time>2025-11-14T14:02:56Z</time>
      </trkpt>
      <trkpt lat="43.75031" lon="6.36375">
        <ele>1195.06</ele>
        <time>2025-11-14T14:02:57Z</time>
      </trkpt>
      <trkpt lat="43.7503" lon="6.36373">
        <ele>1195.06</ele>
        <time>2025-11-14T14:02:58Z</time>
      </trkpt>
      <trkpt lat="43.7503" lon="6.36371">
        <ele>1195.06</ele>
        <time>2025-11-14T14:02:59Z</time>
      </trkpt>
      <trkpt lat="43.7503" lon="6.36369">
        <ele>1195.06</ele>
        <time>2025-11-14T14:03:00Z</time>
      </trkpt>
      <trkpt lat="43.75031" lon="6.36365">
        <ele>1195.06</ele>
        <time>2025-11-14T14:03:01Z</time>
      </trkpt>
      <trkpt lat="43.75022" lon="6.36341">
        <ele>1194.58</ele>
        <time>2025-11-14T14:03:09Z</time>
      </trkpt>
      <trkpt lat="43.75013" lon="6.36326">
        <ele>1193.61</ele>
        <time>2025-11-14T14:03:17Z</time>
      </trkpt>
      <trkpt lat="43.75004" lon="6.36287">
        <ele>1191.21</ele>
        <time>2025-11-14T14:03:28Z</time>
      </trkpt>
      <trkpt lat="43.75001" lon="6.36261">
        <ele>1190.25</ele>
        <time>2025-11-14T14:03:33Z</time>
      </trkpt>
      <trkpt lat="43.75001" lon="6.36255">
        <ele>1189.77</ele>
        <time>2025-11-14T14:03:34Z</time>
      </trkpt>
      <trkpt lat="43.74988" lon="6.36201">
        <ele>1186.88</ele>
        <time>2025-11-14T14:03:45Z</time>
      </trkpt>
      <trkpt lat="43.74971" lon="6.36162">
        <ele>1184.96</ele>
        <time>2025-11-14T14:03:57Z</time>
      </trkpt>
      <trkpt lat="43.74956" lon="6.36099">
        <ele>1182.08</ele>
        <time>2025-11-14T14:04:03Z</time>
      </trkpt>
      <trkpt lat="43.74936" lon="6.36055">
        <ele>1179.19</ele>
        <time>2025-11-14T14:04:12Z</time>
      </trkpt>
      <trkpt lat="43.74935" lon="6.36039">
        <ele>1178.23</ele>
        <time>2025-11-14T14:04:15Z</time>
      </trkpt>
      <trkpt lat="43.74935" lon="6.36026">
        <ele>1177.27</ele>
        <time>2025-11-14T14:04:17Z</time>
      </trkpt>
      <trkpt lat="43.74936" lon="6.36002">
        <ele>1175.35</ele>
        <time>2025-11-14T14:04:20Z</time>
      </trkpt>
      <trkpt lat="43.74937" lon="6.35993">
        <ele>1173.43</ele>
        <time>2025-11-14T14:04:21Z</time>
      </trkpt>
      <trkpt lat="43.74936" lon="6.35984">
        <ele>1172.95</ele>
        <time>2025-11-14T14:04:22Z</time>
      </trkpt>
      <trkpt lat="43.74934" lon="6.35974">
        <ele>1172.47</ele>
        <time>2025-11-14T14:04:23Z</time>
      </trkpt>
      <trkpt lat="43.74931" lon="6.35965">
        <ele>1171.02</ele>
        <time>2025-11-14T14:04:24Z</time>
      </trkpt>
      <trkpt lat="43.74928" lon="6.35958">
        <ele>1170.54</ele>
        <time>2025-11-14T14:04:25Z</time>
      </trkpt>
      <trkpt lat="43.74924" lon="6.3595">
        <ele>1169.1</ele>
        <time>2025-11-14T14:04:26Z</time>
      </trkpt>
      <trkpt lat="43.74919" lon="6.35944">
        <ele>1168.62</ele>
        <time>2025-11-14T14:04:27Z</time>
      </trkpt>
      <trkpt lat="43.74913" lon="6.35939">
        <ele>1167.66</ele>
        <time>2025-11-14T14:04:28Z</time>
      </trkpt>
      <trkpt lat="43.74907" lon="6.35936">
        <ele>1167.18</ele>
        <time>2025-11-14T14:04:29Z</time>
      </trkpt>
      <trkpt lat="43.749" lon="6.35934">
        <ele>1167.18</ele>
        <time>2025-11-14T14:04:30Z</time>
      </trkpt>
      <trkpt lat="43.74894" lon="6.35931">
        <ele>1166.7</ele>
        <time>2025-11-14T14:04:31Z</time>
      </trkpt>
      <trkpt lat="43.74876" lon="6.35926">
        <ele>1164.77</ele>
        <time>2025-11-14T14:04:34Z</time>
      </trkpt>
      <trkpt lat="43.74872" lon="6.35924">
        <ele>1164.77</ele>
        <time>2025-11-14T14:04:35Z</time>
      </trkpt>
      <trkpt lat="43.74867" lon="6.3592">
        <ele>1164.29</ele>
        <time>2025-11-14T14:04:36Z</time>
      </trkpt>
      <trkpt lat="43.74863" lon="6.35917">
        <ele>1163.33</ele>
        <time>2025-11-14T14:04:37Z</time>
      </trkpt>
      <trkpt lat="43.74858" lon="6.35912">
        <ele>1162.85</ele>
        <time>2025-11-14T14:04:38Z</time>
      </trkpt>
      <trkpt lat="43.74854" lon="6.35906">
        <ele>1162.37</ele>
        <time>2025-11-14T14:04:39Z</time>
      </trkpt>
      <trkpt lat="43.74832" lon="6.35874">
        <ele>1159.49</ele>
        <time>2025-11-14T14:04:44Z</time>
      </trkpt>
      <trkpt lat="43.74827" lon="6.35868">
        <ele>1158.53</ele>
        <time>2025-11-14T14:04:45Z</time>
      </trkpt>
      <trkpt lat="43.74794" lon="6.35829">
        <ele>1157.08</ele>
        <time>2025-11-14T14:04:54Z</time>
      </trkpt>
      <trkpt lat="43.74781" lon="6.35813">
        <ele>1157.08</ele>
        <time>2025-11-14T14:05:04Z</time>
      </trkpt>
      <trkpt lat="43.74782" lon="6.35814">
        <ele>1157.08</ele>
        <time>2025-11-14T14:05:16Z</time>
      </trkpt>
      <trkpt lat="43.74782" lon="6.35813">
        <ele>1157.08</ele>
        <time>2025-11-14T14:05:32Z</time>
      </trkpt>
      <trkpt lat="43.74783" lon="6.35809">
        <ele>1156.6</ele>
        <time>2025-11-14T14:05:42Z</time>
      </trkpt>
      <trkpt lat="43.74781" lon="6.35778">
        <ele>1156.12</ele>
        <time>2025-11-14T14:05:51Z</time>
      </trkpt>
      <trkpt lat="43.74778" lon="6.35748">
        <ele>1153.24</ele>
        <time>2025-11-14T14:05:56Z</time>
      </trkpt>
      <trkpt lat="43.74776" lon="6.35741">
        <ele>1152.76</ele>
        <time>2025-11-14T14:05:57Z</time>
      </trkpt>
      <trkpt lat="43.74763" lon="6.357">
        <ele>1149.39</ele>
        <time>2025-11-14T14:06:02Z</time>
      </trkpt>
      <trkpt lat="43.74761" lon="6.35693">
        <ele>1149.39</ele>
        <time>2025-11-14T14:06:03Z</time>
      </trkpt>
      <trkpt lat="43.74755" lon="6.35669">
        <ele>1147.47</ele>
        <time>2025-11-14T14:06:06Z</time>
      </trkpt>
      <trkpt lat="43.7475" lon="6.35638">
        <ele>1144.11</ele>
        <time>2025-11-14T14:06:11Z</time>
      </trkpt>
      <trkpt lat="43.7475" lon="6.35622">
        <ele>1142.66</ele>
        <time>2025-11-14T14:06:14Z</time>
      </trkpt>
      <trkpt lat="43.74752" lon="6.35608">
        <ele>1141.22</ele>
        <time>2025-11-14T14:06:21Z</time>
      </trkpt>
      <trkpt lat="43.74752" lon="6.35609">
        <ele>1141.22</ele>
        <time>2025-11-14T14:06:37Z</time>
      </trkpt>
      <trkpt lat="43.74752" lon="6.35609">
        <ele>1140.74</ele>
        <time>2025-11-14T14:07:08Z</time>
      </trkpt>
      <trkpt lat="43.74752" lon="6.35608">
        <ele>1140.74</ele>
        <time>2025-11-14T14:07:24Z</time>
      </trkpt>
      <trkpt lat="43.74753" lon="6.35606">
        <ele>1140.74</ele>
        <time>2025-11-14T14:07:34Z</time>
      </trkpt>
      <trkpt lat="43.74755" lon="6.35605">
        <ele>1140.74</ele>
        <time>2025-11-14T14:07:39Z</time>
      </trkpt>
      <trkpt lat="43.74759" lon="6.35592">
        <ele>1139.78</ele>
        <time>2025-11-14T14:07:42Z</time>
      </trkpt>
      <trkpt lat="43.74761" lon="6.35578">
        <ele>1138.34</ele>
        <time>2025-11-14T14:07:44Z</time>
      </trkpt>
      <trkpt lat="43.74766" lon="6.3556">
        <ele>1136.9</ele>
        <time>2025-11-14T14:07:46Z</time>
      </trkpt>
      <trkpt lat="43.7477" lon="6.35552">
        <ele>1135.94</ele>
        <time>2025-11-14T14:07:47Z</time>
      </trkpt>
      <trkpt lat="43.74774" lon="6.35543">
        <ele>1134.97</ele>
        <time>2025-11-14T14:07:48Z</time>
      </trkpt>
      <trkpt lat="43.74781" lon="6.35533">
        <ele>1133.05</ele>
        <time>2025-11-14T14:07:49Z</time>
      </trkpt>
      <trkpt lat="43.74785" lon="6.35527">
        <ele>1131.61</ele>
        <time>2025-11-14T14:07:50Z</time>
      </trkpt>
      <trkpt lat="43.74807" lon="6.355">
        <ele>1128.24</ele>
        <time>2025-11-14T14:07:54Z</time>
      </trkpt>
      <trkpt lat="43.74813" lon="6.35495">
        <ele>1126.8</ele>
        <time>2025-11-14T14:07:55Z</time>
      </trkpt>
      <trkpt lat="43.7482" lon="6.35491">
        <ele>1125.84</ele>
        <time>2025-11-14T14:07:56Z</time>
      </trkpt>
      <trkpt lat="43.74828" lon="6.35488">
        <ele>1124.88</ele>
        <time>2025-11-14T14:07:57Z</time>
      </trkpt>
      <trkpt lat="43.74834" lon="6.35486">
        <ele>1123.92</ele>
        <time>2025-11-14T14:07:58Z</time>
      </trkpt>
      <trkpt lat="43.74856" lon="6.35479">
        <ele>1121.03</ele>
        <time>2025-11-14T14:08:01Z</time>
      </trkpt>
      <trkpt lat="43.74883" lon="6.35474">
        <ele>1117.19</ele>
        <time>2025-11-14T14:08:05Z</time>
      </trkpt>
      <trkpt lat="43.74888" lon="6.35472">
        <ele>1116.71</ele>
        <time>2025-11-14T14:08:06Z</time>
      </trkpt>
      <trkpt lat="43.74893" lon="6.35468">
        <ele>1116.23</ele>
        <time>2025-11-14T14:08:07Z</time>
      </trkpt>
      <trkpt lat="43.74896" lon="6.35462">
        <ele>1115.75</ele>
        <time>2025-11-14T14:08:08Z</time>
      </trkpt>
      <trkpt lat="43.74899" lon="6.35457">
        <ele>1115.75</ele>
        <time>2025-11-14T14:08:09Z</time>
      </trkpt>
      <trkpt lat="43.74901" lon="6.35451">
        <ele>1115.27</ele>
        <time>2025-11-14T14:08:10Z</time>
      </trkpt>
      <trkpt lat="43.74903" lon="6.35446">
        <ele>1115.27</ele>
        <time>2025-11-14T14:08:11Z</time>
      </trkpt>
      <trkpt lat="43.74904" lon="6.35441">
        <ele>1114.31</ele>
        <time>2025-11-14T14:08:12Z</time>
      </trkpt>
      <trkpt lat="43.74904" lon="6.35438">
        <ele>1114.79</ele>
        <time>2025-11-14T14:08:13Z</time>
      </trkpt>
      <trkpt lat="43.74903" lon="6.35435">
        <ele>1114.79</ele>
        <time>2025-11-14T14:08:14Z</time>
      </trkpt>
      <trkpt lat="43.749" lon="6.35432">
        <ele>1114.79</ele>
        <time>2025-11-14T14:08:15Z</time>
      </trkpt>
      <trkpt lat="43.74898" lon="6.35431">
        <ele>1114.79</ele>
        <time>2025-11-14T14:08:16Z</time>
      </trkpt>
      <trkpt lat="43.74895" lon="6.3543">
        <ele>1113.82</ele>
        <time>2025-11-14T14:08:17Z</time>
      </trkpt>
      <trkpt lat="43.74893" lon="6.3543">
        <ele>1113.82</ele>
        <time>2025-11-14T14:08:18Z</time>
      </trkpt>
      <trkpt lat="43.74893" lon="6.35429">
        <ele>1113.34</ele>
        <time>2025-11-14T14:08:25Z</time>
      </trkpt>
      <trkpt lat="43.74893" lon="6.35431">
        <ele>1112.86</ele>
        <time>2025-11-14T14:08:53Z</time>
      </trkpt>
      <trkpt lat="43.74891" lon="6.35434">
        <ele>1112.86</ele>
        <time>2025-11-14T14:09:10Z</time>
      </trkpt>
      <trkpt lat="43.7489" lon="6.35435">
        <ele>1112.86</ele>
        <time>2025-11-14T14:09:20Z</time>
      </trkpt>
      <trkpt lat="43.74882" lon="6.35446">
        <ele>1112.38</ele>
        <time>2025-11-14T14:09:24Z</time>
      </trkpt>
      <trkpt lat="43.74877" lon="6.3545">
        <ele>1111.9</ele>
        <time>2025-11-14T14:09:25Z</time>
      </trkpt>
      <trkpt lat="43.74874" lon="6.35453">
        <ele>1111.42</ele>
        <time>2025-11-14T14:09:26Z</time>
      </trkpt>
      <trkpt lat="43.74869" lon="6.35455">
        <ele>1111.42</ele>
        <time>2025-11-14T14:09:27Z</time>
      </trkpt>
      <trkpt lat="43.74863" lon="6.35457">
        <ele>1110.46</ele>
        <time>2025-11-14T14:09:28Z</time>
      </trkpt>
      <trkpt lat="43.74857" lon="6.35458">
        <ele>1109.98</ele>
        <time>2025-11-14T14:09:29Z</time>
      </trkpt>
      <trkpt lat="43.7485" lon="6.35458">
        <ele>1109.98</ele>
        <time>2025-11-14T14:09:30Z</time>
      </trkpt>
      <trkpt lat="43.74827" lon="6.35458">
        <ele>1108.06</ele>
        <time>2025-11-14T14:09:33Z</time>
      </trkpt>
      <trkpt lat="43.74805" lon="6.35458">
        <ele>1105.65</ele>
        <time>2025-11-14T14:09:36Z</time>
      </trkpt>
      <trkpt lat="43.74797" lon="6.3546">
        <ele>1105.17</ele>
        <time>2025-11-14T14:09:37Z</time>
      </trkpt>
      <trkpt lat="43.74789" lon="6.35464">
        <ele>1104.21</ele>
        <time>2025-11-14T14:09:38Z</time>
      </trkpt>
      <trkpt lat="43.74781" lon="6.35468">
        <ele>1103.73</ele>
        <time>2025-11-14T14:09:39Z</time>
      </trkpt>
      <trkpt lat="43.74774" lon="6.35474">
        <ele>1103.25</ele>
        <time>2025-11-14T14:09:40Z</time>
      </trkpt>
      <trkpt lat="43.74765" lon="6.35482">
        <ele>1102.77</ele>
        <time>2025-11-14T14:09:41Z</time>
      </trkpt>
      <trkpt lat="43.74744" lon="6.35502">
        <ele>1100.37</ele>
        <time>2025-11-14T14:09:44Z</time>
      </trkpt>
      <trkpt lat="43.74724" lon="6.35525">
        <ele>1097.48</ele>
        <time>2025-11-14T14:09:47Z</time>
      </trkpt>
      <trkpt lat="43.74712" lon="6.35541">
        <ele>1096.04</ele>
        <time>2025-11-14T14:09:49Z</time>
      </trkpt>
      <trkpt lat="43.74707" lon="6.35552">
        <ele>1095.56</ele>
        <time>2025-11-14T14:09:50Z</time>
      </trkpt>
      <trkpt lat="43.74704" lon="6.3556">
        <ele>1095.08</ele>
        <time>2025-11-14T14:09:51Z</time>
      </trkpt>
      <trkpt lat="43.74702" lon="6.35571">
        <ele>1094.12</ele>
        <time>2025-11-14T14:09:52Z</time>
      </trkpt>
      <trkpt lat="43.74701" lon="6.35582">
        <ele>1094.12</ele>
        <time>2025-11-14T14:09:53Z</time>
      </trkpt>
      <trkpt lat="43.74701" lon="6.35593">
        <ele>1094.12</ele>
        <time>2025-11-14T14:09:54Z</time>
      </trkpt>
      <trkpt lat="43.74702" lon="6.35603">
        <ele>1093.64</ele>
        <time>2025-11-14T14:09:55Z</time>
      </trkpt>
      <trkpt lat="43.74702" lon="6.35612">
        <ele>1093.16</ele>
        <time>2025-11-14T14:09:56Z</time>
      </trkpt>
      <trkpt lat="43.74701" lon="6.35621">
        <ele>1092.68</ele>
        <time>2025-11-14T14:09:57Z</time>
      </trkpt>
      <trkpt lat="43.74698" lon="6.35626">
        <ele>1092.2</ele>
        <time>2025-11-14T14:09:58Z</time>
      </trkpt>
      <trkpt lat="43.74694" lon="6.35627">
        <ele>1091.71</ele>
        <time>2025-11-14T14:09:59Z</time>
      </trkpt>
      <trkpt lat="43.7469" lon="6.35626">
        <ele>1091.71</ele>
        <time>2025-11-14T14:10:00Z</time>
      </trkpt>
      <trkpt lat="43.74686" lon="6.35621">
        <ele>1091.23</ele>
        <time>2025-11-14T14:10:01Z</time>
      </trkpt>
      <trkpt lat="43.74684" lon="6.35614">
        <ele>1091.23</ele>
        <time>2025-11-14T14:10:02Z</time>
      </trkpt>
      <trkpt lat="43.74684" lon="6.35605">
        <ele>1089.79</ele>
        <time>2025-11-14T14:10:03Z</time>
      </trkpt>
      <trkpt lat="43.74684" lon="6.35596">
        <ele>1089.79</ele>
        <time>2025-11-14T14:10:04Z</time>
      </trkpt>
      <trkpt lat="43.74684" lon="6.35585">
        <ele>1088.83</ele>
        <time>2025-11-14T14:10:05Z</time>
      </trkpt>
      <trkpt lat="43.74683" lon="6.35572">
        <ele>1087.39</ele>
        <time>2025-11-14T14:10:06Z</time>
      </trkpt>
      <trkpt lat="43.74682" lon="6.35564">
        <ele>1086.91</ele>
        <time>2025-11-14T14:10:07Z</time>
      </trkpt>
      <trkpt lat="43.74681" lon="6.35553">
        <ele>1086.43</ele>
        <time>2025-11-14T14:10:08Z</time>
      </trkpt>
      <trkpt lat="43.74678" lon="6.35542">
        <ele>1084.99</ele>
        <time>2025-11-14T14:10:09Z</time>
      </trkpt>
      <trkpt lat="43.74675" lon="6.35532">
        <ele>1084.5</ele>
        <time>2025-11-14T14:10:10Z</time>
      </trkpt>
      <trkpt lat="43.74671" lon="6.35522">
        <ele>1083.54</ele>
        <time>2025-11-14T14:10:11Z</time>
      </trkpt>
      <trkpt lat="43.74666" lon="6.35513">
        <ele>1082.1</ele>
        <time>2025-11-14T14:10:12Z</time>
      </trkpt>
      <trkpt lat="43.7466" lon="6.35503">
        <ele>1081.14</ele>
        <time>2025-11-14T14:10:13Z</time>
      </trkpt>
      <trkpt lat="43.74638" lon="6.35471">
        <ele>1077.29</ele>
        <time>2025-11-14T14:10:17Z</time>
      </trkpt>
      <trkpt lat="43.74633" lon="6.35465">
        <ele>1077.29</ele>
        <time>2025-11-14T14:10:18Z</time>
      </trkpt>
      <trkpt lat="43.74614" lon="6.35444">
        <ele>1075.85</ele>
        <time>2025-11-14T14:10:24Z</time>
      </trkpt>
      <trkpt lat="43.74614" lon="6.35441">
        <ele>1076.33</ele>
        <time>2025-11-14T14:10:25Z</time>
      </trkpt>
      <trkpt lat="43.74613" lon="6.35428">
        <ele>1075.37</ele>
        <time>2025-11-14T14:10:35Z</time>
      </trkpt>
      <trkpt lat="43.74611" lon="6.35428">
        <ele>1075.37</ele>
        <time>2025-11-14T14:10:44Z</time>
      </trkpt>
      <trkpt lat="43.7461" lon="6.35428">
        <ele>1074.89</ele>
        <time>2025-11-14T14:10:48Z</time>
      </trkpt>
      <trkpt lat="43.74604" lon="6.35434">
        <ele>1074.89</ele>
        <time>2025-11-14T14:10:52Z</time>
      </trkpt>
      <trkpt lat="43.74602" lon="6.35436">
        <ele>1074.89</ele>
        <time>2025-11-14T14:10:53Z</time>
      </trkpt>
      <trkpt lat="43.746" lon="6.35438">
        <ele>1074.89</ele>
        <time>2025-11-14T14:10:54Z</time>
      </trkpt>
      <trkpt lat="43.74575" lon="6.35446">
        <ele>1072.49</ele>
        <time>2025-11-14T14:11:00Z</time>
      </trkpt>
      <trkpt lat="43.74563" lon="6.35452">
        <ele>1070.57</ele>
        <time>2025-11-14T14:11:02Z</time>
      </trkpt>
      <trkpt lat="43.74556" lon="6.35457">
        <ele>1069.6</ele>
        <time>2025-11-14T14:11:03Z</time>
      </trkpt>
      <trkpt lat="43.7455" lon="6.35462">
        <ele>1069.12</ele>
        <time>2025-11-14T14:11:04Z</time>
      </trkpt>
      <trkpt lat="43.74527" lon="6.35488">
        <ele>1065.28</ele>
        <time>2025-11-14T14:11:08Z</time>
      </trkpt>
      <trkpt lat="43.74503" lon="6.35515">
        <ele>1061.91</ele>
        <time>2025-11-14T14:11:12Z</time>
      </trkpt>
      <trkpt lat="43.7448" lon="6.35545">
        <ele>1058.55</ele>
        <time>2025-11-14T14:11:16Z</time>
      </trkpt>
      <trkpt lat="43.74469" lon="6.35561">
        <ele>1057.11</ele>
        <time>2025-11-14T14:11:18Z</time>
      </trkpt>
      <trkpt lat="43.74452" lon="6.35588">
        <ele>1053.26</ele>
        <time>2025-11-14T14:11:21Z</time>
      </trkpt>
      <trkpt lat="43.74436" lon="6.35621">
        <ele>1049.9</ele>
        <time>2025-11-14T14:11:24Z</time>
      </trkpt>
      <trkpt lat="43.74417" lon="6.35664">
        <ele>1046.53</ele>
        <time>2025-11-14T14:11:28Z</time>
      </trkpt>
      <trkpt lat="43.744" lon="6.3571">
        <ele>1042.69</ele>
        <time>2025-11-14T14:11:32Z</time>
      </trkpt>
      <trkpt lat="43.74392" lon="6.35741">
        <ele>1041.25</ele>
        <time>2025-11-14T14:11:35Z</time>
      </trkpt>
      <trkpt lat="43.74391" lon="6.3575">
        <ele>1040.28</ele>
        <time>2025-11-14T14:11:36Z</time>
      </trkpt>
      <trkpt lat="43.74383" lon="6.35777">
        <ele>1038.84</ele>
        <time>2025-11-14T14:11:42Z</time>
      </trkpt>
      <trkpt lat="43.74373" lon="6.3578">
        <ele>1038.36</ele>
        <time>2025-11-14T14:11:48Z</time>
      </trkpt>
      <trkpt lat="43.74374" lon="6.3578">
        <ele>1037.88</ele>
        <time>2025-11-14T14:12:08Z</time>
      </trkpt>
      <trkpt lat="43.74374" lon="6.35779">
        <ele>1037.88</ele>
        <time>2025-11-14T14:12:18Z</time>
      </trkpt>
      <trkpt lat="43.74373" lon="6.35778">
        <ele>1037.4</ele>
        <time>2025-11-14T14:12:19Z</time>
      </trkpt>
      <trkpt lat="43.74372" lon="6.35776">
        <ele>1037.4</ele>
        <time>2025-11-14T14:12:20Z</time>
      </trkpt>
      <trkpt lat="43.74371" lon="6.35773">
        <ele>1037.4</ele>
        <time>2025-11-14T14:12:21Z</time>
      </trkpt>
      <trkpt lat="43.74371" lon="6.35769">
        <ele>1037.4</ele>
        <time>2025-11-14T14:12:22Z</time>
      </trkpt>
      <trkpt lat="43.74371" lon="6.35763">
        <ele>1036.92</ele>
        <time>2025-11-14T14:12:23Z</time>
      </trkpt>
      <trkpt lat="43.74373" lon="6.35754">
        <ele>1036.92</ele>
        <time>2025-11-14T14:12:25Z</time>
      </trkpt>
      <trkpt lat="43.74376" lon="6.35742">
        <ele>1036.44</ele>
        <time>2025-11-14T14:12:27Z</time>
      </trkpt>
      <trkpt lat="43.74377" lon="6.35735">
        <ele>1035.96</ele>
        <time>2025-11-14T14:12:28Z</time>
      </trkpt>
      <trkpt lat="43.74381" lon="6.35693">
        <ele>1032.11</ele>
        <time>2025-11-14T14:12:33Z</time>
      </trkpt>
      <trkpt lat="43.74382" lon="6.35653">
        <ele>1028.75</ele>
        <time>2025-11-14T14:12:37Z</time>
      </trkpt>
      <trkpt lat="43.74385" lon="6.35604">
        <ele>1025.38</ele>
        <time>2025-11-14T14:12:41Z</time>
      </trkpt>
      <trkpt lat="43.7439" lon="6.35567">
        <ele>1021.54</ele>
        <time>2025-11-14T14:12:44Z</time>
      </trkpt>
      <trkpt lat="43.74399" lon="6.3553">
        <ele>1018.17</ele>
        <time>2025-11-14T14:12:47Z</time>
      </trkpt>
      <trkpt lat="43.74411" lon="6.35492">
        <ele>1014.81</ele>
        <time>2025-11-14T14:12:50Z</time>
      </trkpt>
      <trkpt lat="43.74421" lon="6.35464">
        <ele>1012.41</ele>
        <time>2025-11-14T14:12:53Z</time>
      </trkpt>
      <trkpt lat="43.74426" lon="6.35455">
        <ele>1011.44</ele>
        <time>2025-11-14T14:12:54Z</time>
      </trkpt>
      <trkpt lat="43.74432" lon="6.35448">
        <ele>1010.48</ele>
        <time>2025-11-14T14:12:55Z</time>
      </trkpt>
      <trkpt lat="43.74443" lon="6.35434">
        <ele>1010.48</ele>
        <time>2025-11-14T14:12:57Z</time>
      </trkpt>
      <trkpt lat="43.74446" lon="6.35429">
        <ele>1009.52</ele>
        <time>2025-11-14T14:12:58Z</time>
      </trkpt>
      <trkpt lat="43.74447" lon="6.35421">
        <ele>1009.52</ele>
        <time>2025-11-14T14:12:59Z</time>
      </trkpt>
      <trkpt lat="43.74446" lon="6.35415">
        <ele>1009.04</ele>
        <time>2025-11-14T14:13:00Z</time>
      </trkpt>
      <trkpt lat="43.74442" lon="6.35411">
        <ele>1008.56</ele>
        <time>2025-11-14T14:13:01Z</time>
      </trkpt>
      <trkpt lat="43.74438" lon="6.3541">
        <ele>1008.56</ele>
        <time>2025-11-14T14:13:02Z</time>
      </trkpt>
      <trkpt lat="43.74432" lon="6.35413">
        <ele>1008.56</ele>
        <time>2025-11-14T14:13:03Z</time>
      </trkpt>
      <trkpt lat="43.74428" lon="6.35417">
        <ele>1007.6</ele>
        <time>2025-11-14T14:13:04Z</time>
      </trkpt>
      <trkpt lat="43.74423" lon="6.35424">
        <ele>1008.08</ele>
        <time>2025-11-14T14:13:05Z</time>
      </trkpt>
      <trkpt lat="43.7442" lon="6.35431">
        <ele>1006.16</ele>
        <time>2025-11-14T14:13:06Z</time>
      </trkpt>
      <trkpt lat="43.74416" lon="6.35439">
        <ele>1005.68</ele>
        <time>2025-11-14T14:13:07Z</time>
      </trkpt>
      <trkpt lat="43.74398" lon="6.35473">
        <ele>1003.75</ele>
        <time>2025-11-14T14:13:11Z</time>
      </trkpt>
      <trkpt lat="43.74371" lon="6.35511">
        <ele>1000.39</ele>
        <time>2025-11-14T14:13:16Z</time>
      </trkpt>
      <trkpt lat="43.74346" lon="6.35545">
        <ele>998.95</ele>
        <time>2025-11-14T14:13:20Z</time>
      </trkpt>
      <trkpt lat="43.74319" lon="6.35585">
        <ele>995.58</ele>
        <time>2025-11-14T14:13:25Z</time>
      </trkpt>
      <trkpt lat="43.74299" lon="6.35631">
        <ele>993.18</ele>
        <time>2025-11-14T14:13:31Z</time>
      </trkpt>
      <trkpt lat="43.74296" lon="6.35635">
        <ele>993.18</ele>
        <time>2025-11-14T14:13:32Z</time>
      </trkpt>
      <trkpt lat="43.74292" lon="6.35638">
        <ele>993.18</ele>
        <time>2025-11-14T14:13:33Z</time>
      </trkpt>
      <trkpt lat="43.74289" lon="6.35639">
        <ele>993.18</ele>
        <time>2025-11-14T14:13:34Z</time>
      </trkpt>
      <trkpt lat="43.74286" lon="6.35639">
        <ele>993.18</ele>
        <time>2025-11-14T14:13:35Z</time>
      </trkpt>
      <trkpt lat="43.74284" lon="6.35639">
        <ele>992.22</ele>
        <time>2025-11-14T14:13:36Z</time>
      </trkpt>
      <trkpt lat="43.74283" lon="6.35637">
        <ele>992.7</ele>
        <time>2025-11-14T14:13:44Z</time>
      </trkpt>
      <trkpt lat="43.74283" lon="6.35637">
        <ele>992.7</ele>
        <time>2025-11-14T14:13:50Z</time>
      </trkpt>
      <trkpt lat="43.74283" lon="6.35635">
        <ele>992.7</ele>
        <time>2025-11-14T14:13:51Z</time>
      </trkpt>
      <trkpt lat="43.74283" lon="6.35632">
        <ele>992.7</ele>
        <time>2025-11-14T14:13:52Z</time>
      </trkpt>
      <trkpt lat="43.74283" lon="6.35628">
        <ele>992.7</ele>
        <time>2025-11-14T14:13:53Z</time>
      </trkpt>
      <trkpt lat="43.74285" lon="6.35623">
        <ele>992.22</ele>
        <time>2025-11-14T14:13:54Z</time>
      </trkpt>
      <trkpt lat="43.74286" lon="6.35619">
        <ele>992.22</ele>
        <time>2025-11-14T14:13:55Z</time>
      </trkpt>
      <trkpt lat="43.74289" lon="6.35614">
        <ele>991.26</ele>
        <time>2025-11-14T14:13:56Z</time>
      </trkpt>
      <trkpt lat="43.74292" lon="6.35608">
        <ele>991.26</ele>
        <time>2025-11-14T14:13:57Z</time>
      </trkpt>
      <trkpt lat="43.74295" lon="6.35604">
        <ele>990.3</ele>
        <time>2025-11-14T14:13:58Z</time>
      </trkpt>
      <trkpt lat="43.74299" lon="6.35598">
        <ele>990.3</ele>
        <time>2025-11-14T14:13:59Z</time>
      </trkpt>
      <trkpt lat="43.74303" lon="6.35591">
        <ele>989.81</ele>
        <time>2025-11-14T14:14:00Z</time>
      </trkpt>
      <trkpt lat="43.74305" lon="6.35584">
        <ele>989.33</ele>
        <time>2025-11-14T14:14:01Z</time>
      </trkpt>
      <trkpt lat="43.74308" lon="6.35577">
        <ele>988.85</ele>
        <time>2025-11-14T14:14:02Z</time>
      </trkpt>
      <trkpt lat="43.74323" lon="6.35523">
        <ele>985.49</ele>
        <time>2025-11-14T14:14:07Z</time>
      </trkpt>
      <trkpt lat="43.74339" lon="6.35475">
        <ele>981.16</ele>
        <time>2025-11-14T14:14:11Z</time>
      </trkpt>
      <trkpt lat="43.74352" lon="6.3543">
        <ele>976.84</ele>
        <time>2025-11-14T14:14:14Z</time>
      </trkpt>
      <trkpt lat="43.74363" lon="6.35397">
        <ele>973.95</ele>
        <time>2025-11-14T14:14:16Z</time>
      </trkpt>
      <trkpt lat="43.74373" lon="6.35364">
        <ele>970.59</ele>
        <time>2025-11-14T14:14:18Z</time>
      </trkpt>
      <trkpt lat="43.74384" lon="6.35329">
        <ele>966.74</ele>
        <time>2025-11-14T14:14:20Z</time>
      </trkpt>
      <trkpt lat="43.74395" lon="6.35294">
        <ele>963.86</ele>
        <time>2025-11-14T14:14:22Z</time>
      </trkpt>
      <trkpt lat="43.74408" lon="6.35254">
        <ele>960.01</ele>
        <time>2025-11-14T14:14:24Z</time>
      </trkpt>
      <trkpt lat="43.74424" lon="6.35203">
        <ele>955.21</ele>
        <time>2025-11-14T14:14:27Z</time>
      </trkpt>
      <trkpt lat="43.74435" lon="6.35166">
        <ele>951.84</ele>
        <time>2025-11-14T14:14:29Z</time>
      </trkpt>
      <trkpt lat="43.74454" lon="6.35113">
        <ele>948</ele>
        <time>2025-11-14T14:14:32Z</time>
      </trkpt>
      <trkpt lat="43.74462" lon="6.35097">
        <ele>946.56</ele>
        <time>2025-11-14T14:14:33Z</time>
      </trkpt>
      <trkpt lat="43.74469" lon="6.35087">
        <ele>945.59</ele>
        <time>2025-11-14T14:14:34Z</time>
      </trkpt>
      <trkpt lat="43.74479" lon="6.35076">
        <ele>944.15</ele>
        <time>2025-11-14T14:14:35Z</time>
      </trkpt>
      <trkpt lat="43.74489" lon="6.35068">
        <ele>943.19</ele>
        <time>2025-11-14T14:14:36Z</time>
      </trkpt>
      <trkpt lat="43.74501" lon="6.35061">
        <ele>942.23</ele>
        <time>2025-11-14T14:14:37Z</time>
      </trkpt>
      <trkpt lat="43.74511" lon="6.35057">
        <ele>940.79</ele>
        <time>2025-11-14T14:14:38Z</time>
      </trkpt>
      <trkpt lat="43.74525" lon="6.35055">
        <ele>939.35</ele>
        <time>2025-11-14T14:14:39Z</time>
      </trkpt>
      <trkpt lat="43.74535" lon="6.35056">
        <ele>938.38</ele>
        <time>2025-11-14T14:14:40Z</time>
      </trkpt>
      <trkpt lat="43.74547" lon="6.35059">
        <ele>936.46</ele>
        <time>2025-11-14T14:14:41Z</time>
      </trkpt>
      <trkpt lat="43.74585" lon="6.35067">
        <ele>932.62</ele>
        <time>2025-11-14T14:14:44Z</time>
      </trkpt>
      <trkpt lat="43.74626" lon="6.35077">
        <ele>929.25</ele>
        <time>2025-11-14T14:14:47Z</time>
      </trkpt>
      <trkpt lat="43.74674" lon="6.35081">
        <ele>925.89</ele>
        <time>2025-11-14T14:14:51Z</time>
      </trkpt>
      <trkpt lat="43.74719" lon="6.35074">
        <ele>923</ele>
        <time>2025-11-14T14:14:55Z</time>
      </trkpt>
      <trkpt lat="43.74748" lon="6.35074">
        <ele>920.12</ele>
        <time>2025-11-14T14:14:58Z</time>
      </trkpt>
      <trkpt lat="43.74757" lon="6.35071">
        <ele>919.64</ele>
        <time>2025-11-14T14:14:59Z</time>
      </trkpt>
      <trkpt lat="43.74765" lon="6.35065">
        <ele>919.16</ele>
        <time>2025-11-14T14:15:00Z</time>
      </trkpt>
      <trkpt lat="43.74787" lon="6.35042">
        <ele>917.24</ele>
        <time>2025-11-14T14:15:03Z</time>
      </trkpt>
      <trkpt lat="43.74794" lon="6.35028">
        <ele>916.27</ele>
        <time>2025-11-14T14:15:04Z</time>
      </trkpt>
      <trkpt lat="43.74795" lon="6.35019">
        <ele>916.27</ele>
        <time>2025-11-14T14:15:05Z</time>
      </trkpt>
      <trkpt lat="43.74795" lon="6.35007">
        <ele>915.79</ele>
        <time>2025-11-14T14:15:06Z</time>
      </trkpt>
      <trkpt lat="43.74793" lon="6.34995">
        <ele>914.83</ele>
        <time>2025-11-14T14:15:07Z</time>
      </trkpt>
      <trkpt lat="43.7479" lon="6.34983">
        <ele>914.35</ele>
        <time>2025-11-14T14:15:08Z</time>
      </trkpt>
      <trkpt lat="43.74786" lon="6.34972">
        <ele>913.39</ele>
        <time>2025-11-14T14:15:09Z</time>
      </trkpt>
      <trkpt lat="43.74782" lon="6.34961">
        <ele>912.91</ele>
        <time>2025-11-14T14:15:10Z</time>
      </trkpt>
      <trkpt lat="43.74774" lon="6.34942">
        <ele>911.47</ele>
        <time>2025-11-14T14:15:12Z</time>
      </trkpt>
      <trkpt lat="43.74771" lon="6.34931">
        <ele>911.95</ele>
        <time>2025-11-14T14:15:13Z</time>
      </trkpt>
      <trkpt lat="43.7477" lon="6.34922">
        <ele>911.47</ele>
        <time>2025-11-14T14:15:14Z</time>
      </trkpt>
      <trkpt lat="43.7477" lon="6.34911">
        <ele>911.47</ele>
        <time>2025-11-14T14:15:15Z</time>
      </trkpt>
      <trkpt lat="43.74771" lon="6.349">
        <ele>910.99</ele>
        <time>2025-11-14T14:15:16Z</time>
      </trkpt>
      <trkpt lat="43.74772" lon="6.3489">
        <ele>910.51</ele>
        <time>2025-11-14T14:15:17Z</time>
      </trkpt>
      <trkpt lat="43.74775" lon="6.3488">
        <ele>910.03</ele>
        <time>2025-11-14T14:15:18Z</time>
      </trkpt>
      <trkpt lat="43.74778" lon="6.34872">
        <ele>910.03</ele>
        <time>2025-11-14T14:15:19Z</time>
      </trkpt>
      <trkpt lat="43.74783" lon="6.34862">
        <ele>909.06</ele>
        <time>2025-11-14T14:15:20Z</time>
      </trkpt>
      <trkpt lat="43.74794" lon="6.34851">
        <ele>908.58</ele>
        <time>2025-11-14T14:15:21Z</time>
      </trkpt>
      <trkpt lat="43.74801" lon="6.34844">
        <ele>908.1</ele>
        <time>2025-11-14T14:15:22Z</time>
      </trkpt>
      <trkpt lat="43.7483" lon="6.34807">
        <ele>906.18</ele>
        <time>2025-11-14T14:15:26Z</time>
      </trkpt>
      <trkpt lat="43.74842" lon="6.34786">
        <ele>905.7</ele>
        <time>2025-11-14T14:15:28Z</time>
      </trkpt>
      <trkpt lat="43.74845" lon="6.34775">
        <ele>905.7</ele>
        <time>2025-11-14T14:15:29Z</time>
      </trkpt>
      <trkpt lat="43.74846" lon="6.34761">
        <ele>904.26</ele>
        <time>2025-11-14T14:15:30Z</time>
      </trkpt>
      <trkpt lat="43.74845" lon="6.34752">
        <ele>904.26</ele>
        <time>2025-11-14T14:15:31Z</time>
      </trkpt>
      <trkpt lat="43.74843" lon="6.34741">
        <ele>904.26</ele>
        <time>2025-11-14T14:15:32Z</time>
      </trkpt>
      <trkpt lat="43.7484" lon="6.34719">
        <ele>904.26</ele>
        <time>2025-11-14T14:15:34Z</time>
      </trkpt>
      <trkpt lat="43.7484" lon="6.34708">
        <ele>904.26</ele>
        <time>2025-11-14T14:15:35Z</time>
      </trkpt>
      <trkpt lat="43.74839" lon="6.34657">
        <ele>903.78</ele>
        <time>2025-11-14T14:15:40Z</time>
      </trkpt>
      <trkpt lat="43.74836" lon="6.34648">
        <ele>903.78</ele>
        <time>2025-11-14T14:15:41Z</time>
      </trkpt>
      <trkpt lat="43.74832" lon="6.3464">
        <ele>903.3</ele>
        <time>2025-11-14T14:15:42Z</time>
      </trkpt>
      <trkpt lat="43.74827" lon="6.34634">
        <ele>903.3</ele>
        <time>2025-11-14T14:15:43Z</time>
      </trkpt>
      <trkpt lat="43.74821" lon="6.34629">
        <ele>903.3</ele>
        <time>2025-11-14T14:15:44Z</time>
      </trkpt>
      <trkpt lat="43.74815" lon="6.34626">
        <ele>903.3</ele>
        <time>2025-11-14T14:15:45Z</time>
      </trkpt>
      <trkpt lat="43.7481" lon="6.34623">
        <ele>902.82</ele>
        <time>2025-11-14T14:15:46Z</time>
      </trkpt>
      <trkpt lat="43.74797" lon="6.34617">
        <ele>902.82</ele>
        <time>2025-11-14T14:15:48Z</time>
      </trkpt>
      <trkpt lat="43.74727" lon="6.34596">
        <ele>900.89</ele>
        <time>2025-11-14T14:16:01Z</time>
      </trkpt>
      <trkpt lat="43.7468" lon="6.34568">
        <ele>898.49</ele>
        <time>2025-11-14T14:16:10Z</time>
      </trkpt>
      <trkpt lat="43.74676" lon="6.34563">
        <ele>898.49</ele>
        <time>2025-11-14T14:16:11Z</time>
      </trkpt>
      <trkpt lat="43.74643" lon="6.34513">
        <ele>895.61</ele>
        <time>2025-11-14T14:16:22Z</time>
      </trkpt>
      <trkpt lat="43.74638" lon="6.34494">
        <ele>894.64</ele>
        <time>2025-11-14T14:16:31Z</time>
      </trkpt>
      <trkpt lat="43.74641" lon="6.34494">
        <ele>894.64</ele>
        <time>2025-11-14T14:16:54Z</time>
      </trkpt>
      <trkpt lat="43.7464" lon="6.34493">
        <ele>894.64</ele>
        <time>2025-11-14T14:17:12Z</time>
      </trkpt>
      <trkpt lat="43.7464" lon="6.34494">
        <ele>894.64</ele>
        <time>2025-11-14T14:17:29Z</time>
      </trkpt>
      <trkpt lat="43.7464" lon="6.34493">
        <ele>894.64</ele>
        <time>2025-11-14T14:17:44Z</time>
      </trkpt>
      <trkpt lat="43.74641" lon="6.34492">
        <ele>894.64</ele>
        <time>2025-11-14T14:17:53Z</time>
      </trkpt>
      <trkpt lat="43.74641" lon="6.34491">
        <ele>894.64</ele>
        <time>2025-11-14T14:17:55Z</time>
      </trkpt>
      <trkpt lat="43.74641" lon="6.3449">
        <ele>894.16</ele>
        <time>2025-11-14T14:17:56Z</time>
      </trkpt>
      <trkpt lat="43.74642" lon="6.34458">
        <ele>892.72</ele>
        <time>2025-11-14T14:18:04Z</time>
      </trkpt>
      <trkpt lat="43.74642" lon="6.34453">
        <ele>892.72</ele>
        <time>2025-11-14T14:18:05Z</time>
      </trkpt>
      <trkpt lat="43.74647" lon="6.34411">
        <ele>890.8</ele>
        <time>2025-11-14T14:18:10Z</time>
      </trkpt>
      <trkpt lat="43.74647" lon="6.34367">
        <ele>887.43</ele>
        <time>2025-11-14T14:18:14Z</time>
      </trkpt>
      <trkpt lat="43.74649" lon="6.34357">
        <ele>886.95</ele>
        <time>2025-11-14T14:18:15Z</time>
      </trkpt>
      <trkpt lat="43.7465" lon="6.34347">
        <ele>886.47</ele>
        <time>2025-11-14T14:18:16Z</time>
      </trkpt>
      <trkpt lat="43.7465" lon="6.34335">
        <ele>885.51</ele>
        <time>2025-11-14T14:18:17Z</time>
      </trkpt>
      <trkpt lat="43.74649" lon="6.34324">
        <ele>885.03</ele>
        <time>2025-11-14T14:18:18Z</time>
      </trkpt>
      <trkpt lat="43.74646" lon="6.34312">
        <ele>884.55</ele>
        <time>2025-11-14T14:18:19Z</time>
      </trkpt>
      <trkpt lat="43.74644" lon="6.34299">
        <ele>884.07</ele>
        <time>2025-11-14T14:18:20Z</time>
      </trkpt>
      <trkpt lat="43.74634" lon="6.34242">
        <ele>880.22</ele>
        <time>2025-11-14T14:18:25Z</time>
      </trkpt>
      <trkpt lat="43.7463" lon="6.3423">
        <ele>879.26</ele>
        <time>2025-11-14T14:18:26Z</time>
      </trkpt>
      <trkpt lat="43.74613" lon="6.34187">
        <ele>876.38</ele>
        <time>2025-11-14T14:18:30Z</time>
      </trkpt>
      <trkpt lat="43.74608" lon="6.34178">
        <ele>875.9</ele>
        <time>2025-11-14T14:18:31Z</time>
      </trkpt>
      <trkpt lat="43.74577" lon="6.34135">
        <ele>872.05</ele>
        <time>2025-11-14T14:18:36Z</time>
      </trkpt>
      <trkpt lat="43.74567" lon="6.3412">
        <ele>871.09</ele>
        <time>2025-11-14T14:18:38Z</time>
      </trkpt>
      <trkpt lat="43.74564" lon="6.34113">
        <ele>870.13</ele>
        <time>2025-11-14T14:18:39Z</time>
      </trkpt>
      <trkpt lat="43.74563" lon="6.34107">
        <ele>870.61</ele>
        <time>2025-11-14T14:18:40Z</time>
      </trkpt>
      <trkpt lat="43.74562" lon="6.34095">
        <ele>868.69</ele>
        <time>2025-11-14T14:18:46Z</time>
      </trkpt>
      <trkpt lat="43.74562" lon="6.34094">
        <ele>869.17</ele>
        <time>2025-11-14T14:19:09Z</time>
      </trkpt>
      <trkpt lat="43.74563" lon="6.34093">
        <ele>869.17</ele>
        <time>2025-11-14T14:19:21Z</time>
      </trkpt>
      <trkpt lat="43.74564" lon="6.34091">
        <ele>869.17</ele>
        <time>2025-11-14T14:19:22Z</time>
      </trkpt>
      <trkpt lat="43.74565" lon="6.34088">
        <ele>869.17</ele>
        <time>2025-11-14T14:19:23Z</time>
      </trkpt>
      <trkpt lat="43.74567" lon="6.34085">
        <ele>869.17</ele>
        <time>2025-11-14T14:19:24Z</time>
      </trkpt>
      <trkpt lat="43.74568" lon="6.34082">
        <ele>868.69</ele>
        <time>2025-11-14T14:19:25Z</time>
      </trkpt>
      <trkpt lat="43.7457" lon="6.34077">
        <ele>868.69</ele>
        <time>2025-11-14T14:19:26Z</time>
      </trkpt>
      <trkpt lat="43.74572" lon="6.34072">
        <ele>868.21</ele>
        <time>2025-11-14T14:19:27Z</time>
      </trkpt>
      <trkpt lat="43.74582" lon="6.34043">
        <ele>866.77</ele>
        <time>2025-11-14T14:19:31Z</time>
      </trkpt>
      <trkpt lat="43.74582" lon="6.34037">
        <ele>866.29</ele>
        <time>2025-11-14T14:19:32Z</time>
      </trkpt>
      <trkpt lat="43.74581" lon="6.34027">
        <ele>865.8</ele>
        <time>2025-11-14T14:19:33Z</time>
      </trkpt>
      <trkpt lat="43.74578" lon="6.34018">
        <ele>864.84</ele>
        <time>2025-11-14T14:19:34Z</time>
      </trkpt>
      <trkpt lat="43.74574" lon="6.34009">
        <ele>863.4</ele>
        <time>2025-11-14T14:19:35Z</time>
      </trkpt>
      <trkpt lat="43.7457" lon="6.33999">
        <ele>862.92</ele>
        <time>2025-11-14T14:19:36Z</time>
      </trkpt>
      <trkpt lat="43.74565" lon="6.33987">
        <ele>861.96</ele>
        <time>2025-11-14T14:19:37Z</time>
      </trkpt>
      <trkpt lat="43.74563" lon="6.33979">
        <ele>861.48</ele>
        <time>2025-11-14T14:19:38Z</time>
      </trkpt>
      <trkpt lat="43.7456" lon="6.33967">
        <ele>861</ele>
        <time>2025-11-14T14:19:39Z</time>
      </trkpt>
      <trkpt lat="43.74556" lon="6.33947">
        <ele>859.56</ele>
        <time>2025-11-14T14:19:41Z</time>
      </trkpt>
      <trkpt lat="43.74556" lon="6.33936">
        <ele>859.08</ele>
        <time>2025-11-14T14:19:42Z</time>
      </trkpt>
      <trkpt lat="43.74557" lon="6.33928">
        <ele>858.59</ele>
        <time>2025-11-14T14:19:43Z</time>
      </trkpt>
      <trkpt lat="43.74559" lon="6.33918">
        <ele>858.59</ele>
        <time>2025-11-14T14:19:44Z</time>
      </trkpt>
      <trkpt lat="43.74564" lon="6.33902">
        <ele>857.15</ele>
        <time>2025-11-14T14:19:46Z</time>
      </trkpt>
      <trkpt lat="43.74564" lon="6.33893">
        <ele>856.67</ele>
        <time>2025-11-14T14:19:47Z</time>
      </trkpt>
      <trkpt lat="43.74562" lon="6.33884">
        <ele>856.19</ele>
        <time>2025-11-14T14:19:48Z</time>
      </trkpt>
      <trkpt lat="43.74559" lon="6.33875">
        <ele>855.71</ele>
        <time>2025-11-14T14:19:49Z</time>
      </trkpt>
      <trkpt lat="43.74556" lon="6.33866">
        <ele>855.71</ele>
        <time>2025-11-14T14:19:50Z</time>
      </trkpt>
      <trkpt lat="43.74532" lon="6.33807">
        <ele>853.31</ele>
        <time>2025-11-14T14:19:57Z</time>
      </trkpt>
      <trkpt lat="43.74532" lon="6.338">
        <ele>853.31</ele>
        <time>2025-11-14T14:19:58Z</time>
      </trkpt>
      <trkpt lat="43.74534" lon="6.33792">
        <ele>853.31</ele>
        <time>2025-11-14T14:19:59Z</time>
      </trkpt>
      <trkpt lat="43.74537" lon="6.33784">
        <ele>853.31</ele>
        <time>2025-11-14T14:20:00Z</time>
      </trkpt>
      <trkpt lat="43.7454" lon="6.33778">
        <ele>853.31</ele>
        <time>2025-11-14T14:20:01Z</time>
      </trkpt>
      <trkpt lat="43.74542" lon="6.3377">
        <ele>853.31</ele>
        <time>2025-11-14T14:20:02Z</time>
      </trkpt>
      <trkpt lat="43.74544" lon="6.33761">
        <ele>852.83</ele>
        <time>2025-11-14T14:20:03Z</time>
      </trkpt>
      <trkpt lat="43.74546" lon="6.33752">
        <ele>852.35</ele>
        <time>2025-11-14T14:20:04Z</time>
      </trkpt>
      <trkpt lat="43.74548" lon="6.33744">
        <ele>851.87</ele>
        <time>2025-11-14T14:20:05Z</time>
      </trkpt>
      <trkpt lat="43.74552" lon="6.33736">
        <ele>851.87</ele>
        <time>2025-11-14T14:20:06Z</time>
      </trkpt>
      <trkpt lat="43.74558" lon="6.33728">
        <ele>851.38</ele>
        <time>2025-11-14T14:20:07Z</time>
      </trkpt>
      <trkpt lat="43.74562" lon="6.33723">
        <ele>851.87</ele>
        <time>2025-11-14T14:20:08Z</time>
      </trkpt>
      <trkpt lat="43.74568" lon="6.33717">
        <ele>851.38</ele>
        <time>2025-11-14T14:20:09Z</time>
      </trkpt>
      <trkpt lat="43.74572" lon="6.3371">
        <ele>850.9</ele>
        <time>2025-11-14T14:20:10Z</time>
      </trkpt>
      <trkpt lat="43.74575" lon="6.33701">
        <ele>850.42</ele>
        <time>2025-11-14T14:20:11Z</time>
      </trkpt>
      <trkpt lat="43.74576" lon="6.33691">
        <ele>849.94</ele>
        <time>2025-11-14T14:20:12Z</time>
      </trkpt>
      <trkpt lat="43.74577" lon="6.33681">
        <ele>849.46</ele>
        <time>2025-11-14T14:20:13Z</time>
      </trkpt>
      <trkpt lat="43.74578" lon="6.33672">
        <ele>849.94</ele>
        <time>2025-11-14T14:20:14Z</time>
      </trkpt>
      <trkpt lat="43.74579" lon="6.33664">
        <ele>849.94</ele>
        <time>2025-11-14T14:20:15Z</time>
      </trkpt>
      <trkpt lat="43.74583" lon="6.33655">
        <ele>849.94</ele>
        <time>2025-11-14T14:20:16Z</time>
      </trkpt>
      <trkpt lat="43.74587" lon="6.33649">
        <ele>849.94</ele>
        <time>2025-11-14T14:20:17Z</time>
      </trkpt>
      <trkpt lat="43.74593" lon="6.33643">
        <ele>849.46</ele>
        <time>2025-11-14T14:20:18Z</time>
      </trkpt>
      <trkpt lat="43.74598" lon="6.33638">
        <ele>848.98</ele>
        <time>2025-11-14T14:20:19Z</time>
      </trkpt>
      <trkpt lat="43.7462" lon="6.33619">
        <ele>848.02</ele>
        <time>2025-11-14T14:20:23Z</time>
      </trkpt>
      <trkpt lat="43.74626" lon="6.33615">
        <ele>848.02</ele>
        <time>2025-11-14T14:20:24Z</time>
      </trkpt>
      <trkpt lat="43.74632" lon="6.33612">
        <ele>847.54</ele>
        <time>2025-11-14T14:20:25Z</time>
      </trkpt>
      <trkpt lat="43.74637" lon="6.33608">
        <ele>847.54</ele>
        <time>2025-11-14T14:20:26Z</time>
      </trkpt>
      <trkpt lat="43.74644" lon="6.33602">
        <ele>847.06</ele>
        <time>2025-11-14T14:20:27Z</time>
      </trkpt>
      <trkpt lat="43.74658" lon="6.33587">
        <ele>846.1</ele>
        <time>2025-11-14T14:20:30Z</time>
      </trkpt>
      <trkpt lat="43.74662" lon="6.33581">
        <ele>846.1</ele>
        <time>2025-11-14T14:20:31Z</time>
      </trkpt>
      <trkpt lat="43.74665" lon="6.33574">
        <ele>846.1</ele>
        <time>2025-11-14T14:20:32Z</time>
      </trkpt>
      <trkpt lat="43.74667" lon="6.33567">
        <ele>846.1</ele>
        <time>2025-11-14T14:20:33Z</time>
      </trkpt>
      <trkpt lat="43.74669" lon="6.33561">
        <ele>846.1</ele>
        <time>2025-11-14T14:20:34Z</time>
      </trkpt>
      <trkpt lat="43.74671" lon="6.33552">
        <ele>846.1</ele>
        <time>2025-11-14T14:20:35Z</time>
      </trkpt>
      <trkpt lat="43.74671" lon="6.33547">
        <ele>846.1</ele>
        <time>2025-11-14T14:20:36Z</time>
      </trkpt>
      <trkpt lat="43.74671" lon="6.3354">
        <ele>846.1</ele>
        <time>2025-11-14T14:20:37Z</time>
      </trkpt>
      <trkpt lat="43.7467" lon="6.33532">
        <ele>846.1</ele>
        <time>2025-11-14T14:20:38Z</time>
      </trkpt>
      <trkpt lat="43.74667" lon="6.33526">
        <ele>846.1</ele>
        <time>2025-11-14T14:20:39Z</time>
      </trkpt>
      <trkpt lat="43.74665" lon="6.3352">
        <ele>846.1</ele>
        <time>2025-11-14T14:20:40Z</time>
      </trkpt>
      <trkpt lat="43.74661" lon="6.33514">
        <ele>846.1</ele>
        <time>2025-11-14T14:20:41Z</time>
      </trkpt>
      <trkpt lat="43.74645" lon="6.33499">
        <ele>845.62</ele>
        <time>2025-11-14T14:20:48Z</time>
      </trkpt>
      <trkpt lat="43.74643" lon="6.335">
        <ele>845.62</ele>
        <time>2025-11-14T14:20:57Z</time>
      </trkpt>
      <trkpt lat="43.74642" lon="6.33497">
        <ele>845.62</ele>
        <time>2025-11-14T14:21:10Z</time>
      </trkpt>
      <trkpt lat="43.74643" lon="6.33497">
        <ele>845.62</ele>
        <time>2025-11-14T14:21:23Z</time>
      </trkpt>
      <trkpt lat="43.74643" lon="6.33495">
        <ele>845.62</ele>
        <time>2025-11-14T14:21:27Z</time>
      </trkpt>
      <trkpt lat="43.74644" lon="6.33494">
        <ele>845.62</ele>
        <time>2025-11-14T14:21:28Z</time>
      </trkpt>
      <trkpt lat="43.74646" lon="6.33493">
        <ele>845.62</ele>
        <time>2025-11-14T14:21:29Z</time>
      </trkpt>
      <trkpt lat="43.74647" lon="6.33491">
        <ele>845.62</ele>
        <time>2025-11-14T14:21:30Z</time>
      </trkpt>
      <trkpt lat="43.74649" lon="6.33488">
        <ele>845.62</ele>
        <time>2025-11-14T14:21:31Z</time>
      </trkpt>
      <trkpt lat="43.7465" lon="6.33485">
        <ele>845.62</ele>
        <time>2025-11-14T14:21:32Z</time>
      </trkpt>
      <trkpt lat="43.74652" lon="6.33481">
        <ele>845.62</ele>
        <time>2025-11-14T14:21:33Z</time>
      </trkpt>
      <trkpt lat="43.74652" lon="6.33478">
        <ele>845.62</ele>
        <time>2025-11-14T14:21:34Z</time>
      </trkpt>
      <trkpt lat="43.74653" lon="6.33473">
        <ele>845.62</ele>
        <time>2025-11-14T14:21:35Z</time>
      </trkpt>
      <trkpt lat="43.74662" lon="6.33447">
        <ele>845.14</ele>
        <time>2025-11-14T14:21:40Z</time>
      </trkpt>
      <trkpt lat="43.74681" lon="6.33409">
        <ele>842.25</ele>
        <time>2025-11-14T14:21:46Z</time>
      </trkpt>
      <trkpt lat="43.74683" lon="6.33401">
        <ele>842.25</ele>
        <time>2025-11-14T14:21:47Z</time>
      </trkpt>
      <trkpt lat="43.74683" lon="6.33392">
        <ele>842.25</ele>
        <time>2025-11-14T14:21:48Z</time>
      </trkpt>
      <trkpt lat="43.74683" lon="6.33382">
        <ele>841.77</ele>
        <time>2025-11-14T14:21:49Z</time>
      </trkpt>
      <trkpt lat="43.74681" lon="6.33371">
        <ele>841.77</ele>
        <time>2025-11-14T14:21:50Z</time>
      </trkpt>
      <trkpt lat="43.7468" lon="6.33363">
        <ele>840.81</ele>
        <time>2025-11-14T14:21:51Z</time>
      </trkpt>
      <trkpt lat="43.74676" lon="6.33342">
        <ele>840.33</ele>
        <time>2025-11-14T14:21:53Z</time>
      </trkpt>
      <trkpt lat="43.74674" lon="6.33322">
        <ele>839.85</ele>
        <time>2025-11-14T14:21:55Z</time>
      </trkpt>
      <trkpt lat="43.74674" lon="6.33312">
        <ele>839.85</ele>
        <time>2025-11-14T14:21:56Z</time>
      </trkpt>
      <trkpt lat="43.74675" lon="6.33302">
        <ele>838.89</ele>
        <time>2025-11-14T14:21:57Z</time>
      </trkpt>
      <trkpt lat="43.74678" lon="6.33291">
        <ele>838.41</ele>
        <time>2025-11-14T14:21:58Z</time>
      </trkpt>
      <trkpt lat="43.74681" lon="6.33285">
        <ele>837.45</ele>
        <time>2025-11-14T14:21:59Z</time>
      </trkpt>
      <trkpt lat="43.74686" lon="6.33277">
        <ele>837.45</ele>
        <time>2025-11-14T14:22:00Z</time>
      </trkpt>
      <trkpt lat="43.74695" lon="6.3326">
        <ele>836.96</ele>
        <time>2025-11-14T14:22:02Z</time>
      </trkpt>
      <trkpt lat="43.74697" lon="6.33251">
        <ele>836.48</ele>
        <time>2025-11-14T14:22:03Z</time>
      </trkpt>
      <trkpt lat="43.74699" lon="6.33241">
        <ele>836.48</ele>
        <time>2025-11-14T14:22:04Z</time>
      </trkpt>
      <trkpt lat="43.74699" lon="6.33231">
        <ele>836</ele>
        <time>2025-11-14T14:22:05Z</time>
      </trkpt>
      <trkpt lat="43.74699" lon="6.3322">
        <ele>836</ele>
        <time>2025-11-14T14:22:06Z</time>
      </trkpt>
      <trkpt lat="43.74699" lon="6.33143">
        <ele>835.52</ele>
        <time>2025-11-14T14:22:15Z</time>
      </trkpt>
      <trkpt lat="43.74699" lon="6.33122">
        <ele>835.04</ele>
        <time>2025-11-14T14:22:18Z</time>
      </trkpt>
      <trkpt lat="43.74699" lon="6.33116">
        <ele>835.04</ele>
        <time>2025-11-14T14:22:19Z</time>
      </trkpt>
      <trkpt lat="43.747" lon="6.3311">
        <ele>835.04</ele>
        <time>2025-11-14T14:22:20Z</time>
      </trkpt>
      <trkpt lat="43.74701" lon="6.33104">
        <ele>835.04</ele>
        <time>2025-11-14T14:22:21Z</time>
      </trkpt>
      <trkpt lat="43.74703" lon="6.33098">
        <ele>834.56</ele>
        <time>2025-11-14T14:22:22Z</time>
      </trkpt>
      <trkpt lat="43.74729" lon="6.33064">
        <ele>833.6</ele>
        <time>2025-11-14T14:22:31Z</time>
      </trkpt>
      <trkpt lat="43.74733" lon="6.3306">
        <ele>833.6</ele>
        <time>2025-11-14T14:22:32Z</time>
      </trkpt>
      <trkpt lat="43.74738" lon="6.33055">
        <ele>833.12</ele>
        <time>2025-11-14T14:22:33Z</time>
      </trkpt>
      <trkpt lat="43.74741" lon="6.33051">
        <ele>833.12</ele>
        <time>2025-11-14T14:22:34Z</time>
      </trkpt>
      <trkpt lat="43.74744" lon="6.33046">
        <ele>833.12</ele>
        <time>2025-11-14T14:22:35Z</time>
      </trkpt>
      <trkpt lat="43.74748" lon="6.33036">
        <ele>831.68</ele>
        <time>2025-11-14T14:22:37Z</time>
      </trkpt>
      <trkpt lat="43.7475" lon="6.33026">
        <ele>832.64</ele>
        <time>2025-11-14T14:22:38Z</time>
      </trkpt>
      <trkpt lat="43.74751" lon="6.33019">
        <ele>832.64</ele>
        <time>2025-11-14T14:22:39Z</time>
      </trkpt>
      <trkpt lat="43.74752" lon="6.33013">
        <ele>832.64</ele>
        <time>2025-11-14T14:22:40Z</time>
      </trkpt>
      <trkpt lat="43.74752" lon="6.33006">
        <ele>832.64</ele>
        <time>2025-11-14T14:22:41Z</time>
      </trkpt>
      <trkpt lat="43.74758" lon="6.32932">
        <ele>831.68</ele>
        <time>2025-11-14T14:22:51Z</time>
      </trkpt>
      <trkpt lat="43.74759" lon="6.32926">
        <ele>831.68</ele>
        <time>2025-11-14T14:22:52Z</time>
      </trkpt>
      <trkpt lat="43.74762" lon="6.3292">
        <ele>831.68</ele>
        <time>2025-11-14T14:22:53Z</time>
      </trkpt>
      <trkpt lat="43.74765" lon="6.32917">
        <ele>831.68</ele>
        <time>2025-11-14T14:22:54Z</time>
      </trkpt>
      <trkpt lat="43.74768" lon="6.32913">
        <ele>831.68</ele>
        <time>2025-11-14T14:22:55Z</time>
      </trkpt>
      <trkpt lat="43.74771" lon="6.3291">
        <ele>830.72</ele>
        <time>2025-11-14T14:22:56Z</time>
      </trkpt>
      <trkpt lat="43.74787" lon="6.3289">
        <ele>830.24</ele>
        <time>2025-11-14T14:23:05Z</time>
      </trkpt>
      <trkpt lat="43.74786" lon="6.32891">
        <ele>830.24</ele>
        <time>2025-11-14T14:23:24Z</time>
      </trkpt>
      <trkpt lat="43.74789" lon="6.32888">
        <ele>830.24</ele>
        <time>2025-11-14T14:23:37Z</time>
      </trkpt>
      <trkpt lat="43.74797" lon="6.32875">
        <ele>830.24</ele>
        <time>2025-11-14T14:23:41Z</time>
      </trkpt>
      <trkpt lat="43.74833" lon="6.32835">
        <ele>829.76</ele>
        <time>2025-11-14T14:23:53Z</time>
      </trkpt>
      <trkpt lat="43.74837" lon="6.32835">
        <ele>829.76</ele>
        <time>2025-11-14T14:23:54Z</time>
      </trkpt>
      <trkpt lat="43.7487" lon="6.32851">
        <ele>829.76</ele>
        <time>2025-11-14T14:24:04Z</time>
      </trkpt>
      <trkpt lat="43.74876" lon="6.32853">
        <ele>829.76</ele>
        <time>2025-11-14T14:24:12Z</time>
      </trkpt>
      <trkpt lat="43.74876" lon="6.32852">
        <ele>829.76</ele>
        <time>2025-11-14T14:24:23Z</time>
      </trkpt>
      <trkpt lat="43.74877" lon="6.32852">
        <ele>830.72</ele>
        <time>2025-11-14T14:24:46Z</time>
      </trkpt>
      <trkpt lat="43.7488" lon="6.32854">
        <ele>831.2</ele>
        <time>2025-11-14T14:24:54Z</time>
      </trkpt>
      <trkpt lat="43.74881" lon="6.32856">
        <ele>831.2</ele>
        <time>2025-11-14T14:24:55Z</time>
      </trkpt>
      <trkpt lat="43.74882" lon="6.32858">
        <ele>830.72</ele>
        <time>2025-11-14T14:24:56Z</time>
      </trkpt>
      <trkpt lat="43.74906" lon="6.32884">
        <ele>831.68</ele>
        <time>2025-11-14T14:25:04Z</time>
      </trkpt>
      <trkpt lat="43.74941" lon="6.3291">
        <ele>833.12</ele>
        <time>2025-11-14T14:25:15Z</time>
      </trkpt>
      <trkpt lat="43.74978" lon="6.32932">
        <ele>835.52</ele>
        <time>2025-11-14T14:25:28Z</time>
      </trkpt>
      <trkpt lat="43.75022" lon="6.32959">
        <ele>837.93</ele>
        <time>2025-11-14T14:25:43Z</time>
      </trkpt>
      <trkpt lat="43.7503" lon="6.32969">
        <ele>836</ele>
        <time>2025-11-14T14:25:46Z</time>
      </trkpt>
      <trkpt lat="43.75032" lon="6.32972">
        <ele>840.81</ele>
        <time>2025-11-14T14:25:47Z</time>
      </trkpt>
      <trkpt lat="43.75033" lon="6.32975">
        <ele>840.81</ele>
        <time>2025-11-14T14:25:48Z</time>
      </trkpt>
      <trkpt lat="43.75056" lon="6.33018">
        <ele>842.25</ele>
        <time>2025-11-14T14:26:01Z</time>
      </trkpt>
      <trkpt lat="43.75087" lon="6.33046">
        <ele>844.18</ele>
        <time>2025-11-14T14:26:12Z</time>
      </trkpt>
      <trkpt lat="43.75134" lon="6.33064">
        <ele>845.62</ele>
        <time>2025-11-14T14:26:26Z</time>
      </trkpt>
      <trkpt lat="43.75156" lon="6.33048">
        <ele>846.1</ele>
        <time>2025-11-14T14:26:33Z</time>
      </trkpt>
      <trkpt lat="43.75153" lon="6.33014">
        <ele>846.58</ele>
        <time>2025-11-14T14:26:40Z</time>
      </trkpt>
      <trkpt lat="43.75142" lon="6.32954">
        <ele>848.98</ele>
        <time>2025-11-14T14:26:53Z</time>
      </trkpt>
      <trkpt lat="43.75153" lon="6.32903">
        <ele>851.87</ele>
        <time>2025-11-14T14:27:04Z</time>
      </trkpt>
      <trkpt lat="43.75176" lon="6.32853">
        <ele>854.27</ele>
        <time>2025-11-14T14:27:16Z</time>
      </trkpt>
      <trkpt lat="43.75204" lon="6.32836">
        <ele>856.19</ele>
        <time>2025-11-14T14:27:25Z</time>
      </trkpt>
      <trkpt lat="43.75256" lon="6.32842">
        <ele>857.15</ele>
        <time>2025-11-14T14:27:38Z</time>
      </trkpt>
      <trkpt lat="43.753" lon="6.32842">
        <ele>858.59</ele>
        <time>2025-11-14T14:27:49Z</time>
      </trkpt>
      <trkpt lat="43.75312" lon="6.3284">
        <ele>858.59</ele>
        <time>2025-11-14T14:27:52Z</time>
      </trkpt>
      <trkpt lat="43.75316" lon="6.32839">
        <ele>859.08</ele>
        <time>2025-11-14T14:27:53Z</time>
      </trkpt>
      <trkpt lat="43.75319" lon="6.32836">
        <ele>859.08</ele>
        <time>2025-11-14T14:27:54Z</time>
      </trkpt>
      <trkpt lat="43.75322" lon="6.32832">
        <ele>859.08</ele>
        <time>2025-11-14T14:27:55Z</time>
      </trkpt>
      <trkpt lat="43.75325" lon="6.32828">
        <ele>859.08</ele>
        <time>2025-11-14T14:27:56Z</time>
      </trkpt>
      <trkpt lat="43.75327" lon="6.32823">
        <ele>859.08</ele>
        <time>2025-11-14T14:27:57Z</time>
      </trkpt>
      <trkpt lat="43.75329" lon="6.32818">
        <ele>858.59</ele>
        <time>2025-11-14T14:27:58Z</time>
      </trkpt>
      <trkpt lat="43.7533" lon="6.32812">
        <ele>859.08</ele>
        <time>2025-11-14T14:27:59Z</time>
      </trkpt>
      <trkpt lat="43.7533" lon="6.32807">
        <ele>859.08</ele>
        <time>2025-11-14T14:28:00Z</time>
      </trkpt>
      <trkpt lat="43.75335" lon="6.32754">
        <ele>859.56</ele>
        <time>2025-11-14T14:28:10Z</time>
      </trkpt>
      <trkpt lat="43.75341" lon="6.32709">
        <ele>859.56</ele>
        <time>2025-11-14T14:28:18Z</time>
      </trkpt>
      <trkpt lat="43.75343" lon="6.32704">
        <ele>859.56</ele>
        <time>2025-11-14T14:28:19Z</time>
      </trkpt>
      <trkpt lat="43.75345" lon="6.32699">
        <ele>859.56</ele>
        <time>2025-11-14T14:28:20Z</time>
      </trkpt>
      <trkpt lat="43.75348" lon="6.32694">
        <ele>859.56</ele>
        <time>2025-11-14T14:28:21Z</time>
      </trkpt>
      <trkpt lat="43.75351" lon="6.3269">
        <ele>859.56</ele>
        <time>2025-11-14T14:28:22Z</time>
      </trkpt>
      <trkpt lat="43.75355" lon="6.32686">
        <ele>859.56</ele>
        <time>2025-11-14T14:28:23Z</time>
      </trkpt>
      <trkpt lat="43.75359" lon="6.32684">
        <ele>859.56</ele>
        <time>2025-11-14T14:28:24Z</time>
      </trkpt>
      <trkpt lat="43.75365" lon="6.32682">
        <ele>859.56</ele>
        <time>2025-11-14T14:28:25Z</time>
      </trkpt>
      <trkpt lat="43.75368" lon="6.32681">
        <ele>859.56</ele>
        <time>2025-11-14T14:28:26Z</time>
      </trkpt>
      <trkpt lat="43.75373" lon="6.3268">
        <ele>859.56</ele>
        <time>2025-11-14T14:28:27Z</time>
      </trkpt>
      <trkpt lat="43.75378" lon="6.3268">
        <ele>859.56</ele>
        <time>2025-11-14T14:28:28Z</time>
      </trkpt>
      <trkpt lat="43.75402" lon="6.32679">
        <ele>859.56</ele>
        <time>2025-11-14T14:28:33Z</time>
      </trkpt>
      <trkpt lat="43.75406" lon="6.32677">
        <ele>859.56</ele>
        <time>2025-11-14T14:28:34Z</time>
      </trkpt>
      <trkpt lat="43.75409" lon="6.32674">
        <ele>859.56</ele>
        <time>2025-11-14T14:28:35Z</time>
      </trkpt>
      <trkpt lat="43.75412" lon="6.32671">
        <ele>859.56</ele>
        <time>2025-11-14T14:28:36Z</time>
      </trkpt>
      <trkpt lat="43.75415" lon="6.32667">
        <ele>859.56</ele>
        <time>2025-11-14T14:28:37Z</time>
      </trkpt>
      <trkpt lat="43.75418" lon="6.32662">
        <ele>859.56</ele>
        <time>2025-11-14T14:28:38Z</time>
      </trkpt>
      <trkpt lat="43.7542" lon="6.32656">
        <ele>859.56</ele>
        <time>2025-11-14T14:28:39Z</time>
      </trkpt>
      <trkpt lat="43.75421" lon="6.3265">
        <ele>858.59</ele>
        <time>2025-11-14T14:28:40Z</time>
      </trkpt>
      <trkpt lat="43.75422" lon="6.32644">
        <ele>858.59</ele>
        <time>2025-11-14T14:28:41Z</time>
      </trkpt>
      <trkpt lat="43.75422" lon="6.32636">
        <ele>858.59</ele>
        <time>2025-11-14T14:28:42Z</time>
      </trkpt>
      <trkpt lat="43.75421" lon="6.32631">
        <ele>857.63</ele>
        <time>2025-11-14T14:28:43Z</time>
      </trkpt>
      <trkpt lat="43.7542" lon="6.32625">
        <ele>857.63</ele>
        <time>2025-11-14T14:28:44Z</time>
      </trkpt>
      <trkpt lat="43.75419" lon="6.3262">
        <ele>857.15</ele>
        <time>2025-11-14T14:28:45Z</time>
      </trkpt>
      <trkpt lat="43.75418" lon="6.32608">
        <ele>856.67</ele>
        <time>2025-11-14T14:28:47Z</time>
      </trkpt>
      <trkpt lat="43.7542" lon="6.32591">
        <ele>856.19</ele>
        <time>2025-11-14T14:28:50Z</time>
      </trkpt>
      <trkpt lat="43.75421" lon="6.32587">
        <ele>855.71</ele>
        <time>2025-11-14T14:28:51Z</time>
      </trkpt>
      <trkpt lat="43.75424" lon="6.32582">
        <ele>855.71</ele>
        <time>2025-11-14T14:28:52Z</time>
      </trkpt>
      <trkpt lat="43.75427" lon="6.32578">
        <ele>855.23</ele>
        <time>2025-11-14T14:28:53Z</time>
      </trkpt>
      <trkpt lat="43.75431" lon="6.32574">
        <ele>855.23</ele>
        <time>2025-11-14T14:28:54Z</time>
      </trkpt>
      <trkpt lat="43.75435" lon="6.32571">
        <ele>854.27</ele>
        <time>2025-11-14T14:28:55Z</time>
      </trkpt>
      <trkpt lat="43.75441" lon="6.32569">
        <ele>853.79</ele>
        <time>2025-11-14T14:28:56Z</time>
      </trkpt>
      <trkpt lat="43.75445" lon="6.32567">
        <ele>853.79</ele>
        <time>2025-11-14T14:28:57Z</time>
      </trkpt>
      <trkpt lat="43.75451" lon="6.32565">
        <ele>853.31</ele>
        <time>2025-11-14T14:28:58Z</time>
      </trkpt>
      <trkpt lat="43.75484" lon="6.32553">
        <ele>849.94</ele>
        <time>2025-11-14T14:29:03Z</time>
      </trkpt>
      <trkpt lat="43.75492" lon="6.32551">
        <ele>849.94</ele>
        <time>2025-11-14T14:29:04Z</time>
      </trkpt>
      <trkpt lat="43.75505" lon="6.32545">
        <ele>848.98</ele>
        <time>2025-11-14T14:29:06Z</time>
      </trkpt>
      <trkpt lat="43.75513" lon="6.3254">
        <ele>848.02</ele>
        <time>2025-11-14T14:29:07Z</time>
      </trkpt>
      <trkpt lat="43.75519" lon="6.32533">
        <ele>847.06</ele>
        <time>2025-11-14T14:29:08Z</time>
      </trkpt>
      <trkpt lat="43.7553" lon="6.32519">
        <ele>846.1</ele>
        <time>2025-11-14T14:29:10Z</time>
      </trkpt>
      <trkpt lat="43.75559" lon="6.32483">
        <ele>843.21</ele>
        <time>2025-11-14T14:29:15Z</time>
      </trkpt>
      <trkpt lat="43.75565" lon="6.32477">
        <ele>843.21</ele>
        <time>2025-11-14T14:29:16Z</time>
      </trkpt>
      <trkpt lat="43.75584" lon="6.32457">
        <ele>841.77</ele>
        <time>2025-11-14T14:29:19Z</time>
      </trkpt>
      <trkpt lat="43.756" lon="6.3244">
        <ele>840.81</ele>
        <time>2025-11-14T14:29:22Z</time>
      </trkpt>
      <trkpt lat="43.75604" lon="6.32433">
        <ele>839.85</ele>
        <time>2025-11-14T14:29:23Z</time>
      </trkpt>
      <trkpt lat="43.75608" lon="6.32426">
        <ele>839.37</ele>
        <time>2025-11-14T14:29:24Z</time>
      </trkpt>
      <trkpt lat="43.75609" lon="6.32417">
        <ele>839.37</ele>
        <time>2025-11-14T14:29:25Z</time>
      </trkpt>
      <trkpt lat="43.75609" lon="6.32407">
        <ele>838.41</ele>
        <time>2025-11-14T14:29:26Z</time>
      </trkpt>
      <trkpt lat="43.75608" lon="6.32399">
        <ele>838.41</ele>
        <time>2025-11-14T14:29:27Z</time>
      </trkpt>
      <trkpt lat="43.75607" lon="6.32391">
        <ele>838.41</ele>
        <time>2025-11-14T14:29:28Z</time>
      </trkpt>
      <trkpt lat="43.75603" lon="6.32354">
        <ele>836.48</ele>
        <time>2025-11-14T14:29:32Z</time>
      </trkpt>
      <trkpt lat="43.75604" lon="6.32344">
        <ele>836</ele>
        <time>2025-11-14T14:29:33Z</time>
      </trkpt>
      <trkpt lat="43.75604" lon="6.32338">
        <ele>836</ele>
        <time>2025-11-14T14:29:34Z</time>
      </trkpt>
      <trkpt lat="43.75607" lon="6.32323">
        <ele>835.52</ele>
        <time>2025-11-14T14:29:36Z</time>
      </trkpt>
      <trkpt lat="43.75611" lon="6.32304">
        <ele>835.04</ele>
        <time>2025-11-14T14:29:39Z</time>
      </trkpt>
      <trkpt lat="43.75612" lon="6.32299">
        <ele>835.04</ele>
        <time>2025-11-14T14:29:40Z</time>
      </trkpt>
      <trkpt lat="43.75612" lon="6.32293">
        <ele>834.56</ele>
        <time>2025-11-14T14:29:41Z</time>
      </trkpt>
      <trkpt lat="43.75609" lon="6.32248">
        <ele>833.6</ele>
        <time>2025-11-14T14:29:51Z</time>
      </trkpt>
      <trkpt lat="43.75608" lon="6.3219">
        <ele>832.64</ele>
        <time>2025-11-14T14:30:03Z</time>
      </trkpt>
      <trkpt lat="43.75609" lon="6.32178">
        <ele>832.16</ele>
        <time>2025-11-14T14:30:05Z</time>
      </trkpt>
      <trkpt lat="43.75608" lon="6.32114">
        <ele>830.72</ele>
        <time>2025-11-14T14:30:15Z</time>
      </trkpt>
      <trkpt lat="43.75605" lon="6.321">
        <ele>830.72</ele>
        <time>2025-11-14T14:30:17Z</time>
      </trkpt>
      <trkpt lat="43.75603" lon="6.32095">
        <ele>830.72</ele>
        <time>2025-11-14T14:30:18Z</time>
      </trkpt>
      <trkpt lat="43.75601" lon="6.32089">
        <ele>830.24</ele>
        <time>2025-11-14T14:30:19Z</time>
      </trkpt>
      <trkpt lat="43.75599" lon="6.32084">
        <ele>830.24</ele>
        <time>2025-11-14T14:30:20Z</time>
      </trkpt>
      <trkpt lat="43.75597" lon="6.3208">
        <ele>830.24</ele>
        <time>2025-11-14T14:30:21Z</time>
      </trkpt>
      <trkpt lat="43.75595" lon="6.32076">
        <ele>830.24</ele>
        <time>2025-11-14T14:30:22Z</time>
      </trkpt>
      <trkpt lat="43.75594" lon="6.32075">
        <ele>830.24</ele>
        <time>2025-11-14T14:30:23Z</time>
      </trkpt>
      <trkpt lat="43.75589" lon="6.32071">
        <ele>830.24</ele>
        <time>2025-11-14T14:30:26Z</time>
      </trkpt>
      <trkpt lat="43.75589" lon="6.3207">
        <ele>830.24</ele>
        <time>2025-11-14T14:30:27Z</time>
      </trkpt>
      <trkpt lat="43.75587" lon="6.32068">
        <ele>830.24</ele>
        <time>2025-11-14T14:30:36Z</time>
      </trkpt>
      <trkpt lat="43.75587" lon="6.32068">
        <ele>829.76</ele>
        <time>2025-11-14T14:30:53Z</time>
      </trkpt>
      <trkpt lat="43.75588" lon="6.32068">
        <ele>829.76</ele>
        <time>2025-11-14T14:31:17Z</time>
      </trkpt>
      <trkpt lat="43.75588" lon="6.32067">
        <ele>829.76</ele>
        <time>2025-11-14T14:31:35Z</time>
      </trkpt>
      <trkpt lat="43.75588" lon="6.32066">
        <ele>829.76</ele>
        <time>2025-11-14T14:31:48Z</time>
      </trkpt>
      <trkpt lat="43.75588" lon="6.32066">
        <ele>829.76</ele>
        <time>2025-11-14T14:32:09Z</time>
      </trkpt>
      <trkpt lat="43.75588" lon="6.32063">
        <ele>829.27</ele>
        <time>2025-11-14T14:32:16Z</time>
      </trkpt>
      <trkpt lat="43.75595" lon="6.32033">
        <ele>827.83</ele>
        <time>2025-11-14T14:32:26Z</time>
      </trkpt>
      <trkpt lat="43.75598" lon="6.3203">
        <ele>827.83</ele>
        <time>2025-11-14T14:32:27Z</time>
      </trkpt>
      <trkpt lat="43.75602" lon="6.32029">
        <ele>827.83</ele>
        <time>2025-11-14T14:32:28Z</time>
      </trkpt>
      <trkpt lat="43.75607" lon="6.3203">
        <ele>826.87</ele>
        <time>2025-11-14T14:32:29Z</time>
      </trkpt>
      <trkpt lat="43.75613" lon="6.32032">
        <ele>826.87</ele>
        <time>2025-11-14T14:32:30Z</time>
      </trkpt>
      <trkpt lat="43.75617" lon="6.32035">
        <ele>826.39</ele>
        <time>2025-11-14T14:32:31Z</time>
      </trkpt>
      <trkpt lat="43.75621" lon="6.32038">
        <ele>826.39</ele>
        <time>2025-11-14T14:32:32Z</time>
      </trkpt>
      <trkpt lat="43.75627" lon="6.32043">
        <ele>825.91</ele>
        <time>2025-11-14T14:32:33Z</time>
      </trkpt>
      <trkpt lat="43.75632" lon="6.32045">
        <ele>825.43</ele>
        <time>2025-11-14T14:32:34Z</time>
      </trkpt>
      <trkpt lat="43.75637" lon="6.32048">
        <ele>825.43</ele>
        <time>2025-11-14T14:32:35Z</time>
      </trkpt>
      <trkpt lat="43.75646" lon="6.32053">
        <ele>824.95</ele>
        <time>2025-11-14T14:32:37Z</time>
      </trkpt>
      <trkpt lat="43.75652" lon="6.32055">
        <ele>823.99</ele>
        <time>2025-11-14T14:32:38Z</time>
      </trkpt>
      <trkpt lat="43.75658" lon="6.32056">
        <ele>823.51</ele>
        <time>2025-11-14T14:32:39Z</time>
      </trkpt>
      <trkpt lat="43.75661" lon="6.32057">
        <ele>823.51</ele>
        <time>2025-11-14T14:32:40Z</time>
      </trkpt>
      <trkpt lat="43.75667" lon="6.32058">
        <ele>823.03</ele>
        <time>2025-11-14T14:32:41Z</time>
      </trkpt>
      <trkpt lat="43.75679" lon="6.32061">
        <ele>822.55</ele>
        <time>2025-11-14T14:32:43Z</time>
      </trkpt>
      <trkpt lat="43.75713" lon="6.32075">
        <ele>819.66</ele>
        <time>2025-11-14T14:32:48Z</time>
      </trkpt>
      <trkpt lat="43.75721" lon="6.32076">
        <ele>818.7</ele>
        <time>2025-11-14T14:32:49Z</time>
      </trkpt>
      <trkpt lat="43.75728" lon="6.32075">
        <ele>817.74</ele>
        <time>2025-11-14T14:32:50Z</time>
      </trkpt>
      <trkpt lat="43.75736" lon="6.32074">
        <ele>817.74</ele>
        <time>2025-11-14T14:32:51Z</time>
      </trkpt>
      <trkpt lat="43.75744" lon="6.32071">
        <ele>816.78</ele>
        <time>2025-11-14T14:32:52Z</time>
      </trkpt>
      <trkpt lat="43.75751" lon="6.32067">
        <ele>816.3</ele>
        <time>2025-11-14T14:32:53Z</time>
      </trkpt>
      <trkpt lat="43.75759" lon="6.32061">
        <ele>815.34</ele>
        <time>2025-11-14T14:32:54Z</time>
      </trkpt>
      <trkpt lat="43.75765" lon="6.32057">
        <ele>815.34</ele>
        <time>2025-11-14T14:32:55Z</time>
      </trkpt>
      <trkpt lat="43.75777" lon="6.32044">
        <ele>813.41</ele>
        <time>2025-11-14T14:32:57Z</time>
      </trkpt>
      <trkpt lat="43.75783" lon="6.32036">
        <ele>813.41</ele>
        <time>2025-11-14T14:32:58Z</time>
      </trkpt>
      <trkpt lat="43.75787" lon="6.32027">
        <ele>812.93</ele>
        <time>2025-11-14T14:32:59Z</time>
      </trkpt>
      <trkpt lat="43.75808" lon="6.31992">
        <ele>810.53</ele>
        <time>2025-11-14T14:33:03Z</time>
      </trkpt>
      <trkpt lat="43.75814" lon="6.31986">
        <ele>809.57</ele>
        <time>2025-11-14T14:33:04Z</time>
      </trkpt>
      <trkpt lat="43.75844" lon="6.31958">
        <ele>806.2</ele>
        <time>2025-11-14T14:33:08Z</time>
      </trkpt>
      <trkpt lat="43.75852" lon="6.31952">
        <ele>805.72</ele>
        <time>2025-11-14T14:33:09Z</time>
      </trkpt>
      <trkpt lat="43.75859" lon="6.31947">
        <ele>805.24</ele>
        <time>2025-11-14T14:33:10Z</time>
      </trkpt>
      <trkpt lat="43.75868" lon="6.31945">
        <ele>804.28</ele>
        <time>2025-11-14T14:33:11Z</time>
      </trkpt>
      <trkpt lat="43.75874" lon="6.31946">
        <ele>804.28</ele>
        <time>2025-11-14T14:33:12Z</time>
      </trkpt>
      <trkpt lat="43.75882" lon="6.3195">
        <ele>804.28</ele>
        <time>2025-11-14T14:33:13Z</time>
      </trkpt>
      <trkpt lat="43.75889" lon="6.31956">
        <ele>804.28</ele>
        <time>2025-11-14T14:33:14Z</time>
      </trkpt>
      <trkpt lat="43.75896" lon="6.31961">
        <ele>803.8</ele>
        <time>2025-11-14T14:33:15Z</time>
      </trkpt>
      <trkpt lat="43.75915" lon="6.31976">
        <ele>803.8</ele>
        <time>2025-11-14T14:33:18Z</time>
      </trkpt>
      <trkpt lat="43.75921" lon="6.31978">
        <ele>803.8</ele>
        <time>2025-11-14T14:33:19Z</time>
      </trkpt>
      <trkpt lat="43.75925" lon="6.31979">
        <ele>803.8</ele>
        <time>2025-11-14T14:33:20Z</time>
      </trkpt>
      <trkpt lat="43.75931" lon="6.31979">
        <ele>803.8</ele>
        <time>2025-11-14T14:33:21Z</time>
      </trkpt>
      <trkpt lat="43.75936" lon="6.31977">
        <ele>803.8</ele>
        <time>2025-11-14T14:33:22Z</time>
      </trkpt>
      <trkpt lat="43.75941" lon="6.31974">
        <ele>803.8</ele>
        <time>2025-11-14T14:33:23Z</time>
      </trkpt>
      <trkpt lat="43.75946" lon="6.3197">
        <ele>803.8</ele>
        <time>2025-11-14T14:33:24Z</time>
      </trkpt>
      <trkpt lat="43.7595" lon="6.31965">
        <ele>803.8</ele>
        <time>2025-11-14T14:33:25Z</time>
      </trkpt>
      <trkpt lat="43.75955" lon="6.31959">
        <ele>803.8</ele>
        <time>2025-11-14T14:33:26Z</time>
      </trkpt>
      <trkpt lat="43.75958" lon="6.31955">
        <ele>803.8</ele>
        <time>2025-11-14T14:33:27Z</time>
      </trkpt>
      <trkpt lat="43.75987" lon="6.31917">
        <ele>803.32</ele>
        <time>2025-11-14T14:33:34Z</time>
      </trkpt>
      <trkpt lat="43.7599" lon="6.31912">
        <ele>803.32</ele>
        <time>2025-11-14T14:33:35Z</time>
      </trkpt>
      <trkpt lat="43.75992" lon="6.31903">
        <ele>803.32</ele>
        <time>2025-11-14T14:33:36Z</time>
      </trkpt>
      <trkpt lat="43.75993" lon="6.31895">
        <ele>803.32</ele>
        <time>2025-11-14T14:33:37Z</time>
      </trkpt>
      <trkpt lat="43.75994" lon="6.31887">
        <ele>803.32</ele>
        <time>2025-11-14T14:33:38Z</time>
      </trkpt>
      <trkpt lat="43.75994" lon="6.31878">
        <ele>803.32</ele>
        <time>2025-11-14T14:33:39Z</time>
      </trkpt>
      <trkpt lat="43.75993" lon="6.3187">
        <ele>802.84</ele>
        <time>2025-11-14T14:33:40Z</time>
      </trkpt>
      <trkpt lat="43.75992" lon="6.3186">
        <ele>802.84</ele>
        <time>2025-11-14T14:33:41Z</time>
      </trkpt>
      <trkpt lat="43.75991" lon="6.31854">
        <ele>802.84</ele>
        <time>2025-11-14T14:33:42Z</time>
      </trkpt>
      <trkpt lat="43.7598" lon="6.31796">
        <ele>801.88</ele>
        <time>2025-11-14T14:33:49Z</time>
      </trkpt>
      <trkpt lat="43.75966" lon="6.31749">
        <ele>801.88</ele>
        <time>2025-11-14T14:33:56Z</time>
      </trkpt>
      <trkpt lat="43.75965" lon="6.31743">
        <ele>801.88</ele>
        <time>2025-11-14T14:33:57Z</time>
      </trkpt>
      <trkpt lat="43.75964" lon="6.31735">
        <ele>801.88</ele>
        <time>2025-11-14T14:33:58Z</time>
      </trkpt>
      <trkpt lat="43.75964" lon="6.31729">
        <ele>803.32</ele>
        <time>2025-11-14T14:33:59Z</time>
      </trkpt>
      <trkpt lat="43.75964" lon="6.31722">
        <ele>803.32</ele>
        <time>2025-11-14T14:34:00Z</time>
      </trkpt>
      <trkpt lat="43.75966" lon="6.31709">
        <ele>803.32</ele>
        <time>2025-11-14T14:34:02Z</time>
      </trkpt>
      <trkpt lat="43.75968" lon="6.31702">
        <ele>804.28</ele>
        <time>2025-11-14T14:34:03Z</time>
      </trkpt>
      <trkpt lat="43.7597" lon="6.31696">
        <ele>804.28</ele>
        <time>2025-11-14T14:34:04Z</time>
      </trkpt>
      <trkpt lat="43.75973" lon="6.31688">
        <ele>804.28</ele>
        <time>2025-11-14T14:34:05Z</time>
      </trkpt>
      <trkpt lat="43.75976" lon="6.31684">
        <ele>804.28</ele>
        <time>2025-11-14T14:34:06Z</time>
      </trkpt>
      <trkpt lat="43.76009" lon="6.31631">
        <ele>807.64</ele>
        <time>2025-11-14T14:34:17Z</time>
      </trkpt>
      <trkpt lat="43.76031" lon="6.31599">
        <ele>808.61</ele>
        <time>2025-11-14T14:34:24Z</time>
      </trkpt>
      <trkpt lat="43.76035" lon="6.31596">
        <ele>808.61</ele>
        <time>2025-11-14T14:34:25Z</time>
      </trkpt>
      <trkpt lat="43.76039" lon="6.31594">
        <ele>809.09</ele>
        <time>2025-11-14T14:34:26Z</time>
      </trkpt>
      <trkpt lat="43.76044" lon="6.31594">
        <ele>809.57</ele>
        <time>2025-11-14T14:34:27Z</time>
      </trkpt>
      <trkpt lat="43.76048" lon="6.31596">
        <ele>809.57</ele>
        <time>2025-11-14T14:34:28Z</time>
      </trkpt>
      <trkpt lat="43.76053" lon="6.31599">
        <ele>810.05</ele>
        <time>2025-11-14T14:34:29Z</time>
      </trkpt>
      <trkpt lat="43.76116" lon="6.31644">
        <ele>811.97</ele>
        <time>2025-11-14T14:34:43Z</time>
      </trkpt>
      <trkpt lat="43.76155" lon="6.31678">
        <ele>812.93</ele>
        <time>2025-11-14T14:34:52Z</time>
      </trkpt>
      <trkpt lat="43.7616" lon="6.3168">
        <ele>812.93</ele>
        <time>2025-11-14T14:34:53Z</time>
      </trkpt>
      <trkpt lat="43.76193" lon="6.31687">
        <ele>813.41</ele>
        <time>2025-11-14T14:35:00Z</time>
      </trkpt>
      <trkpt lat="43.76198" lon="6.31687">
        <ele>814.37</ele>
        <time>2025-11-14T14:35:01Z</time>
      </trkpt>
      <trkpt lat="43.76203" lon="6.31685">
        <ele>814.37</ele>
        <time>2025-11-14T14:35:02Z</time>
      </trkpt>
      <trkpt lat="43.76208" lon="6.31683">
        <ele>814.37</ele>
        <time>2025-11-14T14:35:03Z</time>
      </trkpt>
      <trkpt lat="43.76212" lon="6.3168">
        <ele>814.37</ele>
        <time>2025-11-14T14:35:04Z</time>
      </trkpt>
      <trkpt lat="43.76216" lon="6.31677">
        <ele>814.37</ele>
        <time>2025-11-14T14:35:05Z</time>
      </trkpt>
      <trkpt lat="43.76235" lon="6.31661">
        <ele>814.37</ele>
        <time>2025-11-14T14:35:10Z</time>
      </trkpt>
      <trkpt lat="43.7624" lon="6.31658">
        <ele>814.37</ele>
        <time>2025-11-14T14:35:11Z</time>
      </trkpt>
      <trkpt lat="43.76243" lon="6.31657">
        <ele>814.37</ele>
        <time>2025-11-14T14:35:12Z</time>
      </trkpt>
      <trkpt lat="43.76248" lon="6.31656">
        <ele>814.37</ele>
        <time>2025-11-14T14:35:13Z</time>
      </trkpt>
      <trkpt lat="43.76252" lon="6.31656">
        <ele>814.37</ele>
        <time>2025-11-14T14:35:14Z</time>
      </trkpt>
      <trkpt lat="43.76257" lon="6.31657">
        <ele>814.37</ele>
        <time>2025-11-14T14:35:15Z</time>
      </trkpt>
      <trkpt lat="43.76262" lon="6.3166">
        <ele>814.37</ele>
        <time>2025-11-14T14:35:16Z</time>
      </trkpt>
      <trkpt lat="43.76266" lon="6.31664">
        <ele>814.37</ele>
        <time>2025-11-14T14:35:17Z</time>
      </trkpt>
      <trkpt lat="43.76269" lon="6.31667">
        <ele>814.37</ele>
        <time>2025-11-14T14:35:18Z</time>
      </trkpt>
      <trkpt lat="43.76272" lon="6.31672">
        <ele>814.37</ele>
        <time>2025-11-14T14:35:19Z</time>
      </trkpt>
      <trkpt lat="43.76275" lon="6.31678">
        <ele>814.37</ele>
        <time>2025-11-14T14:35:20Z</time>
      </trkpt>
      <trkpt lat="43.76277" lon="6.31684">
        <ele>814.37</ele>
        <time>2025-11-14T14:35:21Z</time>
      </trkpt>
      <trkpt lat="43.76279" lon="6.31691">
        <ele>814.37</ele>
        <time>2025-11-14T14:35:22Z</time>
      </trkpt>
      <trkpt lat="43.76281" lon="6.31697">
        <ele>814.37</ele>
        <time>2025-11-14T14:35:23Z</time>
      </trkpt>
      <trkpt lat="43.76293" lon="6.31733">
        <ele>814.37</ele>
        <time>2025-11-14T14:35:29Z</time>
      </trkpt>
      <trkpt lat="43.76297" lon="6.31739">
        <ele>814.37</ele>
        <time>2025-11-14T14:35:30Z</time>
      </trkpt>
      <trkpt lat="43.763" lon="6.31743">
        <ele>814.37</ele>
        <time>2025-11-14T14:35:31Z</time>
      </trkpt>
      <trkpt lat="43.76303" lon="6.31747">
        <ele>814.37</ele>
        <time>2025-11-14T14:35:32Z</time>
      </trkpt>
      <trkpt lat="43.76307" lon="6.31751">
        <ele>814.37</ele>
        <time>2025-11-14T14:35:33Z</time>
      </trkpt>
      <trkpt lat="43.76312" lon="6.31754">
        <ele>814.37</ele>
        <time>2025-11-14T14:35:34Z</time>
      </trkpt>
      <trkpt lat="43.76316" lon="6.31757">
        <ele>814.37</ele>
        <time>2025-11-14T14:35:35Z</time>
      </trkpt>
      <trkpt lat="43.76322" lon="6.3176">
        <ele>814.37</ele>
        <time>2025-11-14T14:35:36Z</time>
      </trkpt>
      <trkpt lat="43.76326" lon="6.31761">
        <ele>814.37</ele>
        <time>2025-11-14T14:35:37Z</time>
      </trkpt>
      <trkpt lat="43.7633" lon="6.31763">
        <ele>814.37</ele>
        <time>2025-11-14T14:35:38Z</time>
      </trkpt>
      <trkpt lat="43.76349" lon="6.31768">
        <ele>815.34</ele>
        <time>2025-11-14T14:35:42Z</time>
      </trkpt>
      <trkpt lat="43.76355" lon="6.31771">
        <ele>815.34</ele>
        <time>2025-11-14T14:35:43Z</time>
      </trkpt>
      <trkpt lat="43.76358" lon="6.31773">
        <ele>815.34</ele>
        <time>2025-11-14T14:35:44Z</time>
      </trkpt>
      <trkpt lat="43.76376" lon="6.31786">
        <ele>815.34</ele>
        <time>2025-11-14T14:35:48Z</time>
      </trkpt>
      <trkpt lat="43.7638" lon="6.3179">
        <ele>815.34</ele>
        <time>2025-11-14T14:35:49Z</time>
      </trkpt>
      <trkpt lat="43.76383" lon="6.31794">
        <ele>815.34</ele>
        <time>2025-11-14T14:35:50Z</time>
      </trkpt>
      <trkpt lat="43.76411" lon="6.31835">
        <ele>815.82</ele>
        <time>2025-11-14T14:35:58Z</time>
      </trkpt>
      <trkpt lat="43.76431" lon="6.31887">
        <ele>816.3</ele>
        <time>2025-11-14T14:36:07Z</time>
      </trkpt>
      <trkpt lat="43.76434" lon="6.31892">
        <ele>816.3</ele>
        <time>2025-11-14T14:36:08Z</time>
      </trkpt>
      <trkpt lat="43.76437" lon="6.31895">
        <ele>816.3</ele>
        <time>2025-11-14T14:36:09Z</time>
      </trkpt>
      <trkpt lat="43.76471" lon="6.31931">
        <ele>816.3</ele>
        <time>2025-11-14T14:36:18Z</time>
      </trkpt>
      <trkpt lat="43.76479" lon="6.31948">
        <ele>816.78</ele>
        <time>2025-11-14T14:36:21Z</time>
      </trkpt>
      <trkpt lat="43.76482" lon="6.31954">
        <ele>816.78</ele>
        <time>2025-11-14T14:36:22Z</time>
      </trkpt>
      <trkpt lat="43.76499" lon="6.3201">
        <ele>817.74</ele>
        <time>2025-11-14T14:36:31Z</time>
      </trkpt>
      <trkpt lat="43.76501" lon="6.32015">
        <ele>817.74</ele>
        <time>2025-11-14T14:36:32Z</time>
      </trkpt>
      <trkpt lat="43.76504" lon="6.3202">
        <ele>817.74</ele>
        <time>2025-11-14T14:36:33Z</time>
      </trkpt>
      <trkpt lat="43.76535" lon="6.32067">
        <ele>819.18</ele>
        <time>2025-11-14T14:36:43Z</time>
      </trkpt>
      <trkpt lat="43.76558" lon="6.321">
        <ele>820.14</ele>
        <time>2025-11-14T14:36:50Z</time>
      </trkpt>
      <trkpt lat="43.76584" lon="6.32139">
        <ele>821.58</ele>
        <time>2025-11-14T14:37:00Z</time>
      </trkpt>
      <trkpt lat="43.76607" lon="6.32181">
        <ele>822.06</ele>
        <time>2025-11-14T14:37:10Z</time>
      </trkpt>
      <trkpt lat="43.76624" lon="6.32229">
        <ele>823.51</ele>
        <time>2025-11-14T14:37:20Z</time>
      </trkpt>
      <trkpt lat="43.76642" lon="6.32282">
        <ele>824.47</ele>
        <time>2025-11-14T14:37:31Z</time>
      </trkpt>
      <trkpt lat="43.76665" lon="6.32339">
        <ele>825.91</ele>
        <time>2025-11-14T14:37:43Z</time>
      </trkpt>
      <trkpt lat="43.76695" lon="6.32394">
        <ele>827.35</ele>
        <time>2025-11-14T14:37:56Z</time>
      </trkpt>
      <trkpt lat="43.76717" lon="6.32438">
        <ele>828.31</ele>
        <time>2025-11-14T14:38:06Z</time>
      </trkpt>
      <trkpt lat="43.76732" lon="6.32494">
        <ele>829.76</ele>
        <time>2025-11-14T14:38:17Z</time>
      </trkpt>
      <trkpt lat="43.76753" lon="6.32527">
        <ele>831.2</ele>
        <time>2025-11-14T14:38:26Z</time>
      </trkpt>
      <trkpt lat="43.76768" lon="6.32564">
        <ele>832.64</ele>
        <time>2025-11-14T14:38:34Z</time>
      </trkpt>
      <trkpt lat="43.76766" lon="6.32618">
        <ele>834.56</ele>
        <time>2025-11-14T14:38:45Z</time>
      </trkpt>
      <trkpt lat="43.76772" lon="6.32673">
        <ele>836</ele>
        <time>2025-11-14T14:38:56Z</time>
      </trkpt>
      <trkpt lat="43.76787" lon="6.32711">
        <ele>837.45</ele>
        <time>2025-11-14T14:39:05Z</time>
      </trkpt>
      <trkpt lat="43.76788" lon="6.32747">
        <ele>838.41</ele>
        <time>2025-11-14T14:39:13Z</time>
      </trkpt>
      <trkpt lat="43.76769" lon="6.32787">
        <ele>839.85</ele>
        <time>2025-11-14T14:39:23Z</time>
      </trkpt>
      <trkpt lat="43.7678" lon="6.32811">
        <ele>840.81</ele>
        <time>2025-11-14T14:39:29Z</time>
      </trkpt>
      <trkpt lat="43.76794" lon="6.32809">
        <ele>840.81</ele>
        <time>2025-11-14T14:39:33Z</time>
      </trkpt>
      <trkpt lat="43.76798" lon="6.32806">
        <ele>841.29</ele>
        <time>2025-11-14T14:39:34Z</time>
      </trkpt>
      <trkpt lat="43.76801" lon="6.32803">
        <ele>841.29</ele>
        <time>2025-11-14T14:39:35Z</time>
      </trkpt>
      <trkpt lat="43.76804" lon="6.328">
        <ele>841.77</ele>
        <time>2025-11-14T14:39:36Z</time>
      </trkpt>
      <trkpt lat="43.76806" lon="6.32795">
        <ele>841.77</ele>
        <time>2025-11-14T14:39:37Z</time>
      </trkpt>
      <trkpt lat="43.76808" lon="6.32791">
        <ele>841.77</ele>
        <time>2025-11-14T14:39:38Z</time>
      </trkpt>
      <trkpt lat="43.76825" lon="6.32751">
        <ele>844.18</ele>
        <time>2025-11-14T14:39:48Z</time>
      </trkpt>
      <trkpt lat="43.76826" lon="6.3275">
        <ele>844.18</ele>
        <time>2025-11-14T14:39:49Z</time>
      </trkpt>
      <trkpt lat="43.76829" lon="6.32748">
        <ele>844.18</ele>
        <time>2025-11-14T14:39:50Z</time>
      </trkpt>
      <trkpt lat="43.76833" lon="6.32747">
        <ele>844.18</ele>
        <time>2025-11-14T14:39:51Z</time>
      </trkpt>
      <trkpt lat="43.76835" lon="6.32748">
        <ele>844.66</ele>
        <time>2025-11-14T14:39:52Z</time>
      </trkpt>
      <trkpt lat="43.76837" lon="6.3275">
        <ele>844.66</ele>
        <time>2025-11-14T14:39:53Z</time>
      </trkpt>
      <trkpt lat="43.76839" lon="6.32753">
        <ele>845.14</ele>
        <time>2025-11-14T14:39:54Z</time>
      </trkpt>
      <trkpt lat="43.7684" lon="6.32756">
        <ele>845.14</ele>
        <time>2025-11-14T14:39:55Z</time>
      </trkpt>
      <trkpt lat="43.7684" lon="6.3276">
        <ele>846.1</ele>
        <time>2025-11-14T14:39:56Z</time>
      </trkpt>
      <trkpt lat="43.7684" lon="6.32764">
        <ele>846.1</ele>
        <time>2025-11-14T14:39:57Z</time>
      </trkpt>
      <trkpt lat="43.76838" lon="6.32768">
        <ele>846.1</ele>
        <time>2025-11-14T14:39:58Z</time>
      </trkpt>
      <trkpt lat="43.76838" lon="6.32771">
        <ele>846.58</ele>
        <time>2025-11-14T14:39:59Z</time>
      </trkpt>
      <trkpt lat="43.76836" lon="6.32774">
        <ele>847.06</ele>
        <time>2025-11-14T14:40:00Z</time>
      </trkpt>
      <trkpt lat="43.76834" lon="6.32777">
        <ele>847.06</ele>
        <time>2025-11-14T14:40:01Z</time>
      </trkpt>
      <trkpt lat="43.76833" lon="6.32781">
        <ele>847.06</ele>
        <time>2025-11-14T14:40:02Z</time>
      </trkpt>
      <trkpt lat="43.7682" lon="6.32817">
        <ele>849.46</ele>
        <time>2025-11-14T14:40:13Z</time>
      </trkpt>
      <trkpt lat="43.76809" lon="6.32857">
        <ele>851.87</ele>
        <time>2025-11-14T14:40:24Z</time>
      </trkpt>
      <trkpt lat="43.76802" lon="6.3289">
        <ele>853.31</ele>
        <time>2025-11-14T14:40:33Z</time>
      </trkpt>
      <trkpt lat="43.76802" lon="6.32895">
        <ele>853.79</ele>
        <time>2025-11-14T14:40:34Z</time>
      </trkpt>
      <trkpt lat="43.76801" lon="6.329">
        <ele>854.27</ele>
        <time>2025-11-14T14:40:35Z</time>
      </trkpt>
      <trkpt lat="43.76801" lon="6.32903">
        <ele>853.79</ele>
        <time>2025-11-14T14:40:36Z</time>
      </trkpt>
      <trkpt lat="43.76805" lon="6.3294">
        <ele>855.71</ele>
        <time>2025-11-14T14:40:45Z</time>
      </trkpt>
      <trkpt lat="43.7682" lon="6.32988">
        <ele>858.59</ele>
        <time>2025-11-14T14:40:58Z</time>
      </trkpt>
      <trkpt lat="43.76842" lon="6.3301">
        <ele>859.56</ele>
        <time>2025-11-14T14:41:07Z</time>
      </trkpt>
      <trkpt lat="43.76867" lon="6.33035">
        <ele>861.96</ele>
        <time>2025-11-14T14:41:17Z</time>
      </trkpt>
      <trkpt lat="43.769" lon="6.33056">
        <ele>865.32</ele>
        <time>2025-11-14T14:41:28Z</time>
      </trkpt>
      <trkpt lat="43.76903" lon="6.33057">
        <ele>865.32</ele>
        <time>2025-11-14T14:41:29Z</time>
      </trkpt>
      <trkpt lat="43.7691" lon="6.3306">
        <ele>863.88</ele>
        <time>2025-11-14T14:41:31Z</time>
      </trkpt>
      <trkpt lat="43.76941" lon="6.33076">
        <ele>865.32</ele>
        <time>2025-11-14T14:41:41Z</time>
      </trkpt>
      <trkpt lat="43.76969" lon="6.33106">
        <ele>867.25</ele>
        <time>2025-11-14T14:41:52Z</time>
      </trkpt>
      <trkpt lat="43.77001" lon="6.33146">
        <ele>871.09</ele>
        <time>2025-11-14T14:42:05Z</time>
      </trkpt>
      <trkpt lat="43.77027" lon="6.33182">
        <ele>873.98</ele>
        <time>2025-11-14T14:42:17Z</time>
      </trkpt>
      <trkpt lat="43.77051" lon="6.33224">
        <ele>875.9</ele>
        <time>2025-11-14T14:42:29Z</time>
      </trkpt>
      <trkpt lat="43.77075" lon="6.33267">
        <ele>877.34</ele>
        <time>2025-11-14T14:42:41Z</time>
      </trkpt>
      <trkpt lat="43.77104" lon="6.33311">
        <ele>879.26</ele>
        <time>2025-11-14T14:42:54Z</time>
      </trkpt>
      <trkpt lat="43.77129" lon="6.33366">
        <ele>881.19</ele>
        <time>2025-11-14T14:43:07Z</time>
      </trkpt>
      <trkpt lat="43.77139" lon="6.33418">
        <ele>882.63</ele>
        <time>2025-11-14T14:43:18Z</time>
      </trkpt>
      <trkpt lat="43.77157" lon="6.33454">
        <ele>885.03</ele>
        <time>2025-11-14T14:43:28Z</time>
      </trkpt>
      <trkpt lat="43.77189" lon="6.33471">
        <ele>886.95</ele>
        <time>2025-11-14T14:43:38Z</time>
      </trkpt>
      <trkpt lat="43.77211" lon="6.33508">
        <ele>888.88</ele>
        <time>2025-11-14T14:43:48Z</time>
      </trkpt>
      <trkpt lat="43.77229" lon="6.3357">
        <ele>892.24</ele>
        <time>2025-11-14T14:44:02Z</time>
      </trkpt>
      <trkpt lat="43.77253" lon="6.33609">
        <ele>895.12</ele>
        <time>2025-11-14T14:44:13Z</time>
      </trkpt>
      <trkpt lat="43.77279" lon="6.336">
        <ele>896.57</ele>
        <time>2025-11-14T14:44:21Z</time>
      </trkpt>
      <trkpt lat="43.7731" lon="6.33592">
        <ele>898.97</ele>
        <time>2025-11-14T14:44:31Z</time>
      </trkpt>
      <trkpt lat="43.77321" lon="6.33603">
        <ele>900.89</ele>
        <time>2025-11-14T14:44:35Z</time>
      </trkpt>
      <trkpt lat="43.77344" lon="6.33647">
        <ele>904.26</ele>
        <time>2025-11-14T14:44:46Z</time>
      </trkpt>
      <trkpt lat="43.7738" lon="6.33679">
        <ele>907.14</ele>
        <time>2025-11-14T14:44:58Z</time>
      </trkpt>
      <trkpt lat="43.77422" lon="6.33698">
        <ele>910.03</ele>
        <time>2025-11-14T14:45:11Z</time>
      </trkpt>
      <trkpt lat="43.77469" lon="6.33721">
        <ele>912.91</ele>
        <time>2025-11-14T14:45:25Z</time>
      </trkpt>
      <trkpt lat="43.77495" lon="6.33749">
        <ele>914.83</ele>
        <time>2025-11-14T14:45:35Z</time>
      </trkpt>
      <trkpt lat="43.77489" lon="6.33784">
        <ele>916.75</ele>
        <time>2025-11-14T14:45:43Z</time>
      </trkpt>
      <trkpt lat="43.77465" lon="6.33837">
        <ele>920.12</ele>
        <time>2025-11-14T14:45:56Z</time>
      </trkpt>
      <trkpt lat="43.77453" lon="6.33887">
        <ele>922.04</ele>
        <time>2025-11-14T14:46:07Z</time>
      </trkpt>
      <trkpt lat="43.77454" lon="6.33967">
        <ele>923.96</ele>
        <time>2025-11-14T14:46:23Z</time>
      </trkpt>
      <trkpt lat="43.77472" lon="6.34029">
        <ele>925.89</ele>
        <time>2025-11-14T14:46:37Z</time>
      </trkpt>
      <trkpt lat="43.77489" lon="6.34057">
        <ele>926.37</ele>
        <time>2025-11-14T14:46:46Z</time>
      </trkpt>
      <trkpt lat="43.77521" lon="6.34108">
        <ele>927.81</ele>
        <time>2025-11-14T14:47:00Z</time>
      </trkpt>
      <trkpt lat="43.77529" lon="6.34113">
        <ele>928.29</ele>
        <time>2025-11-14T14:47:03Z</time>
      </trkpt>
      <trkpt lat="43.77531" lon="6.34113">
        <ele>928.29</ele>
        <time>2025-11-14T14:47:04Z</time>
      </trkpt>
      <trkpt lat="43.77545" lon="6.34113">
        <ele>928.77</ele>
        <time>2025-11-14T14:47:12Z</time>
      </trkpt>
      <trkpt lat="43.77557" lon="6.34107">
        <ele>926.85</ele>
        <time>2025-11-14T14:47:17Z</time>
      </trkpt>
      <trkpt lat="43.77558" lon="6.34107">
        <ele>926.85</ele>
        <time>2025-11-14T14:47:18Z</time>
      </trkpt>
      <trkpt lat="43.7756" lon="6.34107">
        <ele>926.85</ele>
        <time>2025-11-14T14:47:19Z</time>
      </trkpt>
      <trkpt lat="43.77563" lon="6.34109">
        <ele>925.89</ele>
        <time>2025-11-14T14:47:20Z</time>
      </trkpt>
      <trkpt lat="43.77564" lon="6.34111">
        <ele>925.41</ele>
        <time>2025-11-14T14:47:21Z</time>
      </trkpt>
      <trkpt lat="43.77566" lon="6.34113">
        <ele>924.93</ele>
        <time>2025-11-14T14:47:22Z</time>
      </trkpt>
      <trkpt lat="43.77569" lon="6.34116">
        <ele>924.93</ele>
        <time>2025-11-14T14:47:23Z</time>
      </trkpt>
      <trkpt lat="43.77571" lon="6.3412">
        <ele>924.45</ele>
        <time>2025-11-14T14:47:24Z</time>
      </trkpt>
      <trkpt lat="43.77582" lon="6.34139">
        <ele>920.6</ele>
        <time>2025-11-14T14:47:30Z</time>
      </trkpt>
      <trkpt lat="43.77597" lon="6.34152">
        <ele>917.72</ele>
        <time>2025-11-14T14:47:35Z</time>
      </trkpt>
      <trkpt lat="43.776" lon="6.34153">
        <ele>917.24</ele>
        <time>2025-11-14T14:47:36Z</time>
      </trkpt>
      <trkpt lat="43.77605" lon="6.34155">
        <ele>917.24</ele>
        <time>2025-11-14T14:47:37Z</time>
      </trkpt>
      <trkpt lat="43.7761" lon="6.34156">
        <ele>916.27</ele>
        <time>2025-11-14T14:47:38Z</time>
      </trkpt>
      <trkpt lat="43.77629" lon="6.34159">
        <ele>915.31</ele>
        <time>2025-11-14T14:47:41Z</time>
      </trkpt>
      <trkpt lat="43.77695" lon="6.34165">
        <ele>913.87</ele>
        <time>2025-11-14T14:47:52Z</time>
      </trkpt>
      <trkpt lat="43.77756" lon="6.3417">
        <ele>913.87</ele>
        <time>2025-11-14T14:48:04Z</time>
      </trkpt>
      <trkpt lat="43.77815" lon="6.34176">
        <ele>913.87</ele>
        <time>2025-11-14T14:48:16Z</time>
      </trkpt>
      <trkpt lat="43.7782" lon="6.34177">
        <ele>913.87</ele>
        <time>2025-11-14T14:48:17Z</time>
      </trkpt>
      <trkpt lat="43.77864" lon="6.34177">
        <ele>915.79</ele>
        <time>2025-11-14T14:48:28Z</time>
      </trkpt>
      <trkpt lat="43.77882" lon="6.3417">
        <ele>917.24</ele>
        <time>2025-11-14T14:48:38Z</time>
      </trkpt>
      <trkpt lat="43.77883" lon="6.3417">
        <ele>917.24</ele>
        <time>2025-11-14T14:48:39Z</time>
      </trkpt>
      <trkpt lat="43.77885" lon="6.34172">
        <ele>917.24</ele>
        <time>2025-11-14T14:48:41Z</time>
      </trkpt>
      <trkpt lat="43.77888" lon="6.34176">
        <ele>917.24</ele>
        <time>2025-11-14T14:48:42Z</time>
      </trkpt>
      <trkpt lat="43.7789" lon="6.3418">
        <ele>917.24</ele>
        <time>2025-11-14T14:48:43Z</time>
      </trkpt>
      <trkpt lat="43.7789" lon="6.34184">
        <ele>917.24</ele>
        <time>2025-11-14T14:48:44Z</time>
      </trkpt>
      <trkpt lat="43.77891" lon="6.3419">
        <ele>917.24</ele>
        <time>2025-11-14T14:48:45Z</time>
      </trkpt>
      <trkpt lat="43.77897" lon="6.34214">
        <ele>915.31</ele>
        <time>2025-11-14T14:48:50Z</time>
      </trkpt>
      <trkpt lat="43.77904" lon="6.3425">
        <ele>914.35</ele>
        <time>2025-11-14T14:49:00Z</time>
      </trkpt>
      <trkpt lat="43.77905" lon="6.34258">
        <ele>913.87</ele>
        <time>2025-11-14T14:49:04Z</time>
      </trkpt>
      <trkpt lat="43.77905" lon="6.3426">
        <ele>913.87</ele>
        <time>2025-11-14T14:49:05Z</time>
      </trkpt>
      <trkpt lat="43.77905" lon="6.34262">
        <ele>913.87</ele>
        <time>2025-11-14T14:49:06Z</time>
      </trkpt>
      <trkpt lat="43.77904" lon="6.34263">
        <ele>913.87</ele>
        <time>2025-11-14T14:49:07Z</time>
      </trkpt>
      <trkpt lat="43.77902" lon="6.34264">
        <ele>913.39</ele>
        <time>2025-11-14T14:49:09Z</time>
      </trkpt>
      <trkpt lat="43.77902" lon="6.34264">
        <ele>913.39</ele>
        <time>2025-11-14T14:49:10Z</time>
      </trkpt>
      <trkpt lat="43.77902" lon="6.34263">
        <ele>913.39</ele>
        <time>2025-11-14T14:49:11Z</time>
      </trkpt>
      <trkpt lat="43.77902" lon="6.3426">
        <ele>913.39</ele>
        <time>2025-11-14T14:49:12Z</time>
      </trkpt>
      <trkpt lat="43.77902" lon="6.34257">
        <ele>913.39</ele>
        <time>2025-11-14T14:49:13Z</time>
      </trkpt>
      <trkpt lat="43.77903" lon="6.34253">
        <ele>913.39</ele>
        <time>2025-11-14T14:49:14Z</time>
      </trkpt>
      <trkpt lat="43.77899" lon="6.34216">
        <ele>914.83</ele>
        <time>2025-11-14T14:49:22Z</time>
      </trkpt>
      <trkpt lat="43.77893" lon="6.34186">
        <ele>916.27</ele>
        <time>2025-11-14T14:49:31Z</time>
      </trkpt>
      <trkpt lat="43.77892" lon="6.34125">
        <ele>919.64</ele>
        <time>2025-11-14T14:49:43Z</time>
      </trkpt>
      <trkpt lat="43.7791" lon="6.3407">
        <ele>922.52</ele>
        <time>2025-11-14T14:49:54Z</time>
      </trkpt>
      <trkpt lat="43.77913" lon="6.34064">
        <ele>923</ele>
        <time>2025-11-14T14:49:55Z</time>
      </trkpt>
      <trkpt lat="43.77915" lon="6.34061">
        <ele>923.48</ele>
        <time>2025-11-14T14:49:56Z</time>
      </trkpt>
      <trkpt lat="43.77924" lon="6.3405">
        <ele>924.45</ele>
        <time>2025-11-14T14:49:59Z</time>
      </trkpt>
      <trkpt lat="43.77927" lon="6.34047">
        <ele>924.45</ele>
        <time>2025-11-14T14:50:00Z</time>
      </trkpt>
      <trkpt lat="43.77957" lon="6.34027">
        <ele>927.33</ele>
        <time>2025-11-14T14:50:09Z</time>
      </trkpt>
      <trkpt lat="43.77978" lon="6.3403">
        <ele>928.77</ele>
        <time>2025-11-14T14:50:17Z</time>
      </trkpt>
      <trkpt lat="43.77979" lon="6.34034">
        <ele>928.77</ele>
        <time>2025-11-14T14:50:18Z</time>
      </trkpt>
      <trkpt lat="43.7798" lon="6.34038">
        <ele>928.77</ele>
        <time>2025-11-14T14:50:19Z</time>
      </trkpt>
      <trkpt lat="43.7798" lon="6.34043">
        <ele>928.77</ele>
        <time>2025-11-14T14:50:20Z</time>
      </trkpt>
      <trkpt lat="43.7798" lon="6.34048">
        <ele>928.77</ele>
        <time>2025-11-14T14:50:21Z</time>
      </trkpt>
      <trkpt lat="43.77992" lon="6.34098">
        <ele>928.77</ele>
        <time>2025-11-14T14:50:32Z</time>
      </trkpt>
      <trkpt lat="43.78006" lon="6.34126">
        <ele>927.33</ele>
        <time>2025-11-14T14:50:38Z</time>
      </trkpt>
      <trkpt lat="43.78019" lon="6.3418">
        <ele>924.45</ele>
        <time>2025-11-14T14:50:48Z</time>
      </trkpt>
      <trkpt lat="43.78021" lon="6.34186">
        <ele>924.45</ele>
        <time>2025-11-14T14:50:49Z</time>
      </trkpt>
      <trkpt lat="43.78032" lon="6.34244">
        <ele>921.56</ele>
        <time>2025-11-14T14:51:00Z</time>
      </trkpt>
      <trkpt lat="43.7803" lon="6.34245">
        <ele>921.08</ele>
        <time>2025-11-14T14:51:01Z</time>
      </trkpt>
      <trkpt lat="43.78028" lon="6.34245">
        <ele>921.56</ele>
        <time>2025-11-14T14:51:02Z</time>
      </trkpt>
      <trkpt lat="43.78025" lon="6.34245">
        <ele>921.56</ele>
        <time>2025-11-14T14:51:03Z</time>
      </trkpt>
      <trkpt lat="43.78024" lon="6.34244">
        <ele>921.56</ele>
        <time>2025-11-14T14:51:04Z</time>
      </trkpt>
      <trkpt lat="43.78014" lon="6.34237">
        <ele>923</ele>
        <time>2025-11-14T14:51:08Z</time>
      </trkpt>
      <trkpt lat="43.78001" lon="6.34229">
        <ele>923.96</ele>
        <time>2025-11-14T14:51:17Z</time>
      </trkpt>
      <trkpt lat="43.77998" lon="6.34228">
        <ele>920.12</ele>
        <time>2025-11-14T14:51:28Z</time>
      </trkpt>
      <trkpt lat="43.77998" lon="6.34228">
        <ele>923</ele>
        <time>2025-11-14T14:51:29Z</time>
      </trkpt>
      <trkpt lat="43.77998" lon="6.34228">
        <ele>927.81</ele>
        <time>2025-11-14T14:51:30Z</time>
      </trkpt>
      <trkpt lat="43.77998" lon="6.34228">
        <ele>925.41</ele>
        <time>2025-11-14T14:51:31Z</time>
      </trkpt>
      <trkpt lat="43.77997" lon="6.34227">
        <ele>923.96</ele>
        <time>2025-11-14T14:51:33Z</time>
      </trkpt>
      <trkpt lat="43.77996" lon="6.34227">
        <ele>922.52</ele>
        <time>2025-11-14T14:51:36Z</time>
      </trkpt>
    </trkseg>
  </trk>
</gpx>